<?xml version="1.0" encoding="UTF-8" standalone="no" ?>
<gpx xmlns="http://www.topografix.com/GPX/1/1" xmlns:xsi="http://www.w3.org/2001/XMLSchema-instance" xsi:schemaLocation="http://www.topografix.com/GPX/1/1 http://www.topografix.com/GPX/1/1/gpx.xsd" version="1.1" creator="VisuGPX - https://www.visugpx.com">
  <metadata>
    <name>chambon,thaury,dol</name>
    <desc><![CDATA[depart du parking de l office du tourisme,direction evaux apres le pont prendre adroite route de barbeyrat,thaury,riere,rierette,bazaneix,dol,chambon]]></desc>
  </metadata>
  <trk>
    <name><![CDATA[chambon,thaury,dol_1]]></name>
    <trkseg>
      <trkpt lat="46.18857" lon="2.42535">
        <ele>338</ele>
        <time>2017-04-10T13:13:54Z</time>
      </trkpt>
      <trkpt lat="46.18846" lon="2.42572">
        <ele>338</ele>
        <time>2017-04-10T13:14:17Z</time>
      </trkpt>
      <trkpt lat="46.18845" lon="2.42577">
        <ele>338</ele>
        <time>2017-04-10T13:14:20Z</time>
      </trkpt>
      <trkpt lat="46.18845" lon="2.42583">
        <ele>338</ele>
        <time>2017-04-10T13:14:23Z</time>
      </trkpt>
      <trkpt lat="46.18844" lon="2.42588">
        <ele>338</ele>
        <time>2017-04-10T13:14:26Z</time>
      </trkpt>
      <trkpt lat="46.18843" lon="2.42593">
        <ele>338</ele>
        <time>2017-04-10T13:14:29Z</time>
      </trkpt>
      <trkpt lat="46.18844" lon="2.426">
        <ele>338</ele>
        <time>2017-04-10T13:14:33Z</time>
      </trkpt>
      <trkpt lat="46.18843" lon="2.42606">
        <ele>338</ele>
        <time>2017-04-10T13:14:36Z</time>
      </trkpt>
      <trkpt lat="46.18842" lon="2.42611">
        <ele>338</ele>
        <time>2017-04-10T13:14:39Z</time>
      </trkpt>
      <trkpt lat="46.18841" lon="2.42617">
        <ele>338</ele>
        <time>2017-04-10T13:14:44Z</time>
      </trkpt>
      <trkpt lat="46.1884" lon="2.42621">
        <ele>339</ele>
        <time>2017-04-10T13:14:47Z</time>
      </trkpt>
      <trkpt lat="46.18839" lon="2.42627">
        <ele>339</ele>
        <time>2017-04-10T13:14:50Z</time>
      </trkpt>
      <trkpt lat="46.1884" lon="2.42632">
        <ele>339</ele>
        <time>2017-04-10T13:14:53Z</time>
      </trkpt>
      <trkpt lat="46.18841" lon="2.42637">
        <ele>341</ele>
        <time>2017-04-10T13:14:56Z</time>
      </trkpt>
      <trkpt lat="46.18841" lon="2.42642">
        <ele>342</ele>
        <time>2017-04-10T13:14:59Z</time>
      </trkpt>
      <trkpt lat="46.18841" lon="2.42648">
        <ele>344</ele>
        <time>2017-04-10T13:15:02Z</time>
      </trkpt>
      <trkpt lat="46.18841" lon="2.42654">
        <ele>346</ele>
        <time>2017-04-10T13:15:05Z</time>
      </trkpt>
      <trkpt lat="46.18842" lon="2.4266">
        <ele>347</ele>
        <time>2017-04-10T13:15:08Z</time>
      </trkpt>
      <trkpt lat="46.18841" lon="2.42666">
        <ele>347</ele>
        <time>2017-04-10T13:15:11Z</time>
      </trkpt>
      <trkpt lat="46.18841" lon="2.42672">
        <ele>347</ele>
        <time>2017-04-10T13:15:14Z</time>
      </trkpt>
      <trkpt lat="46.1884" lon="2.42678">
        <ele>347</ele>
        <time>2017-04-10T13:15:17Z</time>
      </trkpt>
      <trkpt lat="46.1884" lon="2.42684">
        <ele>347</ele>
        <time>2017-04-10T13:15:20Z</time>
      </trkpt>
      <trkpt lat="46.18839" lon="2.4269">
        <ele>347</ele>
        <time>2017-04-10T13:15:23Z</time>
      </trkpt>
      <trkpt lat="46.18837" lon="2.42696">
        <ele>347</ele>
        <time>2017-04-10T13:15:26Z</time>
      </trkpt>
      <trkpt lat="46.18835" lon="2.42702">
        <ele>347</ele>
        <time>2017-04-10T13:15:29Z</time>
      </trkpt>
      <trkpt lat="46.18832" lon="2.42707">
        <ele>347</ele>
        <time>2017-04-10T13:15:32Z</time>
      </trkpt>
      <trkpt lat="46.1883" lon="2.42712">
        <ele>347</ele>
        <time>2017-04-10T13:15:35Z</time>
      </trkpt>
      <trkpt lat="46.18828" lon="2.42718">
        <ele>345</ele>
        <time>2017-04-10T13:15:38Z</time>
      </trkpt>
      <trkpt lat="46.18826" lon="2.42723">
        <ele>345</ele>
        <time>2017-04-10T13:15:41Z</time>
      </trkpt>
      <trkpt lat="46.18824" lon="2.42728">
        <ele>345</ele>
        <time>2017-04-10T13:15:44Z</time>
      </trkpt>
      <trkpt lat="46.18821" lon="2.42733">
        <ele>345</ele>
        <time>2017-04-10T13:15:47Z</time>
      </trkpt>
      <trkpt lat="46.1882" lon="2.42739">
        <ele>344</ele>
        <time>2017-04-10T13:15:50Z</time>
      </trkpt>
      <trkpt lat="46.1882" lon="2.42744">
        <ele>343</ele>
        <time>2017-04-10T13:15:53Z</time>
      </trkpt>
      <trkpt lat="46.18819" lon="2.4275">
        <ele>343</ele>
        <time>2017-04-10T13:15:56Z</time>
      </trkpt>
      <trkpt lat="46.18818" lon="2.42756">
        <ele>343</ele>
        <time>2017-04-10T13:15:59Z</time>
      </trkpt>
      <trkpt lat="46.18818" lon="2.42762">
        <ele>343</ele>
        <time>2017-04-10T13:16:02Z</time>
      </trkpt>
      <trkpt lat="46.18817" lon="2.42769">
        <ele>343</ele>
        <time>2017-04-10T13:16:05Z</time>
      </trkpt>
      <trkpt lat="46.18816" lon="2.42775">
        <ele>343</ele>
        <time>2017-04-10T13:16:08Z</time>
      </trkpt>
      <trkpt lat="46.18813" lon="2.42784">
        <ele>342</ele>
        <time>2017-04-10T13:16:12Z</time>
      </trkpt>
      <trkpt lat="46.18813" lon="2.4279">
        <ele>341</ele>
        <time>2017-04-10T13:16:15Z</time>
      </trkpt>
      <trkpt lat="46.1881" lon="2.42795">
        <ele>341</ele>
        <time>2017-04-10T13:16:18Z</time>
      </trkpt>
      <trkpt lat="46.18807" lon="2.42801">
        <ele>341</ele>
        <time>2017-04-10T13:16:21Z</time>
      </trkpt>
      <trkpt lat="46.18804" lon="2.42806">
        <ele>341</ele>
        <time>2017-04-10T13:16:24Z</time>
      </trkpt>
      <trkpt lat="46.188" lon="2.42811">
        <ele>341</ele>
        <time>2017-04-10T13:16:27Z</time>
      </trkpt>
      <trkpt lat="46.18797" lon="2.42815">
        <ele>341</ele>
        <time>2017-04-10T13:16:30Z</time>
      </trkpt>
      <trkpt lat="46.18794" lon="2.4282">
        <ele>341</ele>
        <time>2017-04-10T13:16:33Z</time>
      </trkpt>
      <trkpt lat="46.1879" lon="2.42824">
        <ele>341</ele>
        <time>2017-04-10T13:16:36Z</time>
      </trkpt>
      <trkpt lat="46.18787" lon="2.42828">
        <ele>341</ele>
        <time>2017-04-10T13:16:39Z</time>
      </trkpt>
      <trkpt lat="46.18782" lon="2.42831">
        <ele>341</ele>
        <time>2017-04-10T13:16:42Z</time>
      </trkpt>
      <trkpt lat="46.18779" lon="2.42834">
        <ele>341</ele>
        <time>2017-04-10T13:16:45Z</time>
      </trkpt>
      <trkpt lat="46.18775" lon="2.42837">
        <ele>341</ele>
        <time>2017-04-10T13:16:48Z</time>
      </trkpt>
      <trkpt lat="46.18772" lon="2.42841">
        <ele>341</ele>
        <time>2017-04-10T13:16:51Z</time>
      </trkpt>
      <trkpt lat="46.18769" lon="2.42845">
        <ele>341</ele>
        <time>2017-04-10T13:16:54Z</time>
      </trkpt>
      <trkpt lat="46.18765" lon="2.42848">
        <ele>341</ele>
        <time>2017-04-10T13:16:57Z</time>
      </trkpt>
      <trkpt lat="46.18761" lon="2.4285">
        <ele>341</ele>
        <time>2017-04-10T13:17:00Z</time>
      </trkpt>
      <trkpt lat="46.18757" lon="2.42853">
        <ele>341</ele>
        <time>2017-04-10T13:17:03Z</time>
      </trkpt>
      <trkpt lat="46.18753" lon="2.42857">
        <ele>341</ele>
        <time>2017-04-10T13:17:06Z</time>
      </trkpt>
      <trkpt lat="46.1875" lon="2.42859">
        <ele>341</ele>
        <time>2017-04-10T13:17:09Z</time>
      </trkpt>
      <trkpt lat="46.18748" lon="2.42861">
        <ele>341</ele>
        <time>2017-04-10T13:17:17Z</time>
      </trkpt>
      <trkpt lat="46.18745" lon="2.42864">
        <ele>341</ele>
        <time>2017-04-10T13:17:20Z</time>
      </trkpt>
      <trkpt lat="46.18741" lon="2.42867">
        <ele>341</ele>
        <time>2017-04-10T13:17:23Z</time>
      </trkpt>
      <trkpt lat="46.18737" lon="2.4287">
        <ele>341</ele>
        <time>2017-04-10T13:17:26Z</time>
      </trkpt>
      <trkpt lat="46.18733" lon="2.42874">
        <ele>341</ele>
        <time>2017-04-10T13:17:29Z</time>
      </trkpt>
      <trkpt lat="46.18728" lon="2.42877">
        <ele>341</ele>
        <time>2017-04-10T13:17:32Z</time>
      </trkpt>
      <trkpt lat="46.18723" lon="2.42876">
        <ele>341</ele>
        <time>2017-04-10T13:17:35Z</time>
      </trkpt>
      <trkpt lat="46.18719" lon="2.42873">
        <ele>341</ele>
        <time>2017-04-10T13:17:38Z</time>
      </trkpt>
      <trkpt lat="46.18715" lon="2.42868">
        <ele>341</ele>
        <time>2017-04-10T13:17:41Z</time>
      </trkpt>
      <trkpt lat="46.18712" lon="2.42864">
        <ele>341</ele>
        <time>2017-04-10T13:17:44Z</time>
      </trkpt>
      <trkpt lat="46.18709" lon="2.4286">
        <ele>341</ele>
        <time>2017-04-10T13:17:47Z</time>
      </trkpt>
      <trkpt lat="46.18707" lon="2.42854">
        <ele>341</ele>
        <time>2017-04-10T13:17:50Z</time>
      </trkpt>
      <trkpt lat="46.18704" lon="2.42849">
        <ele>341</ele>
        <time>2017-04-10T13:17:53Z</time>
      </trkpt>
      <trkpt lat="46.18702" lon="2.42845">
        <ele>341</ele>
        <time>2017-04-10T13:17:56Z</time>
      </trkpt>
      <trkpt lat="46.18697" lon="2.42839">
        <ele>341</ele>
        <time>2017-04-10T13:18:00Z</time>
      </trkpt>
      <trkpt lat="46.18694" lon="2.42833">
        <ele>340</ele>
        <time>2017-04-10T13:18:03Z</time>
      </trkpt>
      <trkpt lat="46.1869" lon="2.42828">
        <ele>339</ele>
        <time>2017-04-10T13:18:06Z</time>
      </trkpt>
      <trkpt lat="46.18688" lon="2.42824">
        <ele>339</ele>
        <time>2017-04-10T13:18:09Z</time>
      </trkpt>
      <trkpt lat="46.18685" lon="2.42819">
        <ele>339</ele>
        <time>2017-04-10T13:18:12Z</time>
      </trkpt>
      <trkpt lat="46.18683" lon="2.42813">
        <ele>339</ele>
        <time>2017-04-10T13:18:15Z</time>
      </trkpt>
      <trkpt lat="46.1868" lon="2.42808">
        <ele>339</ele>
        <time>2017-04-10T13:18:18Z</time>
      </trkpt>
      <trkpt lat="46.18678" lon="2.42802">
        <ele>339</ele>
        <time>2017-04-10T13:18:21Z</time>
      </trkpt>
      <trkpt lat="46.18674" lon="2.42796">
        <ele>339</ele>
        <time>2017-04-10T13:18:24Z</time>
      </trkpt>
      <trkpt lat="46.18671" lon="2.4279">
        <ele>339</ele>
        <time>2017-04-10T13:18:27Z</time>
      </trkpt>
      <trkpt lat="46.18669" lon="2.42785">
        <ele>339</ele>
        <time>2017-04-10T13:18:30Z</time>
      </trkpt>
      <trkpt lat="46.18666" lon="2.42779">
        <ele>339</ele>
        <time>2017-04-10T13:18:33Z</time>
      </trkpt>
      <trkpt lat="46.18663" lon="2.42773">
        <ele>339</ele>
        <time>2017-04-10T13:18:36Z</time>
      </trkpt>
      <trkpt lat="46.18661" lon="2.42768">
        <ele>339</ele>
        <time>2017-04-10T13:18:39Z</time>
      </trkpt>
      <trkpt lat="46.18658" lon="2.42763">
        <ele>339</ele>
        <time>2017-04-10T13:18:42Z</time>
      </trkpt>
      <trkpt lat="46.18656" lon="2.42758">
        <ele>339</ele>
        <time>2017-04-10T13:18:45Z</time>
      </trkpt>
      <trkpt lat="46.18654" lon="2.42753">
        <ele>339</ele>
        <time>2017-04-10T13:18:48Z</time>
      </trkpt>
      <trkpt lat="46.18651" lon="2.42746">
        <ele>339</ele>
        <time>2017-04-10T13:18:52Z</time>
      </trkpt>
      <trkpt lat="46.18649" lon="2.42741">
        <ele>339</ele>
        <time>2017-04-10T13:18:55Z</time>
      </trkpt>
      <trkpt lat="46.18646" lon="2.42736">
        <ele>339</ele>
        <time>2017-04-10T13:18:58Z</time>
      </trkpt>
      <trkpt lat="46.18644" lon="2.42731">
        <ele>339</ele>
        <time>2017-04-10T13:19:01Z</time>
      </trkpt>
      <trkpt lat="46.18641" lon="2.42725">
        <ele>339</ele>
        <time>2017-04-10T13:19:04Z</time>
      </trkpt>
      <trkpt lat="46.18638" lon="2.42721">
        <ele>339</ele>
        <time>2017-04-10T13:19:07Z</time>
      </trkpt>
      <trkpt lat="46.18635" lon="2.42716">
        <ele>339</ele>
        <time>2017-04-10T13:19:10Z</time>
      </trkpt>
      <trkpt lat="46.18632" lon="2.42712">
        <ele>339</ele>
        <time>2017-04-10T13:19:13Z</time>
      </trkpt>
      <trkpt lat="46.18628" lon="2.42707">
        <ele>339</ele>
        <time>2017-04-10T13:19:17Z</time>
      </trkpt>
      <trkpt lat="46.18625" lon="2.42704">
        <ele>339</ele>
        <time>2017-04-10T13:19:20Z</time>
      </trkpt>
      <trkpt lat="46.18621" lon="2.427">
        <ele>339</ele>
        <time>2017-04-10T13:19:23Z</time>
      </trkpt>
      <trkpt lat="46.18617" lon="2.42697">
        <ele>339</ele>
        <time>2017-04-10T13:19:26Z</time>
      </trkpt>
      <trkpt lat="46.18613" lon="2.42694">
        <ele>339</ele>
        <time>2017-04-10T13:19:29Z</time>
      </trkpt>
      <trkpt lat="46.18609" lon="2.42691">
        <ele>339</ele>
        <time>2017-04-10T13:19:32Z</time>
      </trkpt>
      <trkpt lat="46.18605" lon="2.42689">
        <ele>339</ele>
        <time>2017-04-10T13:19:35Z</time>
      </trkpt>
      <trkpt lat="46.18601" lon="2.42687">
        <ele>339</ele>
        <time>2017-04-10T13:19:38Z</time>
      </trkpt>
      <trkpt lat="46.18597" lon="2.42684">
        <ele>339</ele>
        <time>2017-04-10T13:19:41Z</time>
      </trkpt>
      <trkpt lat="46.18593" lon="2.42681">
        <ele>339</ele>
        <time>2017-04-10T13:19:44Z</time>
      </trkpt>
      <trkpt lat="46.18589" lon="2.42678">
        <ele>339</ele>
        <time>2017-04-10T13:19:47Z</time>
      </trkpt>
      <trkpt lat="46.18585" lon="2.42675">
        <ele>339</ele>
        <time>2017-04-10T13:19:50Z</time>
      </trkpt>
      <trkpt lat="46.18581" lon="2.42671">
        <ele>339</ele>
        <time>2017-04-10T13:19:53Z</time>
      </trkpt>
      <trkpt lat="46.18578" lon="2.42668">
        <ele>339</ele>
        <time>2017-04-10T13:19:56Z</time>
      </trkpt>
      <trkpt lat="46.18574" lon="2.42664">
        <ele>339</ele>
        <time>2017-04-10T13:19:59Z</time>
      </trkpt>
      <trkpt lat="46.18571" lon="2.42659">
        <ele>339</ele>
        <time>2017-04-10T13:20:02Z</time>
      </trkpt>
      <trkpt lat="46.18568" lon="2.42654">
        <ele>339</ele>
        <time>2017-04-10T13:20:05Z</time>
      </trkpt>
      <trkpt lat="46.18565" lon="2.42649">
        <ele>339</ele>
        <time>2017-04-10T13:20:08Z</time>
      </trkpt>
      <trkpt lat="46.18562" lon="2.42644">
        <ele>339</ele>
        <time>2017-04-10T13:20:11Z</time>
      </trkpt>
      <trkpt lat="46.18559" lon="2.42638">
        <ele>339</ele>
        <time>2017-04-10T13:20:14Z</time>
      </trkpt>
      <trkpt lat="46.18557" lon="2.42632">
        <ele>339</ele>
        <time>2017-04-10T13:20:17Z</time>
      </trkpt>
      <trkpt lat="46.18555" lon="2.42626">
        <ele>339</ele>
        <time>2017-04-10T13:20:20Z</time>
      </trkpt>
      <trkpt lat="46.18554" lon="2.4262">
        <ele>339</ele>
        <time>2017-04-10T13:20:23Z</time>
      </trkpt>
      <trkpt lat="46.18552" lon="2.42614">
        <ele>340</ele>
        <time>2017-04-10T13:20:26Z</time>
      </trkpt>
      <trkpt lat="46.18551" lon="2.42607">
        <ele>340</ele>
        <time>2017-04-10T13:20:29Z</time>
      </trkpt>
      <trkpt lat="46.1855" lon="2.426">
        <ele>340</ele>
        <time>2017-04-10T13:20:32Z</time>
      </trkpt>
      <trkpt lat="46.18549" lon="2.42594">
        <ele>340</ele>
        <time>2017-04-10T13:20:35Z</time>
      </trkpt>
      <trkpt lat="46.18549" lon="2.42587">
        <ele>340</ele>
        <time>2017-04-10T13:20:38Z</time>
      </trkpt>
      <trkpt lat="46.18549" lon="2.42581">
        <ele>340</ele>
        <time>2017-04-10T13:20:41Z</time>
      </trkpt>
      <trkpt lat="46.18548" lon="2.42574">
        <ele>340</ele>
        <time>2017-04-10T13:20:44Z</time>
      </trkpt>
      <trkpt lat="46.18547" lon="2.42567">
        <ele>340</ele>
        <time>2017-04-10T13:20:47Z</time>
      </trkpt>
      <trkpt lat="46.18546" lon="2.42561">
        <ele>340</ele>
        <time>2017-04-10T13:20:50Z</time>
      </trkpt>
      <trkpt lat="46.18546" lon="2.42554">
        <ele>340</ele>
        <time>2017-04-10T13:20:53Z</time>
      </trkpt>
      <trkpt lat="46.18545" lon="2.42547">
        <ele>340</ele>
        <time>2017-04-10T13:20:56Z</time>
      </trkpt>
      <trkpt lat="46.18545" lon="2.42541">
        <ele>340</ele>
        <time>2017-04-10T13:20:59Z</time>
      </trkpt>
      <trkpt lat="46.18545" lon="2.42534">
        <ele>340</ele>
        <time>2017-04-10T13:21:02Z</time>
      </trkpt>
      <trkpt lat="46.18545" lon="2.42528">
        <ele>340</ele>
        <time>2017-04-10T13:21:05Z</time>
      </trkpt>
      <trkpt lat="46.18543" lon="2.42523">
        <ele>340</ele>
        <time>2017-04-10T13:21:08Z</time>
      </trkpt>
      <trkpt lat="46.18542" lon="2.42517">
        <ele>340</ele>
        <time>2017-04-10T13:21:11Z</time>
      </trkpt>
      <trkpt lat="46.18542" lon="2.42511">
        <ele>341</ele>
        <time>2017-04-10T13:21:14Z</time>
      </trkpt>
      <trkpt lat="46.18543" lon="2.42505">
        <ele>341</ele>
        <time>2017-04-10T13:21:17Z</time>
      </trkpt>
      <trkpt lat="46.18544" lon="2.42499">
        <ele>341</ele>
        <time>2017-04-10T13:21:20Z</time>
      </trkpt>
      <trkpt lat="46.18544" lon="2.42493">
        <ele>341</ele>
        <time>2017-04-10T13:21:23Z</time>
      </trkpt>
      <trkpt lat="46.18544" lon="2.42486">
        <ele>341</ele>
        <time>2017-04-10T13:21:26Z</time>
      </trkpt>
      <trkpt lat="46.18545" lon="2.42479">
        <ele>341</ele>
        <time>2017-04-10T13:21:29Z</time>
      </trkpt>
      <trkpt lat="46.18545" lon="2.42474">
        <ele>341</ele>
        <time>2017-04-10T13:21:32Z</time>
      </trkpt>
      <trkpt lat="46.18547" lon="2.42466">
        <ele>341</ele>
        <time>2017-04-10T13:21:35Z</time>
      </trkpt>
      <trkpt lat="46.18547" lon="2.4246">
        <ele>341</ele>
        <time>2017-04-10T13:21:38Z</time>
      </trkpt>
      <trkpt lat="46.18547" lon="2.42453">
        <ele>341</ele>
        <time>2017-04-10T13:21:41Z</time>
      </trkpt>
      <trkpt lat="46.18549" lon="2.42446">
        <ele>341</ele>
        <time>2017-04-10T13:21:44Z</time>
      </trkpt>
      <trkpt lat="46.18549" lon="2.42439">
        <ele>341</ele>
        <time>2017-04-10T13:21:47Z</time>
      </trkpt>
      <trkpt lat="46.1855" lon="2.42432">
        <ele>341</ele>
        <time>2017-04-10T13:21:50Z</time>
      </trkpt>
      <trkpt lat="46.18552" lon="2.42426">
        <ele>341</ele>
        <time>2017-04-10T13:21:53Z</time>
      </trkpt>
      <trkpt lat="46.18552" lon="2.4242">
        <ele>341</ele>
        <time>2017-04-10T13:21:56Z</time>
      </trkpt>
      <trkpt lat="46.18553" lon="2.42413">
        <ele>341</ele>
        <time>2017-04-10T13:21:59Z</time>
      </trkpt>
      <trkpt lat="46.18553" lon="2.42406">
        <ele>341</ele>
        <time>2017-04-10T13:22:02Z</time>
      </trkpt>
      <trkpt lat="46.18553" lon="2.424">
        <ele>341</ele>
        <time>2017-04-10T13:22:05Z</time>
      </trkpt>
      <trkpt lat="46.18554" lon="2.42394">
        <ele>341</ele>
        <time>2017-04-10T13:22:08Z</time>
      </trkpt>
      <trkpt lat="46.18554" lon="2.42387">
        <ele>341</ele>
        <time>2017-04-10T13:22:11Z</time>
      </trkpt>
      <trkpt lat="46.18555" lon="2.4238">
        <ele>341</ele>
        <time>2017-04-10T13:22:14Z</time>
      </trkpt>
      <trkpt lat="46.18556" lon="2.42373">
        <ele>341</ele>
        <time>2017-04-10T13:22:17Z</time>
      </trkpt>
      <trkpt lat="46.18556" lon="2.42367">
        <ele>341</ele>
        <time>2017-04-10T13:22:20Z</time>
      </trkpt>
      <trkpt lat="46.18555" lon="2.4236">
        <ele>341</ele>
        <time>2017-04-10T13:22:23Z</time>
      </trkpt>
      <trkpt lat="46.18556" lon="2.42353">
        <ele>341</ele>
        <time>2017-04-10T13:22:26Z</time>
      </trkpt>
      <trkpt lat="46.18557" lon="2.42347">
        <ele>341</ele>
        <time>2017-04-10T13:22:29Z</time>
      </trkpt>
      <trkpt lat="46.18557" lon="2.42341">
        <ele>341</ele>
        <time>2017-04-10T13:22:32Z</time>
      </trkpt>
      <trkpt lat="46.18556" lon="2.42335">
        <ele>341</ele>
        <time>2017-04-10T13:22:35Z</time>
      </trkpt>
      <trkpt lat="46.18556" lon="2.42328">
        <ele>341</ele>
        <time>2017-04-10T13:22:38Z</time>
      </trkpt>
      <trkpt lat="46.18556" lon="2.42321">
        <ele>341</ele>
        <time>2017-04-10T13:22:41Z</time>
      </trkpt>
      <trkpt lat="46.18555" lon="2.42315">
        <ele>341</ele>
        <time>2017-04-10T13:22:44Z</time>
      </trkpt>
      <trkpt lat="46.18554" lon="2.4231">
        <ele>341</ele>
        <time>2017-04-10T13:22:47Z</time>
      </trkpt>
      <trkpt lat="46.18553" lon="2.42303">
        <ele>341</ele>
        <time>2017-04-10T13:22:50Z</time>
      </trkpt>
      <trkpt lat="46.18553" lon="2.42297">
        <ele>341</ele>
        <time>2017-04-10T13:22:53Z</time>
      </trkpt>
      <trkpt lat="46.18552" lon="2.4229">
        <ele>341</ele>
        <time>2017-04-10T13:22:56Z</time>
      </trkpt>
      <trkpt lat="46.18552" lon="2.42284">
        <ele>341</ele>
        <time>2017-04-10T13:22:59Z</time>
      </trkpt>
      <trkpt lat="46.18551" lon="2.42278">
        <ele>341</ele>
        <time>2017-04-10T13:23:02Z</time>
      </trkpt>
      <trkpt lat="46.18551" lon="2.42272">
        <ele>341</ele>
        <time>2017-04-10T13:23:05Z</time>
      </trkpt>
      <trkpt lat="46.18549" lon="2.42266">
        <ele>341</ele>
        <time>2017-04-10T13:23:08Z</time>
      </trkpt>
      <trkpt lat="46.18548" lon="2.42261">
        <ele>341</ele>
        <time>2017-04-10T13:23:11Z</time>
      </trkpt>
      <trkpt lat="46.18548" lon="2.42255">
        <ele>341</ele>
        <time>2017-04-10T13:23:14Z</time>
      </trkpt>
      <trkpt lat="46.18549" lon="2.42248">
        <ele>341</ele>
        <time>2017-04-10T13:23:17Z</time>
      </trkpt>
      <trkpt lat="46.18549" lon="2.42242">
        <ele>341</ele>
        <time>2017-04-10T13:23:20Z</time>
      </trkpt>
      <trkpt lat="46.1855" lon="2.42236">
        <ele>341</ele>
        <time>2017-04-10T13:23:23Z</time>
      </trkpt>
      <trkpt lat="46.18551" lon="2.42229">
        <ele>341</ele>
        <time>2017-04-10T13:23:26Z</time>
      </trkpt>
      <trkpt lat="46.18551" lon="2.42222">
        <ele>341</ele>
        <time>2017-04-10T13:23:29Z</time>
      </trkpt>
      <trkpt lat="46.18551" lon="2.42216">
        <ele>341</ele>
        <time>2017-04-10T13:23:32Z</time>
      </trkpt>
      <trkpt lat="46.18552" lon="2.4221">
        <ele>341</ele>
        <time>2017-04-10T13:23:35Z</time>
      </trkpt>
      <trkpt lat="46.18552" lon="2.42203">
        <ele>341</ele>
        <time>2017-04-10T13:23:38Z</time>
      </trkpt>
      <trkpt lat="46.18553" lon="2.42197">
        <ele>341</ele>
        <time>2017-04-10T13:23:41Z</time>
      </trkpt>
      <trkpt lat="46.18554" lon="2.42191">
        <ele>341</ele>
        <time>2017-04-10T13:23:44Z</time>
      </trkpt>
      <trkpt lat="46.18554" lon="2.42185">
        <ele>341</ele>
        <time>2017-04-10T13:23:47Z</time>
      </trkpt>
      <trkpt lat="46.18554" lon="2.42179">
        <ele>341</ele>
        <time>2017-04-10T13:23:50Z</time>
      </trkpt>
      <trkpt lat="46.18555" lon="2.42172">
        <ele>341</ele>
        <time>2017-04-10T13:23:53Z</time>
      </trkpt>
      <trkpt lat="46.18557" lon="2.42165">
        <ele>341</ele>
        <time>2017-04-10T13:23:56Z</time>
      </trkpt>
      <trkpt lat="46.18557" lon="2.42159">
        <ele>341</ele>
        <time>2017-04-10T13:23:59Z</time>
      </trkpt>
      <trkpt lat="46.18558" lon="2.42153">
        <ele>341</ele>
        <time>2017-04-10T13:24:02Z</time>
      </trkpt>
      <trkpt lat="46.1856" lon="2.42145">
        <ele>341</ele>
        <time>2017-04-10T13:24:05Z</time>
      </trkpt>
      <trkpt lat="46.1856" lon="2.42139">
        <ele>341</ele>
        <time>2017-04-10T13:24:08Z</time>
      </trkpt>
      <trkpt lat="46.1856" lon="2.42132">
        <ele>341</ele>
        <time>2017-04-10T13:24:11Z</time>
      </trkpt>
      <trkpt lat="46.1856" lon="2.42125">
        <ele>341</ele>
        <time>2017-04-10T13:24:14Z</time>
      </trkpt>
      <trkpt lat="46.18561" lon="2.42119">
        <ele>341</ele>
        <time>2017-04-10T13:24:17Z</time>
      </trkpt>
      <trkpt lat="46.18562" lon="2.42112">
        <ele>341</ele>
        <time>2017-04-10T13:24:20Z</time>
      </trkpt>
      <trkpt lat="46.18562" lon="2.42106">
        <ele>341</ele>
        <time>2017-04-10T13:24:23Z</time>
      </trkpt>
      <trkpt lat="46.18564" lon="2.421">
        <ele>341</ele>
        <time>2017-04-10T13:24:26Z</time>
      </trkpt>
      <trkpt lat="46.18564" lon="2.42093">
        <ele>341</ele>
        <time>2017-04-10T13:24:29Z</time>
      </trkpt>
      <trkpt lat="46.18565" lon="2.42086">
        <ele>341</ele>
        <time>2017-04-10T13:24:32Z</time>
      </trkpt>
      <trkpt lat="46.18567" lon="2.4208">
        <ele>341</ele>
        <time>2017-04-10T13:24:35Z</time>
      </trkpt>
      <trkpt lat="46.18567" lon="2.42073">
        <ele>341</ele>
        <time>2017-04-10T13:24:38Z</time>
      </trkpt>
      <trkpt lat="46.18568" lon="2.42066">
        <ele>341</ele>
        <time>2017-04-10T13:24:41Z</time>
      </trkpt>
      <trkpt lat="46.18569" lon="2.42059">
        <ele>341</ele>
        <time>2017-04-10T13:24:44Z</time>
      </trkpt>
      <trkpt lat="46.1857" lon="2.42053">
        <ele>341</ele>
        <time>2017-04-10T13:24:47Z</time>
      </trkpt>
      <trkpt lat="46.1857" lon="2.42047">
        <ele>341</ele>
        <time>2017-04-10T13:24:50Z</time>
      </trkpt>
      <trkpt lat="46.18571" lon="2.4204">
        <ele>341</ele>
        <time>2017-04-10T13:24:53Z</time>
      </trkpt>
      <trkpt lat="46.18572" lon="2.42033">
        <ele>341</ele>
        <time>2017-04-10T13:24:56Z</time>
      </trkpt>
      <trkpt lat="46.18572" lon="2.42027">
        <ele>341</ele>
        <time>2017-04-10T13:24:59Z</time>
      </trkpt>
      <trkpt lat="46.18572" lon="2.42021">
        <ele>341</ele>
        <time>2017-04-10T13:25:02Z</time>
      </trkpt>
      <trkpt lat="46.18573" lon="2.42014">
        <ele>341</ele>
        <time>2017-04-10T13:25:05Z</time>
      </trkpt>
      <trkpt lat="46.18573" lon="2.42007">
        <ele>341</ele>
        <time>2017-04-10T13:25:08Z</time>
      </trkpt>
      <trkpt lat="46.18573" lon="2.42001">
        <ele>341</ele>
        <time>2017-04-10T13:25:11Z</time>
      </trkpt>
      <trkpt lat="46.18575" lon="2.41995">
        <ele>341</ele>
        <time>2017-04-10T13:25:14Z</time>
      </trkpt>
      <trkpt lat="46.18576" lon="2.41988">
        <ele>341</ele>
        <time>2017-04-10T13:25:17Z</time>
      </trkpt>
      <trkpt lat="46.18578" lon="2.41982">
        <ele>341</ele>
        <time>2017-04-10T13:25:20Z</time>
      </trkpt>
      <trkpt lat="46.1858" lon="2.41976">
        <ele>341</ele>
        <time>2017-04-10T13:25:23Z</time>
      </trkpt>
      <trkpt lat="46.18583" lon="2.4197">
        <ele>341</ele>
        <time>2017-04-10T13:25:26Z</time>
      </trkpt>
      <trkpt lat="46.18584" lon="2.41964">
        <ele>341</ele>
        <time>2017-04-10T13:25:29Z</time>
      </trkpt>
      <trkpt lat="46.18585" lon="2.41958">
        <ele>341</ele>
        <time>2017-04-10T13:25:32Z</time>
      </trkpt>
      <trkpt lat="46.18587" lon="2.41953">
        <ele>341</ele>
        <time>2017-04-10T13:25:35Z</time>
      </trkpt>
      <trkpt lat="46.1859" lon="2.41947">
        <ele>341</ele>
        <time>2017-04-10T13:25:38Z</time>
      </trkpt>
      <trkpt lat="46.18592" lon="2.41941">
        <ele>341</ele>
        <time>2017-04-10T13:25:41Z</time>
      </trkpt>
      <trkpt lat="46.18594" lon="2.41935">
        <ele>341</ele>
        <time>2017-04-10T13:25:44Z</time>
      </trkpt>
      <trkpt lat="46.18598" lon="2.41929">
        <ele>341</ele>
        <time>2017-04-10T13:25:47Z</time>
      </trkpt>
      <trkpt lat="46.18599" lon="2.41924">
        <ele>341</ele>
        <time>2017-04-10T13:25:50Z</time>
      </trkpt>
      <trkpt lat="46.18602" lon="2.41918">
        <ele>341</ele>
        <time>2017-04-10T13:25:53Z</time>
      </trkpt>
      <trkpt lat="46.18601" lon="2.41911">
        <ele>341</ele>
        <time>2017-04-10T13:25:56Z</time>
      </trkpt>
      <trkpt lat="46.18603" lon="2.41903">
        <ele>341</ele>
        <time>2017-04-10T13:25:59Z</time>
      </trkpt>
      <trkpt lat="46.18605" lon="2.41896">
        <ele>341</ele>
        <time>2017-04-10T13:26:02Z</time>
      </trkpt>
      <trkpt lat="46.18606" lon="2.4189">
        <ele>341</ele>
        <time>2017-04-10T13:26:05Z</time>
      </trkpt>
      <trkpt lat="46.18607" lon="2.41883">
        <ele>341</ele>
        <time>2017-04-10T13:26:08Z</time>
      </trkpt>
      <trkpt lat="46.18607" lon="2.41876">
        <ele>341</ele>
        <time>2017-04-10T13:26:11Z</time>
      </trkpt>
      <trkpt lat="46.18607" lon="2.4187">
        <ele>341</ele>
        <time>2017-04-10T13:26:14Z</time>
      </trkpt>
      <trkpt lat="46.18607" lon="2.41863">
        <ele>341</ele>
        <time>2017-04-10T13:26:17Z</time>
      </trkpt>
      <trkpt lat="46.18607" lon="2.41855">
        <ele>341</ele>
        <time>2017-04-10T13:26:20Z</time>
      </trkpt>
      <trkpt lat="46.18607" lon="2.41848">
        <ele>341</ele>
        <time>2017-04-10T13:26:23Z</time>
      </trkpt>
      <trkpt lat="46.18607" lon="2.41841">
        <ele>341</ele>
        <time>2017-04-10T13:26:26Z</time>
      </trkpt>
      <trkpt lat="46.18607" lon="2.41834">
        <ele>341</ele>
        <time>2017-04-10T13:26:29Z</time>
      </trkpt>
      <trkpt lat="46.18607" lon="2.41827">
        <ele>341</ele>
        <time>2017-04-10T13:26:32Z</time>
      </trkpt>
      <trkpt lat="46.18607" lon="2.4182">
        <ele>341</ele>
        <time>2017-04-10T13:26:35Z</time>
      </trkpt>
      <trkpt lat="46.18608" lon="2.41813">
        <ele>341</ele>
        <time>2017-04-10T13:26:38Z</time>
      </trkpt>
      <trkpt lat="46.18607" lon="2.41806">
        <ele>341</ele>
        <time>2017-04-10T13:26:41Z</time>
      </trkpt>
      <trkpt lat="46.18607" lon="2.41799">
        <ele>341</ele>
        <time>2017-04-10T13:26:44Z</time>
      </trkpt>
      <trkpt lat="46.18607" lon="2.41792">
        <ele>341</ele>
        <time>2017-04-10T13:26:47Z</time>
      </trkpt>
      <trkpt lat="46.18607" lon="2.41785">
        <ele>341</ele>
        <time>2017-04-10T13:26:50Z</time>
      </trkpt>
      <trkpt lat="46.18607" lon="2.41778">
        <ele>341</ele>
        <time>2017-04-10T13:26:53Z</time>
      </trkpt>
      <trkpt lat="46.18606" lon="2.41772">
        <ele>341</ele>
        <time>2017-04-10T13:26:56Z</time>
      </trkpt>
      <trkpt lat="46.18605" lon="2.41765">
        <ele>341</ele>
        <time>2017-04-10T13:26:59Z</time>
      </trkpt>
      <trkpt lat="46.18606" lon="2.41758">
        <ele>341</ele>
        <time>2017-04-10T13:27:02Z</time>
      </trkpt>
      <trkpt lat="46.18606" lon="2.41752">
        <ele>341</ele>
        <time>2017-04-10T13:27:05Z</time>
      </trkpt>
      <trkpt lat="46.18605" lon="2.41745">
        <ele>341</ele>
        <time>2017-04-10T13:27:08Z</time>
      </trkpt>
      <trkpt lat="46.18605" lon="2.41739">
        <ele>340</ele>
        <time>2017-04-10T13:27:11Z</time>
      </trkpt>
      <trkpt lat="46.18604" lon="2.41733">
        <ele>340</ele>
        <time>2017-04-10T13:27:14Z</time>
      </trkpt>
      <trkpt lat="46.18603" lon="2.41726">
        <ele>340</ele>
        <time>2017-04-10T13:27:17Z</time>
      </trkpt>
      <trkpt lat="46.18602" lon="2.4172">
        <ele>340</ele>
        <time>2017-04-10T13:27:20Z</time>
      </trkpt>
      <trkpt lat="46.186" lon="2.41714">
        <ele>340</ele>
        <time>2017-04-10T13:27:23Z</time>
      </trkpt>
      <trkpt lat="46.18597" lon="2.41708">
        <ele>340</ele>
        <time>2017-04-10T13:27:26Z</time>
      </trkpt>
      <trkpt lat="46.18595" lon="2.41702">
        <ele>340</ele>
        <time>2017-04-10T13:27:29Z</time>
      </trkpt>
      <trkpt lat="46.18595" lon="2.41696">
        <ele>340</ele>
        <time>2017-04-10T13:27:32Z</time>
      </trkpt>
      <trkpt lat="46.18593" lon="2.4169">
        <ele>340</ele>
        <time>2017-04-10T13:27:35Z</time>
      </trkpt>
      <trkpt lat="46.18592" lon="2.41683">
        <ele>340</ele>
        <time>2017-04-10T13:27:38Z</time>
      </trkpt>
      <trkpt lat="46.18593" lon="2.41676">
        <ele>340</ele>
        <time>2017-04-10T13:27:41Z</time>
      </trkpt>
      <trkpt lat="46.18594" lon="2.41669">
        <ele>340</ele>
        <time>2017-04-10T13:27:44Z</time>
      </trkpt>
      <trkpt lat="46.18593" lon="2.41663">
        <ele>340</ele>
        <time>2017-04-10T13:27:47Z</time>
      </trkpt>
      <trkpt lat="46.18593" lon="2.41656">
        <ele>340</ele>
        <time>2017-04-10T13:27:50Z</time>
      </trkpt>
      <trkpt lat="46.18594" lon="2.41649">
        <ele>340</ele>
        <time>2017-04-10T13:27:53Z</time>
      </trkpt>
      <trkpt lat="46.18594" lon="2.41642">
        <ele>340</ele>
        <time>2017-04-10T13:27:56Z</time>
      </trkpt>
      <trkpt lat="46.18594" lon="2.41637">
        <ele>340</ele>
        <time>2017-04-10T13:27:59Z</time>
      </trkpt>
      <trkpt lat="46.18594" lon="2.41631">
        <ele>340</ele>
        <time>2017-04-10T13:28:02Z</time>
      </trkpt>
      <trkpt lat="46.18594" lon="2.41625">
        <ele>339</ele>
        <time>2017-04-10T13:28:05Z</time>
      </trkpt>
      <trkpt lat="46.18593" lon="2.41618">
        <ele>339</ele>
        <time>2017-04-10T13:28:08Z</time>
      </trkpt>
      <trkpt lat="46.18592" lon="2.41612">
        <ele>339</ele>
        <time>2017-04-10T13:28:11Z</time>
      </trkpt>
      <trkpt lat="46.18593" lon="2.41605">
        <ele>339</ele>
        <time>2017-04-10T13:28:14Z</time>
      </trkpt>
      <trkpt lat="46.18594" lon="2.41597">
        <ele>339</ele>
        <time>2017-04-10T13:28:17Z</time>
      </trkpt>
      <trkpt lat="46.18596" lon="2.4159">
        <ele>339</ele>
        <time>2017-04-10T13:28:20Z</time>
      </trkpt>
      <trkpt lat="46.18597" lon="2.41583">
        <ele>339</ele>
        <time>2017-04-10T13:28:23Z</time>
      </trkpt>
      <trkpt lat="46.18597" lon="2.41577">
        <ele>339</ele>
        <time>2017-04-10T13:28:26Z</time>
      </trkpt>
      <trkpt lat="46.18597" lon="2.41571">
        <ele>339</ele>
        <time>2017-04-10T13:28:29Z</time>
      </trkpt>
      <trkpt lat="46.18597" lon="2.41565">
        <ele>339</ele>
        <time>2017-04-10T13:28:32Z</time>
      </trkpt>
      <trkpt lat="46.18599" lon="2.4156">
        <ele>339</ele>
        <time>2017-04-10T13:28:35Z</time>
      </trkpt>
      <trkpt lat="46.18599" lon="2.41554">
        <ele>339</ele>
        <time>2017-04-10T13:28:38Z</time>
      </trkpt>
      <trkpt lat="46.18599" lon="2.41547">
        <ele>339</ele>
        <time>2017-04-10T13:28:41Z</time>
      </trkpt>
      <trkpt lat="46.18601" lon="2.4154">
        <ele>339</ele>
        <time>2017-04-10T13:28:44Z</time>
      </trkpt>
      <trkpt lat="46.18602" lon="2.41533">
        <ele>339</ele>
        <time>2017-04-10T13:28:47Z</time>
      </trkpt>
      <trkpt lat="46.18603" lon="2.41527">
        <ele>339</ele>
        <time>2017-04-10T13:28:50Z</time>
      </trkpt>
      <trkpt lat="46.18604" lon="2.41521">
        <ele>339</ele>
        <time>2017-04-10T13:28:53Z</time>
      </trkpt>
      <trkpt lat="46.18605" lon="2.41515">
        <ele>339</ele>
        <time>2017-04-10T13:28:56Z</time>
      </trkpt>
      <trkpt lat="46.18605" lon="2.41508">
        <ele>339</ele>
        <time>2017-04-10T13:28:59Z</time>
      </trkpt>
      <trkpt lat="46.18606" lon="2.41501">
        <ele>339</ele>
        <time>2017-04-10T13:29:02Z</time>
      </trkpt>
      <trkpt lat="46.18607" lon="2.41495">
        <ele>339</ele>
        <time>2017-04-10T13:29:05Z</time>
      </trkpt>
      <trkpt lat="46.18607" lon="2.41488">
        <ele>339</ele>
        <time>2017-04-10T13:29:08Z</time>
      </trkpt>
      <trkpt lat="46.18608" lon="2.41481">
        <ele>339</ele>
        <time>2017-04-10T13:29:11Z</time>
      </trkpt>
      <trkpt lat="46.18608" lon="2.41474">
        <ele>339</ele>
        <time>2017-04-10T13:29:14Z</time>
      </trkpt>
      <trkpt lat="46.18609" lon="2.41467">
        <ele>339</ele>
        <time>2017-04-10T13:29:17Z</time>
      </trkpt>
      <trkpt lat="46.1861" lon="2.4146">
        <ele>339</ele>
        <time>2017-04-10T13:29:20Z</time>
      </trkpt>
      <trkpt lat="46.1861" lon="2.41454">
        <ele>339</ele>
        <time>2017-04-10T13:29:23Z</time>
      </trkpt>
      <trkpt lat="46.18611" lon="2.41446">
        <ele>339</ele>
        <time>2017-04-10T13:29:26Z</time>
      </trkpt>
      <trkpt lat="46.1861" lon="2.4144">
        <ele>339</ele>
        <time>2017-04-10T13:29:29Z</time>
      </trkpt>
      <trkpt lat="46.1861" lon="2.41432">
        <ele>339</ele>
        <time>2017-04-10T13:29:32Z</time>
      </trkpt>
      <trkpt lat="46.1861" lon="2.41425">
        <ele>339</ele>
        <time>2017-04-10T13:29:35Z</time>
      </trkpt>
      <trkpt lat="46.18609" lon="2.41419">
        <ele>339</ele>
        <time>2017-04-10T13:29:38Z</time>
      </trkpt>
      <trkpt lat="46.18608" lon="2.41413">
        <ele>339</ele>
        <time>2017-04-10T13:29:41Z</time>
      </trkpt>
      <trkpt lat="46.18607" lon="2.41407">
        <ele>339</ele>
        <time>2017-04-10T13:29:44Z</time>
      </trkpt>
      <trkpt lat="46.18605" lon="2.41401">
        <ele>339</ele>
        <time>2017-04-10T13:29:47Z</time>
      </trkpt>
      <trkpt lat="46.18602" lon="2.41394">
        <ele>339</ele>
        <time>2017-04-10T13:29:50Z</time>
      </trkpt>
      <trkpt lat="46.186" lon="2.41389">
        <ele>339</ele>
        <time>2017-04-10T13:29:53Z</time>
      </trkpt>
      <trkpt lat="46.18599" lon="2.41383">
        <ele>339</ele>
        <time>2017-04-10T13:29:56Z</time>
      </trkpt>
      <trkpt lat="46.18597" lon="2.41376">
        <ele>339</ele>
        <time>2017-04-10T13:29:59Z</time>
      </trkpt>
      <trkpt lat="46.18596" lon="2.41371">
        <ele>340</ele>
        <time>2017-04-10T13:30:02Z</time>
      </trkpt>
      <trkpt lat="46.18595" lon="2.41366">
        <ele>340</ele>
        <time>2017-04-10T13:30:05Z</time>
      </trkpt>
      <trkpt lat="46.18594" lon="2.41359">
        <ele>340</ele>
        <time>2017-04-10T13:30:08Z</time>
      </trkpt>
      <trkpt lat="46.18592" lon="2.41353">
        <ele>340</ele>
        <time>2017-04-10T13:30:11Z</time>
      </trkpt>
      <trkpt lat="46.1859" lon="2.41347">
        <ele>340</ele>
        <time>2017-04-10T13:30:14Z</time>
      </trkpt>
      <trkpt lat="46.18588" lon="2.41341">
        <ele>340</ele>
        <time>2017-04-10T13:30:17Z</time>
      </trkpt>
      <trkpt lat="46.18586" lon="2.41336">
        <ele>340</ele>
        <time>2017-04-10T13:30:20Z</time>
      </trkpt>
      <trkpt lat="46.18584" lon="2.41331">
        <ele>340</ele>
        <time>2017-04-10T13:30:23Z</time>
      </trkpt>
      <trkpt lat="46.18582" lon="2.41326">
        <ele>340</ele>
        <time>2017-04-10T13:30:26Z</time>
      </trkpt>
      <trkpt lat="46.18579" lon="2.4132">
        <ele>340</ele>
        <time>2017-04-10T13:30:29Z</time>
      </trkpt>
      <trkpt lat="46.18578" lon="2.41315">
        <ele>340</ele>
        <time>2017-04-10T13:30:32Z</time>
      </trkpt>
      <trkpt lat="46.18575" lon="2.4131">
        <ele>340</ele>
        <time>2017-04-10T13:30:35Z</time>
      </trkpt>
      <trkpt lat="46.18573" lon="2.41305">
        <ele>340</ele>
        <time>2017-04-10T13:30:38Z</time>
      </trkpt>
      <trkpt lat="46.1857" lon="2.413">
        <ele>340</ele>
        <time>2017-04-10T13:30:41Z</time>
      </trkpt>
      <trkpt lat="46.18567" lon="2.41295">
        <ele>341</ele>
        <time>2017-04-10T13:30:44Z</time>
      </trkpt>
      <trkpt lat="46.18565" lon="2.4129">
        <ele>342</ele>
        <time>2017-04-10T13:30:47Z</time>
      </trkpt>
      <trkpt lat="46.18562" lon="2.41284">
        <ele>342</ele>
        <time>2017-04-10T13:30:50Z</time>
      </trkpt>
      <trkpt lat="46.1856" lon="2.41279">
        <ele>342</ele>
        <time>2017-04-10T13:30:53Z</time>
      </trkpt>
      <trkpt lat="46.18557" lon="2.41273">
        <ele>342</ele>
        <time>2017-04-10T13:30:56Z</time>
      </trkpt>
      <trkpt lat="46.18554" lon="2.41267">
        <ele>342</ele>
        <time>2017-04-10T13:30:59Z</time>
      </trkpt>
      <trkpt lat="46.18553" lon="2.41263">
        <ele>342</ele>
        <time>2017-04-10T13:31:02Z</time>
      </trkpt>
      <trkpt lat="46.1855" lon="2.41259">
        <ele>342</ele>
        <time>2017-04-10T13:31:05Z</time>
      </trkpt>
      <trkpt lat="46.18548" lon="2.41254">
        <ele>342</ele>
        <time>2017-04-10T13:31:08Z</time>
      </trkpt>
      <trkpt lat="46.18546" lon="2.41249">
        <ele>342</ele>
        <time>2017-04-10T13:31:11Z</time>
      </trkpt>
      <trkpt lat="46.18542" lon="2.41244">
        <ele>342</ele>
        <time>2017-04-10T13:31:14Z</time>
      </trkpt>
      <trkpt lat="46.18539" lon="2.41238">
        <ele>342</ele>
        <time>2017-04-10T13:31:17Z</time>
      </trkpt>
      <trkpt lat="46.18537" lon="2.41233">
        <ele>342</ele>
        <time>2017-04-10T13:31:20Z</time>
      </trkpt>
      <trkpt lat="46.18533" lon="2.41228">
        <ele>342</ele>
        <time>2017-04-10T13:31:23Z</time>
      </trkpt>
      <trkpt lat="46.18531" lon="2.41222">
        <ele>342</ele>
        <time>2017-04-10T13:31:26Z</time>
      </trkpt>
      <trkpt lat="46.18527" lon="2.41217">
        <ele>342</ele>
        <time>2017-04-10T13:31:29Z</time>
      </trkpt>
      <trkpt lat="46.18524" lon="2.41212">
        <ele>342</ele>
        <time>2017-04-10T13:31:32Z</time>
      </trkpt>
      <trkpt lat="46.18521" lon="2.41207">
        <ele>342</ele>
        <time>2017-04-10T13:31:35Z</time>
      </trkpt>
      <trkpt lat="46.18518" lon="2.41202">
        <ele>342</ele>
        <time>2017-04-10T13:31:38Z</time>
      </trkpt>
      <trkpt lat="46.18515" lon="2.41197">
        <ele>342</ele>
        <time>2017-04-10T13:31:41Z</time>
      </trkpt>
      <trkpt lat="46.18512" lon="2.41192">
        <ele>342</ele>
        <time>2017-04-10T13:31:44Z</time>
      </trkpt>
      <trkpt lat="46.18508" lon="2.41186">
        <ele>343</ele>
        <time>2017-04-10T13:31:48Z</time>
      </trkpt>
      <trkpt lat="46.18505" lon="2.4118">
        <ele>343</ele>
        <time>2017-04-10T13:31:51Z</time>
      </trkpt>
      <trkpt lat="46.18502" lon="2.41176">
        <ele>343</ele>
        <time>2017-04-10T13:31:54Z</time>
      </trkpt>
      <trkpt lat="46.18499" lon="2.41172">
        <ele>343</ele>
        <time>2017-04-10T13:31:57Z</time>
      </trkpt>
      <trkpt lat="46.18496" lon="2.41167">
        <ele>344</ele>
        <time>2017-04-10T13:32:00Z</time>
      </trkpt>
      <trkpt lat="46.18494" lon="2.41162">
        <ele>344</ele>
        <time>2017-04-10T13:32:03Z</time>
      </trkpt>
      <trkpt lat="46.18491" lon="2.41158">
        <ele>344</ele>
        <time>2017-04-10T13:32:06Z</time>
      </trkpt>
      <trkpt lat="46.18489" lon="2.41152">
        <ele>345</ele>
        <time>2017-04-10T13:32:09Z</time>
      </trkpt>
      <trkpt lat="46.18486" lon="2.41145">
        <ele>346</ele>
        <time>2017-04-10T13:32:12Z</time>
      </trkpt>
      <trkpt lat="46.18484" lon="2.4114">
        <ele>346</ele>
        <time>2017-04-10T13:32:15Z</time>
      </trkpt>
      <trkpt lat="46.18481" lon="2.41135">
        <ele>347</ele>
        <time>2017-04-10T13:32:18Z</time>
      </trkpt>
      <trkpt lat="46.18478" lon="2.41129">
        <ele>348</ele>
        <time>2017-04-10T13:32:21Z</time>
      </trkpt>
      <trkpt lat="46.18475" lon="2.41124">
        <ele>348</ele>
        <time>2017-04-10T13:32:24Z</time>
      </trkpt>
      <trkpt lat="46.18473" lon="2.41119">
        <ele>348</ele>
        <time>2017-04-10T13:32:27Z</time>
      </trkpt>
      <trkpt lat="46.1847" lon="2.41114">
        <ele>348</ele>
        <time>2017-04-10T13:32:30Z</time>
      </trkpt>
      <trkpt lat="46.18467" lon="2.4111">
        <ele>348</ele>
        <time>2017-04-10T13:32:33Z</time>
      </trkpt>
      <trkpt lat="46.18464" lon="2.41105">
        <ele>348</ele>
        <time>2017-04-10T13:32:36Z</time>
      </trkpt>
      <trkpt lat="46.18462" lon="2.411">
        <ele>348</ele>
        <time>2017-04-10T13:32:39Z</time>
      </trkpt>
      <trkpt lat="46.18459" lon="2.41095">
        <ele>348</ele>
        <time>2017-04-10T13:32:42Z</time>
      </trkpt>
      <trkpt lat="46.18457" lon="2.4109">
        <ele>349</ele>
        <time>2017-04-10T13:32:45Z</time>
      </trkpt>
      <trkpt lat="46.18454" lon="2.41086">
        <ele>349</ele>
        <time>2017-04-10T13:32:48Z</time>
      </trkpt>
      <trkpt lat="46.18449" lon="2.4108">
        <ele>350</ele>
        <time>2017-04-10T13:32:52Z</time>
      </trkpt>
      <trkpt lat="46.18445" lon="2.41076">
        <ele>350</ele>
        <time>2017-04-10T13:32:55Z</time>
      </trkpt>
      <trkpt lat="46.18441" lon="2.41073">
        <ele>350</ele>
        <time>2017-04-10T13:32:58Z</time>
      </trkpt>
      <trkpt lat="46.18439" lon="2.41068">
        <ele>350</ele>
        <time>2017-04-10T13:33:01Z</time>
      </trkpt>
      <trkpt lat="46.18435" lon="2.41066">
        <ele>350</ele>
        <time>2017-04-10T13:33:04Z</time>
      </trkpt>
      <trkpt lat="46.1843" lon="2.41062">
        <ele>351</ele>
        <time>2017-04-10T13:33:08Z</time>
      </trkpt>
      <trkpt lat="46.18427" lon="2.41057">
        <ele>352</ele>
        <time>2017-04-10T13:33:11Z</time>
      </trkpt>
      <trkpt lat="46.18423" lon="2.41054">
        <ele>352</ele>
        <time>2017-04-10T13:33:14Z</time>
      </trkpt>
      <trkpt lat="46.18419" lon="2.4105">
        <ele>352</ele>
        <time>2017-04-10T13:33:17Z</time>
      </trkpt>
      <trkpt lat="46.18415" lon="2.41047">
        <ele>352</ele>
        <time>2017-04-10T13:33:20Z</time>
      </trkpt>
      <trkpt lat="46.18411" lon="2.41042">
        <ele>353</ele>
        <time>2017-04-10T13:33:23Z</time>
      </trkpt>
      <trkpt lat="46.18407" lon="2.41039">
        <ele>353</ele>
        <time>2017-04-10T13:33:26Z</time>
      </trkpt>
      <trkpt lat="46.18403" lon="2.41035">
        <ele>353</ele>
        <time>2017-04-10T13:33:29Z</time>
      </trkpt>
      <trkpt lat="46.18399" lon="2.41028">
        <ele>354</ele>
        <time>2017-04-10T13:33:32Z</time>
      </trkpt>
      <trkpt lat="46.18397" lon="2.41023">
        <ele>354</ele>
        <time>2017-04-10T13:33:35Z</time>
      </trkpt>
      <trkpt lat="46.18394" lon="2.41017">
        <ele>354</ele>
        <time>2017-04-10T13:33:38Z</time>
      </trkpt>
      <trkpt lat="46.1839" lon="2.4101">
        <ele>354</ele>
        <time>2017-04-10T13:33:41Z</time>
      </trkpt>
      <trkpt lat="46.18387" lon="2.41004">
        <ele>354</ele>
        <time>2017-04-10T13:33:44Z</time>
      </trkpt>
      <trkpt lat="46.18384" lon="2.40998">
        <ele>354</ele>
        <time>2017-04-10T13:33:47Z</time>
      </trkpt>
      <trkpt lat="46.18382" lon="2.40992">
        <ele>354</ele>
        <time>2017-04-10T13:33:50Z</time>
      </trkpt>
      <trkpt lat="46.18378" lon="2.40986">
        <ele>354</ele>
        <time>2017-04-10T13:33:53Z</time>
      </trkpt>
      <trkpt lat="46.18376" lon="2.4098">
        <ele>354</ele>
        <time>2017-04-10T13:33:56Z</time>
      </trkpt>
      <trkpt lat="46.18374" lon="2.40974">
        <ele>354</ele>
        <time>2017-04-10T13:33:59Z</time>
      </trkpt>
      <trkpt lat="46.18372" lon="2.40968">
        <ele>354</ele>
        <time>2017-04-10T13:34:02Z</time>
      </trkpt>
      <trkpt lat="46.18369" lon="2.40963">
        <ele>354</ele>
        <time>2017-04-10T13:34:05Z</time>
      </trkpt>
      <trkpt lat="46.18365" lon="2.40955">
        <ele>354</ele>
        <time>2017-04-10T13:34:09Z</time>
      </trkpt>
      <trkpt lat="46.18363" lon="2.4095">
        <ele>354</ele>
        <time>2017-04-10T13:34:12Z</time>
      </trkpt>
      <trkpt lat="46.1836" lon="2.40944">
        <ele>354</ele>
        <time>2017-04-10T13:34:15Z</time>
      </trkpt>
      <trkpt lat="46.18358" lon="2.40938">
        <ele>354</ele>
        <time>2017-04-10T13:34:18Z</time>
      </trkpt>
      <trkpt lat="46.18355" lon="2.40932">
        <ele>354</ele>
        <time>2017-04-10T13:34:21Z</time>
      </trkpt>
      <trkpt lat="46.18353" lon="2.40927">
        <ele>354</ele>
        <time>2017-04-10T13:34:24Z</time>
      </trkpt>
      <trkpt lat="46.18351" lon="2.4092">
        <ele>354</ele>
        <time>2017-04-10T13:34:27Z</time>
      </trkpt>
      <trkpt lat="46.18348" lon="2.40915">
        <ele>354</ele>
        <time>2017-04-10T13:34:30Z</time>
      </trkpt>
      <trkpt lat="46.18346" lon="2.40909">
        <ele>354</ele>
        <time>2017-04-10T13:34:33Z</time>
      </trkpt>
      <trkpt lat="46.18344" lon="2.40903">
        <ele>354</ele>
        <time>2017-04-10T13:34:36Z</time>
      </trkpt>
      <trkpt lat="46.18342" lon="2.40897">
        <ele>354</ele>
        <time>2017-04-10T13:34:39Z</time>
      </trkpt>
      <trkpt lat="46.18338" lon="2.40889">
        <ele>353</ele>
        <time>2017-04-10T13:34:42Z</time>
      </trkpt>
      <trkpt lat="46.18336" lon="2.40884">
        <ele>353</ele>
        <time>2017-04-10T13:34:46Z</time>
      </trkpt>
      <trkpt lat="46.18332" lon="2.40876">
        <ele>352</ele>
        <time>2017-04-10T13:34:49Z</time>
      </trkpt>
      <trkpt lat="46.18331" lon="2.4087">
        <ele>352</ele>
        <time>2017-04-10T13:34:53Z</time>
      </trkpt>
      <trkpt lat="46.18329" lon="2.40864">
        <ele>351</ele>
        <time>2017-04-10T13:34:56Z</time>
      </trkpt>
      <trkpt lat="46.18326" lon="2.40858">
        <ele>351</ele>
        <time>2017-04-10T13:34:59Z</time>
      </trkpt>
      <trkpt lat="46.18324" lon="2.40852">
        <ele>351</ele>
        <time>2017-04-10T13:35:02Z</time>
      </trkpt>
      <trkpt lat="46.18323" lon="2.40845">
        <ele>351</ele>
        <time>2017-04-10T13:35:05Z</time>
      </trkpt>
      <trkpt lat="46.18323" lon="2.40839">
        <ele>350</ele>
        <time>2017-04-10T13:35:08Z</time>
      </trkpt>
      <trkpt lat="46.1832" lon="2.4083">
        <ele>350</ele>
        <time>2017-04-10T13:35:11Z</time>
      </trkpt>
      <trkpt lat="46.18319" lon="2.40824">
        <ele>350</ele>
        <time>2017-04-10T13:35:15Z</time>
      </trkpt>
      <trkpt lat="46.18316" lon="2.40816">
        <ele>350</ele>
        <time>2017-04-10T13:35:19Z</time>
      </trkpt>
      <trkpt lat="46.18314" lon="2.40808">
        <ele>350</ele>
        <time>2017-04-10T13:35:22Z</time>
      </trkpt>
      <trkpt lat="46.18312" lon="2.40802">
        <ele>350</ele>
        <time>2017-04-10T13:35:25Z</time>
      </trkpt>
      <trkpt lat="46.18309" lon="2.40797">
        <ele>350</ele>
        <time>2017-04-10T13:35:28Z</time>
      </trkpt>
      <trkpt lat="46.18307" lon="2.40791">
        <ele>350</ele>
        <time>2017-04-10T13:35:31Z</time>
      </trkpt>
      <trkpt lat="46.18304" lon="2.40785">
        <ele>350</ele>
        <time>2017-04-10T13:35:35Z</time>
      </trkpt>
      <trkpt lat="46.18301" lon="2.40779">
        <ele>350</ele>
        <time>2017-04-10T13:35:38Z</time>
      </trkpt>
      <trkpt lat="46.18298" lon="2.40773">
        <ele>350</ele>
        <time>2017-04-10T13:35:41Z</time>
      </trkpt>
      <trkpt lat="46.18295" lon="2.40768">
        <ele>349</ele>
        <time>2017-04-10T13:35:45Z</time>
      </trkpt>
      <trkpt lat="46.18291" lon="2.40762">
        <ele>349</ele>
        <time>2017-04-10T13:35:48Z</time>
      </trkpt>
      <trkpt lat="46.18288" lon="2.40759">
        <ele>349</ele>
        <time>2017-04-10T13:35:52Z</time>
      </trkpt>
      <trkpt lat="46.18284" lon="2.40756">
        <ele>349</ele>
        <time>2017-04-10T13:35:56Z</time>
      </trkpt>
      <trkpt lat="46.18278" lon="2.40752">
        <ele>349</ele>
        <time>2017-04-10T13:35:59Z</time>
      </trkpt>
      <trkpt lat="46.18274" lon="2.40749">
        <ele>348</ele>
        <time>2017-04-10T13:36:02Z</time>
      </trkpt>
      <trkpt lat="46.18269" lon="2.40746">
        <ele>348</ele>
        <time>2017-04-10T13:36:07Z</time>
      </trkpt>
      <trkpt lat="46.18266" lon="2.40746">
        <ele>348</ele>
        <time>2017-04-10T13:36:10Z</time>
      </trkpt>
      <trkpt lat="46.18264" lon="2.40748">
        <ele>348</ele>
        <time>2017-04-10T13:36:14Z</time>
      </trkpt>
      <trkpt lat="46.18261" lon="2.40752">
        <ele>348</ele>
        <time>2017-04-10T13:36:17Z</time>
      </trkpt>
      <trkpt lat="46.18258" lon="2.40756">
        <ele>348</ele>
        <time>2017-04-10T13:36:21Z</time>
      </trkpt>
      <trkpt lat="46.18255" lon="2.40759">
        <ele>348</ele>
        <time>2017-04-10T13:36:25Z</time>
      </trkpt>
      <trkpt lat="46.18249" lon="2.40755">
        <ele>348</ele>
        <time>2017-04-10T13:36:30Z</time>
      </trkpt>
      <trkpt lat="46.1825" lon="2.40748">
        <ele>347</ele>
        <time>2017-04-10T13:36:33Z</time>
      </trkpt>
      <trkpt lat="46.18253" lon="2.40742">
        <ele>345</ele>
        <time>2017-04-10T13:36:37Z</time>
      </trkpt>
      <trkpt lat="46.18256" lon="2.40738">
        <ele>343</ele>
        <time>2017-04-10T13:36:41Z</time>
      </trkpt>
      <trkpt lat="46.18261" lon="2.4073">
        <ele>341</ele>
        <time>2017-04-10T13:36:45Z</time>
      </trkpt>
      <trkpt lat="46.18263" lon="2.40725">
        <ele>341</ele>
        <time>2017-04-10T13:36:48Z</time>
      </trkpt>
      <trkpt lat="46.18266" lon="2.4072">
        <ele>341</ele>
        <time>2017-04-10T13:36:51Z</time>
      </trkpt>
      <trkpt lat="46.18269" lon="2.40714">
        <ele>341</ele>
        <time>2017-04-10T13:36:54Z</time>
      </trkpt>
      <trkpt lat="46.1827" lon="2.40708">
        <ele>340</ele>
        <time>2017-04-10T13:36:57Z</time>
      </trkpt>
      <trkpt lat="46.1827" lon="2.40702">
        <ele>340</ele>
        <time>2017-04-10T13:37:01Z</time>
      </trkpt>
      <trkpt lat="46.1827" lon="2.40693">
        <ele>340</ele>
        <time>2017-04-10T13:37:04Z</time>
      </trkpt>
      <trkpt lat="46.1827" lon="2.40686">
        <ele>340</ele>
        <time>2017-04-10T13:37:07Z</time>
      </trkpt>
      <trkpt lat="46.1827" lon="2.4068">
        <ele>340</ele>
        <time>2017-04-10T13:37:11Z</time>
      </trkpt>
      <trkpt lat="46.1827" lon="2.40671">
        <ele>340</ele>
        <time>2017-04-10T13:37:15Z</time>
      </trkpt>
      <trkpt lat="46.1827" lon="2.40662">
        <ele>340</ele>
        <time>2017-04-10T13:37:18Z</time>
      </trkpt>
      <trkpt lat="46.1827" lon="2.40655">
        <ele>340</ele>
        <time>2017-04-10T13:37:21Z</time>
      </trkpt>
      <trkpt lat="46.1827" lon="2.40649">
        <ele>340</ele>
        <time>2017-04-10T13:37:24Z</time>
      </trkpt>
      <trkpt lat="46.1827" lon="2.40643">
        <ele>340</ele>
        <time>2017-04-10T13:37:27Z</time>
      </trkpt>
      <trkpt lat="46.1827" lon="2.40637">
        <ele>340</ele>
        <time>2017-04-10T13:37:31Z</time>
      </trkpt>
      <trkpt lat="46.18273" lon="2.40629">
        <ele>340</ele>
        <time>2017-04-10T13:37:36Z</time>
      </trkpt>
      <trkpt lat="46.18275" lon="2.40622">
        <ele>341</ele>
        <time>2017-04-10T13:37:41Z</time>
      </trkpt>
      <trkpt lat="46.18279" lon="2.40619">
        <ele>343</ele>
        <time>2017-04-10T13:37:44Z</time>
      </trkpt>
      <trkpt lat="46.18283" lon="2.40617">
        <ele>343</ele>
        <time>2017-04-10T13:37:47Z</time>
      </trkpt>
      <trkpt lat="46.18288" lon="2.40616">
        <ele>343</ele>
        <time>2017-04-10T13:37:51Z</time>
      </trkpt>
      <trkpt lat="46.1829" lon="2.40614">
        <ele>344</ele>
        <time>2017-04-10T13:38:00Z</time>
      </trkpt>
      <trkpt lat="46.18296" lon="2.40613">
        <ele>344</ele>
        <time>2017-04-10T13:38:03Z</time>
      </trkpt>
      <trkpt lat="46.18301" lon="2.40613">
        <ele>344</ele>
        <time>2017-04-10T13:38:06Z</time>
      </trkpt>
      <trkpt lat="46.18306" lon="2.40612">
        <ele>344</ele>
        <time>2017-04-10T13:38:10Z</time>
      </trkpt>
      <trkpt lat="46.18312" lon="2.40611">
        <ele>344</ele>
        <time>2017-04-10T13:38:13Z</time>
      </trkpt>
      <trkpt lat="46.18317" lon="2.40611">
        <ele>344</ele>
        <time>2017-04-10T13:38:16Z</time>
      </trkpt>
      <trkpt lat="46.18322" lon="2.40609">
        <ele>344</ele>
        <time>2017-04-10T13:38:19Z</time>
      </trkpt>
      <trkpt lat="46.18327" lon="2.40607">
        <ele>344</ele>
        <time>2017-04-10T13:38:22Z</time>
      </trkpt>
      <trkpt lat="46.18331" lon="2.40606">
        <ele>345</ele>
        <time>2017-04-10T13:38:25Z</time>
      </trkpt>
      <trkpt lat="46.18336" lon="2.40604">
        <ele>346</ele>
        <time>2017-04-10T13:38:28Z</time>
      </trkpt>
      <trkpt lat="46.1834" lon="2.40604">
        <ele>347</ele>
        <time>2017-04-10T13:38:31Z</time>
      </trkpt>
      <trkpt lat="46.18345" lon="2.40603">
        <ele>347</ele>
        <time>2017-04-10T13:38:34Z</time>
      </trkpt>
      <trkpt lat="46.18349" lon="2.40603">
        <ele>347</ele>
        <time>2017-04-10T13:38:37Z</time>
      </trkpt>
      <trkpt lat="46.18354" lon="2.40602">
        <ele>347</ele>
        <time>2017-04-10T13:38:40Z</time>
      </trkpt>
      <trkpt lat="46.18359" lon="2.40602">
        <ele>347</ele>
        <time>2017-04-10T13:38:43Z</time>
      </trkpt>
      <trkpt lat="46.18364" lon="2.40602">
        <ele>347</ele>
        <time>2017-04-10T13:38:46Z</time>
      </trkpt>
      <trkpt lat="46.18368" lon="2.40601">
        <ele>347</ele>
        <time>2017-04-10T13:38:49Z</time>
      </trkpt>
      <trkpt lat="46.18373" lon="2.40602">
        <ele>347</ele>
        <time>2017-04-10T13:38:52Z</time>
      </trkpt>
      <trkpt lat="46.18377" lon="2.40601">
        <ele>347</ele>
        <time>2017-04-10T13:38:56Z</time>
      </trkpt>
      <trkpt lat="46.18383" lon="2.40601">
        <ele>346</ele>
        <time>2017-04-10T13:38:59Z</time>
      </trkpt>
      <trkpt lat="46.18387" lon="2.40601">
        <ele>346</ele>
        <time>2017-04-10T13:39:02Z</time>
      </trkpt>
      <trkpt lat="46.18391" lon="2.40601">
        <ele>345</ele>
        <time>2017-04-10T13:39:06Z</time>
      </trkpt>
      <trkpt lat="46.18396" lon="2.40599">
        <ele>344</ele>
        <time>2017-04-10T13:39:09Z</time>
      </trkpt>
      <trkpt lat="46.184" lon="2.40598">
        <ele>343</ele>
        <time>2017-04-10T13:39:12Z</time>
      </trkpt>
      <trkpt lat="46.18404" lon="2.40597">
        <ele>342</ele>
        <time>2017-04-10T13:39:16Z</time>
      </trkpt>
      <trkpt lat="46.18409" lon="2.40596">
        <ele>341</ele>
        <time>2017-04-10T13:39:19Z</time>
      </trkpt>
      <trkpt lat="46.18414" lon="2.40597">
        <ele>340</ele>
        <time>2017-04-10T13:39:22Z</time>
      </trkpt>
      <trkpt lat="46.18418" lon="2.40597">
        <ele>340</ele>
        <time>2017-04-10T13:39:26Z</time>
      </trkpt>
      <trkpt lat="46.18423" lon="2.40598">
        <ele>339</ele>
        <time>2017-04-10T13:39:29Z</time>
      </trkpt>
      <trkpt lat="46.18428" lon="2.40599">
        <ele>339</ele>
        <time>2017-04-10T13:39:32Z</time>
      </trkpt>
      <trkpt lat="46.18432" lon="2.40601">
        <ele>338</ele>
        <time>2017-04-10T13:39:35Z</time>
      </trkpt>
      <trkpt lat="46.18436" lon="2.40602">
        <ele>338</ele>
        <time>2017-04-10T13:39:38Z</time>
      </trkpt>
      <trkpt lat="46.18441" lon="2.40604">
        <ele>338</ele>
        <time>2017-04-10T13:39:41Z</time>
      </trkpt>
      <trkpt lat="46.18444" lon="2.40606">
        <ele>338</ele>
        <time>2017-04-10T13:39:45Z</time>
      </trkpt>
      <trkpt lat="46.1845" lon="2.40609">
        <ele>337</ele>
        <time>2017-04-10T13:39:48Z</time>
      </trkpt>
      <trkpt lat="46.18454" lon="2.40612">
        <ele>337</ele>
        <time>2017-04-10T13:39:51Z</time>
      </trkpt>
      <trkpt lat="46.18457" lon="2.40614">
        <ele>337</ele>
        <time>2017-04-10T13:39:54Z</time>
      </trkpt>
      <trkpt lat="46.18461" lon="2.40617">
        <ele>337</ele>
        <time>2017-04-10T13:39:57Z</time>
      </trkpt>
      <trkpt lat="46.18465" lon="2.4062">
        <ele>337</ele>
        <time>2017-04-10T13:40:01Z</time>
      </trkpt>
      <trkpt lat="46.1847" lon="2.40624">
        <ele>337</ele>
        <time>2017-04-10T13:40:04Z</time>
      </trkpt>
      <trkpt lat="46.18473" lon="2.40627">
        <ele>337</ele>
        <time>2017-04-10T13:40:07Z</time>
      </trkpt>
      <trkpt lat="46.18477" lon="2.4063">
        <ele>336</ele>
        <time>2017-04-10T13:40:10Z</time>
      </trkpt>
      <trkpt lat="46.18481" lon="2.40633">
        <ele>334</ele>
        <time>2017-04-10T13:40:13Z</time>
      </trkpt>
      <trkpt lat="46.18484" lon="2.40636">
        <ele>333</ele>
        <time>2017-04-10T13:40:16Z</time>
      </trkpt>
      <trkpt lat="46.18488" lon="2.40639">
        <ele>333</ele>
        <time>2017-04-10T13:40:19Z</time>
      </trkpt>
      <trkpt lat="46.18492" lon="2.40642">
        <ele>333</ele>
        <time>2017-04-10T13:40:22Z</time>
      </trkpt>
      <trkpt lat="46.18496" lon="2.40646">
        <ele>333</ele>
        <time>2017-04-10T13:40:25Z</time>
      </trkpt>
      <trkpt lat="46.18499" lon="2.40648">
        <ele>333</ele>
        <time>2017-04-10T13:40:28Z</time>
      </trkpt>
      <trkpt lat="46.18503" lon="2.40651">
        <ele>333</ele>
        <time>2017-04-10T13:40:31Z</time>
      </trkpt>
      <trkpt lat="46.18506" lon="2.40654">
        <ele>333</ele>
        <time>2017-04-10T13:40:34Z</time>
      </trkpt>
      <trkpt lat="46.1851" lon="2.40657">
        <ele>333</ele>
        <time>2017-04-10T13:40:37Z</time>
      </trkpt>
      <trkpt lat="46.18514" lon="2.4066">
        <ele>333</ele>
        <time>2017-04-10T13:40:40Z</time>
      </trkpt>
      <trkpt lat="46.18517" lon="2.40663">
        <ele>333</ele>
        <time>2017-04-10T13:40:43Z</time>
      </trkpt>
      <trkpt lat="46.1852" lon="2.40666">
        <ele>333</ele>
        <time>2017-04-10T13:40:46Z</time>
      </trkpt>
      <trkpt lat="46.18525" lon="2.40669">
        <ele>333</ele>
        <time>2017-04-10T13:40:49Z</time>
      </trkpt>
      <trkpt lat="46.1853" lon="2.40673">
        <ele>333</ele>
        <time>2017-04-10T13:40:52Z</time>
      </trkpt>
      <trkpt lat="46.18533" lon="2.40677">
        <ele>333</ele>
        <time>2017-04-10T13:40:56Z</time>
      </trkpt>
      <trkpt lat="46.18536" lon="2.4068">
        <ele>333</ele>
        <time>2017-04-10T13:40:59Z</time>
      </trkpt>
      <trkpt lat="46.18541" lon="2.40684">
        <ele>333</ele>
        <time>2017-04-10T13:41:03Z</time>
      </trkpt>
      <trkpt lat="46.18545" lon="2.40686">
        <ele>333</ele>
        <time>2017-04-10T13:41:06Z</time>
      </trkpt>
      <trkpt lat="46.18549" lon="2.4069">
        <ele>333</ele>
        <time>2017-04-10T13:41:09Z</time>
      </trkpt>
      <trkpt lat="46.18554" lon="2.40692">
        <ele>333</ele>
        <time>2017-04-10T13:41:12Z</time>
      </trkpt>
      <trkpt lat="46.18559" lon="2.40695">
        <ele>333</ele>
        <time>2017-04-10T13:41:15Z</time>
      </trkpt>
      <trkpt lat="46.18563" lon="2.40698">
        <ele>333</ele>
        <time>2017-04-10T13:41:18Z</time>
      </trkpt>
      <trkpt lat="46.18568" lon="2.407">
        <ele>333</ele>
        <time>2017-04-10T13:41:21Z</time>
      </trkpt>
      <trkpt lat="46.18572" lon="2.40702">
        <ele>333</ele>
        <time>2017-04-10T13:41:24Z</time>
      </trkpt>
      <trkpt lat="46.18576" lon="2.40703">
        <ele>333</ele>
        <time>2017-04-10T13:41:27Z</time>
      </trkpt>
      <trkpt lat="46.1858" lon="2.40704">
        <ele>333</ele>
        <time>2017-04-10T13:41:30Z</time>
      </trkpt>
      <trkpt lat="46.18585" lon="2.40705">
        <ele>333</ele>
        <time>2017-04-10T13:41:33Z</time>
      </trkpt>
      <trkpt lat="46.18589" lon="2.40704">
        <ele>333</ele>
        <time>2017-04-10T13:41:36Z</time>
      </trkpt>
      <trkpt lat="46.18594" lon="2.40704">
        <ele>333</ele>
        <time>2017-04-10T13:41:39Z</time>
      </trkpt>
      <trkpt lat="46.18599" lon="2.40701">
        <ele>336</ele>
        <time>2017-04-10T13:41:43Z</time>
      </trkpt>
      <trkpt lat="46.18602" lon="2.40698">
        <ele>337</ele>
        <time>2017-04-10T13:41:46Z</time>
      </trkpt>
      <trkpt lat="46.18607" lon="2.40696">
        <ele>337</ele>
        <time>2017-04-10T13:41:49Z</time>
      </trkpt>
      <trkpt lat="46.18612" lon="2.40692">
        <ele>337</ele>
        <time>2017-04-10T13:41:52Z</time>
      </trkpt>
      <trkpt lat="46.18616" lon="2.40688">
        <ele>337</ele>
        <time>2017-04-10T13:41:55Z</time>
      </trkpt>
      <trkpt lat="46.1862" lon="2.40683">
        <ele>337</ele>
        <time>2017-04-10T13:41:58Z</time>
      </trkpt>
      <trkpt lat="46.18623" lon="2.40678">
        <ele>337</ele>
        <time>2017-04-10T13:42:01Z</time>
      </trkpt>
      <trkpt lat="46.18626" lon="2.40673">
        <ele>337</ele>
        <time>2017-04-10T13:42:04Z</time>
      </trkpt>
      <trkpt lat="46.1863" lon="2.40669">
        <ele>337</ele>
        <time>2017-04-10T13:42:07Z</time>
      </trkpt>
      <trkpt lat="46.18632" lon="2.40664">
        <ele>337</ele>
        <time>2017-04-10T13:42:10Z</time>
      </trkpt>
      <trkpt lat="46.18635" lon="2.40658">
        <ele>337</ele>
        <time>2017-04-10T13:42:13Z</time>
      </trkpt>
      <trkpt lat="46.18637" lon="2.40652">
        <ele>337</ele>
        <time>2017-04-10T13:42:16Z</time>
      </trkpt>
      <trkpt lat="46.18639" lon="2.40647">
        <ele>337</ele>
        <time>2017-04-10T13:42:19Z</time>
      </trkpt>
      <trkpt lat="46.18641" lon="2.40641">
        <ele>337</ele>
        <time>2017-04-10T13:42:22Z</time>
      </trkpt>
      <trkpt lat="46.18643" lon="2.40635">
        <ele>337</ele>
        <time>2017-04-10T13:42:25Z</time>
      </trkpt>
      <trkpt lat="46.18645" lon="2.40629">
        <ele>337</ele>
        <time>2017-04-10T13:42:28Z</time>
      </trkpt>
      <trkpt lat="46.18648" lon="2.40623">
        <ele>337</ele>
        <time>2017-04-10T13:42:31Z</time>
      </trkpt>
      <trkpt lat="46.1865" lon="2.40618">
        <ele>337</ele>
        <time>2017-04-10T13:42:34Z</time>
      </trkpt>
      <trkpt lat="46.18652" lon="2.40613">
        <ele>337</ele>
        <time>2017-04-10T13:42:37Z</time>
      </trkpt>
      <trkpt lat="46.18654" lon="2.40606">
        <ele>337</ele>
        <time>2017-04-10T13:42:40Z</time>
      </trkpt>
      <trkpt lat="46.18657" lon="2.406">
        <ele>337</ele>
        <time>2017-04-10T13:42:43Z</time>
      </trkpt>
      <trkpt lat="46.18658" lon="2.40593">
        <ele>337</ele>
        <time>2017-04-10T13:42:46Z</time>
      </trkpt>
      <trkpt lat="46.1866" lon="2.40587">
        <ele>337</ele>
        <time>2017-04-10T13:42:49Z</time>
      </trkpt>
      <trkpt lat="46.18662" lon="2.40581">
        <ele>337</ele>
        <time>2017-04-10T13:42:52Z</time>
      </trkpt>
      <trkpt lat="46.18665" lon="2.40576">
        <ele>337</ele>
        <time>2017-04-10T13:42:55Z</time>
      </trkpt>
      <trkpt lat="46.18669" lon="2.40572">
        <ele>337</ele>
        <time>2017-04-10T13:42:58Z</time>
      </trkpt>
      <trkpt lat="46.18673" lon="2.40568">
        <ele>337</ele>
        <time>2017-04-10T13:43:01Z</time>
      </trkpt>
      <trkpt lat="46.18676" lon="2.40562">
        <ele>337</ele>
        <time>2017-04-10T13:43:04Z</time>
      </trkpt>
      <trkpt lat="46.1868" lon="2.40558">
        <ele>337</ele>
        <time>2017-04-10T13:43:08Z</time>
      </trkpt>
      <trkpt lat="46.18685" lon="2.40557">
        <ele>337</ele>
        <time>2017-04-10T13:43:12Z</time>
      </trkpt>
      <trkpt lat="46.18689" lon="2.40556">
        <ele>337</ele>
        <time>2017-04-10T13:43:15Z</time>
      </trkpt>
      <trkpt lat="46.18694" lon="2.40555">
        <ele>337</ele>
        <time>2017-04-10T13:43:18Z</time>
      </trkpt>
      <trkpt lat="46.18698" lon="2.40555">
        <ele>337</ele>
        <time>2017-04-10T13:43:21Z</time>
      </trkpt>
      <trkpt lat="46.18703" lon="2.40555">
        <ele>336</ele>
        <time>2017-04-10T13:43:25Z</time>
      </trkpt>
      <trkpt lat="46.18707" lon="2.40556">
        <ele>335</ele>
        <time>2017-04-10T13:43:28Z</time>
      </trkpt>
      <trkpt lat="46.18713" lon="2.40556">
        <ele>335</ele>
        <time>2017-04-10T13:43:31Z</time>
      </trkpt>
      <trkpt lat="46.18717" lon="2.40558">
        <ele>335</ele>
        <time>2017-04-10T13:43:34Z</time>
      </trkpt>
      <trkpt lat="46.18721" lon="2.40557">
        <ele>335</ele>
        <time>2017-04-10T13:43:37Z</time>
      </trkpt>
      <trkpt lat="46.18724" lon="2.40553">
        <ele>335</ele>
        <time>2017-04-10T13:43:40Z</time>
      </trkpt>
      <trkpt lat="46.18726" lon="2.40548">
        <ele>335</ele>
        <time>2017-04-10T13:43:43Z</time>
      </trkpt>
      <trkpt lat="46.18726" lon="2.40543">
        <ele>335</ele>
        <time>2017-04-10T13:43:46Z</time>
      </trkpt>
      <trkpt lat="46.18724" lon="2.40538">
        <ele>335</ele>
        <time>2017-04-10T13:43:49Z</time>
      </trkpt>
      <trkpt lat="46.18722" lon="2.40532">
        <ele>335</ele>
        <time>2017-04-10T13:43:52Z</time>
      </trkpt>
      <trkpt lat="46.1872" lon="2.40527">
        <ele>335</ele>
        <time>2017-04-10T13:43:55Z</time>
      </trkpt>
      <trkpt lat="46.18717" lon="2.40522">
        <ele>335</ele>
        <time>2017-04-10T13:43:58Z</time>
      </trkpt>
      <trkpt lat="46.18715" lon="2.40518">
        <ele>335</ele>
        <time>2017-04-10T13:44:01Z</time>
      </trkpt>
      <trkpt lat="46.18713" lon="2.40512">
        <ele>335</ele>
        <time>2017-04-10T13:44:04Z</time>
      </trkpt>
      <trkpt lat="46.18711" lon="2.40506">
        <ele>335</ele>
        <time>2017-04-10T13:44:07Z</time>
      </trkpt>
      <trkpt lat="46.18708" lon="2.405">
        <ele>336</ele>
        <time>2017-04-10T13:44:10Z</time>
      </trkpt>
      <trkpt lat="46.18705" lon="2.40495">
        <ele>336</ele>
        <time>2017-04-10T13:44:13Z</time>
      </trkpt>
      <trkpt lat="46.18702" lon="2.40488">
        <ele>336</ele>
        <time>2017-04-10T13:44:17Z</time>
      </trkpt>
      <trkpt lat="46.187" lon="2.40482">
        <ele>336</ele>
        <time>2017-04-10T13:44:20Z</time>
      </trkpt>
      <trkpt lat="46.18697" lon="2.40477">
        <ele>336</ele>
        <time>2017-04-10T13:44:23Z</time>
      </trkpt>
      <trkpt lat="46.18696" lon="2.40473">
        <ele>336</ele>
        <time>2017-04-10T13:44:26Z</time>
      </trkpt>
      <trkpt lat="46.18694" lon="2.40467">
        <ele>336</ele>
        <time>2017-04-10T13:44:29Z</time>
      </trkpt>
      <trkpt lat="46.18691" lon="2.40462">
        <ele>336</ele>
        <time>2017-04-10T13:44:32Z</time>
      </trkpt>
      <trkpt lat="46.18689" lon="2.40455">
        <ele>336</ele>
        <time>2017-04-10T13:44:35Z</time>
      </trkpt>
      <trkpt lat="46.18686" lon="2.40449">
        <ele>336</ele>
        <time>2017-04-10T13:44:38Z</time>
      </trkpt>
      <trkpt lat="46.18682" lon="2.40444">
        <ele>337</ele>
        <time>2017-04-10T13:44:41Z</time>
      </trkpt>
      <trkpt lat="46.18679" lon="2.40438">
        <ele>340</ele>
        <time>2017-04-10T13:44:45Z</time>
      </trkpt>
      <trkpt lat="46.18676" lon="2.40434">
        <ele>341</ele>
        <time>2017-04-10T13:44:48Z</time>
      </trkpt>
      <trkpt lat="46.18673" lon="2.40428">
        <ele>341</ele>
        <time>2017-04-10T13:44:52Z</time>
      </trkpt>
      <trkpt lat="46.18671" lon="2.40422">
        <ele>341</ele>
        <time>2017-04-10T13:44:55Z</time>
      </trkpt>
      <trkpt lat="46.18668" lon="2.40417">
        <ele>341</ele>
        <time>2017-04-10T13:44:58Z</time>
      </trkpt>
      <trkpt lat="46.18665" lon="2.40412">
        <ele>341</ele>
        <time>2017-04-10T13:45:01Z</time>
      </trkpt>
      <trkpt lat="46.18663" lon="2.40407">
        <ele>341</ele>
        <time>2017-04-10T13:45:04Z</time>
      </trkpt>
      <trkpt lat="46.18661" lon="2.40402">
        <ele>341</ele>
        <time>2017-04-10T13:45:07Z</time>
      </trkpt>
      <trkpt lat="46.18658" lon="2.40398">
        <ele>341</ele>
        <time>2017-04-10T13:45:10Z</time>
      </trkpt>
      <trkpt lat="46.18656" lon="2.40393">
        <ele>341</ele>
        <time>2017-04-10T13:45:13Z</time>
      </trkpt>
      <trkpt lat="46.18653" lon="2.40387">
        <ele>341</ele>
        <time>2017-04-10T13:45:16Z</time>
      </trkpt>
      <trkpt lat="46.18651" lon="2.40381">
        <ele>341</ele>
        <time>2017-04-10T13:45:19Z</time>
      </trkpt>
      <trkpt lat="46.18647" lon="2.40374">
        <ele>341</ele>
        <time>2017-04-10T13:45:23Z</time>
      </trkpt>
      <trkpt lat="46.18645" lon="2.40369">
        <ele>341</ele>
        <time>2017-04-10T13:45:26Z</time>
      </trkpt>
      <trkpt lat="46.18643" lon="2.40365">
        <ele>341</ele>
        <time>2017-04-10T13:45:29Z</time>
      </trkpt>
      <trkpt lat="46.18641" lon="2.40358">
        <ele>341</ele>
        <time>2017-04-10T13:45:32Z</time>
      </trkpt>
      <trkpt lat="46.18639" lon="2.40352">
        <ele>341</ele>
        <time>2017-04-10T13:45:35Z</time>
      </trkpt>
      <trkpt lat="46.18637" lon="2.40346">
        <ele>340</ele>
        <time>2017-04-10T13:45:38Z</time>
      </trkpt>
      <trkpt lat="46.18635" lon="2.40341">
        <ele>340</ele>
        <time>2017-04-10T13:45:41Z</time>
      </trkpt>
      <trkpt lat="46.18633" lon="2.40336">
        <ele>340</ele>
        <time>2017-04-10T13:45:44Z</time>
      </trkpt>
      <trkpt lat="46.1863" lon="2.40331">
        <ele>340</ele>
        <time>2017-04-10T13:45:47Z</time>
      </trkpt>
      <trkpt lat="46.18626" lon="2.40325">
        <ele>340</ele>
        <time>2017-04-10T13:45:50Z</time>
      </trkpt>
      <trkpt lat="46.18623" lon="2.40319">
        <ele>340</ele>
        <time>2017-04-10T13:45:54Z</time>
      </trkpt>
      <trkpt lat="46.1862" lon="2.40315">
        <ele>340</ele>
        <time>2017-04-10T13:45:57Z</time>
      </trkpt>
      <trkpt lat="46.18617" lon="2.40309">
        <ele>340</ele>
        <time>2017-04-10T13:46:01Z</time>
      </trkpt>
      <trkpt lat="46.18615" lon="2.40305">
        <ele>340</ele>
        <time>2017-04-10T13:46:04Z</time>
      </trkpt>
      <trkpt lat="46.18613" lon="2.403">
        <ele>340</ele>
        <time>2017-04-10T13:46:07Z</time>
      </trkpt>
      <trkpt lat="46.18612" lon="2.40294">
        <ele>340</ele>
        <time>2017-04-10T13:46:10Z</time>
      </trkpt>
      <trkpt lat="46.18609" lon="2.4029">
        <ele>340</ele>
        <time>2017-04-10T13:46:13Z</time>
      </trkpt>
      <trkpt lat="46.18607" lon="2.40286">
        <ele>340</ele>
        <time>2017-04-10T13:46:16Z</time>
      </trkpt>
      <trkpt lat="46.18605" lon="2.40281">
        <ele>340</ele>
        <time>2017-04-10T13:46:19Z</time>
      </trkpt>
      <trkpt lat="46.18602" lon="2.40276">
        <ele>340</ele>
        <time>2017-04-10T13:46:22Z</time>
      </trkpt>
      <trkpt lat="46.186" lon="2.40271">
        <ele>340</ele>
        <time>2017-04-10T13:46:25Z</time>
      </trkpt>
      <trkpt lat="46.18599" lon="2.40267">
        <ele>341</ele>
        <time>2017-04-10T13:46:28Z</time>
      </trkpt>
      <trkpt lat="46.18596" lon="2.40261">
        <ele>342</ele>
        <time>2017-04-10T13:46:31Z</time>
      </trkpt>
      <trkpt lat="46.18594" lon="2.40257">
        <ele>342</ele>
        <time>2017-04-10T13:46:34Z</time>
      </trkpt>
      <trkpt lat="46.18593" lon="2.40256">
        <ele>343</ele>
        <time>2017-04-10T13:46:39Z</time>
      </trkpt>
      <trkpt lat="46.18591" lon="2.4025">
        <ele>343</ele>
        <time>2017-04-10T13:46:43Z</time>
      </trkpt>
      <trkpt lat="46.18588" lon="2.40246">
        <ele>343</ele>
        <time>2017-04-10T13:46:46Z</time>
      </trkpt>
      <trkpt lat="46.18586" lon="2.40241">
        <ele>343</ele>
        <time>2017-04-10T13:46:49Z</time>
      </trkpt>
      <trkpt lat="46.18582" lon="2.40236">
        <ele>343</ele>
        <time>2017-04-10T13:46:52Z</time>
      </trkpt>
      <trkpt lat="46.18579" lon="2.40231">
        <ele>343</ele>
        <time>2017-04-10T13:46:55Z</time>
      </trkpt>
      <trkpt lat="46.18576" lon="2.40226">
        <ele>343</ele>
        <time>2017-04-10T13:46:58Z</time>
      </trkpt>
      <trkpt lat="46.18573" lon="2.40221">
        <ele>343</ele>
        <time>2017-04-10T13:47:01Z</time>
      </trkpt>
      <trkpt lat="46.18569" lon="2.40217">
        <ele>342</ele>
        <time>2017-04-10T13:47:04Z</time>
      </trkpt>
      <trkpt lat="46.18567" lon="2.40211">
        <ele>342</ele>
        <time>2017-04-10T13:47:08Z</time>
      </trkpt>
      <trkpt lat="46.18565" lon="2.40206">
        <ele>342</ele>
        <time>2017-04-10T13:47:11Z</time>
      </trkpt>
      <trkpt lat="46.18564" lon="2.40202">
        <ele>342</ele>
        <time>2017-04-10T13:47:14Z</time>
      </trkpt>
      <trkpt lat="46.18563" lon="2.40196">
        <ele>342</ele>
        <time>2017-04-10T13:47:17Z</time>
      </trkpt>
      <trkpt lat="46.1856" lon="2.40191">
        <ele>342</ele>
        <time>2017-04-10T13:47:20Z</time>
      </trkpt>
      <trkpt lat="46.18558" lon="2.40186">
        <ele>342</ele>
        <time>2017-04-10T13:47:23Z</time>
      </trkpt>
      <trkpt lat="46.18556" lon="2.40182">
        <ele>342</ele>
        <time>2017-04-10T13:47:26Z</time>
      </trkpt>
      <trkpt lat="46.18553" lon="2.40178">
        <ele>342</ele>
        <time>2017-04-10T13:47:29Z</time>
      </trkpt>
      <trkpt lat="46.18549" lon="2.40172">
        <ele>343</ele>
        <time>2017-04-10T13:47:33Z</time>
      </trkpt>
      <trkpt lat="46.18545" lon="2.40167">
        <ele>343</ele>
        <time>2017-04-10T13:47:36Z</time>
      </trkpt>
      <trkpt lat="46.18542" lon="2.40162">
        <ele>343</ele>
        <time>2017-04-10T13:47:39Z</time>
      </trkpt>
      <trkpt lat="46.18539" lon="2.40158">
        <ele>343</ele>
        <time>2017-04-10T13:47:42Z</time>
      </trkpt>
      <trkpt lat="46.18534" lon="2.40153">
        <ele>343</ele>
        <time>2017-04-10T13:47:45Z</time>
      </trkpt>
      <trkpt lat="46.18531" lon="2.40149">
        <ele>343</ele>
        <time>2017-04-10T13:47:48Z</time>
      </trkpt>
      <trkpt lat="46.18528" lon="2.40146">
        <ele>343</ele>
        <time>2017-04-10T13:47:51Z</time>
      </trkpt>
      <trkpt lat="46.18524" lon="2.40141">
        <ele>343</ele>
        <time>2017-04-10T13:47:54Z</time>
      </trkpt>
      <trkpt lat="46.18521" lon="2.40137">
        <ele>343</ele>
        <time>2017-04-10T13:47:57Z</time>
      </trkpt>
      <trkpt lat="46.18518" lon="2.40133">
        <ele>343</ele>
        <time>2017-04-10T13:48:00Z</time>
      </trkpt>
      <trkpt lat="46.18514" lon="2.40128">
        <ele>343</ele>
        <time>2017-04-10T13:48:03Z</time>
      </trkpt>
      <trkpt lat="46.18511" lon="2.40124">
        <ele>342</ele>
        <time>2017-04-10T13:48:06Z</time>
      </trkpt>
      <trkpt lat="46.18507" lon="2.4012">
        <ele>341</ele>
        <time>2017-04-10T13:48:09Z</time>
      </trkpt>
      <trkpt lat="46.18503" lon="2.40117">
        <ele>341</ele>
        <time>2017-04-10T13:48:12Z</time>
      </trkpt>
      <trkpt lat="46.185" lon="2.40112">
        <ele>341</ele>
        <time>2017-04-10T13:48:15Z</time>
      </trkpt>
      <trkpt lat="46.18496" lon="2.40108">
        <ele>341</ele>
        <time>2017-04-10T13:48:18Z</time>
      </trkpt>
      <trkpt lat="46.18493" lon="2.40104">
        <ele>341</ele>
        <time>2017-04-10T13:48:21Z</time>
      </trkpt>
      <trkpt lat="46.18489" lon="2.40099">
        <ele>341</ele>
        <time>2017-04-10T13:48:24Z</time>
      </trkpt>
      <trkpt lat="46.18485" lon="2.40095">
        <ele>341</ele>
        <time>2017-04-10T13:48:27Z</time>
      </trkpt>
      <trkpt lat="46.1848" lon="2.40089">
        <ele>341</ele>
        <time>2017-04-10T13:48:31Z</time>
      </trkpt>
      <trkpt lat="46.18476" lon="2.40085">
        <ele>341</ele>
        <time>2017-04-10T13:48:34Z</time>
      </trkpt>
      <trkpt lat="46.18473" lon="2.4008">
        <ele>341</ele>
        <time>2017-04-10T13:48:37Z</time>
      </trkpt>
      <trkpt lat="46.18469" lon="2.40076">
        <ele>341</ele>
        <time>2017-04-10T13:48:40Z</time>
      </trkpt>
      <trkpt lat="46.18465" lon="2.40072">
        <ele>341</ele>
        <time>2017-04-10T13:48:44Z</time>
      </trkpt>
      <trkpt lat="46.1846" lon="2.40066">
        <ele>341</ele>
        <time>2017-04-10T13:48:48Z</time>
      </trkpt>
      <trkpt lat="46.18457" lon="2.40062">
        <ele>341</ele>
        <time>2017-04-10T13:48:52Z</time>
      </trkpt>
      <trkpt lat="46.18452" lon="2.40057">
        <ele>341</ele>
        <time>2017-04-10T13:48:55Z</time>
      </trkpt>
      <trkpt lat="46.18449" lon="2.40054">
        <ele>341</ele>
        <time>2017-04-10T13:48:58Z</time>
      </trkpt>
      <trkpt lat="46.18446" lon="2.4005">
        <ele>341</ele>
        <time>2017-04-10T13:49:01Z</time>
      </trkpt>
      <trkpt lat="46.18442" lon="2.40046">
        <ele>341</ele>
        <time>2017-04-10T13:49:04Z</time>
      </trkpt>
      <trkpt lat="46.18437" lon="2.40043">
        <ele>341</ele>
        <time>2017-04-10T13:49:07Z</time>
      </trkpt>
      <trkpt lat="46.18433" lon="2.40041">
        <ele>341</ele>
        <time>2017-04-10T13:49:11Z</time>
      </trkpt>
      <trkpt lat="46.18429" lon="2.40039">
        <ele>343</ele>
        <time>2017-04-10T13:49:14Z</time>
      </trkpt>
      <trkpt lat="46.18425" lon="2.40036">
        <ele>345</ele>
        <time>2017-04-10T13:49:17Z</time>
      </trkpt>
      <trkpt lat="46.1842" lon="2.40032">
        <ele>346</ele>
        <time>2017-04-10T13:49:20Z</time>
      </trkpt>
      <trkpt lat="46.18415" lon="2.40029">
        <ele>346</ele>
        <time>2017-04-10T13:49:23Z</time>
      </trkpt>
      <trkpt lat="46.1841" lon="2.40028">
        <ele>346</ele>
        <time>2017-04-10T13:49:26Z</time>
      </trkpt>
      <trkpt lat="46.18407" lon="2.40025">
        <ele>346</ele>
        <time>2017-04-10T13:49:29Z</time>
      </trkpt>
      <trkpt lat="46.18402" lon="2.40023">
        <ele>346</ele>
        <time>2017-04-10T13:49:32Z</time>
      </trkpt>
      <trkpt lat="46.18398" lon="2.4002">
        <ele>346</ele>
        <time>2017-04-10T13:49:35Z</time>
      </trkpt>
      <trkpt lat="46.18394" lon="2.40016">
        <ele>346</ele>
        <time>2017-04-10T13:49:39Z</time>
      </trkpt>
      <trkpt lat="46.18388" lon="2.40014">
        <ele>346</ele>
        <time>2017-04-10T13:49:42Z</time>
      </trkpt>
      <trkpt lat="46.18384" lon="2.40012">
        <ele>346</ele>
        <time>2017-04-10T13:49:45Z</time>
      </trkpt>
      <trkpt lat="46.1838" lon="2.40009">
        <ele>346</ele>
        <time>2017-04-10T13:49:48Z</time>
      </trkpt>
      <trkpt lat="46.18376" lon="2.40007">
        <ele>346</ele>
        <time>2017-04-10T13:49:51Z</time>
      </trkpt>
      <trkpt lat="46.18371" lon="2.40004">
        <ele>346</ele>
        <time>2017-04-10T13:49:55Z</time>
      </trkpt>
      <trkpt lat="46.18368" lon="2.40001">
        <ele>346</ele>
        <time>2017-04-10T13:49:58Z</time>
      </trkpt>
      <trkpt lat="46.18365" lon="2.39998">
        <ele>346</ele>
        <time>2017-04-10T13:50:01Z</time>
      </trkpt>
      <trkpt lat="46.1836" lon="2.39997">
        <ele>346</ele>
        <time>2017-04-10T13:50:04Z</time>
      </trkpt>
      <trkpt lat="46.18356" lon="2.39994">
        <ele>346</ele>
        <time>2017-04-10T13:50:08Z</time>
      </trkpt>
      <trkpt lat="46.18352" lon="2.39992">
        <ele>346</ele>
        <time>2017-04-10T13:50:11Z</time>
      </trkpt>
      <trkpt lat="46.18348" lon="2.3999">
        <ele>346</ele>
        <time>2017-04-10T13:50:14Z</time>
      </trkpt>
      <trkpt lat="46.18343" lon="2.39988">
        <ele>346</ele>
        <time>2017-04-10T13:50:17Z</time>
      </trkpt>
      <trkpt lat="46.18339" lon="2.39985">
        <ele>346</ele>
        <time>2017-04-10T13:50:20Z</time>
      </trkpt>
      <trkpt lat="46.18335" lon="2.39982">
        <ele>346</ele>
        <time>2017-04-10T13:50:23Z</time>
      </trkpt>
      <trkpt lat="46.1833" lon="2.3998">
        <ele>346</ele>
        <time>2017-04-10T13:50:26Z</time>
      </trkpt>
      <trkpt lat="46.18325" lon="2.39976">
        <ele>346</ele>
        <time>2017-04-10T13:50:30Z</time>
      </trkpt>
      <trkpt lat="46.18322" lon="2.39973">
        <ele>346</ele>
        <time>2017-04-10T13:50:33Z</time>
      </trkpt>
      <trkpt lat="46.18316" lon="2.39972">
        <ele>346</ele>
        <time>2017-04-10T13:50:36Z</time>
      </trkpt>
      <trkpt lat="46.18311" lon="2.3997">
        <ele>346</ele>
        <time>2017-04-10T13:50:39Z</time>
      </trkpt>
      <trkpt lat="46.18306" lon="2.39968">
        <ele>347</ele>
        <time>2017-04-10T13:50:42Z</time>
      </trkpt>
      <trkpt lat="46.18301" lon="2.39966">
        <ele>347</ele>
        <time>2017-04-10T13:50:45Z</time>
      </trkpt>
      <trkpt lat="46.18297" lon="2.39963">
        <ele>347</ele>
        <time>2017-04-10T13:50:49Z</time>
      </trkpt>
      <trkpt lat="46.18293" lon="2.3996">
        <ele>347</ele>
        <time>2017-04-10T13:50:52Z</time>
      </trkpt>
      <trkpt lat="46.18289" lon="2.39958">
        <ele>347</ele>
        <time>2017-04-10T13:50:55Z</time>
      </trkpt>
      <trkpt lat="46.18285" lon="2.39955">
        <ele>347</ele>
        <time>2017-04-10T13:50:58Z</time>
      </trkpt>
      <trkpt lat="46.1828" lon="2.39953">
        <ele>347</ele>
        <time>2017-04-10T13:51:01Z</time>
      </trkpt>
      <trkpt lat="46.18276" lon="2.39952">
        <ele>347</ele>
        <time>2017-04-10T13:51:04Z</time>
      </trkpt>
      <trkpt lat="46.18271" lon="2.39949">
        <ele>347</ele>
        <time>2017-04-10T13:51:07Z</time>
      </trkpt>
      <trkpt lat="46.18267" lon="2.39946">
        <ele>347</ele>
        <time>2017-04-10T13:51:10Z</time>
      </trkpt>
      <trkpt lat="46.18262" lon="2.39944">
        <ele>348</ele>
        <time>2017-04-10T13:51:13Z</time>
      </trkpt>
      <trkpt lat="46.18258" lon="2.39941">
        <ele>348</ele>
        <time>2017-04-10T13:51:16Z</time>
      </trkpt>
      <trkpt lat="46.18254" lon="2.39938">
        <ele>348</ele>
        <time>2017-04-10T13:51:19Z</time>
      </trkpt>
      <trkpt lat="46.18251" lon="2.39935">
        <ele>348</ele>
        <time>2017-04-10T13:51:22Z</time>
      </trkpt>
      <trkpt lat="46.18248" lon="2.39933">
        <ele>348</ele>
        <time>2017-04-10T13:51:25Z</time>
      </trkpt>
      <trkpt lat="46.18244" lon="2.3993">
        <ele>348</ele>
        <time>2017-04-10T13:51:28Z</time>
      </trkpt>
      <trkpt lat="46.1824" lon="2.39926">
        <ele>348</ele>
        <time>2017-04-10T13:51:31Z</time>
      </trkpt>
      <trkpt lat="46.18236" lon="2.39923">
        <ele>348</ele>
        <time>2017-04-10T13:51:34Z</time>
      </trkpt>
      <trkpt lat="46.18232" lon="2.39919">
        <ele>348</ele>
        <time>2017-04-10T13:51:37Z</time>
      </trkpt>
      <trkpt lat="46.18229" lon="2.39915">
        <ele>348</ele>
        <time>2017-04-10T13:51:40Z</time>
      </trkpt>
      <trkpt lat="46.18225" lon="2.39913">
        <ele>348</ele>
        <time>2017-04-10T13:51:43Z</time>
      </trkpt>
      <trkpt lat="46.18221" lon="2.3991">
        <ele>348</ele>
        <time>2017-04-10T13:51:46Z</time>
      </trkpt>
      <trkpt lat="46.18218" lon="2.39908">
        <ele>348</ele>
        <time>2017-04-10T13:51:49Z</time>
      </trkpt>
      <trkpt lat="46.18213" lon="2.39906">
        <ele>348</ele>
        <time>2017-04-10T13:51:53Z</time>
      </trkpt>
      <trkpt lat="46.18208" lon="2.39901">
        <ele>348</ele>
        <time>2017-04-10T13:51:56Z</time>
      </trkpt>
      <trkpt lat="46.18204" lon="2.39898">
        <ele>348</ele>
        <time>2017-04-10T13:51:59Z</time>
      </trkpt>
      <trkpt lat="46.182" lon="2.39895">
        <ele>350</ele>
        <time>2017-04-10T13:52:02Z</time>
      </trkpt>
      <trkpt lat="46.18198" lon="2.39893">
        <ele>351</ele>
        <time>2017-04-10T13:52:05Z</time>
      </trkpt>
      <trkpt lat="46.18194" lon="2.39889">
        <ele>352</ele>
        <time>2017-04-10T13:52:08Z</time>
      </trkpt>
      <trkpt lat="46.1819" lon="2.39886">
        <ele>353</ele>
        <time>2017-04-10T13:52:11Z</time>
      </trkpt>
      <trkpt lat="46.18187" lon="2.39883">
        <ele>353</ele>
        <time>2017-04-10T13:52:14Z</time>
      </trkpt>
      <trkpt lat="46.18182" lon="2.39879">
        <ele>353</ele>
        <time>2017-04-10T13:52:18Z</time>
      </trkpt>
      <trkpt lat="46.18179" lon="2.39875">
        <ele>353</ele>
        <time>2017-04-10T13:52:22Z</time>
      </trkpt>
      <trkpt lat="46.18174" lon="2.39871">
        <ele>353</ele>
        <time>2017-04-10T13:52:26Z</time>
      </trkpt>
      <trkpt lat="46.18171" lon="2.39867">
        <ele>351</ele>
        <time>2017-04-10T13:52:29Z</time>
      </trkpt>
      <trkpt lat="46.18168" lon="2.39864">
        <ele>350</ele>
        <time>2017-04-10T13:52:32Z</time>
      </trkpt>
      <trkpt lat="46.18164" lon="2.39861">
        <ele>350</ele>
        <time>2017-04-10T13:52:35Z</time>
      </trkpt>
      <trkpt lat="46.1816" lon="2.39858">
        <ele>350</ele>
        <time>2017-04-10T13:52:38Z</time>
      </trkpt>
      <trkpt lat="46.18155" lon="2.39854">
        <ele>350</ele>
        <time>2017-04-10T13:52:42Z</time>
      </trkpt>
      <trkpt lat="46.18151" lon="2.39851">
        <ele>351</ele>
        <time>2017-04-10T13:52:45Z</time>
      </trkpt>
      <trkpt lat="46.18147" lon="2.39847">
        <ele>353</ele>
        <time>2017-04-10T13:52:48Z</time>
      </trkpt>
      <trkpt lat="46.18143" lon="2.39844">
        <ele>354</ele>
        <time>2017-04-10T13:52:51Z</time>
      </trkpt>
      <trkpt lat="46.1814" lon="2.39841">
        <ele>355</ele>
        <time>2017-04-10T13:52:54Z</time>
      </trkpt>
      <trkpt lat="46.18137" lon="2.39837">
        <ele>356</ele>
        <time>2017-04-10T13:52:57Z</time>
      </trkpt>
      <trkpt lat="46.18134" lon="2.39834">
        <ele>356</ele>
        <time>2017-04-10T13:53:00Z</time>
      </trkpt>
      <trkpt lat="46.1813" lon="2.3983">
        <ele>356</ele>
        <time>2017-04-10T13:53:03Z</time>
      </trkpt>
      <trkpt lat="46.18127" lon="2.39826">
        <ele>356</ele>
        <time>2017-04-10T13:53:06Z</time>
      </trkpt>
      <trkpt lat="46.18123" lon="2.39822">
        <ele>356</ele>
        <time>2017-04-10T13:53:10Z</time>
      </trkpt>
      <trkpt lat="46.1812" lon="2.39818">
        <ele>356</ele>
        <time>2017-04-10T13:53:13Z</time>
      </trkpt>
      <trkpt lat="46.18117" lon="2.39814">
        <ele>356</ele>
        <time>2017-04-10T13:53:16Z</time>
      </trkpt>
      <trkpt lat="46.18114" lon="2.3981">
        <ele>356</ele>
        <time>2017-04-10T13:53:19Z</time>
      </trkpt>
      <trkpt lat="46.18111" lon="2.39805">
        <ele>356</ele>
        <time>2017-04-10T13:53:22Z</time>
      </trkpt>
      <trkpt lat="46.18108" lon="2.39801">
        <ele>356</ele>
        <time>2017-04-10T13:53:25Z</time>
      </trkpt>
      <trkpt lat="46.18104" lon="2.39797">
        <ele>356</ele>
        <time>2017-04-10T13:53:28Z</time>
      </trkpt>
      <trkpt lat="46.18101" lon="2.39792">
        <ele>356</ele>
        <time>2017-04-10T13:53:31Z</time>
      </trkpt>
      <trkpt lat="46.18097" lon="2.39786">
        <ele>356</ele>
        <time>2017-04-10T13:53:35Z</time>
      </trkpt>
      <trkpt lat="46.18093" lon="2.39781">
        <ele>356</ele>
        <time>2017-04-10T13:53:38Z</time>
      </trkpt>
      <trkpt lat="46.18091" lon="2.39776">
        <ele>356</ele>
        <time>2017-04-10T13:53:41Z</time>
      </trkpt>
      <trkpt lat="46.18087" lon="2.39771">
        <ele>356</ele>
        <time>2017-04-10T13:53:44Z</time>
      </trkpt>
      <trkpt lat="46.18085" lon="2.39766">
        <ele>356</ele>
        <time>2017-04-10T13:53:47Z</time>
      </trkpt>
      <trkpt lat="46.18082" lon="2.39761">
        <ele>356</ele>
        <time>2017-04-10T13:53:50Z</time>
      </trkpt>
      <trkpt lat="46.18079" lon="2.39755">
        <ele>356</ele>
        <time>2017-04-10T13:53:54Z</time>
      </trkpt>
      <trkpt lat="46.18076" lon="2.3975">
        <ele>356</ele>
        <time>2017-04-10T13:53:57Z</time>
      </trkpt>
      <trkpt lat="46.18074" lon="2.39745">
        <ele>356</ele>
        <time>2017-04-10T13:54:00Z</time>
      </trkpt>
      <trkpt lat="46.18072" lon="2.3974">
        <ele>356</ele>
        <time>2017-04-10T13:54:03Z</time>
      </trkpt>
      <trkpt lat="46.18069" lon="2.39736">
        <ele>356</ele>
        <time>2017-04-10T13:54:06Z</time>
      </trkpt>
      <trkpt lat="46.18067" lon="2.39732">
        <ele>356</ele>
        <time>2017-04-10T13:54:09Z</time>
      </trkpt>
      <trkpt lat="46.18064" lon="2.39726">
        <ele>356</ele>
        <time>2017-04-10T13:54:12Z</time>
      </trkpt>
      <trkpt lat="46.18061" lon="2.39721">
        <ele>356</ele>
        <time>2017-04-10T13:54:15Z</time>
      </trkpt>
      <trkpt lat="46.1806" lon="2.39717">
        <ele>356</ele>
        <time>2017-04-10T13:54:18Z</time>
      </trkpt>
      <trkpt lat="46.18058" lon="2.39711">
        <ele>356</ele>
        <time>2017-04-10T13:54:21Z</time>
      </trkpt>
      <trkpt lat="46.18055" lon="2.39705">
        <ele>356</ele>
        <time>2017-04-10T13:54:24Z</time>
      </trkpt>
      <trkpt lat="46.18052" lon="2.39698">
        <ele>356</ele>
        <time>2017-04-10T13:54:27Z</time>
      </trkpt>
      <trkpt lat="46.18049" lon="2.39693">
        <ele>356</ele>
        <time>2017-04-10T13:54:30Z</time>
      </trkpt>
      <trkpt lat="46.18045" lon="2.39686">
        <ele>356</ele>
        <time>2017-04-10T13:54:34Z</time>
      </trkpt>
      <trkpt lat="46.18043" lon="2.39681">
        <ele>356</ele>
        <time>2017-04-10T13:54:37Z</time>
      </trkpt>
      <trkpt lat="46.1804" lon="2.39675">
        <ele>356</ele>
        <time>2017-04-10T13:54:40Z</time>
      </trkpt>
      <trkpt lat="46.18038" lon="2.3967">
        <ele>356</ele>
        <time>2017-04-10T13:54:43Z</time>
      </trkpt>
      <trkpt lat="46.18036" lon="2.39665">
        <ele>356</ele>
        <time>2017-04-10T13:54:46Z</time>
      </trkpt>
      <trkpt lat="46.18034" lon="2.39661">
        <ele>356</ele>
        <time>2017-04-10T13:54:49Z</time>
      </trkpt>
      <trkpt lat="46.18032" lon="2.39655">
        <ele>356</ele>
        <time>2017-04-10T13:54:52Z</time>
      </trkpt>
      <trkpt lat="46.18029" lon="2.3965">
        <ele>356</ele>
        <time>2017-04-10T13:54:55Z</time>
      </trkpt>
      <trkpt lat="46.18026" lon="2.39645">
        <ele>356</ele>
        <time>2017-04-10T13:54:58Z</time>
      </trkpt>
      <trkpt lat="46.18024" lon="2.39639">
        <ele>356</ele>
        <time>2017-04-10T13:55:01Z</time>
      </trkpt>
      <trkpt lat="46.18022" lon="2.39633">
        <ele>356</ele>
        <time>2017-04-10T13:55:04Z</time>
      </trkpt>
      <trkpt lat="46.18018" lon="2.39627">
        <ele>356</ele>
        <time>2017-04-10T13:55:08Z</time>
      </trkpt>
      <trkpt lat="46.18016" lon="2.39621">
        <ele>356</ele>
        <time>2017-04-10T13:55:11Z</time>
      </trkpt>
      <trkpt lat="46.18014" lon="2.39616">
        <ele>356</ele>
        <time>2017-04-10T13:55:14Z</time>
      </trkpt>
      <trkpt lat="46.18012" lon="2.39611">
        <ele>356</ele>
        <time>2017-04-10T13:55:17Z</time>
      </trkpt>
      <trkpt lat="46.1801" lon="2.39606">
        <ele>356</ele>
        <time>2017-04-10T13:55:20Z</time>
      </trkpt>
      <trkpt lat="46.18007" lon="2.396">
        <ele>357</ele>
        <time>2017-04-10T13:55:23Z</time>
      </trkpt>
      <trkpt lat="46.18004" lon="2.39594">
        <ele>357</ele>
        <time>2017-04-10T13:55:26Z</time>
      </trkpt>
      <trkpt lat="46.18002" lon="2.39587">
        <ele>357</ele>
        <time>2017-04-10T13:55:29Z</time>
      </trkpt>
      <trkpt lat="46.18" lon="2.39582">
        <ele>357</ele>
        <time>2017-04-10T13:55:32Z</time>
      </trkpt>
      <trkpt lat="46.17997" lon="2.39576">
        <ele>357</ele>
        <time>2017-04-10T13:55:35Z</time>
      </trkpt>
      <trkpt lat="46.17995" lon="2.3957">
        <ele>357</ele>
        <time>2017-04-10T13:55:38Z</time>
      </trkpt>
      <trkpt lat="46.17994" lon="2.39564">
        <ele>357</ele>
        <time>2017-04-10T13:55:41Z</time>
      </trkpt>
      <trkpt lat="46.17992" lon="2.39558">
        <ele>355</ele>
        <time>2017-04-10T13:55:44Z</time>
      </trkpt>
      <trkpt lat="46.1799" lon="2.39553">
        <ele>354</ele>
        <time>2017-04-10T13:55:47Z</time>
      </trkpt>
      <trkpt lat="46.17988" lon="2.39547">
        <ele>354</ele>
        <time>2017-04-10T13:55:50Z</time>
      </trkpt>
      <trkpt lat="46.17986" lon="2.39542">
        <ele>354</ele>
        <time>2017-04-10T13:55:53Z</time>
      </trkpt>
      <trkpt lat="46.17985" lon="2.39536">
        <ele>354</ele>
        <time>2017-04-10T13:55:56Z</time>
      </trkpt>
      <trkpt lat="46.17983" lon="2.3953">
        <ele>354</ele>
        <time>2017-04-10T13:55:59Z</time>
      </trkpt>
      <trkpt lat="46.17981" lon="2.39524">
        <ele>354</ele>
        <time>2017-04-10T13:56:02Z</time>
      </trkpt>
      <trkpt lat="46.17979" lon="2.39518">
        <ele>354</ele>
        <time>2017-04-10T13:56:05Z</time>
      </trkpt>
      <trkpt lat="46.17977" lon="2.39512">
        <ele>354</ele>
        <time>2017-04-10T13:56:08Z</time>
      </trkpt>
      <trkpt lat="46.17976" lon="2.39507">
        <ele>354</ele>
        <time>2017-04-10T13:56:11Z</time>
      </trkpt>
      <trkpt lat="46.17974" lon="2.39502">
        <ele>354</ele>
        <time>2017-04-10T13:56:14Z</time>
      </trkpt>
      <trkpt lat="46.17972" lon="2.39496">
        <ele>354</ele>
        <time>2017-04-10T13:56:17Z</time>
      </trkpt>
      <trkpt lat="46.17971" lon="2.3949">
        <ele>354</ele>
        <time>2017-04-10T13:56:20Z</time>
      </trkpt>
      <trkpt lat="46.1797" lon="2.39484">
        <ele>354</ele>
        <time>2017-04-10T13:56:23Z</time>
      </trkpt>
      <trkpt lat="46.17968" lon="2.39478">
        <ele>355</ele>
        <time>2017-04-10T13:56:26Z</time>
      </trkpt>
      <trkpt lat="46.17966" lon="2.39472">
        <ele>357</ele>
        <time>2017-04-10T13:56:29Z</time>
      </trkpt>
      <trkpt lat="46.17964" lon="2.39466">
        <ele>357</ele>
        <time>2017-04-10T13:56:32Z</time>
      </trkpt>
      <trkpt lat="46.17963" lon="2.39459">
        <ele>357</ele>
        <time>2017-04-10T13:56:35Z</time>
      </trkpt>
      <trkpt lat="46.17962" lon="2.39454">
        <ele>357</ele>
        <time>2017-04-10T13:56:38Z</time>
      </trkpt>
      <trkpt lat="46.1796" lon="2.39446">
        <ele>357</ele>
        <time>2017-04-10T13:56:41Z</time>
      </trkpt>
      <trkpt lat="46.17958" lon="2.39441">
        <ele>357</ele>
        <time>2017-04-10T13:56:44Z</time>
      </trkpt>
      <trkpt lat="46.17957" lon="2.39436">
        <ele>357</ele>
        <time>2017-04-10T13:56:47Z</time>
      </trkpt>
      <trkpt lat="46.17956" lon="2.3943">
        <ele>357</ele>
        <time>2017-04-10T13:56:50Z</time>
      </trkpt>
      <trkpt lat="46.17955" lon="2.39425">
        <ele>357</ele>
        <time>2017-04-10T13:56:53Z</time>
      </trkpt>
      <trkpt lat="46.17953" lon="2.3942">
        <ele>357</ele>
        <time>2017-04-10T13:56:56Z</time>
      </trkpt>
      <trkpt lat="46.1795" lon="2.39413">
        <ele>357</ele>
        <time>2017-04-10T13:56:59Z</time>
      </trkpt>
      <trkpt lat="46.17949" lon="2.39407">
        <ele>357</ele>
        <time>2017-04-10T13:57:02Z</time>
      </trkpt>
      <trkpt lat="46.17948" lon="2.39401">
        <ele>357</ele>
        <time>2017-04-10T13:57:05Z</time>
      </trkpt>
      <trkpt lat="46.17947" lon="2.39394">
        <ele>357</ele>
        <time>2017-04-10T13:57:08Z</time>
      </trkpt>
      <trkpt lat="46.17945" lon="2.39387">
        <ele>357</ele>
        <time>2017-04-10T13:57:12Z</time>
      </trkpt>
      <trkpt lat="46.17943" lon="2.39381">
        <ele>357</ele>
        <time>2017-04-10T13:57:15Z</time>
      </trkpt>
      <trkpt lat="46.17942" lon="2.39375">
        <ele>357</ele>
        <time>2017-04-10T13:57:18Z</time>
      </trkpt>
      <trkpt lat="46.1794" lon="2.39369">
        <ele>357</ele>
        <time>2017-04-10T13:57:21Z</time>
      </trkpt>
      <trkpt lat="46.17938" lon="2.39364">
        <ele>357</ele>
        <time>2017-04-10T13:57:24Z</time>
      </trkpt>
      <trkpt lat="46.17936" lon="2.39358">
        <ele>358</ele>
        <time>2017-04-10T13:57:27Z</time>
      </trkpt>
      <trkpt lat="46.17933" lon="2.39352">
        <ele>358</ele>
        <time>2017-04-10T13:57:31Z</time>
      </trkpt>
      <trkpt lat="46.1793" lon="2.39348">
        <ele>358</ele>
        <time>2017-04-10T13:57:34Z</time>
      </trkpt>
      <trkpt lat="46.17926" lon="2.39343">
        <ele>358</ele>
        <time>2017-04-10T13:57:37Z</time>
      </trkpt>
      <trkpt lat="46.17923" lon="2.39338">
        <ele>358</ele>
        <time>2017-04-10T13:57:41Z</time>
      </trkpt>
      <trkpt lat="46.1792" lon="2.39336">
        <ele>358</ele>
        <time>2017-04-10T13:57:44Z</time>
      </trkpt>
      <trkpt lat="46.17915" lon="2.39332">
        <ele>359</ele>
        <time>2017-04-10T13:57:47Z</time>
      </trkpt>
      <trkpt lat="46.1791" lon="2.39327">
        <ele>361</ele>
        <time>2017-04-10T13:57:50Z</time>
      </trkpt>
      <trkpt lat="46.17906" lon="2.39323">
        <ele>363</ele>
        <time>2017-04-10T13:57:53Z</time>
      </trkpt>
      <trkpt lat="46.17901" lon="2.39321">
        <ele>365</ele>
        <time>2017-04-10T13:57:56Z</time>
      </trkpt>
      <trkpt lat="46.17896" lon="2.39319">
        <ele>366</ele>
        <time>2017-04-10T13:57:59Z</time>
      </trkpt>
      <trkpt lat="46.17892" lon="2.39316">
        <ele>366</ele>
        <time>2017-04-10T13:58:02Z</time>
      </trkpt>
      <trkpt lat="46.17891" lon="2.3931">
        <ele>366</ele>
        <time>2017-04-10T13:58:05Z</time>
      </trkpt>
      <trkpt lat="46.17891" lon="2.39304">
        <ele>366</ele>
        <time>2017-04-10T13:58:08Z</time>
      </trkpt>
      <trkpt lat="46.17891" lon="2.39298">
        <ele>366</ele>
        <time>2017-04-10T13:58:11Z</time>
      </trkpt>
      <trkpt lat="46.17892" lon="2.39292">
        <ele>366</ele>
        <time>2017-04-10T13:58:14Z</time>
      </trkpt>
      <trkpt lat="46.17892" lon="2.39286">
        <ele>366</ele>
        <time>2017-04-10T13:58:17Z</time>
      </trkpt>
      <trkpt lat="46.17894" lon="2.39279">
        <ele>366</ele>
        <time>2017-04-10T13:58:20Z</time>
      </trkpt>
      <trkpt lat="46.17894" lon="2.39274">
        <ele>366</ele>
        <time>2017-04-10T13:58:23Z</time>
      </trkpt>
      <trkpt lat="46.17894" lon="2.39269">
        <ele>366</ele>
        <time>2017-04-10T13:58:26Z</time>
      </trkpt>
      <trkpt lat="46.17896" lon="2.39264">
        <ele>366</ele>
        <time>2017-04-10T13:58:29Z</time>
      </trkpt>
      <trkpt lat="46.17896" lon="2.39258">
        <ele>366</ele>
        <time>2017-04-10T13:58:32Z</time>
      </trkpt>
      <trkpt lat="46.17899" lon="2.39251">
        <ele>369</ele>
        <time>2017-04-10T13:58:36Z</time>
      </trkpt>
      <trkpt lat="46.17902" lon="2.39246">
        <ele>371</ele>
        <time>2017-04-10T13:58:39Z</time>
      </trkpt>
      <trkpt lat="46.17902" lon="2.3924">
        <ele>372</ele>
        <time>2017-04-10T13:58:42Z</time>
      </trkpt>
      <trkpt lat="46.17905" lon="2.39236">
        <ele>372</ele>
        <time>2017-04-10T13:58:46Z</time>
      </trkpt>
      <trkpt lat="46.17907" lon="2.39233">
        <ele>373</ele>
        <time>2017-04-10T13:58:50Z</time>
      </trkpt>
      <trkpt lat="46.1791" lon="2.3923">
        <ele>373</ele>
        <time>2017-04-10T13:58:54Z</time>
      </trkpt>
      <trkpt lat="46.1791" lon="2.39228">
        <ele>374</ele>
        <time>2017-04-10T13:58:57Z</time>
      </trkpt>
      <trkpt lat="46.17914" lon="2.39225">
        <ele>374</ele>
        <time>2017-04-10T13:59:01Z</time>
      </trkpt>
      <trkpt lat="46.17919" lon="2.39221">
        <ele>374</ele>
        <time>2017-04-10T13:59:04Z</time>
      </trkpt>
      <trkpt lat="46.1792" lon="2.39219">
        <ele>374</ele>
        <time>2017-04-10T13:59:07Z</time>
      </trkpt>
      <trkpt lat="46.17923" lon="2.39215">
        <ele>374</ele>
        <time>2017-04-10T13:59:10Z</time>
      </trkpt>
      <trkpt lat="46.1793" lon="2.39211">
        <ele>374</ele>
        <time>2017-04-10T13:59:14Z</time>
      </trkpt>
      <trkpt lat="46.1793" lon="2.39209">
        <ele>375</ele>
        <time>2017-04-10T13:59:17Z</time>
      </trkpt>
      <trkpt lat="46.17933" lon="2.39205">
        <ele>375</ele>
        <time>2017-04-10T13:59:20Z</time>
      </trkpt>
      <trkpt lat="46.17934" lon="2.39201">
        <ele>375</ele>
        <time>2017-04-10T13:59:23Z</time>
      </trkpt>
      <trkpt lat="46.17936" lon="2.39198">
        <ele>375</ele>
        <time>2017-04-10T13:59:26Z</time>
      </trkpt>
      <trkpt lat="46.17939" lon="2.39194">
        <ele>375</ele>
        <time>2017-04-10T13:59:30Z</time>
      </trkpt>
      <trkpt lat="46.17941" lon="2.3919">
        <ele>375</ele>
        <time>2017-04-10T13:59:34Z</time>
      </trkpt>
      <trkpt lat="46.17942" lon="2.39184">
        <ele>375</ele>
        <time>2017-04-10T13:59:38Z</time>
      </trkpt>
      <trkpt lat="46.17945" lon="2.39181">
        <ele>375</ele>
        <time>2017-04-10T13:59:41Z</time>
      </trkpt>
      <trkpt lat="46.17947" lon="2.39176">
        <ele>375</ele>
        <time>2017-04-10T13:59:46Z</time>
      </trkpt>
      <trkpt lat="46.17951" lon="2.3917">
        <ele>375</ele>
        <time>2017-04-10T13:59:49Z</time>
      </trkpt>
      <trkpt lat="46.17952" lon="2.39164">
        <ele>375</ele>
        <time>2017-04-10T13:59:53Z</time>
      </trkpt>
      <trkpt lat="46.17954" lon="2.39159">
        <ele>375</ele>
        <time>2017-04-10T13:59:57Z</time>
      </trkpt>
      <trkpt lat="46.17955" lon="2.39157">
        <ele>375</ele>
        <time>2017-04-10T14:00:00Z</time>
      </trkpt>
      <trkpt lat="46.17957" lon="2.39155">
        <ele>375</ele>
        <time>2017-04-10T14:00:03Z</time>
      </trkpt>
      <trkpt lat="46.1796" lon="2.39153">
        <ele>375</ele>
        <time>2017-04-10T14:00:07Z</time>
      </trkpt>
      <trkpt lat="46.17963" lon="2.39151">
        <ele>376</ele>
        <time>2017-04-10T14:00:11Z</time>
      </trkpt>
      <trkpt lat="46.17966" lon="2.39147">
        <ele>377</ele>
        <time>2017-04-10T14:00:14Z</time>
      </trkpt>
      <trkpt lat="46.17968" lon="2.39143">
        <ele>377</ele>
        <time>2017-04-10T14:00:17Z</time>
      </trkpt>
      <trkpt lat="46.17968" lon="2.39139">
        <ele>378</ele>
        <time>2017-04-10T14:00:20Z</time>
      </trkpt>
      <trkpt lat="46.1797" lon="2.39135">
        <ele>378</ele>
        <time>2017-04-10T14:00:23Z</time>
      </trkpt>
      <trkpt lat="46.17971" lon="2.3913">
        <ele>378</ele>
        <time>2017-04-10T14:00:26Z</time>
      </trkpt>
      <trkpt lat="46.17971" lon="2.39127">
        <ele>378</ele>
        <time>2017-04-10T14:00:29Z</time>
      </trkpt>
      <trkpt lat="46.17973" lon="2.39124">
        <ele>378</ele>
        <time>2017-04-10T14:00:32Z</time>
      </trkpt>
      <trkpt lat="46.17976" lon="2.3912">
        <ele>378</ele>
        <time>2017-04-10T14:00:35Z</time>
      </trkpt>
      <trkpt lat="46.17979" lon="2.39117">
        <ele>380</ele>
        <time>2017-04-10T14:00:38Z</time>
      </trkpt>
      <trkpt lat="46.17981" lon="2.39112">
        <ele>381</ele>
        <time>2017-04-10T14:00:42Z</time>
      </trkpt>
      <trkpt lat="46.17985" lon="2.39109">
        <ele>384</ele>
        <time>2017-04-10T14:00:47Z</time>
      </trkpt>
      <trkpt lat="46.17988" lon="2.39104">
        <ele>386</ele>
        <time>2017-04-10T14:00:51Z</time>
      </trkpt>
      <trkpt lat="46.17991" lon="2.39101">
        <ele>387</ele>
        <time>2017-04-10T14:00:54Z</time>
      </trkpt>
      <trkpt lat="46.17992" lon="2.39096">
        <ele>388</ele>
        <time>2017-04-10T14:00:58Z</time>
      </trkpt>
      <trkpt lat="46.17993" lon="2.39093">
        <ele>388</ele>
        <time>2017-04-10T14:01:02Z</time>
      </trkpt>
      <trkpt lat="46.17994" lon="2.39089">
        <ele>388</ele>
        <time>2017-04-10T14:01:06Z</time>
      </trkpt>
      <trkpt lat="46.17997" lon="2.39086">
        <ele>388</ele>
        <time>2017-04-10T14:01:09Z</time>
      </trkpt>
      <trkpt lat="46.17999" lon="2.39081">
        <ele>388</ele>
        <time>2017-04-10T14:01:13Z</time>
      </trkpt>
      <trkpt lat="46.18001" lon="2.39077">
        <ele>388</ele>
        <time>2017-04-10T14:01:16Z</time>
      </trkpt>
      <trkpt lat="46.18003" lon="2.39074">
        <ele>388</ele>
        <time>2017-04-10T14:01:19Z</time>
      </trkpt>
      <trkpt lat="46.18005" lon="2.39069">
        <ele>388</ele>
        <time>2017-04-10T14:01:23Z</time>
      </trkpt>
      <trkpt lat="46.18006" lon="2.39068">
        <ele>388</ele>
        <time>2017-04-10T14:01:27Z</time>
      </trkpt>
      <trkpt lat="46.18008" lon="2.39063">
        <ele>388</ele>
        <time>2017-04-10T14:01:31Z</time>
      </trkpt>
      <trkpt lat="46.18009" lon="2.39061">
        <ele>388</ele>
        <time>2017-04-10T14:01:34Z</time>
      </trkpt>
      <trkpt lat="46.18013" lon="2.39056">
        <ele>388</ele>
        <time>2017-04-10T14:01:38Z</time>
      </trkpt>
      <trkpt lat="46.18017" lon="2.39052">
        <ele>388</ele>
        <time>2017-04-10T14:01:42Z</time>
      </trkpt>
      <trkpt lat="46.18019" lon="2.39049">
        <ele>388</ele>
        <time>2017-04-10T14:01:45Z</time>
      </trkpt>
      <trkpt lat="46.18022" lon="2.39043">
        <ele>388</ele>
        <time>2017-04-10T14:01:49Z</time>
      </trkpt>
      <trkpt lat="46.18026" lon="2.39037">
        <ele>388</ele>
        <time>2017-04-10T14:01:53Z</time>
      </trkpt>
      <trkpt lat="46.18029" lon="2.39033">
        <ele>388</ele>
        <time>2017-04-10T14:01:57Z</time>
      </trkpt>
      <trkpt lat="46.18032" lon="2.39029">
        <ele>388</ele>
        <time>2017-04-10T14:02:01Z</time>
      </trkpt>
      <trkpt lat="46.18035" lon="2.39024">
        <ele>388</ele>
        <time>2017-04-10T14:02:05Z</time>
      </trkpt>
      <trkpt lat="46.18037" lon="2.3902">
        <ele>388</ele>
        <time>2017-04-10T14:02:08Z</time>
      </trkpt>
      <trkpt lat="46.18039" lon="2.39017">
        <ele>388</ele>
        <time>2017-04-10T14:02:14Z</time>
      </trkpt>
      <trkpt lat="46.18042" lon="2.39014">
        <ele>388</ele>
        <time>2017-04-10T14:02:17Z</time>
      </trkpt>
      <trkpt lat="46.18044" lon="2.39011">
        <ele>388</ele>
        <time>2017-04-10T14:02:20Z</time>
      </trkpt>
      <trkpt lat="46.18049" lon="2.39006">
        <ele>388</ele>
        <time>2017-04-10T14:02:24Z</time>
      </trkpt>
      <trkpt lat="46.18053" lon="2.39004">
        <ele>388</ele>
        <time>2017-04-10T14:02:28Z</time>
      </trkpt>
      <trkpt lat="46.18058" lon="2.39003">
        <ele>392</ele>
        <time>2017-04-10T14:02:32Z</time>
      </trkpt>
      <trkpt lat="46.18059" lon="2.39001">
        <ele>395</ele>
        <time>2017-04-10T14:02:35Z</time>
      </trkpt>
      <trkpt lat="46.18063" lon="2.38995">
        <ele>397</ele>
        <time>2017-04-10T14:02:38Z</time>
      </trkpt>
      <trkpt lat="46.18066" lon="2.3899">
        <ele>397</ele>
        <time>2017-04-10T14:02:41Z</time>
      </trkpt>
      <trkpt lat="46.18069" lon="2.38987">
        <ele>397</ele>
        <time>2017-04-10T14:02:44Z</time>
      </trkpt>
      <trkpt lat="46.18073" lon="2.38982">
        <ele>397</ele>
        <time>2017-04-10T14:02:48Z</time>
      </trkpt>
      <trkpt lat="46.18076" lon="2.3898">
        <ele>397</ele>
        <time>2017-04-10T14:02:51Z</time>
      </trkpt>
      <trkpt lat="46.18079" lon="2.38978">
        <ele>397</ele>
        <time>2017-04-10T14:02:54Z</time>
      </trkpt>
      <trkpt lat="46.1808" lon="2.38973">
        <ele>397</ele>
        <time>2017-04-10T14:02:58Z</time>
      </trkpt>
      <trkpt lat="46.18081" lon="2.38969">
        <ele>397</ele>
        <time>2017-04-10T14:03:02Z</time>
      </trkpt>
      <trkpt lat="46.1808" lon="2.38965">
        <ele>397</ele>
        <time>2017-04-10T14:03:05Z</time>
      </trkpt>
      <trkpt lat="46.18079" lon="2.38963">
        <ele>397</ele>
        <time>2017-04-10T14:03:08Z</time>
      </trkpt>
      <trkpt lat="46.18078" lon="2.38956">
        <ele>397</ele>
        <time>2017-04-10T14:03:13Z</time>
      </trkpt>
      <trkpt lat="46.18077" lon="2.38952">
        <ele>397</ele>
        <time>2017-04-10T14:03:16Z</time>
      </trkpt>
      <trkpt lat="46.18075" lon="2.38948">
        <ele>398</ele>
        <time>2017-04-10T14:03:19Z</time>
      </trkpt>
      <trkpt lat="46.18074" lon="2.38945">
        <ele>399</ele>
        <time>2017-04-10T14:03:23Z</time>
      </trkpt>
      <trkpt lat="46.18076" lon="2.3894">
        <ele>401</ele>
        <time>2017-04-10T14:03:26Z</time>
      </trkpt>
      <trkpt lat="46.18076" lon="2.38936">
        <ele>402</ele>
        <time>2017-04-10T14:03:29Z</time>
      </trkpt>
      <trkpt lat="46.18075" lon="2.38933">
        <ele>402</ele>
        <time>2017-04-10T14:03:32Z</time>
      </trkpt>
      <trkpt lat="46.18075" lon="2.38929">
        <ele>402</ele>
        <time>2017-04-10T14:03:35Z</time>
      </trkpt>
      <trkpt lat="46.18074" lon="2.38924">
        <ele>402</ele>
        <time>2017-04-10T14:03:39Z</time>
      </trkpt>
      <trkpt lat="46.18074" lon="2.3892">
        <ele>403</ele>
        <time>2017-04-10T14:03:42Z</time>
      </trkpt>
      <trkpt lat="46.18074" lon="2.38914">
        <ele>403</ele>
        <time>2017-04-10T14:03:46Z</time>
      </trkpt>
      <trkpt lat="46.18073" lon="2.3891">
        <ele>403</ele>
        <time>2017-04-10T14:03:49Z</time>
      </trkpt>
      <trkpt lat="46.18073" lon="2.38905">
        <ele>404</ele>
        <time>2017-04-10T14:03:53Z</time>
      </trkpt>
      <trkpt lat="46.18072" lon="2.38898">
        <ele>406</ele>
        <time>2017-04-10T14:03:57Z</time>
      </trkpt>
      <trkpt lat="46.18072" lon="2.38893">
        <ele>407</ele>
        <time>2017-04-10T14:04:01Z</time>
      </trkpt>
      <trkpt lat="46.18071" lon="2.3889">
        <ele>409</ele>
        <time>2017-04-10T14:04:05Z</time>
      </trkpt>
      <trkpt lat="46.1807" lon="2.38884">
        <ele>410</ele>
        <time>2017-04-10T14:04:09Z</time>
      </trkpt>
      <trkpt lat="46.18069" lon="2.38879">
        <ele>410</ele>
        <time>2017-04-10T14:04:12Z</time>
      </trkpt>
      <trkpt lat="46.1807" lon="2.38874">
        <ele>411</ele>
        <time>2017-04-10T14:04:15Z</time>
      </trkpt>
      <trkpt lat="46.18071" lon="2.3887">
        <ele>411</ele>
        <time>2017-04-10T14:04:18Z</time>
      </trkpt>
      <trkpt lat="46.18071" lon="2.38864">
        <ele>411</ele>
        <time>2017-04-10T14:04:21Z</time>
      </trkpt>
      <trkpt lat="46.18071" lon="2.38859">
        <ele>411</ele>
        <time>2017-04-10T14:04:24Z</time>
      </trkpt>
      <trkpt lat="46.18071" lon="2.38852">
        <ele>411</ele>
        <time>2017-04-10T14:04:27Z</time>
      </trkpt>
      <trkpt lat="46.18071" lon="2.38846">
        <ele>411</ele>
        <time>2017-04-10T14:04:31Z</time>
      </trkpt>
      <trkpt lat="46.18071" lon="2.38838">
        <ele>411</ele>
        <time>2017-04-10T14:04:34Z</time>
      </trkpt>
      <trkpt lat="46.18073" lon="2.38832">
        <ele>411</ele>
        <time>2017-04-10T14:04:38Z</time>
      </trkpt>
      <trkpt lat="46.18073" lon="2.38826">
        <ele>411</ele>
        <time>2017-04-10T14:04:41Z</time>
      </trkpt>
      <trkpt lat="46.18073" lon="2.38822">
        <ele>411</ele>
        <time>2017-04-10T14:04:44Z</time>
      </trkpt>
      <trkpt lat="46.18074" lon="2.38816">
        <ele>411</ele>
        <time>2017-04-10T14:04:47Z</time>
      </trkpt>
      <trkpt lat="46.18074" lon="2.38811">
        <ele>411</ele>
        <time>2017-04-10T14:04:50Z</time>
      </trkpt>
      <trkpt lat="46.18075" lon="2.38806">
        <ele>411</ele>
        <time>2017-04-10T14:04:53Z</time>
      </trkpt>
      <trkpt lat="46.18077" lon="2.38802">
        <ele>412</ele>
        <time>2017-04-10T14:04:56Z</time>
      </trkpt>
      <trkpt lat="46.18077" lon="2.38796">
        <ele>412</ele>
        <time>2017-04-10T14:04:59Z</time>
      </trkpt>
      <trkpt lat="46.18078" lon="2.38791">
        <ele>412</ele>
        <time>2017-04-10T14:05:02Z</time>
      </trkpt>
      <trkpt lat="46.18079" lon="2.38786">
        <ele>413</ele>
        <time>2017-04-10T14:05:05Z</time>
      </trkpt>
      <trkpt lat="46.1808" lon="2.38782">
        <ele>413</ele>
        <time>2017-04-10T14:05:08Z</time>
      </trkpt>
      <trkpt lat="46.18083" lon="2.38779">
        <ele>415</ele>
        <time>2017-04-10T14:05:12Z</time>
      </trkpt>
      <trkpt lat="46.18086" lon="2.38775">
        <ele>415</ele>
        <time>2017-04-10T14:05:16Z</time>
      </trkpt>
      <trkpt lat="46.18091" lon="2.38772">
        <ele>415</ele>
        <time>2017-04-10T14:05:19Z</time>
      </trkpt>
      <trkpt lat="46.18095" lon="2.38769">
        <ele>415</ele>
        <time>2017-04-10T14:05:22Z</time>
      </trkpt>
      <trkpt lat="46.18098" lon="2.38765">
        <ele>415</ele>
        <time>2017-04-10T14:05:25Z</time>
      </trkpt>
      <trkpt lat="46.18101" lon="2.38761">
        <ele>415</ele>
        <time>2017-04-10T14:05:28Z</time>
      </trkpt>
      <trkpt lat="46.18104" lon="2.38758">
        <ele>415</ele>
        <time>2017-04-10T14:05:31Z</time>
      </trkpt>
      <trkpt lat="46.18106" lon="2.38753">
        <ele>415</ele>
        <time>2017-04-10T14:05:34Z</time>
      </trkpt>
      <trkpt lat="46.18108" lon="2.38749">
        <ele>415</ele>
        <time>2017-04-10T14:05:37Z</time>
      </trkpt>
      <trkpt lat="46.18109" lon="2.38743">
        <ele>415</ele>
        <time>2017-04-10T14:05:41Z</time>
      </trkpt>
      <trkpt lat="46.1811" lon="2.38737">
        <ele>415</ele>
        <time>2017-04-10T14:05:45Z</time>
      </trkpt>
      <trkpt lat="46.18111" lon="2.38731">
        <ele>414</ele>
        <time>2017-04-10T14:05:48Z</time>
      </trkpt>
      <trkpt lat="46.1811" lon="2.38727">
        <ele>414</ele>
        <time>2017-04-10T14:05:51Z</time>
      </trkpt>
      <trkpt lat="46.1811" lon="2.38722">
        <ele>414</ele>
        <time>2017-04-10T14:05:54Z</time>
      </trkpt>
      <trkpt lat="46.1811" lon="2.38717">
        <ele>413</ele>
        <time>2017-04-10T14:05:57Z</time>
      </trkpt>
      <trkpt lat="46.18109" lon="2.38712">
        <ele>413</ele>
        <time>2017-04-10T14:06:00Z</time>
      </trkpt>
      <trkpt lat="46.18105" lon="2.38705">
        <ele>413</ele>
        <time>2017-04-10T14:06:04Z</time>
      </trkpt>
      <trkpt lat="46.18103" lon="2.38699">
        <ele>413</ele>
        <time>2017-04-10T14:06:07Z</time>
      </trkpt>
      <trkpt lat="46.181" lon="2.38691">
        <ele>413</ele>
        <time>2017-04-10T14:06:11Z</time>
      </trkpt>
      <trkpt lat="46.18099" lon="2.38686">
        <ele>413</ele>
        <time>2017-04-10T14:06:14Z</time>
      </trkpt>
      <trkpt lat="46.18096" lon="2.3868">
        <ele>413</ele>
        <time>2017-04-10T14:06:18Z</time>
      </trkpt>
      <trkpt lat="46.18094" lon="2.38676">
        <ele>413</ele>
        <time>2017-04-10T14:06:21Z</time>
      </trkpt>
      <trkpt lat="46.18092" lon="2.38669">
        <ele>413</ele>
        <time>2017-04-10T14:06:24Z</time>
      </trkpt>
      <trkpt lat="46.1809" lon="2.38665">
        <ele>413</ele>
        <time>2017-04-10T14:06:27Z</time>
      </trkpt>
      <trkpt lat="46.18087" lon="2.38661">
        <ele>413</ele>
        <time>2017-04-10T14:06:30Z</time>
      </trkpt>
      <trkpt lat="46.18085" lon="2.38656">
        <ele>413</ele>
        <time>2017-04-10T14:06:34Z</time>
      </trkpt>
      <trkpt lat="46.18083" lon="2.38652">
        <ele>413</ele>
        <time>2017-04-10T14:06:37Z</time>
      </trkpt>
      <trkpt lat="46.18082" lon="2.38647">
        <ele>413</ele>
        <time>2017-04-10T14:06:40Z</time>
      </trkpt>
      <trkpt lat="46.18081" lon="2.38642">
        <ele>413</ele>
        <time>2017-04-10T14:06:43Z</time>
      </trkpt>
      <trkpt lat="46.18081" lon="2.38636">
        <ele>413</ele>
        <time>2017-04-10T14:06:46Z</time>
      </trkpt>
      <trkpt lat="46.18079" lon="2.38631">
        <ele>413</ele>
        <time>2017-04-10T14:06:49Z</time>
      </trkpt>
      <trkpt lat="46.18079" lon="2.38626">
        <ele>413</ele>
        <time>2017-04-10T14:06:52Z</time>
      </trkpt>
      <trkpt lat="46.18079" lon="2.38621">
        <ele>413</ele>
        <time>2017-04-10T14:06:55Z</time>
      </trkpt>
      <trkpt lat="46.18078" lon="2.38616">
        <ele>413</ele>
        <time>2017-04-10T14:06:58Z</time>
      </trkpt>
      <trkpt lat="46.18077" lon="2.38611">
        <ele>413</ele>
        <time>2017-04-10T14:07:01Z</time>
      </trkpt>
      <trkpt lat="46.18077" lon="2.38605">
        <ele>413</ele>
        <time>2017-04-10T14:07:04Z</time>
      </trkpt>
      <trkpt lat="46.18076" lon="2.38598">
        <ele>413</ele>
        <time>2017-04-10T14:07:07Z</time>
      </trkpt>
      <trkpt lat="46.18076" lon="2.3859">
        <ele>413</ele>
        <time>2017-04-10T14:07:10Z</time>
      </trkpt>
      <trkpt lat="46.18076" lon="2.38583">
        <ele>414</ele>
        <time>2017-04-10T14:07:13Z</time>
      </trkpt>
      <trkpt lat="46.18077" lon="2.38576">
        <ele>416</ele>
        <time>2017-04-10T14:07:16Z</time>
      </trkpt>
      <trkpt lat="46.18078" lon="2.3857">
        <ele>417</ele>
        <time>2017-04-10T14:07:19Z</time>
      </trkpt>
      <trkpt lat="46.1808" lon="2.38565">
        <ele>417</ele>
        <time>2017-04-10T14:07:22Z</time>
      </trkpt>
      <trkpt lat="46.18082" lon="2.3856">
        <ele>417</ele>
        <time>2017-04-10T14:07:25Z</time>
      </trkpt>
      <trkpt lat="46.18084" lon="2.38555">
        <ele>419</ele>
        <time>2017-04-10T14:07:28Z</time>
      </trkpt>
      <trkpt lat="46.18087" lon="2.3855">
        <ele>421</ele>
        <time>2017-04-10T14:07:31Z</time>
      </trkpt>
      <trkpt lat="46.18089" lon="2.38546">
        <ele>421</ele>
        <time>2017-04-10T14:07:34Z</time>
      </trkpt>
      <trkpt lat="46.18091" lon="2.38541">
        <ele>421</ele>
        <time>2017-04-10T14:07:37Z</time>
      </trkpt>
      <trkpt lat="46.18095" lon="2.38537">
        <ele>421</ele>
        <time>2017-04-10T14:07:41Z</time>
      </trkpt>
      <trkpt lat="46.181" lon="2.38529">
        <ele>421</ele>
        <time>2017-04-10T14:07:44Z</time>
      </trkpt>
      <trkpt lat="46.18103" lon="2.38526">
        <ele>421</ele>
        <time>2017-04-10T14:07:47Z</time>
      </trkpt>
      <trkpt lat="46.18106" lon="2.38522">
        <ele>421</ele>
        <time>2017-04-10T14:07:51Z</time>
      </trkpt>
      <trkpt lat="46.1811" lon="2.38516">
        <ele>421</ele>
        <time>2017-04-10T14:07:55Z</time>
      </trkpt>
      <trkpt lat="46.18113" lon="2.38511">
        <ele>421</ele>
        <time>2017-04-10T14:07:58Z</time>
      </trkpt>
      <trkpt lat="46.18116" lon="2.38509">
        <ele>421</ele>
        <time>2017-04-10T14:08:01Z</time>
      </trkpt>
      <trkpt lat="46.18119" lon="2.38505">
        <ele>421</ele>
        <time>2017-04-10T14:08:04Z</time>
      </trkpt>
      <trkpt lat="46.18122" lon="2.385">
        <ele>421</ele>
        <time>2017-04-10T14:08:07Z</time>
      </trkpt>
      <trkpt lat="46.18126" lon="2.38496">
        <ele>421</ele>
        <time>2017-04-10T14:08:10Z</time>
      </trkpt>
      <trkpt lat="46.18129" lon="2.38492">
        <ele>421</ele>
        <time>2017-04-10T14:08:13Z</time>
      </trkpt>
      <trkpt lat="46.18132" lon="2.38488">
        <ele>421</ele>
        <time>2017-04-10T14:08:16Z</time>
      </trkpt>
      <trkpt lat="46.18135" lon="2.38482">
        <ele>421</ele>
        <time>2017-04-10T14:08:20Z</time>
      </trkpt>
      <trkpt lat="46.18138" lon="2.38477">
        <ele>421</ele>
        <time>2017-04-10T14:08:23Z</time>
      </trkpt>
      <trkpt lat="46.18142" lon="2.38472">
        <ele>421</ele>
        <time>2017-04-10T14:08:27Z</time>
      </trkpt>
      <trkpt lat="46.18146" lon="2.38468">
        <ele>421</ele>
        <time>2017-04-10T14:08:30Z</time>
      </trkpt>
      <trkpt lat="46.18149" lon="2.38465">
        <ele>421</ele>
        <time>2017-04-10T14:08:34Z</time>
      </trkpt>
      <trkpt lat="46.18152" lon="2.38461">
        <ele>421</ele>
        <time>2017-04-10T14:08:37Z</time>
      </trkpt>
      <trkpt lat="46.18155" lon="2.38458">
        <ele>422</ele>
        <time>2017-04-10T14:08:40Z</time>
      </trkpt>
      <trkpt lat="46.18159" lon="2.38454">
        <ele>425</ele>
        <time>2017-04-10T14:08:44Z</time>
      </trkpt>
      <trkpt lat="46.18162" lon="2.3845">
        <ele>426</ele>
        <time>2017-04-10T14:08:47Z</time>
      </trkpt>
      <trkpt lat="46.18166" lon="2.38445">
        <ele>426</ele>
        <time>2017-04-10T14:08:50Z</time>
      </trkpt>
      <trkpt lat="46.18169" lon="2.3844">
        <ele>426</ele>
        <time>2017-04-10T14:08:53Z</time>
      </trkpt>
      <trkpt lat="46.18174" lon="2.38435">
        <ele>426</ele>
        <time>2017-04-10T14:08:57Z</time>
      </trkpt>
      <trkpt lat="46.18177" lon="2.38432">
        <ele>426</ele>
        <time>2017-04-10T14:09:00Z</time>
      </trkpt>
      <trkpt lat="46.18181" lon="2.38428">
        <ele>426</ele>
        <time>2017-04-10T14:09:04Z</time>
      </trkpt>
      <trkpt lat="46.18184" lon="2.38424">
        <ele>426</ele>
        <time>2017-04-10T14:09:07Z</time>
      </trkpt>
      <trkpt lat="46.18187" lon="2.38419">
        <ele>426</ele>
        <time>2017-04-10T14:09:10Z</time>
      </trkpt>
      <trkpt lat="46.18192" lon="2.38413">
        <ele>426</ele>
        <time>2017-04-10T14:09:14Z</time>
      </trkpt>
      <trkpt lat="46.18195" lon="2.38408">
        <ele>426</ele>
        <time>2017-04-10T14:09:17Z</time>
      </trkpt>
      <trkpt lat="46.182" lon="2.38403">
        <ele>426</ele>
        <time>2017-04-10T14:09:21Z</time>
      </trkpt>
      <trkpt lat="46.18203" lon="2.38399">
        <ele>426</ele>
        <time>2017-04-10T14:09:24Z</time>
      </trkpt>
      <trkpt lat="46.18206" lon="2.38396">
        <ele>426</ele>
        <time>2017-04-10T14:09:27Z</time>
      </trkpt>
      <trkpt lat="46.1821" lon="2.38392">
        <ele>426</ele>
        <time>2017-04-10T14:09:30Z</time>
      </trkpt>
      <trkpt lat="46.18214" lon="2.38387">
        <ele>426</ele>
        <time>2017-04-10T14:09:34Z</time>
      </trkpt>
      <trkpt lat="46.18219" lon="2.38382">
        <ele>426</ele>
        <time>2017-04-10T14:09:38Z</time>
      </trkpt>
      <trkpt lat="46.18222" lon="2.38378">
        <ele>426</ele>
        <time>2017-04-10T14:09:42Z</time>
      </trkpt>
      <trkpt lat="46.18225" lon="2.38374">
        <ele>427</ele>
        <time>2017-04-10T14:09:45Z</time>
      </trkpt>
      <trkpt lat="46.18228" lon="2.38369">
        <ele>427</ele>
        <time>2017-04-10T14:09:48Z</time>
      </trkpt>
      <trkpt lat="46.18232" lon="2.38366">
        <ele>427</ele>
        <time>2017-04-10T14:09:51Z</time>
      </trkpt>
      <trkpt lat="46.18236" lon="2.38362">
        <ele>427</ele>
        <time>2017-04-10T14:09:54Z</time>
      </trkpt>
      <trkpt lat="46.1824" lon="2.38356">
        <ele>427</ele>
        <time>2017-04-10T14:09:57Z</time>
      </trkpt>
      <trkpt lat="46.18243" lon="2.38352">
        <ele>427</ele>
        <time>2017-04-10T14:10:01Z</time>
      </trkpt>
      <trkpt lat="46.18245" lon="2.38349">
        <ele>427</ele>
        <time>2017-04-10T14:10:04Z</time>
      </trkpt>
      <trkpt lat="46.18248" lon="2.38345">
        <ele>427</ele>
        <time>2017-04-10T14:10:07Z</time>
      </trkpt>
      <trkpt lat="46.18252" lon="2.3834">
        <ele>427</ele>
        <time>2017-04-10T14:10:10Z</time>
      </trkpt>
      <trkpt lat="46.18256" lon="2.38335">
        <ele>427</ele>
        <time>2017-04-10T14:10:13Z</time>
      </trkpt>
      <trkpt lat="46.18258" lon="2.3833">
        <ele>427</ele>
        <time>2017-04-10T14:10:16Z</time>
      </trkpt>
      <trkpt lat="46.1826" lon="2.38324">
        <ele>427</ele>
        <time>2017-04-10T14:10:19Z</time>
      </trkpt>
      <trkpt lat="46.18262" lon="2.38318">
        <ele>427</ele>
        <time>2017-04-10T14:10:22Z</time>
      </trkpt>
      <trkpt lat="46.18262" lon="2.38312">
        <ele>427</ele>
        <time>2017-04-10T14:10:25Z</time>
      </trkpt>
      <trkpt lat="46.1826" lon="2.38307">
        <ele>426</ele>
        <time>2017-04-10T14:10:29Z</time>
      </trkpt>
      <trkpt lat="46.18256" lon="2.38303">
        <ele>426</ele>
        <time>2017-04-10T14:10:33Z</time>
      </trkpt>
      <trkpt lat="46.18253" lon="2.38299">
        <ele>426</ele>
        <time>2017-04-10T14:10:37Z</time>
      </trkpt>
      <trkpt lat="46.18249" lon="2.38295">
        <ele>426</ele>
        <time>2017-04-10T14:10:40Z</time>
      </trkpt>
      <trkpt lat="46.18245" lon="2.38289">
        <ele>425</ele>
        <time>2017-04-10T14:10:44Z</time>
      </trkpt>
      <trkpt lat="46.18243" lon="2.38285">
        <ele>425</ele>
        <time>2017-04-10T14:10:47Z</time>
      </trkpt>
      <trkpt lat="46.18241" lon="2.3828">
        <ele>425</ele>
        <time>2017-04-10T14:10:51Z</time>
      </trkpt>
      <trkpt lat="46.18237" lon="2.38275">
        <ele>423</ele>
        <time>2017-04-10T14:10:55Z</time>
      </trkpt>
      <trkpt lat="46.18235" lon="2.38271">
        <ele>423</ele>
        <time>2017-04-10T14:10:58Z</time>
      </trkpt>
      <trkpt lat="46.18232" lon="2.38266">
        <ele>423</ele>
        <time>2017-04-10T14:11:01Z</time>
      </trkpt>
      <trkpt lat="46.18228" lon="2.38261">
        <ele>423</ele>
        <time>2017-04-10T14:11:04Z</time>
      </trkpt>
      <trkpt lat="46.18225" lon="2.38256">
        <ele>423</ele>
        <time>2017-04-10T14:11:07Z</time>
      </trkpt>
      <trkpt lat="46.18222" lon="2.3825">
        <ele>423</ele>
        <time>2017-04-10T14:11:10Z</time>
      </trkpt>
      <trkpt lat="46.18219" lon="2.38245">
        <ele>423</ele>
        <time>2017-04-10T14:11:13Z</time>
      </trkpt>
      <trkpt lat="46.18217" lon="2.38241">
        <ele>423</ele>
        <time>2017-04-10T14:11:18Z</time>
      </trkpt>
      <trkpt lat="46.18213" lon="2.38236">
        <ele>423</ele>
        <time>2017-04-10T14:11:22Z</time>
      </trkpt>
      <trkpt lat="46.1821" lon="2.38233">
        <ele>423</ele>
        <time>2017-04-10T14:11:25Z</time>
      </trkpt>
      <trkpt lat="46.18208" lon="2.38228">
        <ele>423</ele>
        <time>2017-04-10T14:11:28Z</time>
      </trkpt>
      <trkpt lat="46.18204" lon="2.38223">
        <ele>423</ele>
        <time>2017-04-10T14:11:31Z</time>
      </trkpt>
      <trkpt lat="46.18201" lon="2.38218">
        <ele>423</ele>
        <time>2017-04-10T14:11:34Z</time>
      </trkpt>
      <trkpt lat="46.18198" lon="2.38212">
        <ele>423</ele>
        <time>2017-04-10T14:11:37Z</time>
      </trkpt>
      <trkpt lat="46.18195" lon="2.38207">
        <ele>423</ele>
        <time>2017-04-10T14:11:41Z</time>
      </trkpt>
      <trkpt lat="46.18192" lon="2.38201">
        <ele>423</ele>
        <time>2017-04-10T14:11:45Z</time>
      </trkpt>
      <trkpt lat="46.18188" lon="2.38197">
        <ele>423</ele>
        <time>2017-04-10T14:11:48Z</time>
      </trkpt>
      <trkpt lat="46.18185" lon="2.38192">
        <ele>423</ele>
        <time>2017-04-10T14:11:51Z</time>
      </trkpt>
      <trkpt lat="46.1818" lon="2.38184">
        <ele>423</ele>
        <time>2017-04-10T14:11:55Z</time>
      </trkpt>
      <trkpt lat="46.18178" lon="2.3818">
        <ele>423</ele>
        <time>2017-04-10T14:11:58Z</time>
      </trkpt>
      <trkpt lat="46.18174" lon="2.38174">
        <ele>423</ele>
        <time>2017-04-10T14:12:01Z</time>
      </trkpt>
      <trkpt lat="46.1817" lon="2.38169">
        <ele>423</ele>
        <time>2017-04-10T14:12:04Z</time>
      </trkpt>
      <trkpt lat="46.18166" lon="2.38164">
        <ele>423</ele>
        <time>2017-04-10T14:12:07Z</time>
      </trkpt>
      <trkpt lat="46.18164" lon="2.38159">
        <ele>424</ele>
        <time>2017-04-10T14:12:10Z</time>
      </trkpt>
      <trkpt lat="46.18162" lon="2.38155">
        <ele>425</ele>
        <time>2017-04-10T14:12:13Z</time>
      </trkpt>
      <trkpt lat="46.18159" lon="2.38151">
        <ele>425</ele>
        <time>2017-04-10T14:12:16Z</time>
      </trkpt>
      <trkpt lat="46.18156" lon="2.38144">
        <ele>425</ele>
        <time>2017-04-10T14:12:19Z</time>
      </trkpt>
      <trkpt lat="46.18153" lon="2.38136">
        <ele>426</ele>
        <time>2017-04-10T14:12:23Z</time>
      </trkpt>
      <trkpt lat="46.1815" lon="2.38131">
        <ele>426</ele>
        <time>2017-04-10T14:12:26Z</time>
      </trkpt>
      <trkpt lat="46.18148" lon="2.38126">
        <ele>426</ele>
        <time>2017-04-10T14:12:29Z</time>
      </trkpt>
      <trkpt lat="46.18145" lon="2.3812">
        <ele>426</ele>
        <time>2017-04-10T14:12:32Z</time>
      </trkpt>
      <trkpt lat="46.18142" lon="2.38116">
        <ele>426</ele>
        <time>2017-04-10T14:12:35Z</time>
      </trkpt>
      <trkpt lat="46.1814" lon="2.3811">
        <ele>426</ele>
        <time>2017-04-10T14:12:39Z</time>
      </trkpt>
      <trkpt lat="46.18138" lon="2.38106">
        <ele>426</ele>
        <time>2017-04-10T14:12:43Z</time>
      </trkpt>
      <trkpt lat="46.18135" lon="2.38101">
        <ele>426</ele>
        <time>2017-04-10T14:12:47Z</time>
      </trkpt>
      <trkpt lat="46.18132" lon="2.38093">
        <ele>426</ele>
        <time>2017-04-10T14:12:51Z</time>
      </trkpt>
      <trkpt lat="46.18129" lon="2.38089">
        <ele>426</ele>
        <time>2017-04-10T14:12:54Z</time>
      </trkpt>
      <trkpt lat="46.18128" lon="2.38083">
        <ele>426</ele>
        <time>2017-04-10T14:12:57Z</time>
      </trkpt>
      <trkpt lat="46.18125" lon="2.38077">
        <ele>426</ele>
        <time>2017-04-10T14:13:01Z</time>
      </trkpt>
      <trkpt lat="46.18122" lon="2.38072">
        <ele>426</ele>
        <time>2017-04-10T14:13:05Z</time>
      </trkpt>
      <trkpt lat="46.18119" lon="2.38069">
        <ele>426</ele>
        <time>2017-04-10T14:13:08Z</time>
      </trkpt>
      <trkpt lat="46.18115" lon="2.38062">
        <ele>426</ele>
        <time>2017-04-10T14:13:12Z</time>
      </trkpt>
      <trkpt lat="46.18112" lon="2.38058">
        <ele>426</ele>
        <time>2017-04-10T14:13:15Z</time>
      </trkpt>
      <trkpt lat="46.18107" lon="2.38054">
        <ele>426</ele>
        <time>2017-04-10T14:13:19Z</time>
      </trkpt>
      <trkpt lat="46.18104" lon="2.38051">
        <ele>426</ele>
        <time>2017-04-10T14:13:22Z</time>
      </trkpt>
      <trkpt lat="46.181" lon="2.38048">
        <ele>427</ele>
        <time>2017-04-10T14:13:25Z</time>
      </trkpt>
      <trkpt lat="46.18102" lon="2.38043">
        <ele>429</ele>
        <time>2017-04-10T14:13:29Z</time>
      </trkpt>
      <trkpt lat="46.18101" lon="2.38042">
        <ele>433</ele>
        <time>2017-04-10T14:13:42Z</time>
      </trkpt>
      <trkpt lat="46.18099" lon="2.38042">
        <ele>434</ele>
        <time>2017-04-10T14:13:46Z</time>
      </trkpt>
      <trkpt lat="46.18096" lon="2.38041">
        <ele>435</ele>
        <time>2017-04-10T14:13:49Z</time>
      </trkpt>
      <trkpt lat="46.18093" lon="2.38039">
        <ele>435</ele>
        <time>2017-04-10T14:13:52Z</time>
      </trkpt>
      <trkpt lat="46.18089" lon="2.38036">
        <ele>435</ele>
        <time>2017-04-10T14:13:56Z</time>
      </trkpt>
      <trkpt lat="46.18085" lon="2.38035">
        <ele>435</ele>
        <time>2017-04-10T14:13:59Z</time>
      </trkpt>
      <trkpt lat="46.18081" lon="2.38032">
        <ele>435</ele>
        <time>2017-04-10T14:14:03Z</time>
      </trkpt>
      <trkpt lat="46.18078" lon="2.38029">
        <ele>435</ele>
        <time>2017-04-10T14:14:06Z</time>
      </trkpt>
      <trkpt lat="46.18073" lon="2.38026">
        <ele>436</ele>
        <time>2017-04-10T14:14:10Z</time>
      </trkpt>
      <trkpt lat="46.18069" lon="2.38023">
        <ele>436</ele>
        <time>2017-04-10T14:14:14Z</time>
      </trkpt>
      <trkpt lat="46.18064" lon="2.38019">
        <ele>436</ele>
        <time>2017-04-10T14:14:18Z</time>
      </trkpt>
      <trkpt lat="46.18061" lon="2.38017">
        <ele>436</ele>
        <time>2017-04-10T14:14:21Z</time>
      </trkpt>
      <trkpt lat="46.18056" lon="2.38011">
        <ele>436</ele>
        <time>2017-04-10T14:14:26Z</time>
      </trkpt>
      <trkpt lat="46.18057" lon="2.38006">
        <ele>436</ele>
        <time>2017-04-10T14:14:29Z</time>
      </trkpt>
      <trkpt lat="46.18059" lon="2.38">
        <ele>436</ele>
        <time>2017-04-10T14:14:33Z</time>
      </trkpt>
      <trkpt lat="46.18061" lon="2.37997">
        <ele>436</ele>
        <time>2017-04-10T14:14:36Z</time>
      </trkpt>
      <trkpt lat="46.18063" lon="2.37993">
        <ele>436</ele>
        <time>2017-04-10T14:14:40Z</time>
      </trkpt>
      <trkpt lat="46.18066" lon="2.3799">
        <ele>436</ele>
        <time>2017-04-10T14:14:44Z</time>
      </trkpt>
      <trkpt lat="46.18069" lon="2.37986">
        <ele>436</ele>
        <time>2017-04-10T14:14:47Z</time>
      </trkpt>
      <trkpt lat="46.18073" lon="2.3798">
        <ele>436</ele>
        <time>2017-04-10T14:14:51Z</time>
      </trkpt>
      <trkpt lat="46.18076" lon="2.37976">
        <ele>436</ele>
        <time>2017-04-10T14:14:55Z</time>
      </trkpt>
      <trkpt lat="46.18078" lon="2.37972">
        <ele>436</ele>
        <time>2017-04-10T14:14:58Z</time>
      </trkpt>
      <trkpt lat="46.18082" lon="2.37969">
        <ele>436</ele>
        <time>2017-04-10T14:15:01Z</time>
      </trkpt>
      <trkpt lat="46.18084" lon="2.37964">
        <ele>436</ele>
        <time>2017-04-10T14:15:04Z</time>
      </trkpt>
      <trkpt lat="46.18088" lon="2.37961">
        <ele>436</ele>
        <time>2017-04-10T14:15:07Z</time>
      </trkpt>
      <trkpt lat="46.18092" lon="2.37956">
        <ele>436</ele>
        <time>2017-04-10T14:15:11Z</time>
      </trkpt>
      <trkpt lat="46.18094" lon="2.37952">
        <ele>436</ele>
        <time>2017-04-10T14:15:14Z</time>
      </trkpt>
      <trkpt lat="46.18098" lon="2.37947">
        <ele>436</ele>
        <time>2017-04-10T14:15:18Z</time>
      </trkpt>
      <trkpt lat="46.18101" lon="2.37943">
        <ele>436</ele>
        <time>2017-04-10T14:15:21Z</time>
      </trkpt>
      <trkpt lat="46.18105" lon="2.37937">
        <ele>436</ele>
        <time>2017-04-10T14:15:25Z</time>
      </trkpt>
      <trkpt lat="46.18108" lon="2.37929">
        <ele>436</ele>
        <time>2017-04-10T14:15:29Z</time>
      </trkpt>
      <trkpt lat="46.18111" lon="2.37924">
        <ele>436</ele>
        <time>2017-04-10T14:15:32Z</time>
      </trkpt>
      <trkpt lat="46.18113" lon="2.37919">
        <ele>436</ele>
        <time>2017-04-10T14:15:35Z</time>
      </trkpt>
      <trkpt lat="46.18115" lon="2.37911">
        <ele>436</ele>
        <time>2017-04-10T14:15:39Z</time>
      </trkpt>
      <trkpt lat="46.18116" lon="2.37904">
        <ele>436</ele>
        <time>2017-04-10T14:15:43Z</time>
      </trkpt>
      <trkpt lat="46.18117" lon="2.37896">
        <ele>436</ele>
        <time>2017-04-10T14:15:46Z</time>
      </trkpt>
      <trkpt lat="46.18118" lon="2.37892">
        <ele>436</ele>
        <time>2017-04-10T14:15:49Z</time>
      </trkpt>
      <trkpt lat="46.18118" lon="2.37888">
        <ele>436</ele>
        <time>2017-04-10T14:15:52Z</time>
      </trkpt>
      <trkpt lat="46.18118" lon="2.37883">
        <ele>436</ele>
        <time>2017-04-10T14:15:55Z</time>
      </trkpt>
      <trkpt lat="46.18118" lon="2.37878">
        <ele>436</ele>
        <time>2017-04-10T14:15:58Z</time>
      </trkpt>
      <trkpt lat="46.18117" lon="2.37871">
        <ele>436</ele>
        <time>2017-04-10T14:16:01Z</time>
      </trkpt>
      <trkpt lat="46.18116" lon="2.37864">
        <ele>436</ele>
        <time>2017-04-10T14:16:05Z</time>
      </trkpt>
      <trkpt lat="46.18116" lon="2.37859">
        <ele>436</ele>
        <time>2017-04-10T14:16:08Z</time>
      </trkpt>
      <trkpt lat="46.18116" lon="2.37851">
        <ele>435</ele>
        <time>2017-04-10T14:16:12Z</time>
      </trkpt>
      <trkpt lat="46.18117" lon="2.37843">
        <ele>435</ele>
        <time>2017-04-10T14:16:17Z</time>
      </trkpt>
      <trkpt lat="46.18118" lon="2.37835">
        <ele>435</ele>
        <time>2017-04-10T14:16:21Z</time>
      </trkpt>
      <trkpt lat="46.18118" lon="2.37829">
        <ele>434</ele>
        <time>2017-04-10T14:16:24Z</time>
      </trkpt>
      <trkpt lat="46.18118" lon="2.37823">
        <ele>434</ele>
        <time>2017-04-10T14:16:27Z</time>
      </trkpt>
      <trkpt lat="46.18118" lon="2.37817">
        <ele>434</ele>
        <time>2017-04-10T14:16:31Z</time>
      </trkpt>
      <trkpt lat="46.18117" lon="2.37816">
        <ele>434</ele>
        <time>2017-04-10T14:16:37Z</time>
      </trkpt>
      <trkpt lat="46.18117" lon="2.37813">
        <ele>434</ele>
        <time>2017-04-10T14:16:43Z</time>
      </trkpt>
      <trkpt lat="46.18117" lon="2.37809">
        <ele>434</ele>
        <time>2017-04-10T14:16:48Z</time>
      </trkpt>
      <trkpt lat="46.18116" lon="2.37803">
        <ele>433</ele>
        <time>2017-04-10T14:16:53Z</time>
      </trkpt>
      <trkpt lat="46.18116" lon="2.37798">
        <ele>432</ele>
        <time>2017-04-10T14:16:57Z</time>
      </trkpt>
      <trkpt lat="46.18115" lon="2.37795">
        <ele>431</ele>
        <time>2017-04-10T14:17:02Z</time>
      </trkpt>
      <trkpt lat="46.18114" lon="2.37792">
        <ele>431</ele>
        <time>2017-04-10T14:17:05Z</time>
      </trkpt>
      <trkpt lat="46.18113" lon="2.37785">
        <ele>430</ele>
        <time>2017-04-10T14:17:09Z</time>
      </trkpt>
      <trkpt lat="46.18112" lon="2.3778">
        <ele>430</ele>
        <time>2017-04-10T14:17:12Z</time>
      </trkpt>
      <trkpt lat="46.18111" lon="2.37775">
        <ele>430</ele>
        <time>2017-04-10T14:17:15Z</time>
      </trkpt>
      <trkpt lat="46.18109" lon="2.37769">
        <ele>430</ele>
        <time>2017-04-10T14:17:21Z</time>
      </trkpt>
      <trkpt lat="46.18106" lon="2.37765">
        <ele>430</ele>
        <time>2017-04-10T14:17:26Z</time>
      </trkpt>
      <trkpt lat="46.18103" lon="2.37757">
        <ele>430</ele>
        <time>2017-04-10T14:17:30Z</time>
      </trkpt>
      <trkpt lat="46.18101" lon="2.37751">
        <ele>430</ele>
        <time>2017-04-10T14:17:33Z</time>
      </trkpt>
      <trkpt lat="46.181" lon="2.37746">
        <ele>430</ele>
        <time>2017-04-10T14:17:36Z</time>
      </trkpt>
      <trkpt lat="46.18098" lon="2.37741">
        <ele>430</ele>
        <time>2017-04-10T14:17:39Z</time>
      </trkpt>
      <trkpt lat="46.18096" lon="2.37737">
        <ele>430</ele>
        <time>2017-04-10T14:17:42Z</time>
      </trkpt>
      <trkpt lat="46.18095" lon="2.37731">
        <ele>430</ele>
        <time>2017-04-10T14:17:45Z</time>
      </trkpt>
      <trkpt lat="46.18093" lon="2.37724">
        <ele>430</ele>
        <time>2017-04-10T14:17:49Z</time>
      </trkpt>
      <trkpt lat="46.18089" lon="2.37715">
        <ele>428</ele>
        <time>2017-04-10T14:17:54Z</time>
      </trkpt>
      <trkpt lat="46.18087" lon="2.37709">
        <ele>426</ele>
        <time>2017-04-10T14:17:57Z</time>
      </trkpt>
      <trkpt lat="46.18085" lon="2.37704">
        <ele>426</ele>
        <time>2017-04-10T14:18:00Z</time>
      </trkpt>
      <trkpt lat="46.18082" lon="2.37698">
        <ele>425</ele>
        <time>2017-04-10T14:18:03Z</time>
      </trkpt>
      <trkpt lat="46.18079" lon="2.3769">
        <ele>425</ele>
        <time>2017-04-10T14:18:07Z</time>
      </trkpt>
      <trkpt lat="46.18077" lon="2.37685">
        <ele>425</ele>
        <time>2017-04-10T14:18:10Z</time>
      </trkpt>
      <trkpt lat="46.18074" lon="2.37681">
        <ele>425</ele>
        <time>2017-04-10T14:18:13Z</time>
      </trkpt>
      <trkpt lat="46.18073" lon="2.37675">
        <ele>425</ele>
        <time>2017-04-10T14:18:16Z</time>
      </trkpt>
      <trkpt lat="46.18071" lon="2.3767">
        <ele>425</ele>
        <time>2017-04-10T14:18:19Z</time>
      </trkpt>
      <trkpt lat="46.18069" lon="2.37664">
        <ele>425</ele>
        <time>2017-04-10T14:18:23Z</time>
      </trkpt>
      <trkpt lat="46.18066" lon="2.37659">
        <ele>425</ele>
        <time>2017-04-10T14:18:26Z</time>
      </trkpt>
      <trkpt lat="46.18063" lon="2.37654">
        <ele>425</ele>
        <time>2017-04-10T14:18:29Z</time>
      </trkpt>
      <trkpt lat="46.1806" lon="2.37648">
        <ele>425</ele>
        <time>2017-04-10T14:18:33Z</time>
      </trkpt>
      <trkpt lat="46.18058" lon="2.37645">
        <ele>425</ele>
        <time>2017-04-10T14:18:36Z</time>
      </trkpt>
      <trkpt lat="46.18055" lon="2.37641">
        <ele>425</ele>
        <time>2017-04-10T14:18:39Z</time>
      </trkpt>
      <trkpt lat="46.18051" lon="2.37636">
        <ele>424</ele>
        <time>2017-04-10T14:18:42Z</time>
      </trkpt>
      <trkpt lat="46.18048" lon="2.37633">
        <ele>423</ele>
        <time>2017-04-10T14:18:45Z</time>
      </trkpt>
      <trkpt lat="46.18045" lon="2.37628">
        <ele>422</ele>
        <time>2017-04-10T14:18:48Z</time>
      </trkpt>
      <trkpt lat="46.18042" lon="2.37624">
        <ele>422</ele>
        <time>2017-04-10T14:18:51Z</time>
      </trkpt>
      <trkpt lat="46.18039" lon="2.37619">
        <ele>422</ele>
        <time>2017-04-10T14:18:54Z</time>
      </trkpt>
      <trkpt lat="46.18036" lon="2.37615">
        <ele>422</ele>
        <time>2017-04-10T14:18:58Z</time>
      </trkpt>
      <trkpt lat="46.18034" lon="2.37611">
        <ele>421</ele>
        <time>2017-04-10T14:19:02Z</time>
      </trkpt>
      <trkpt lat="46.18029" lon="2.37602">
        <ele>421</ele>
        <time>2017-04-10T14:19:07Z</time>
      </trkpt>
      <trkpt lat="46.18026" lon="2.37596">
        <ele>421</ele>
        <time>2017-04-10T14:19:10Z</time>
      </trkpt>
      <trkpt lat="46.18024" lon="2.37592">
        <ele>421</ele>
        <time>2017-04-10T14:19:13Z</time>
      </trkpt>
      <trkpt lat="46.18021" lon="2.37586">
        <ele>421</ele>
        <time>2017-04-10T14:19:16Z</time>
      </trkpt>
      <trkpt lat="46.18017" lon="2.37581">
        <ele>421</ele>
        <time>2017-04-10T14:19:19Z</time>
      </trkpt>
      <trkpt lat="46.18013" lon="2.37574">
        <ele>418</ele>
        <time>2017-04-10T14:19:22Z</time>
      </trkpt>
      <trkpt lat="46.1801" lon="2.37569">
        <ele>416</ele>
        <time>2017-04-10T14:19:25Z</time>
      </trkpt>
      <trkpt lat="46.18008" lon="2.37565">
        <ele>415</ele>
        <time>2017-04-10T14:19:28Z</time>
      </trkpt>
      <trkpt lat="46.18005" lon="2.3756">
        <ele>414</ele>
        <time>2017-04-10T14:19:32Z</time>
      </trkpt>
      <trkpt lat="46.18002" lon="2.37555">
        <ele>414</ele>
        <time>2017-04-10T14:19:36Z</time>
      </trkpt>
      <trkpt lat="46.17999" lon="2.37551">
        <ele>414</ele>
        <time>2017-04-10T14:19:39Z</time>
      </trkpt>
      <trkpt lat="46.17997" lon="2.37546">
        <ele>414</ele>
        <time>2017-04-10T14:19:42Z</time>
      </trkpt>
      <trkpt lat="46.17995" lon="2.3754">
        <ele>414</ele>
        <time>2017-04-10T14:19:45Z</time>
      </trkpt>
      <trkpt lat="46.17992" lon="2.37535">
        <ele>414</ele>
        <time>2017-04-10T14:19:48Z</time>
      </trkpt>
      <trkpt lat="46.17989" lon="2.3753">
        <ele>414</ele>
        <time>2017-04-10T14:19:51Z</time>
      </trkpt>
      <trkpt lat="46.17987" lon="2.37525">
        <ele>414</ele>
        <time>2017-04-10T14:19:54Z</time>
      </trkpt>
      <trkpt lat="46.17985" lon="2.3752">
        <ele>414</ele>
        <time>2017-04-10T14:19:57Z</time>
      </trkpt>
      <trkpt lat="46.17983" lon="2.37515">
        <ele>414</ele>
        <time>2017-04-10T14:20:00Z</time>
      </trkpt>
      <trkpt lat="46.17979" lon="2.37509">
        <ele>414</ele>
        <time>2017-04-10T14:20:03Z</time>
      </trkpt>
      <trkpt lat="46.17978" lon="2.37504">
        <ele>414</ele>
        <time>2017-04-10T14:20:06Z</time>
      </trkpt>
      <trkpt lat="46.17976" lon="2.37499">
        <ele>414</ele>
        <time>2017-04-10T14:20:09Z</time>
      </trkpt>
      <trkpt lat="46.17973" lon="2.37495">
        <ele>414</ele>
        <time>2017-04-10T14:20:12Z</time>
      </trkpt>
      <trkpt lat="46.1797" lon="2.3749">
        <ele>415</ele>
        <time>2017-04-10T14:20:15Z</time>
      </trkpt>
      <trkpt lat="46.17966" lon="2.37484">
        <ele>416</ele>
        <time>2017-04-10T14:20:18Z</time>
      </trkpt>
      <trkpt lat="46.17963" lon="2.37481">
        <ele>417</ele>
        <time>2017-04-10T14:20:21Z</time>
      </trkpt>
      <trkpt lat="46.17959" lon="2.37475">
        <ele>418</ele>
        <time>2017-04-10T14:20:25Z</time>
      </trkpt>
      <trkpt lat="46.17956" lon="2.37471">
        <ele>418</ele>
        <time>2017-04-10T14:20:28Z</time>
      </trkpt>
      <trkpt lat="46.17952" lon="2.37466">
        <ele>419</ele>
        <time>2017-04-10T14:20:32Z</time>
      </trkpt>
      <trkpt lat="46.17948" lon="2.37462">
        <ele>419</ele>
        <time>2017-04-10T14:20:35Z</time>
      </trkpt>
      <trkpt lat="46.17945" lon="2.37457">
        <ele>419</ele>
        <time>2017-04-10T14:20:38Z</time>
      </trkpt>
      <trkpt lat="46.17942" lon="2.37454">
        <ele>419</ele>
        <time>2017-04-10T14:20:41Z</time>
      </trkpt>
      <trkpt lat="46.17938" lon="2.37451">
        <ele>419</ele>
        <time>2017-04-10T14:20:44Z</time>
      </trkpt>
      <trkpt lat="46.17935" lon="2.37446">
        <ele>419</ele>
        <time>2017-04-10T14:20:47Z</time>
      </trkpt>
      <trkpt lat="46.17931" lon="2.37443">
        <ele>419</ele>
        <time>2017-04-10T14:20:50Z</time>
      </trkpt>
      <trkpt lat="46.17926" lon="2.37438">
        <ele>419</ele>
        <time>2017-04-10T14:20:54Z</time>
      </trkpt>
      <trkpt lat="46.17923" lon="2.37434">
        <ele>419</ele>
        <time>2017-04-10T14:20:57Z</time>
      </trkpt>
      <trkpt lat="46.17919" lon="2.37429">
        <ele>419</ele>
        <time>2017-04-10T14:21:01Z</time>
      </trkpt>
      <trkpt lat="46.17916" lon="2.37426">
        <ele>419</ele>
        <time>2017-04-10T14:21:04Z</time>
      </trkpt>
      <trkpt lat="46.17913" lon="2.37423">
        <ele>419</ele>
        <time>2017-04-10T14:21:08Z</time>
      </trkpt>
      <trkpt lat="46.1791" lon="2.3742">
        <ele>419</ele>
        <time>2017-04-10T14:21:11Z</time>
      </trkpt>
      <trkpt lat="46.17906" lon="2.37416">
        <ele>419</ele>
        <time>2017-04-10T14:21:14Z</time>
      </trkpt>
      <trkpt lat="46.17902" lon="2.37412">
        <ele>418</ele>
        <time>2017-04-10T14:21:17Z</time>
      </trkpt>
      <trkpt lat="46.17898" lon="2.37407">
        <ele>418</ele>
        <time>2017-04-10T14:21:20Z</time>
      </trkpt>
      <trkpt lat="46.17894" lon="2.37402">
        <ele>418</ele>
        <time>2017-04-10T14:21:23Z</time>
      </trkpt>
      <trkpt lat="46.1789" lon="2.37398">
        <ele>418</ele>
        <time>2017-04-10T14:21:26Z</time>
      </trkpt>
      <trkpt lat="46.17887" lon="2.37394">
        <ele>418</ele>
        <time>2017-04-10T14:21:30Z</time>
      </trkpt>
      <trkpt lat="46.17884" lon="2.37389">
        <ele>418</ele>
        <time>2017-04-10T14:21:33Z</time>
      </trkpt>
      <trkpt lat="46.1788" lon="2.37386">
        <ele>417</ele>
        <time>2017-04-10T14:21:36Z</time>
      </trkpt>
      <trkpt lat="46.17876" lon="2.37382">
        <ele>417</ele>
        <time>2017-04-10T14:21:39Z</time>
      </trkpt>
      <trkpt lat="46.17871" lon="2.37379">
        <ele>417</ele>
        <time>2017-04-10T14:21:43Z</time>
      </trkpt>
      <trkpt lat="46.17868" lon="2.37375">
        <ele>417</ele>
        <time>2017-04-10T14:21:46Z</time>
      </trkpt>
      <trkpt lat="46.17865" lon="2.37371">
        <ele>417</ele>
        <time>2017-04-10T14:21:49Z</time>
      </trkpt>
      <trkpt lat="46.17861" lon="2.37366">
        <ele>417</ele>
        <time>2017-04-10T14:21:53Z</time>
      </trkpt>
      <trkpt lat="46.17857" lon="2.37362">
        <ele>417</ele>
        <time>2017-04-10T14:21:56Z</time>
      </trkpt>
      <trkpt lat="46.17853" lon="2.37358">
        <ele>417</ele>
        <time>2017-04-10T14:22:00Z</time>
      </trkpt>
      <trkpt lat="46.17848" lon="2.37355">
        <ele>417</ele>
        <time>2017-04-10T14:22:03Z</time>
      </trkpt>
      <trkpt lat="46.17845" lon="2.37352">
        <ele>417</ele>
        <time>2017-04-10T14:22:06Z</time>
      </trkpt>
      <trkpt lat="46.17841" lon="2.37347">
        <ele>417</ele>
        <time>2017-04-10T14:22:10Z</time>
      </trkpt>
      <trkpt lat="46.17838" lon="2.3734">
        <ele>417</ele>
        <time>2017-04-10T14:22:14Z</time>
      </trkpt>
      <trkpt lat="46.17834" lon="2.37336">
        <ele>417</ele>
        <time>2017-04-10T14:22:17Z</time>
      </trkpt>
      <trkpt lat="46.17831" lon="2.37331">
        <ele>417</ele>
        <time>2017-04-10T14:22:20Z</time>
      </trkpt>
      <trkpt lat="46.17828" lon="2.37325">
        <ele>417</ele>
        <time>2017-04-10T14:22:24Z</time>
      </trkpt>
      <trkpt lat="46.17825" lon="2.37321">
        <ele>416</ele>
        <time>2017-04-10T14:22:27Z</time>
      </trkpt>
      <trkpt lat="46.17822" lon="2.37316">
        <ele>416</ele>
        <time>2017-04-10T14:22:30Z</time>
      </trkpt>
      <trkpt lat="46.17818" lon="2.37311">
        <ele>415</ele>
        <time>2017-04-10T14:22:33Z</time>
      </trkpt>
      <trkpt lat="46.17815" lon="2.37305">
        <ele>415</ele>
        <time>2017-04-10T14:22:36Z</time>
      </trkpt>
      <trkpt lat="46.17812" lon="2.37299">
        <ele>415</ele>
        <time>2017-04-10T14:22:39Z</time>
      </trkpt>
      <trkpt lat="46.1781" lon="2.37295">
        <ele>415</ele>
        <time>2017-04-10T14:22:42Z</time>
      </trkpt>
      <trkpt lat="46.17807" lon="2.37289">
        <ele>415</ele>
        <time>2017-04-10T14:22:45Z</time>
      </trkpt>
      <trkpt lat="46.17804" lon="2.37284">
        <ele>415</ele>
        <time>2017-04-10T14:22:48Z</time>
      </trkpt>
      <trkpt lat="46.17802" lon="2.37279">
        <ele>415</ele>
        <time>2017-04-10T14:22:51Z</time>
      </trkpt>
      <trkpt lat="46.178" lon="2.37274">
        <ele>415</ele>
        <time>2017-04-10T14:22:54Z</time>
      </trkpt>
      <trkpt lat="46.17798" lon="2.37269">
        <ele>415</ele>
        <time>2017-04-10T14:22:57Z</time>
      </trkpt>
      <trkpt lat="46.17796" lon="2.37264">
        <ele>415</ele>
        <time>2017-04-10T14:23:00Z</time>
      </trkpt>
      <trkpt lat="46.17793" lon="2.37258">
        <ele>415</ele>
        <time>2017-04-10T14:23:03Z</time>
      </trkpt>
      <trkpt lat="46.17791" lon="2.37253">
        <ele>415</ele>
        <time>2017-04-10T14:23:06Z</time>
      </trkpt>
      <trkpt lat="46.17789" lon="2.37248">
        <ele>414</ele>
        <time>2017-04-10T14:23:09Z</time>
      </trkpt>
      <trkpt lat="46.17787" lon="2.37244">
        <ele>414</ele>
        <time>2017-04-10T14:23:12Z</time>
      </trkpt>
      <trkpt lat="46.17784" lon="2.37239">
        <ele>414</ele>
        <time>2017-04-10T14:23:15Z</time>
      </trkpt>
      <trkpt lat="46.17781" lon="2.37235">
        <ele>414</ele>
        <time>2017-04-10T14:23:18Z</time>
      </trkpt>
      <trkpt lat="46.17778" lon="2.37229">
        <ele>413</ele>
        <time>2017-04-10T14:23:21Z</time>
      </trkpt>
      <trkpt lat="46.17773" lon="2.37222">
        <ele>412</ele>
        <time>2017-04-10T14:23:24Z</time>
      </trkpt>
      <trkpt lat="46.1777" lon="2.37217">
        <ele>411</ele>
        <time>2017-04-10T14:23:28Z</time>
      </trkpt>
      <trkpt lat="46.17767" lon="2.37213">
        <ele>411</ele>
        <time>2017-04-10T14:23:31Z</time>
      </trkpt>
      <trkpt lat="46.17765" lon="2.37209">
        <ele>411</ele>
        <time>2017-04-10T14:23:34Z</time>
      </trkpt>
      <trkpt lat="46.17762" lon="2.37203">
        <ele>411</ele>
        <time>2017-04-10T14:23:38Z</time>
      </trkpt>
      <trkpt lat="46.17759" lon="2.37199">
        <ele>411</ele>
        <time>2017-04-10T14:23:41Z</time>
      </trkpt>
      <trkpt lat="46.17756" lon="2.37195">
        <ele>411</ele>
        <time>2017-04-10T14:23:44Z</time>
      </trkpt>
      <trkpt lat="46.17752" lon="2.3719">
        <ele>411</ele>
        <time>2017-04-10T14:23:48Z</time>
      </trkpt>
      <trkpt lat="46.17749" lon="2.37186">
        <ele>411</ele>
        <time>2017-04-10T14:23:51Z</time>
      </trkpt>
      <trkpt lat="46.17744" lon="2.37184">
        <ele>411</ele>
        <time>2017-04-10T14:23:54Z</time>
      </trkpt>
      <trkpt lat="46.17741" lon="2.37182">
        <ele>411</ele>
        <time>2017-04-10T14:23:57Z</time>
      </trkpt>
      <trkpt lat="46.17736" lon="2.37179">
        <ele>411</ele>
        <time>2017-04-10T14:24:00Z</time>
      </trkpt>
      <trkpt lat="46.17733" lon="2.37178">
        <ele>411</ele>
        <time>2017-04-10T14:24:03Z</time>
      </trkpt>
      <trkpt lat="46.1773" lon="2.37176">
        <ele>411</ele>
        <time>2017-04-10T14:24:06Z</time>
      </trkpt>
      <trkpt lat="46.17726" lon="2.37174">
        <ele>411</ele>
        <time>2017-04-10T14:24:09Z</time>
      </trkpt>
      <trkpt lat="46.17723" lon="2.37169">
        <ele>411</ele>
        <time>2017-04-10T14:24:13Z</time>
      </trkpt>
      <trkpt lat="46.17723" lon="2.37164">
        <ele>411</ele>
        <time>2017-04-10T14:24:16Z</time>
      </trkpt>
      <trkpt lat="46.17725" lon="2.37157">
        <ele>411</ele>
        <time>2017-04-10T14:24:19Z</time>
      </trkpt>
      <trkpt lat="46.17726" lon="2.3715">
        <ele>411</ele>
        <time>2017-04-10T14:24:22Z</time>
      </trkpt>
      <trkpt lat="46.17726" lon="2.37144">
        <ele>411</ele>
        <time>2017-04-10T14:24:25Z</time>
      </trkpt>
      <trkpt lat="46.17727" lon="2.37138">
        <ele>411</ele>
        <time>2017-04-10T14:24:28Z</time>
      </trkpt>
      <trkpt lat="46.17728" lon="2.37133">
        <ele>410</ele>
        <time>2017-04-10T14:24:31Z</time>
      </trkpt>
      <trkpt lat="46.1773" lon="2.37128">
        <ele>410</ele>
        <time>2017-04-10T14:24:34Z</time>
      </trkpt>
      <trkpt lat="46.17731" lon="2.37123">
        <ele>410</ele>
        <time>2017-04-10T14:24:37Z</time>
      </trkpt>
      <trkpt lat="46.17732" lon="2.37116">
        <ele>410</ele>
        <time>2017-04-10T14:24:40Z</time>
      </trkpt>
      <trkpt lat="46.17732" lon="2.37113">
        <ele>410</ele>
        <time>2017-04-10T14:24:43Z</time>
      </trkpt>
      <trkpt lat="46.17732" lon="2.37107">
        <ele>410</ele>
        <time>2017-04-10T14:24:47Z</time>
      </trkpt>
      <trkpt lat="46.17732" lon="2.37103">
        <ele>410</ele>
        <time>2017-04-10T14:24:50Z</time>
      </trkpt>
      <trkpt lat="46.17732" lon="2.37098">
        <ele>410</ele>
        <time>2017-04-10T14:24:53Z</time>
      </trkpt>
      <trkpt lat="46.17732" lon="2.37094">
        <ele>410</ele>
        <time>2017-04-10T14:24:56Z</time>
      </trkpt>
      <trkpt lat="46.17731" lon="2.37089">
        <ele>410</ele>
        <time>2017-04-10T14:24:59Z</time>
      </trkpt>
      <trkpt lat="46.17731" lon="2.37085">
        <ele>410</ele>
        <time>2017-04-10T14:25:02Z</time>
      </trkpt>
      <trkpt lat="46.1773" lon="2.3708">
        <ele>410</ele>
        <time>2017-04-10T14:25:05Z</time>
      </trkpt>
      <trkpt lat="46.17729" lon="2.37075">
        <ele>410</ele>
        <time>2017-04-10T14:25:08Z</time>
      </trkpt>
      <trkpt lat="46.17728" lon="2.37069">
        <ele>410</ele>
        <time>2017-04-10T14:25:11Z</time>
      </trkpt>
      <trkpt lat="46.17727" lon="2.37064">
        <ele>410</ele>
        <time>2017-04-10T14:25:14Z</time>
      </trkpt>
      <trkpt lat="46.17726" lon="2.37059">
        <ele>410</ele>
        <time>2017-04-10T14:25:17Z</time>
      </trkpt>
      <trkpt lat="46.17724" lon="2.37054">
        <ele>410</ele>
        <time>2017-04-10T14:25:20Z</time>
      </trkpt>
      <trkpt lat="46.17722" lon="2.37048">
        <ele>410</ele>
        <time>2017-04-10T14:25:24Z</time>
      </trkpt>
      <trkpt lat="46.1772" lon="2.37042">
        <ele>410</ele>
        <time>2017-04-10T14:25:28Z</time>
      </trkpt>
      <trkpt lat="46.17719" lon="2.37037">
        <ele>410</ele>
        <time>2017-04-10T14:25:31Z</time>
      </trkpt>
      <trkpt lat="46.17717" lon="2.37033">
        <ele>410</ele>
        <time>2017-04-10T14:25:34Z</time>
      </trkpt>
      <trkpt lat="46.17715" lon="2.37028">
        <ele>410</ele>
        <time>2017-04-10T14:25:37Z</time>
      </trkpt>
      <trkpt lat="46.17713" lon="2.37023">
        <ele>410</ele>
        <time>2017-04-10T14:25:41Z</time>
      </trkpt>
      <trkpt lat="46.1771" lon="2.37018">
        <ele>410</ele>
        <time>2017-04-10T14:25:45Z</time>
      </trkpt>
      <trkpt lat="46.17708" lon="2.37014">
        <ele>410</ele>
        <time>2017-04-10T14:25:48Z</time>
      </trkpt>
      <trkpt lat="46.17706" lon="2.37009">
        <ele>410</ele>
        <time>2017-04-10T14:25:51Z</time>
      </trkpt>
      <trkpt lat="46.17704" lon="2.37004">
        <ele>410</ele>
        <time>2017-04-10T14:25:54Z</time>
      </trkpt>
      <trkpt lat="46.17701" lon="2.37">
        <ele>410</ele>
        <time>2017-04-10T14:25:57Z</time>
      </trkpt>
      <trkpt lat="46.17698" lon="2.36995">
        <ele>410</ele>
        <time>2017-04-10T14:26:00Z</time>
      </trkpt>
      <trkpt lat="46.17695" lon="2.36993">
        <ele>410</ele>
        <time>2017-04-10T14:26:03Z</time>
      </trkpt>
      <trkpt lat="46.17694" lon="2.36989">
        <ele>410</ele>
        <time>2017-04-10T14:26:06Z</time>
      </trkpt>
      <trkpt lat="46.17691" lon="2.36985">
        <ele>410</ele>
        <time>2017-04-10T14:26:09Z</time>
      </trkpt>
      <trkpt lat="46.17687" lon="2.3698">
        <ele>410</ele>
        <time>2017-04-10T14:26:13Z</time>
      </trkpt>
      <trkpt lat="46.17683" lon="2.36973">
        <ele>410</ele>
        <time>2017-04-10T14:26:17Z</time>
      </trkpt>
      <trkpt lat="46.17679" lon="2.36969">
        <ele>410</ele>
        <time>2017-04-10T14:26:21Z</time>
      </trkpt>
      <trkpt lat="46.17676" lon="2.36967">
        <ele>410</ele>
        <time>2017-04-10T14:26:24Z</time>
      </trkpt>
      <trkpt lat="46.17672" lon="2.36964">
        <ele>410</ele>
        <time>2017-04-10T14:26:27Z</time>
      </trkpt>
      <trkpt lat="46.17668" lon="2.3696">
        <ele>410</ele>
        <time>2017-04-10T14:26:31Z</time>
      </trkpt>
      <trkpt lat="46.17665" lon="2.36959">
        <ele>411</ele>
        <time>2017-04-10T14:26:34Z</time>
      </trkpt>
      <trkpt lat="46.1766" lon="2.36955">
        <ele>411</ele>
        <time>2017-04-10T14:26:37Z</time>
      </trkpt>
      <trkpt lat="46.17657" lon="2.36953">
        <ele>411</ele>
        <time>2017-04-10T14:26:40Z</time>
      </trkpt>
      <trkpt lat="46.17654" lon="2.36951">
        <ele>411</ele>
        <time>2017-04-10T14:26:43Z</time>
      </trkpt>
      <trkpt lat="46.1765" lon="2.36948">
        <ele>411</ele>
        <time>2017-04-10T14:26:46Z</time>
      </trkpt>
      <trkpt lat="46.17647" lon="2.36946">
        <ele>411</ele>
        <time>2017-04-10T14:26:49Z</time>
      </trkpt>
      <trkpt lat="46.17643" lon="2.36943">
        <ele>411</ele>
        <time>2017-04-10T14:26:53Z</time>
      </trkpt>
      <trkpt lat="46.17639" lon="2.3694">
        <ele>411</ele>
        <time>2017-04-10T14:26:57Z</time>
      </trkpt>
      <trkpt lat="46.17635" lon="2.36938">
        <ele>411</ele>
        <time>2017-04-10T14:27:00Z</time>
      </trkpt>
      <trkpt lat="46.1763" lon="2.36934">
        <ele>411</ele>
        <time>2017-04-10T14:27:03Z</time>
      </trkpt>
      <trkpt lat="46.17626" lon="2.36931">
        <ele>412</ele>
        <time>2017-04-10T14:27:06Z</time>
      </trkpt>
      <trkpt lat="46.17622" lon="2.36927">
        <ele>412</ele>
        <time>2017-04-10T14:27:09Z</time>
      </trkpt>
      <trkpt lat="46.17617" lon="2.36925">
        <ele>412</ele>
        <time>2017-04-10T14:27:12Z</time>
      </trkpt>
      <trkpt lat="46.17612" lon="2.36921">
        <ele>412</ele>
        <time>2017-04-10T14:27:16Z</time>
      </trkpt>
      <trkpt lat="46.17608" lon="2.36918">
        <ele>412</ele>
        <time>2017-04-10T14:27:20Z</time>
      </trkpt>
      <trkpt lat="46.17603" lon="2.36916">
        <ele>412</ele>
        <time>2017-04-10T14:27:24Z</time>
      </trkpt>
      <trkpt lat="46.17599" lon="2.36913">
        <ele>412</ele>
        <time>2017-04-10T14:27:27Z</time>
      </trkpt>
      <trkpt lat="46.17595" lon="2.36911">
        <ele>412</ele>
        <time>2017-04-10T14:27:30Z</time>
      </trkpt>
      <trkpt lat="46.17591" lon="2.36907">
        <ele>412</ele>
        <time>2017-04-10T14:27:34Z</time>
      </trkpt>
      <trkpt lat="46.17588" lon="2.36903">
        <ele>412</ele>
        <time>2017-04-10T14:27:38Z</time>
      </trkpt>
      <trkpt lat="46.17583" lon="2.36902">
        <ele>412</ele>
        <time>2017-04-10T14:27:42Z</time>
      </trkpt>
      <trkpt lat="46.17579" lon="2.36902">
        <ele>412</ele>
        <time>2017-04-10T14:27:45Z</time>
      </trkpt>
      <trkpt lat="46.17574" lon="2.369">
        <ele>411</ele>
        <time>2017-04-10T14:27:48Z</time>
      </trkpt>
      <trkpt lat="46.1757" lon="2.36899">
        <ele>410</ele>
        <time>2017-04-10T14:27:51Z</time>
      </trkpt>
      <trkpt lat="46.17566" lon="2.36898">
        <ele>409</ele>
        <time>2017-04-10T14:27:54Z</time>
      </trkpt>
      <trkpt lat="46.17561" lon="2.36898">
        <ele>408</ele>
        <time>2017-04-10T14:27:57Z</time>
      </trkpt>
      <trkpt lat="46.17556" lon="2.36898">
        <ele>407</ele>
        <time>2017-04-10T14:28:00Z</time>
      </trkpt>
      <trkpt lat="46.17552" lon="2.36898">
        <ele>405</ele>
        <time>2017-04-10T14:28:03Z</time>
      </trkpt>
      <trkpt lat="46.17548" lon="2.36895">
        <ele>404</ele>
        <time>2017-04-10T14:28:06Z</time>
      </trkpt>
      <trkpt lat="46.17543" lon="2.36892">
        <ele>403</ele>
        <time>2017-04-10T14:28:10Z</time>
      </trkpt>
      <trkpt lat="46.17538" lon="2.36889">
        <ele>403</ele>
        <time>2017-04-10T14:28:14Z</time>
      </trkpt>
      <trkpt lat="46.17533" lon="2.36884">
        <ele>403</ele>
        <time>2017-04-10T14:28:18Z</time>
      </trkpt>
      <trkpt lat="46.1753" lon="2.36881">
        <ele>403</ele>
        <time>2017-04-10T14:28:21Z</time>
      </trkpt>
      <trkpt lat="46.17526" lon="2.36879">
        <ele>403</ele>
        <time>2017-04-10T14:28:24Z</time>
      </trkpt>
      <trkpt lat="46.17522" lon="2.36876">
        <ele>403</ele>
        <time>2017-04-10T14:28:27Z</time>
      </trkpt>
      <trkpt lat="46.17517" lon="2.36873">
        <ele>403</ele>
        <time>2017-04-10T14:28:30Z</time>
      </trkpt>
      <trkpt lat="46.17514" lon="2.3687">
        <ele>403</ele>
        <time>2017-04-10T14:28:33Z</time>
      </trkpt>
      <trkpt lat="46.17509" lon="2.36867">
        <ele>403</ele>
        <time>2017-04-10T14:28:36Z</time>
      </trkpt>
      <trkpt lat="46.17506" lon="2.36864">
        <ele>403</ele>
        <time>2017-04-10T14:28:39Z</time>
      </trkpt>
      <trkpt lat="46.17502" lon="2.36861">
        <ele>403</ele>
        <time>2017-04-10T14:28:42Z</time>
      </trkpt>
      <trkpt lat="46.17498" lon="2.36858">
        <ele>403</ele>
        <time>2017-04-10T14:28:45Z</time>
      </trkpt>
      <trkpt lat="46.17494" lon="2.36855">
        <ele>403</ele>
        <time>2017-04-10T14:28:48Z</time>
      </trkpt>
      <trkpt lat="46.1749" lon="2.36852">
        <ele>403</ele>
        <time>2017-04-10T14:28:51Z</time>
      </trkpt>
      <trkpt lat="46.17486" lon="2.36849">
        <ele>403</ele>
        <time>2017-04-10T14:28:54Z</time>
      </trkpt>
      <trkpt lat="46.17482" lon="2.36846">
        <ele>403</ele>
        <time>2017-04-10T14:28:57Z</time>
      </trkpt>
      <trkpt lat="46.17478" lon="2.36843">
        <ele>403</ele>
        <time>2017-04-10T14:29:00Z</time>
      </trkpt>
      <trkpt lat="46.17475" lon="2.3684">
        <ele>403</ele>
        <time>2017-04-10T14:29:03Z</time>
      </trkpt>
      <trkpt lat="46.17471" lon="2.36837">
        <ele>403</ele>
        <time>2017-04-10T14:29:06Z</time>
      </trkpt>
      <trkpt lat="46.17466" lon="2.36834">
        <ele>403</ele>
        <time>2017-04-10T14:29:09Z</time>
      </trkpt>
      <trkpt lat="46.17462" lon="2.3683">
        <ele>404</ele>
        <time>2017-04-10T14:29:12Z</time>
      </trkpt>
      <trkpt lat="46.17458" lon="2.36827">
        <ele>405</ele>
        <time>2017-04-10T14:29:15Z</time>
      </trkpt>
      <trkpt lat="46.17453" lon="2.36823">
        <ele>406</ele>
        <time>2017-04-10T14:29:19Z</time>
      </trkpt>
      <trkpt lat="46.17449" lon="2.36821">
        <ele>408</ele>
        <time>2017-04-10T14:29:22Z</time>
      </trkpt>
      <trkpt lat="46.17446" lon="2.36818">
        <ele>408</ele>
        <time>2017-04-10T14:29:25Z</time>
      </trkpt>
      <trkpt lat="46.17442" lon="2.36815">
        <ele>408</ele>
        <time>2017-04-10T14:29:28Z</time>
      </trkpt>
      <trkpt lat="46.17438" lon="2.36811">
        <ele>408</ele>
        <time>2017-04-10T14:29:32Z</time>
      </trkpt>
      <trkpt lat="46.17434" lon="2.36806">
        <ele>408</ele>
        <time>2017-04-10T14:29:36Z</time>
      </trkpt>
      <trkpt lat="46.1743" lon="2.36803">
        <ele>408</ele>
        <time>2017-04-10T14:29:39Z</time>
      </trkpt>
      <trkpt lat="46.17427" lon="2.36799">
        <ele>408</ele>
        <time>2017-04-10T14:29:42Z</time>
      </trkpt>
      <trkpt lat="46.17423" lon="2.36797">
        <ele>408</ele>
        <time>2017-04-10T14:29:45Z</time>
      </trkpt>
      <trkpt lat="46.17419" lon="2.36793">
        <ele>408</ele>
        <time>2017-04-10T14:29:48Z</time>
      </trkpt>
      <trkpt lat="46.17414" lon="2.3679">
        <ele>408</ele>
        <time>2017-04-10T14:29:51Z</time>
      </trkpt>
      <trkpt lat="46.1741" lon="2.36787">
        <ele>407</ele>
        <time>2017-04-10T14:29:54Z</time>
      </trkpt>
      <trkpt lat="46.17406" lon="2.36784">
        <ele>405</ele>
        <time>2017-04-10T14:29:57Z</time>
      </trkpt>
      <trkpt lat="46.17402" lon="2.36781">
        <ele>404</ele>
        <time>2017-04-10T14:30:00Z</time>
      </trkpt>
      <trkpt lat="46.17398" lon="2.36778">
        <ele>404</ele>
        <time>2017-04-10T14:30:03Z</time>
      </trkpt>
      <trkpt lat="46.17394" lon="2.36775">
        <ele>404</ele>
        <time>2017-04-10T14:30:06Z</time>
      </trkpt>
      <trkpt lat="46.1739" lon="2.36772">
        <ele>404</ele>
        <time>2017-04-10T14:30:09Z</time>
      </trkpt>
      <trkpt lat="46.17387" lon="2.3677">
        <ele>404</ele>
        <time>2017-04-10T14:30:12Z</time>
      </trkpt>
      <trkpt lat="46.17382" lon="2.3677">
        <ele>404</ele>
        <time>2017-04-10T14:30:15Z</time>
      </trkpt>
      <trkpt lat="46.17378" lon="2.36772">
        <ele>404</ele>
        <time>2017-04-10T14:30:18Z</time>
      </trkpt>
      <trkpt lat="46.17375" lon="2.36776">
        <ele>405</ele>
        <time>2017-04-10T14:30:21Z</time>
      </trkpt>
      <trkpt lat="46.17372" lon="2.3678">
        <ele>406</ele>
        <time>2017-04-10T14:30:24Z</time>
      </trkpt>
      <trkpt lat="46.17369" lon="2.36784">
        <ele>407</ele>
        <time>2017-04-10T14:30:27Z</time>
      </trkpt>
      <trkpt lat="46.17366" lon="2.36788">
        <ele>407</ele>
        <time>2017-04-10T14:30:30Z</time>
      </trkpt>
      <trkpt lat="46.17363" lon="2.36794">
        <ele>407</ele>
        <time>2017-04-10T14:30:34Z</time>
      </trkpt>
      <trkpt lat="46.17358" lon="2.36799">
        <ele>407</ele>
        <time>2017-04-10T14:30:38Z</time>
      </trkpt>
      <trkpt lat="46.17355" lon="2.36805">
        <ele>407</ele>
        <time>2017-04-10T14:30:42Z</time>
      </trkpt>
      <trkpt lat="46.17353" lon="2.36809">
        <ele>407</ele>
        <time>2017-04-10T14:30:45Z</time>
      </trkpt>
      <trkpt lat="46.1735" lon="2.36813">
        <ele>407</ele>
        <time>2017-04-10T14:30:48Z</time>
      </trkpt>
      <trkpt lat="46.17348" lon="2.36819">
        <ele>407</ele>
        <time>2017-04-10T14:30:51Z</time>
      </trkpt>
      <trkpt lat="46.17345" lon="2.36823">
        <ele>407</ele>
        <time>2017-04-10T14:30:54Z</time>
      </trkpt>
      <trkpt lat="46.17342" lon="2.36829">
        <ele>407</ele>
        <time>2017-04-10T14:30:58Z</time>
      </trkpt>
      <trkpt lat="46.1734" lon="2.36834">
        <ele>407</ele>
        <time>2017-04-10T14:31:01Z</time>
      </trkpt>
      <trkpt lat="46.17336" lon="2.3684">
        <ele>407</ele>
        <time>2017-04-10T14:31:04Z</time>
      </trkpt>
      <trkpt lat="46.17333" lon="2.36845">
        <ele>407</ele>
        <time>2017-04-10T14:31:07Z</time>
      </trkpt>
      <trkpt lat="46.1733" lon="2.3685">
        <ele>407</ele>
        <time>2017-04-10T14:31:10Z</time>
      </trkpt>
      <trkpt lat="46.17327" lon="2.36855">
        <ele>407</ele>
        <time>2017-04-10T14:31:13Z</time>
      </trkpt>
      <trkpt lat="46.17325" lon="2.36859">
        <ele>407</ele>
        <time>2017-04-10T14:31:16Z</time>
      </trkpt>
      <trkpt lat="46.17322" lon="2.36863">
        <ele>407</ele>
        <time>2017-04-10T14:31:19Z</time>
      </trkpt>
      <trkpt lat="46.17319" lon="2.36867">
        <ele>407</ele>
        <time>2017-04-10T14:31:22Z</time>
      </trkpt>
      <trkpt lat="46.17316" lon="2.36872">
        <ele>407</ele>
        <time>2017-04-10T14:31:25Z</time>
      </trkpt>
      <trkpt lat="46.17313" lon="2.36877">
        <ele>407</ele>
        <time>2017-04-10T14:31:28Z</time>
      </trkpt>
      <trkpt lat="46.1731" lon="2.36881">
        <ele>406</ele>
        <time>2017-04-10T14:31:31Z</time>
      </trkpt>
      <trkpt lat="46.17304" lon="2.36888">
        <ele>406</ele>
        <time>2017-04-10T14:31:36Z</time>
      </trkpt>
      <trkpt lat="46.17301" lon="2.36892">
        <ele>406</ele>
        <time>2017-04-10T14:31:39Z</time>
      </trkpt>
      <trkpt lat="46.17297" lon="2.36897">
        <ele>406</ele>
        <time>2017-04-10T14:31:42Z</time>
      </trkpt>
      <trkpt lat="46.17294" lon="2.36901">
        <ele>406</ele>
        <time>2017-04-10T14:31:45Z</time>
      </trkpt>
      <trkpt lat="46.1729" lon="2.36906">
        <ele>406</ele>
        <time>2017-04-10T14:31:49Z</time>
      </trkpt>
      <trkpt lat="46.17286" lon="2.36911">
        <ele>406</ele>
        <time>2017-04-10T14:31:53Z</time>
      </trkpt>
      <trkpt lat="46.17282" lon="2.36916">
        <ele>406</ele>
        <time>2017-04-10T14:31:57Z</time>
      </trkpt>
      <trkpt lat="46.17279" lon="2.3692">
        <ele>406</ele>
        <time>2017-04-10T14:32:00Z</time>
      </trkpt>
      <trkpt lat="46.17276" lon="2.36923">
        <ele>406</ele>
        <time>2017-04-10T14:32:03Z</time>
      </trkpt>
      <trkpt lat="46.17272" lon="2.36926">
        <ele>406</ele>
        <time>2017-04-10T14:32:06Z</time>
      </trkpt>
      <trkpt lat="46.17269" lon="2.3693">
        <ele>406</ele>
        <time>2017-04-10T14:32:09Z</time>
      </trkpt>
      <trkpt lat="46.17265" lon="2.36933">
        <ele>406</ele>
        <time>2017-04-10T14:32:12Z</time>
      </trkpt>
      <trkpt lat="46.17261" lon="2.36937">
        <ele>406</ele>
        <time>2017-04-10T14:32:15Z</time>
      </trkpt>
      <trkpt lat="46.17257" lon="2.36941">
        <ele>406</ele>
        <time>2017-04-10T14:32:19Z</time>
      </trkpt>
      <trkpt lat="46.17254" lon="2.36945">
        <ele>406</ele>
        <time>2017-04-10T14:32:23Z</time>
      </trkpt>
      <trkpt lat="46.17251" lon="2.36949">
        <ele>406</ele>
        <time>2017-04-10T14:32:27Z</time>
      </trkpt>
      <trkpt lat="46.17248" lon="2.36954">
        <ele>406</ele>
        <time>2017-04-10T14:32:31Z</time>
      </trkpt>
      <trkpt lat="46.17247" lon="2.36956">
        <ele>406</ele>
        <time>2017-04-10T14:32:35Z</time>
      </trkpt>
      <trkpt lat="46.17246" lon="2.36959">
        <ele>405</ele>
        <time>2017-04-10T14:32:38Z</time>
      </trkpt>
      <trkpt lat="46.17245" lon="2.36964">
        <ele>405</ele>
        <time>2017-04-10T14:32:41Z</time>
      </trkpt>
      <trkpt lat="46.17245" lon="2.36969">
        <ele>405</ele>
        <time>2017-04-10T14:32:44Z</time>
      </trkpt>
      <trkpt lat="46.17245" lon="2.36975">
        <ele>405</ele>
        <time>2017-04-10T14:32:47Z</time>
      </trkpt>
      <trkpt lat="46.17246" lon="2.3698">
        <ele>405</ele>
        <time>2017-04-10T14:32:50Z</time>
      </trkpt>
      <trkpt lat="46.17244" lon="2.36985">
        <ele>405</ele>
        <time>2017-04-10T14:32:53Z</time>
      </trkpt>
      <trkpt lat="46.17242" lon="2.36988">
        <ele>405</ele>
        <time>2017-04-10T14:32:56Z</time>
      </trkpt>
      <trkpt lat="46.17239" lon="2.36991">
        <ele>405</ele>
        <time>2017-04-10T14:32:59Z</time>
      </trkpt>
      <trkpt lat="46.17236" lon="2.36995">
        <ele>405</ele>
        <time>2017-04-10T14:33:02Z</time>
      </trkpt>
      <trkpt lat="46.17233" lon="2.36998">
        <ele>403</ele>
        <time>2017-04-10T14:33:05Z</time>
      </trkpt>
      <trkpt lat="46.17229" lon="2.37001">
        <ele>403</ele>
        <time>2017-04-10T14:33:08Z</time>
      </trkpt>
      <trkpt lat="46.17226" lon="2.37005">
        <ele>403</ele>
        <time>2017-04-10T14:33:12Z</time>
      </trkpt>
      <trkpt lat="46.17222" lon="2.37009">
        <ele>403</ele>
        <time>2017-04-10T14:33:16Z</time>
      </trkpt>
      <trkpt lat="46.17218" lon="2.37015">
        <ele>402</ele>
        <time>2017-04-10T14:33:19Z</time>
      </trkpt>
      <trkpt lat="46.17215" lon="2.37019">
        <ele>402</ele>
        <time>2017-04-10T14:33:22Z</time>
      </trkpt>
      <trkpt lat="46.17211" lon="2.37024">
        <ele>402</ele>
        <time>2017-04-10T14:33:25Z</time>
      </trkpt>
      <trkpt lat="46.17208" lon="2.37028">
        <ele>402</ele>
        <time>2017-04-10T14:33:28Z</time>
      </trkpt>
      <trkpt lat="46.17203" lon="2.37029">
        <ele>401</ele>
        <time>2017-04-10T14:33:31Z</time>
      </trkpt>
      <trkpt lat="46.17199" lon="2.37031">
        <ele>400</ele>
        <time>2017-04-10T14:33:34Z</time>
      </trkpt>
      <trkpt lat="46.17195" lon="2.37036">
        <ele>400</ele>
        <time>2017-04-10T14:33:38Z</time>
      </trkpt>
      <trkpt lat="46.17191" lon="2.37038">
        <ele>400</ele>
        <time>2017-04-10T14:33:41Z</time>
      </trkpt>
      <trkpt lat="46.17187" lon="2.37043">
        <ele>400</ele>
        <time>2017-04-10T14:33:45Z</time>
      </trkpt>
      <trkpt lat="46.17184" lon="2.37046">
        <ele>400</ele>
        <time>2017-04-10T14:33:48Z</time>
      </trkpt>
      <trkpt lat="46.17179" lon="2.37051">
        <ele>400</ele>
        <time>2017-04-10T14:33:51Z</time>
      </trkpt>
      <trkpt lat="46.17176" lon="2.37056">
        <ele>399</ele>
        <time>2017-04-10T14:33:54Z</time>
      </trkpt>
      <trkpt lat="46.17173" lon="2.3706">
        <ele>399</ele>
        <time>2017-04-10T14:33:57Z</time>
      </trkpt>
      <trkpt lat="46.17169" lon="2.37066">
        <ele>399</ele>
        <time>2017-04-10T14:34:00Z</time>
      </trkpt>
      <trkpt lat="46.17164" lon="2.37071">
        <ele>399</ele>
        <time>2017-04-10T14:34:04Z</time>
      </trkpt>
      <trkpt lat="46.17161" lon="2.37076">
        <ele>399</ele>
        <time>2017-04-10T14:34:07Z</time>
      </trkpt>
      <trkpt lat="46.17159" lon="2.3708">
        <ele>399</ele>
        <time>2017-04-10T14:34:10Z</time>
      </trkpt>
      <trkpt lat="46.17155" lon="2.37085">
        <ele>399</ele>
        <time>2017-04-10T14:34:14Z</time>
      </trkpt>
      <trkpt lat="46.17152" lon="2.37088">
        <ele>399</ele>
        <time>2017-04-10T14:34:17Z</time>
      </trkpt>
      <trkpt lat="46.17149" lon="2.37092">
        <ele>399</ele>
        <time>2017-04-10T14:34:20Z</time>
      </trkpt>
      <trkpt lat="46.17147" lon="2.37097">
        <ele>399</ele>
        <time>2017-04-10T14:34:24Z</time>
      </trkpt>
      <trkpt lat="46.17146" lon="2.37103">
        <ele>399</ele>
        <time>2017-04-10T14:34:27Z</time>
      </trkpt>
      <trkpt lat="46.17145" lon="2.37107">
        <ele>399</ele>
        <time>2017-04-10T14:34:30Z</time>
      </trkpt>
      <trkpt lat="46.17145" lon="2.37113">
        <ele>399</ele>
        <time>2017-04-10T14:34:33Z</time>
      </trkpt>
      <trkpt lat="46.17146" lon="2.37119">
        <ele>399</ele>
        <time>2017-04-10T14:34:36Z</time>
      </trkpt>
      <trkpt lat="46.17145" lon="2.37125">
        <ele>399</ele>
        <time>2017-04-10T14:34:39Z</time>
      </trkpt>
      <trkpt lat="46.17145" lon="2.37131">
        <ele>399</ele>
        <time>2017-04-10T14:34:42Z</time>
      </trkpt>
      <trkpt lat="46.17143" lon="2.37137">
        <ele>399</ele>
        <time>2017-04-10T14:34:45Z</time>
      </trkpt>
      <trkpt lat="46.17142" lon="2.37144">
        <ele>399</ele>
        <time>2017-04-10T14:34:48Z</time>
      </trkpt>
      <trkpt lat="46.1714" lon="2.37151">
        <ele>399</ele>
        <time>2017-04-10T14:34:51Z</time>
      </trkpt>
      <trkpt lat="46.17138" lon="2.37158">
        <ele>399</ele>
        <time>2017-04-10T14:34:55Z</time>
      </trkpt>
      <trkpt lat="46.17137" lon="2.37164">
        <ele>399</ele>
        <time>2017-04-10T14:34:58Z</time>
      </trkpt>
      <trkpt lat="46.17136" lon="2.3717">
        <ele>399</ele>
        <time>2017-04-10T14:35:01Z</time>
      </trkpt>
      <trkpt lat="46.17134" lon="2.37175">
        <ele>398</ele>
        <time>2017-04-10T14:35:04Z</time>
      </trkpt>
      <trkpt lat="46.17133" lon="2.37181">
        <ele>396</ele>
        <time>2017-04-10T14:35:07Z</time>
      </trkpt>
      <trkpt lat="46.17133" lon="2.37188">
        <ele>395</ele>
        <time>2017-04-10T14:35:10Z</time>
      </trkpt>
      <trkpt lat="46.17131" lon="2.37194">
        <ele>394</ele>
        <time>2017-04-10T14:35:13Z</time>
      </trkpt>
      <trkpt lat="46.1713" lon="2.37199">
        <ele>394</ele>
        <time>2017-04-10T14:35:16Z</time>
      </trkpt>
      <trkpt lat="46.17128" lon="2.37205">
        <ele>394</ele>
        <time>2017-04-10T14:35:19Z</time>
      </trkpt>
      <trkpt lat="46.17127" lon="2.37211">
        <ele>394</ele>
        <time>2017-04-10T14:35:22Z</time>
      </trkpt>
      <trkpt lat="46.17125" lon="2.37218">
        <ele>394</ele>
        <time>2017-04-10T14:35:25Z</time>
      </trkpt>
      <trkpt lat="46.17124" lon="2.37224">
        <ele>394</ele>
        <time>2017-04-10T14:35:28Z</time>
      </trkpt>
      <trkpt lat="46.17122" lon="2.3723">
        <ele>394</ele>
        <time>2017-04-10T14:35:31Z</time>
      </trkpt>
      <trkpt lat="46.1712" lon="2.37237">
        <ele>394</ele>
        <time>2017-04-10T14:35:34Z</time>
      </trkpt>
      <trkpt lat="46.17117" lon="2.37244">
        <ele>394</ele>
        <time>2017-04-10T14:35:37Z</time>
      </trkpt>
      <trkpt lat="46.17115" lon="2.37249">
        <ele>394</ele>
        <time>2017-04-10T14:35:40Z</time>
      </trkpt>
      <trkpt lat="46.17113" lon="2.37255">
        <ele>394</ele>
        <time>2017-04-10T14:35:43Z</time>
      </trkpt>
      <trkpt lat="46.17111" lon="2.37261">
        <ele>394</ele>
        <time>2017-04-10T14:35:46Z</time>
      </trkpt>
      <trkpt lat="46.17108" lon="2.37266">
        <ele>394</ele>
        <time>2017-04-10T14:35:49Z</time>
      </trkpt>
      <trkpt lat="46.17105" lon="2.37272">
        <ele>394</ele>
        <time>2017-04-10T14:35:52Z</time>
      </trkpt>
      <trkpt lat="46.17102" lon="2.37279">
        <ele>395</ele>
        <time>2017-04-10T14:35:55Z</time>
      </trkpt>
      <trkpt lat="46.17099" lon="2.37285">
        <ele>395</ele>
        <time>2017-04-10T14:35:58Z</time>
      </trkpt>
      <trkpt lat="46.17097" lon="2.3729">
        <ele>395</ele>
        <time>2017-04-10T14:36:01Z</time>
      </trkpt>
      <trkpt lat="46.17094" lon="2.37294">
        <ele>395</ele>
        <time>2017-04-10T14:36:04Z</time>
      </trkpt>
      <trkpt lat="46.17092" lon="2.373">
        <ele>395</ele>
        <time>2017-04-10T14:36:07Z</time>
      </trkpt>
      <trkpt lat="46.1709" lon="2.37305">
        <ele>395</ele>
        <time>2017-04-10T14:36:10Z</time>
      </trkpt>
      <trkpt lat="46.17088" lon="2.3731">
        <ele>395</ele>
        <time>2017-04-10T14:36:13Z</time>
      </trkpt>
      <trkpt lat="46.17086" lon="2.37316">
        <ele>395</ele>
        <time>2017-04-10T14:36:16Z</time>
      </trkpt>
      <trkpt lat="46.17083" lon="2.37321">
        <ele>395</ele>
        <time>2017-04-10T14:36:19Z</time>
      </trkpt>
      <trkpt lat="46.17081" lon="2.37326">
        <ele>395</ele>
        <time>2017-04-10T14:36:22Z</time>
      </trkpt>
      <trkpt lat="46.17079" lon="2.37332">
        <ele>395</ele>
        <time>2017-04-10T14:36:25Z</time>
      </trkpt>
      <trkpt lat="46.17076" lon="2.37336">
        <ele>395</ele>
        <time>2017-04-10T14:36:28Z</time>
      </trkpt>
      <trkpt lat="46.17073" lon="2.37339">
        <ele>395</ele>
        <time>2017-04-10T14:36:32Z</time>
      </trkpt>
      <trkpt lat="46.17072" lon="2.3734">
        <ele>395</ele>
        <time>2017-04-10T14:36:35Z</time>
      </trkpt>
      <trkpt lat="46.17068" lon="2.37341">
        <ele>395</ele>
        <time>2017-04-10T14:36:39Z</time>
      </trkpt>
      <trkpt lat="46.17064" lon="2.37342">
        <ele>398</ele>
        <time>2017-04-10T14:36:58Z</time>
      </trkpt>
      <trkpt lat="46.1706" lon="2.37341">
        <ele>398</ele>
        <time>2017-04-10T14:37:01Z</time>
      </trkpt>
      <trkpt lat="46.17057" lon="2.3734">
        <ele>398</ele>
        <time>2017-04-10T14:37:04Z</time>
      </trkpt>
      <trkpt lat="46.17053" lon="2.37339">
        <ele>398</ele>
        <time>2017-04-10T14:37:07Z</time>
      </trkpt>
      <trkpt lat="46.1705" lon="2.37337">
        <ele>398</ele>
        <time>2017-04-10T14:37:10Z</time>
      </trkpt>
      <trkpt lat="46.17052" lon="2.37337">
        <ele>398</ele>
        <time>2017-04-10T14:37:13Z</time>
      </trkpt>
      <trkpt lat="46.17057" lon="2.37337">
        <ele>396</ele>
        <time>2017-04-10T14:37:17Z</time>
      </trkpt>
      <trkpt lat="46.17057" lon="2.37335">
        <ele>395</ele>
        <time>2017-04-10T14:37:23Z</time>
      </trkpt>
      <trkpt lat="46.17057" lon="2.37333">
        <ele>394</ele>
        <time>2017-04-10T14:37:34Z</time>
      </trkpt>
      <trkpt lat="46.17058" lon="2.37334">
        <ele>394</ele>
        <time>2017-04-10T14:37:48Z</time>
      </trkpt>
      <trkpt lat="46.1706" lon="2.37334">
        <ele>394</ele>
        <time>2017-04-10T14:37:55Z</time>
      </trkpt>
      <trkpt lat="46.17063" lon="2.37335">
        <ele>394</ele>
        <time>2017-04-10T14:37:58Z</time>
      </trkpt>
      <trkpt lat="46.17067" lon="2.37337">
        <ele>394</ele>
        <time>2017-04-10T14:38:01Z</time>
      </trkpt>
      <trkpt lat="46.17068" lon="2.3734">
        <ele>394</ele>
        <time>2017-04-10T14:38:05Z</time>
      </trkpt>
      <trkpt lat="46.1707" lon="2.37342">
        <ele>394</ele>
        <time>2017-04-10T14:38:08Z</time>
      </trkpt>
      <trkpt lat="46.17068" lon="2.37347">
        <ele>394</ele>
        <time>2017-04-10T14:38:12Z</time>
      </trkpt>
      <trkpt lat="46.17066" lon="2.37352">
        <ele>394</ele>
        <time>2017-04-10T14:38:16Z</time>
      </trkpt>
      <trkpt lat="46.17064" lon="2.37356">
        <ele>394</ele>
        <time>2017-04-10T14:38:19Z</time>
      </trkpt>
      <trkpt lat="46.17061" lon="2.37362">
        <ele>394</ele>
        <time>2017-04-10T14:38:22Z</time>
      </trkpt>
      <trkpt lat="46.17059" lon="2.37369">
        <ele>394</ele>
        <time>2017-04-10T14:38:25Z</time>
      </trkpt>
      <trkpt lat="46.17057" lon="2.37373">
        <ele>393</ele>
        <time>2017-04-10T14:38:28Z</time>
      </trkpt>
      <trkpt lat="46.17055" lon="2.37378">
        <ele>392</ele>
        <time>2017-04-10T14:38:32Z</time>
      </trkpt>
      <trkpt lat="46.17053" lon="2.37382">
        <ele>391</ele>
        <time>2017-04-10T14:38:36Z</time>
      </trkpt>
      <trkpt lat="46.17052" lon="2.37386">
        <ele>391</ele>
        <time>2017-04-10T14:38:39Z</time>
      </trkpt>
      <trkpt lat="46.17052" lon="2.3739">
        <ele>391</ele>
        <time>2017-04-10T14:38:42Z</time>
      </trkpt>
      <trkpt lat="46.17052" lon="2.37394">
        <ele>391</ele>
        <time>2017-04-10T14:38:47Z</time>
      </trkpt>
      <trkpt lat="46.17052" lon="2.37396">
        <ele>390</ele>
        <time>2017-04-10T14:38:51Z</time>
      </trkpt>
      <trkpt lat="46.17053" lon="2.37395">
        <ele>387</ele>
        <time>2017-04-10T14:38:58Z</time>
      </trkpt>
      <trkpt lat="46.17053" lon="2.37397">
        <ele>385</ele>
        <time>2017-04-10T14:39:05Z</time>
      </trkpt>
      <trkpt lat="46.17055" lon="2.37398">
        <ele>377</ele>
        <time>2017-04-10T14:39:20Z</time>
      </trkpt>
      <trkpt lat="46.17057" lon="2.37399">
        <ele>377</ele>
        <time>2017-04-10T14:39:24Z</time>
      </trkpt>
      <trkpt lat="46.17056" lon="2.37401">
        <ele>380</ele>
        <time>2017-04-10T14:39:29Z</time>
      </trkpt>
      <trkpt lat="46.17054" lon="2.37405">
        <ele>381</ele>
        <time>2017-04-10T14:39:33Z</time>
      </trkpt>
      <trkpt lat="46.17052" lon="2.37407">
        <ele>381</ele>
        <time>2017-04-10T14:39:36Z</time>
      </trkpt>
      <trkpt lat="46.17051" lon="2.37411">
        <ele>381</ele>
        <time>2017-04-10T14:39:40Z</time>
      </trkpt>
      <trkpt lat="46.1705" lon="2.37417">
        <ele>381</ele>
        <time>2017-04-10T14:39:43Z</time>
      </trkpt>
      <trkpt lat="46.17047" lon="2.37423">
        <ele>381</ele>
        <time>2017-04-10T14:39:46Z</time>
      </trkpt>
      <trkpt lat="46.17045" lon="2.37428">
        <ele>379</ele>
        <time>2017-04-10T14:39:49Z</time>
      </trkpt>
      <trkpt lat="46.17045" lon="2.37433">
        <ele>378</ele>
        <time>2017-04-10T14:39:52Z</time>
      </trkpt>
      <trkpt lat="46.17044" lon="2.37439">
        <ele>378</ele>
        <time>2017-04-10T14:39:55Z</time>
      </trkpt>
      <trkpt lat="46.17043" lon="2.37444">
        <ele>377</ele>
        <time>2017-04-10T14:39:58Z</time>
      </trkpt>
      <trkpt lat="46.17042" lon="2.37449">
        <ele>377</ele>
        <time>2017-04-10T14:40:01Z</time>
      </trkpt>
      <trkpt lat="46.17041" lon="2.37455">
        <ele>376</ele>
        <time>2017-04-10T14:40:04Z</time>
      </trkpt>
      <trkpt lat="46.17039" lon="2.37461">
        <ele>375</ele>
        <time>2017-04-10T14:40:07Z</time>
      </trkpt>
      <trkpt lat="46.17038" lon="2.37467">
        <ele>375</ele>
        <time>2017-04-10T14:40:10Z</time>
      </trkpt>
      <trkpt lat="46.17037" lon="2.37472">
        <ele>374</ele>
        <time>2017-04-10T14:40:13Z</time>
      </trkpt>
      <trkpt lat="46.17036" lon="2.37477">
        <ele>373</ele>
        <time>2017-04-10T14:40:16Z</time>
      </trkpt>
      <trkpt lat="46.17036" lon="2.37484">
        <ele>373</ele>
        <time>2017-04-10T14:40:19Z</time>
      </trkpt>
      <trkpt lat="46.17036" lon="2.37489">
        <ele>373</ele>
        <time>2017-04-10T14:40:22Z</time>
      </trkpt>
      <trkpt lat="46.17036" lon="2.37494">
        <ele>373</ele>
        <time>2017-04-10T14:40:25Z</time>
      </trkpt>
      <trkpt lat="46.17037" lon="2.37499">
        <ele>373</ele>
        <time>2017-04-10T14:40:28Z</time>
      </trkpt>
      <trkpt lat="46.17039" lon="2.37506">
        <ele>373</ele>
        <time>2017-04-10T14:40:32Z</time>
      </trkpt>
      <trkpt lat="46.1704" lon="2.37514">
        <ele>373</ele>
        <time>2017-04-10T14:40:35Z</time>
      </trkpt>
      <trkpt lat="46.1704" lon="2.37522">
        <ele>372</ele>
        <time>2017-04-10T14:40:38Z</time>
      </trkpt>
      <trkpt lat="46.1704" lon="2.3753">
        <ele>371</ele>
        <time>2017-04-10T14:40:41Z</time>
      </trkpt>
      <trkpt lat="46.17041" lon="2.37536">
        <ele>370</ele>
        <time>2017-04-10T14:40:44Z</time>
      </trkpt>
      <trkpt lat="46.17042" lon="2.37541">
        <ele>370</ele>
        <time>2017-04-10T14:40:47Z</time>
      </trkpt>
      <trkpt lat="46.17041" lon="2.37548">
        <ele>368</ele>
        <time>2017-04-10T14:40:50Z</time>
      </trkpt>
      <trkpt lat="46.17039" lon="2.37556">
        <ele>367</ele>
        <time>2017-04-10T14:40:53Z</time>
      </trkpt>
      <trkpt lat="46.17038" lon="2.37562">
        <ele>367</ele>
        <time>2017-04-10T14:40:56Z</time>
      </trkpt>
      <trkpt lat="46.17037" lon="2.37571">
        <ele>367</ele>
        <time>2017-04-10T14:40:59Z</time>
      </trkpt>
      <trkpt lat="46.17035" lon="2.37577">
        <ele>369</ele>
        <time>2017-04-10T14:41:02Z</time>
      </trkpt>
      <trkpt lat="46.17033" lon="2.37584">
        <ele>371</ele>
        <time>2017-04-10T14:41:05Z</time>
      </trkpt>
      <trkpt lat="46.1703" lon="2.3759">
        <ele>371</ele>
        <time>2017-04-10T14:41:08Z</time>
      </trkpt>
      <trkpt lat="46.17029" lon="2.37597">
        <ele>371</ele>
        <time>2017-04-10T14:41:11Z</time>
      </trkpt>
      <trkpt lat="46.17028" lon="2.37603">
        <ele>371</ele>
        <time>2017-04-10T14:41:14Z</time>
      </trkpt>
      <trkpt lat="46.17026" lon="2.37609">
        <ele>371</ele>
        <time>2017-04-10T14:41:17Z</time>
      </trkpt>
      <trkpt lat="46.17024" lon="2.37614">
        <ele>370</ele>
        <time>2017-04-10T14:41:20Z</time>
      </trkpt>
      <trkpt lat="46.17023" lon="2.37618">
        <ele>368</ele>
        <time>2017-04-10T14:41:23Z</time>
      </trkpt>
      <trkpt lat="46.17021" lon="2.37625">
        <ele>367</ele>
        <time>2017-04-10T14:41:26Z</time>
      </trkpt>
      <trkpt lat="46.1702" lon="2.37631">
        <ele>365</ele>
        <time>2017-04-10T14:41:29Z</time>
      </trkpt>
      <trkpt lat="46.1702" lon="2.37637">
        <ele>363</ele>
        <time>2017-04-10T14:41:32Z</time>
      </trkpt>
      <trkpt lat="46.17017" lon="2.37642">
        <ele>363</ele>
        <time>2017-04-10T14:41:35Z</time>
      </trkpt>
      <trkpt lat="46.17016" lon="2.37648">
        <ele>363</ele>
        <time>2017-04-10T14:41:39Z</time>
      </trkpt>
      <trkpt lat="46.17015" lon="2.37653">
        <ele>363</ele>
        <time>2017-04-10T14:41:42Z</time>
      </trkpt>
      <trkpt lat="46.17014" lon="2.37658">
        <ele>363</ele>
        <time>2017-04-10T14:41:45Z</time>
      </trkpt>
      <trkpt lat="46.17012" lon="2.37662">
        <ele>363</ele>
        <time>2017-04-10T14:41:48Z</time>
      </trkpt>
      <trkpt lat="46.17009" lon="2.37665">
        <ele>362</ele>
        <time>2017-04-10T14:41:52Z</time>
      </trkpt>
      <trkpt lat="46.17006" lon="2.37671">
        <ele>362</ele>
        <time>2017-04-10T14:41:55Z</time>
      </trkpt>
      <trkpt lat="46.17002" lon="2.37677">
        <ele>364</ele>
        <time>2017-04-10T14:41:59Z</time>
      </trkpt>
      <trkpt lat="46.17003" lon="2.37682">
        <ele>366</ele>
        <time>2017-04-10T14:42:03Z</time>
      </trkpt>
      <trkpt lat="46.17" lon="2.37689">
        <ele>366</ele>
        <time>2017-04-10T14:42:06Z</time>
      </trkpt>
      <trkpt lat="46.17" lon="2.37695">
        <ele>366</ele>
        <time>2017-04-10T14:42:10Z</time>
      </trkpt>
      <trkpt lat="46.17001" lon="2.37699">
        <ele>366</ele>
        <time>2017-04-10T14:42:13Z</time>
      </trkpt>
      <trkpt lat="46.17" lon="2.37702">
        <ele>366</ele>
        <time>2017-04-10T14:42:17Z</time>
      </trkpt>
      <trkpt lat="46.17001" lon="2.37703">
        <ele>366</ele>
        <time>2017-04-10T14:42:22Z</time>
      </trkpt>
      <trkpt lat="46.17003" lon="2.37705">
        <ele>366</ele>
        <time>2017-04-10T14:42:26Z</time>
      </trkpt>
      <trkpt lat="46.17004" lon="2.37709">
        <ele>366</ele>
        <time>2017-04-10T14:42:29Z</time>
      </trkpt>
      <trkpt lat="46.17006" lon="2.37713">
        <ele>364</ele>
        <time>2017-04-10T14:42:32Z</time>
      </trkpt>
      <trkpt lat="46.17008" lon="2.37719">
        <ele>363</ele>
        <time>2017-04-10T14:42:35Z</time>
      </trkpt>
      <trkpt lat="46.17008" lon="2.37723">
        <ele>362</ele>
        <time>2017-04-10T14:42:38Z</time>
      </trkpt>
      <trkpt lat="46.1701" lon="2.37728">
        <ele>361</ele>
        <time>2017-04-10T14:42:41Z</time>
      </trkpt>
      <trkpt lat="46.17012" lon="2.37733">
        <ele>360</ele>
        <time>2017-04-10T14:42:44Z</time>
      </trkpt>
      <trkpt lat="46.17012" lon="2.37737">
        <ele>360</ele>
        <time>2017-04-10T14:42:47Z</time>
      </trkpt>
      <trkpt lat="46.17013" lon="2.37741">
        <ele>360</ele>
        <time>2017-04-10T14:42:51Z</time>
      </trkpt>
      <trkpt lat="46.17012" lon="2.3775">
        <ele>359</ele>
        <time>2017-04-10T14:42:54Z</time>
      </trkpt>
      <trkpt lat="46.17013" lon="2.37756">
        <ele>359</ele>
        <time>2017-04-10T14:42:57Z</time>
      </trkpt>
      <trkpt lat="46.17012" lon="2.37763">
        <ele>359</ele>
        <time>2017-04-10T14:43:01Z</time>
      </trkpt>
      <trkpt lat="46.17009" lon="2.37765">
        <ele>360</ele>
        <time>2017-04-10T14:43:04Z</time>
      </trkpt>
      <trkpt lat="46.17006" lon="2.3777">
        <ele>360</ele>
        <time>2017-04-10T14:43:08Z</time>
      </trkpt>
      <trkpt lat="46.17002" lon="2.37778">
        <ele>360</ele>
        <time>2017-04-10T14:43:11Z</time>
      </trkpt>
      <trkpt lat="46.16999" lon="2.37784">
        <ele>360</ele>
        <time>2017-04-10T14:43:15Z</time>
      </trkpt>
      <trkpt lat="46.16997" lon="2.37786">
        <ele>360</ele>
        <time>2017-04-10T14:43:18Z</time>
      </trkpt>
      <trkpt lat="46.16996" lon="2.37789">
        <ele>360</ele>
        <time>2017-04-10T14:43:22Z</time>
      </trkpt>
      <trkpt lat="46.16993" lon="2.37793">
        <ele>360</ele>
        <time>2017-04-10T14:43:25Z</time>
      </trkpt>
      <trkpt lat="46.16991" lon="2.37797">
        <ele>360</ele>
        <time>2017-04-10T14:43:29Z</time>
      </trkpt>
      <trkpt lat="46.16988" lon="2.37802">
        <ele>357</ele>
        <time>2017-04-10T14:43:33Z</time>
      </trkpt>
      <trkpt lat="46.16985" lon="2.37806">
        <ele>355</ele>
        <time>2017-04-10T14:43:37Z</time>
      </trkpt>
      <trkpt lat="46.16983" lon="2.37811">
        <ele>355</ele>
        <time>2017-04-10T14:43:41Z</time>
      </trkpt>
      <trkpt lat="46.16981" lon="2.37815">
        <ele>355</ele>
        <time>2017-04-10T14:43:44Z</time>
      </trkpt>
      <trkpt lat="46.16977" lon="2.37816">
        <ele>355</ele>
        <time>2017-04-10T14:43:48Z</time>
      </trkpt>
      <trkpt lat="46.16973" lon="2.37818">
        <ele>351</ele>
        <time>2017-04-10T14:43:53Z</time>
      </trkpt>
      <trkpt lat="46.1697" lon="2.3782">
        <ele>346</ele>
        <time>2017-04-10T14:43:58Z</time>
      </trkpt>
      <trkpt lat="46.16968" lon="2.37821">
        <ele>343</ele>
        <time>2017-04-10T14:44:01Z</time>
      </trkpt>
      <trkpt lat="46.16967" lon="2.37822">
        <ele>340</ele>
        <time>2017-04-10T14:44:04Z</time>
      </trkpt>
      <trkpt lat="46.16964" lon="2.37818">
        <ele>340</ele>
        <time>2017-04-10T14:44:08Z</time>
      </trkpt>
      <trkpt lat="46.16963" lon="2.37815">
        <ele>339</ele>
        <time>2017-04-10T14:44:11Z</time>
      </trkpt>
      <trkpt lat="46.16961" lon="2.37808">
        <ele>337</ele>
        <time>2017-04-10T14:44:15Z</time>
      </trkpt>
      <trkpt lat="46.16957" lon="2.37802">
        <ele>333</ele>
        <time>2017-04-10T14:44:19Z</time>
      </trkpt>
      <trkpt lat="46.16956" lon="2.37797">
        <ele>331</ele>
        <time>2017-04-10T14:44:22Z</time>
      </trkpt>
      <trkpt lat="46.16955" lon="2.37794">
        <ele>331</ele>
        <time>2017-04-10T14:44:25Z</time>
      </trkpt>
      <trkpt lat="46.16954" lon="2.37793">
        <ele>331</ele>
        <time>2017-04-10T14:44:28Z</time>
      </trkpt>
      <trkpt lat="46.16951" lon="2.37787">
        <ele>331</ele>
        <time>2017-04-10T14:44:31Z</time>
      </trkpt>
      <trkpt lat="46.16948" lon="2.37783">
        <ele>331</ele>
        <time>2017-04-10T14:44:34Z</time>
      </trkpt>
      <trkpt lat="46.16945" lon="2.37779">
        <ele>331</ele>
        <time>2017-04-10T14:44:37Z</time>
      </trkpt>
      <trkpt lat="46.16945" lon="2.37773">
        <ele>331</ele>
        <time>2017-04-10T14:44:41Z</time>
      </trkpt>
      <trkpt lat="46.16941" lon="2.37767">
        <ele>332</ele>
        <time>2017-04-10T14:44:44Z</time>
      </trkpt>
      <trkpt lat="46.16939" lon="2.3776">
        <ele>332</ele>
        <time>2017-04-10T14:44:47Z</time>
      </trkpt>
      <trkpt lat="46.16937" lon="2.37755">
        <ele>332</ele>
        <time>2017-04-10T14:44:50Z</time>
      </trkpt>
      <trkpt lat="46.16936" lon="2.3775">
        <ele>332</ele>
        <time>2017-04-10T14:44:53Z</time>
      </trkpt>
      <trkpt lat="46.16934" lon="2.37744">
        <ele>329</ele>
        <time>2017-04-10T14:44:57Z</time>
      </trkpt>
      <trkpt lat="46.1693" lon="2.3774">
        <ele>326</ele>
        <time>2017-04-10T14:45:01Z</time>
      </trkpt>
      <trkpt lat="46.16927" lon="2.37738">
        <ele>326</ele>
        <time>2017-04-10T14:45:04Z</time>
      </trkpt>
      <trkpt lat="46.16922" lon="2.37737">
        <ele>326</ele>
        <time>2017-04-10T14:45:07Z</time>
      </trkpt>
      <trkpt lat="46.16917" lon="2.37736">
        <ele>326</ele>
        <time>2017-04-10T14:45:10Z</time>
      </trkpt>
      <trkpt lat="46.16913" lon="2.37736">
        <ele>326</ele>
        <time>2017-04-10T14:45:13Z</time>
      </trkpt>
      <trkpt lat="46.16909" lon="2.37736">
        <ele>323</ele>
        <time>2017-04-10T14:45:16Z</time>
      </trkpt>
      <trkpt lat="46.16906" lon="2.37736">
        <ele>323</ele>
        <time>2017-04-10T14:45:19Z</time>
      </trkpt>
      <trkpt lat="46.16901" lon="2.37734">
        <ele>323</ele>
        <time>2017-04-10T14:45:22Z</time>
      </trkpt>
      <trkpt lat="46.16898" lon="2.37734">
        <ele>323</ele>
        <time>2017-04-10T14:45:26Z</time>
      </trkpt>
      <trkpt lat="46.16893" lon="2.37734">
        <ele>323</ele>
        <time>2017-04-10T14:45:29Z</time>
      </trkpt>
      <trkpt lat="46.1689" lon="2.37736">
        <ele>323</ele>
        <time>2017-04-10T14:45:33Z</time>
      </trkpt>
      <trkpt lat="46.16887" lon="2.37741">
        <ele>323</ele>
        <time>2017-04-10T14:45:37Z</time>
      </trkpt>
      <trkpt lat="46.16885" lon="2.37744">
        <ele>323</ele>
        <time>2017-04-10T14:45:41Z</time>
      </trkpt>
      <trkpt lat="46.16881" lon="2.37746">
        <ele>323</ele>
        <time>2017-04-10T14:45:44Z</time>
      </trkpt>
      <trkpt lat="46.16879" lon="2.3775">
        <ele>323</ele>
        <time>2017-04-10T14:45:47Z</time>
      </trkpt>
      <trkpt lat="46.16878" lon="2.37754">
        <ele>323</ele>
        <time>2017-04-10T14:45:50Z</time>
      </trkpt>
      <trkpt lat="46.16876" lon="2.37758">
        <ele>323</ele>
        <time>2017-04-10T14:45:53Z</time>
      </trkpt>
      <trkpt lat="46.16875" lon="2.37765">
        <ele>325</ele>
        <time>2017-04-10T14:45:56Z</time>
      </trkpt>
      <trkpt lat="46.16874" lon="2.3777">
        <ele>328</ele>
        <time>2017-04-10T14:45:59Z</time>
      </trkpt>
      <trkpt lat="46.16875" lon="2.37777">
        <ele>333</ele>
        <time>2017-04-10T14:46:02Z</time>
      </trkpt>
      <trkpt lat="46.16875" lon="2.37783">
        <ele>339</ele>
        <time>2017-04-10T14:46:05Z</time>
      </trkpt>
      <trkpt lat="46.16876" lon="2.3779">
        <ele>343</ele>
        <time>2017-04-10T14:46:09Z</time>
      </trkpt>
      <trkpt lat="46.16874" lon="2.37797">
        <ele>347</ele>
        <time>2017-04-10T14:46:12Z</time>
      </trkpt>
      <trkpt lat="46.16876" lon="2.37805">
        <ele>350</ele>
        <time>2017-04-10T14:46:15Z</time>
      </trkpt>
      <trkpt lat="46.16877" lon="2.3781">
        <ele>353</ele>
        <time>2017-04-10T14:46:18Z</time>
      </trkpt>
      <trkpt lat="46.16876" lon="2.37816">
        <ele>355</ele>
        <time>2017-04-10T14:46:21Z</time>
      </trkpt>
      <trkpt lat="46.16876" lon="2.37822">
        <ele>356</ele>
        <time>2017-04-10T14:46:27Z</time>
      </trkpt>
      <trkpt lat="46.16869" lon="2.37826">
        <ele>356</ele>
        <time>2017-04-10T14:46:32Z</time>
      </trkpt>
      <trkpt lat="46.16864" lon="2.37821">
        <ele>356</ele>
        <time>2017-04-10T14:46:35Z</time>
      </trkpt>
      <trkpt lat="46.16863" lon="2.37822">
        <ele>356</ele>
        <time>2017-04-10T14:46:38Z</time>
      </trkpt>
      <trkpt lat="46.16864" lon="2.37823">
        <ele>356</ele>
        <time>2017-04-10T14:46:42Z</time>
      </trkpt>
      <trkpt lat="46.16864" lon="2.37825">
        <ele>356</ele>
        <time>2017-04-10T14:46:56Z</time>
      </trkpt>
      <trkpt lat="46.16862" lon="2.37825">
        <ele>354</ele>
        <time>2017-04-10T14:47:04Z</time>
      </trkpt>
      <trkpt lat="46.16863" lon="2.37825">
        <ele>354</ele>
        <time>2017-04-10T14:47:10Z</time>
      </trkpt>
      <trkpt lat="46.16863" lon="2.37823">
        <ele>354</ele>
        <time>2017-04-10T14:47:14Z</time>
      </trkpt>
      <trkpt lat="46.1686" lon="2.3782">
        <ele>354</ele>
        <time>2017-04-10T14:47:18Z</time>
      </trkpt>
      <trkpt lat="46.16859" lon="2.3782">
        <ele>350</ele>
        <time>2017-04-10T14:47:24Z</time>
      </trkpt>
      <trkpt lat="46.16857" lon="2.37816">
        <ele>347</ele>
        <time>2017-04-10T14:47:29Z</time>
      </trkpt>
      <trkpt lat="46.16857" lon="2.37813">
        <ele>353</ele>
        <time>2017-04-10T14:47:42Z</time>
      </trkpt>
      <trkpt lat="46.16858" lon="2.37809">
        <ele>354</ele>
        <time>2017-04-10T14:47:45Z</time>
      </trkpt>
      <trkpt lat="46.16859" lon="2.37805">
        <ele>354</ele>
        <time>2017-04-10T14:47:49Z</time>
      </trkpt>
      <trkpt lat="46.1686" lon="2.37802">
        <ele>356</ele>
        <time>2017-04-10T14:47:52Z</time>
      </trkpt>
      <trkpt lat="46.16858" lon="2.37797">
        <ele>357</ele>
        <time>2017-04-10T14:47:56Z</time>
      </trkpt>
      <trkpt lat="46.16858" lon="2.37792">
        <ele>357</ele>
        <time>2017-04-10T14:48:02Z</time>
      </trkpt>
      <trkpt lat="46.16855" lon="2.37788">
        <ele>357</ele>
        <time>2017-04-10T14:48:05Z</time>
      </trkpt>
      <trkpt lat="46.16852" lon="2.37784">
        <ele>357</ele>
        <time>2017-04-10T14:48:08Z</time>
      </trkpt>
      <trkpt lat="46.16851" lon="2.37779">
        <ele>357</ele>
        <time>2017-04-10T14:48:12Z</time>
      </trkpt>
      <trkpt lat="46.16848" lon="2.37774">
        <ele>357</ele>
        <time>2017-04-10T14:48:16Z</time>
      </trkpt>
      <trkpt lat="46.16847" lon="2.37771">
        <ele>357</ele>
        <time>2017-04-10T14:48:20Z</time>
      </trkpt>
      <trkpt lat="46.16842" lon="2.37767">
        <ele>357</ele>
        <time>2017-04-10T14:48:24Z</time>
      </trkpt>
      <trkpt lat="46.16839" lon="2.37768">
        <ele>357</ele>
        <time>2017-04-10T14:48:27Z</time>
      </trkpt>
      <trkpt lat="46.16836" lon="2.37772">
        <ele>357</ele>
        <time>2017-04-10T14:48:32Z</time>
      </trkpt>
      <trkpt lat="46.16833" lon="2.37775">
        <ele>355</ele>
        <time>2017-04-10T14:48:36Z</time>
      </trkpt>
      <trkpt lat="46.1683" lon="2.37775">
        <ele>354</ele>
        <time>2017-04-10T14:48:40Z</time>
      </trkpt>
      <trkpt lat="46.16825" lon="2.37778">
        <ele>354</ele>
        <time>2017-04-10T14:48:43Z</time>
      </trkpt>
      <trkpt lat="46.16822" lon="2.37781">
        <ele>354</ele>
        <time>2017-04-10T14:48:47Z</time>
      </trkpt>
      <trkpt lat="46.16818" lon="2.37783">
        <ele>354</ele>
        <time>2017-04-10T14:48:51Z</time>
      </trkpt>
      <trkpt lat="46.16814" lon="2.37785">
        <ele>354</ele>
        <time>2017-04-10T14:48:55Z</time>
      </trkpt>
      <trkpt lat="46.1681" lon="2.37789">
        <ele>355</ele>
        <time>2017-04-10T14:48:59Z</time>
      </trkpt>
      <trkpt lat="46.16806" lon="2.37794">
        <ele>358</ele>
        <time>2017-04-10T14:49:03Z</time>
      </trkpt>
      <trkpt lat="46.16804" lon="2.37799">
        <ele>361</ele>
        <time>2017-04-10T14:49:07Z</time>
      </trkpt>
      <trkpt lat="46.16804" lon="2.37806">
        <ele>364</ele>
        <time>2017-04-10T14:49:10Z</time>
      </trkpt>
      <trkpt lat="46.16805" lon="2.3781">
        <ele>367</ele>
        <time>2017-04-10T14:49:13Z</time>
      </trkpt>
      <trkpt lat="46.16806" lon="2.37817">
        <ele>370</ele>
        <time>2017-04-10T14:49:16Z</time>
      </trkpt>
      <trkpt lat="46.16807" lon="2.37822">
        <ele>372</ele>
        <time>2017-04-10T14:49:19Z</time>
      </trkpt>
      <trkpt lat="46.16807" lon="2.37828">
        <ele>372</ele>
        <time>2017-04-10T14:49:22Z</time>
      </trkpt>
      <trkpt lat="46.16807" lon="2.37835">
        <ele>372</ele>
        <time>2017-04-10T14:49:25Z</time>
      </trkpt>
      <trkpt lat="46.16808" lon="2.37841">
        <ele>372</ele>
        <time>2017-04-10T14:49:28Z</time>
      </trkpt>
      <trkpt lat="46.16809" lon="2.37847">
        <ele>372</ele>
        <time>2017-04-10T14:49:31Z</time>
      </trkpt>
      <trkpt lat="46.16809" lon="2.37853">
        <ele>372</ele>
        <time>2017-04-10T14:49:34Z</time>
      </trkpt>
      <trkpt lat="46.1681" lon="2.37859">
        <ele>372</ele>
        <time>2017-04-10T14:49:37Z</time>
      </trkpt>
      <trkpt lat="46.1681" lon="2.37866">
        <ele>372</ele>
        <time>2017-04-10T14:49:40Z</time>
      </trkpt>
      <trkpt lat="46.1681" lon="2.37872">
        <ele>372</ele>
        <time>2017-04-10T14:49:43Z</time>
      </trkpt>
      <trkpt lat="46.16811" lon="2.37878">
        <ele>372</ele>
        <time>2017-04-10T14:49:47Z</time>
      </trkpt>
      <trkpt lat="46.16811" lon="2.37883">
        <ele>372</ele>
        <time>2017-04-10T14:49:50Z</time>
      </trkpt>
      <trkpt lat="46.16811" lon="2.37889">
        <ele>372</ele>
        <time>2017-04-10T14:49:53Z</time>
      </trkpt>
      <trkpt lat="46.1681" lon="2.37895">
        <ele>372</ele>
        <time>2017-04-10T14:49:56Z</time>
      </trkpt>
      <trkpt lat="46.16809" lon="2.379">
        <ele>372</ele>
        <time>2017-04-10T14:49:59Z</time>
      </trkpt>
      <trkpt lat="46.16808" lon="2.37905">
        <ele>372</ele>
        <time>2017-04-10T14:50:02Z</time>
      </trkpt>
      <trkpt lat="46.16806" lon="2.3791">
        <ele>372</ele>
        <time>2017-04-10T14:50:05Z</time>
      </trkpt>
      <trkpt lat="46.16806" lon="2.37917">
        <ele>372</ele>
        <time>2017-04-10T14:50:08Z</time>
      </trkpt>
      <trkpt lat="46.16805" lon="2.37923">
        <ele>372</ele>
        <time>2017-04-10T14:50:11Z</time>
      </trkpt>
      <trkpt lat="46.16805" lon="2.3793">
        <ele>372</ele>
        <time>2017-04-10T14:50:14Z</time>
      </trkpt>
      <trkpt lat="46.16803" lon="2.37934">
        <ele>372</ele>
        <time>2017-04-10T14:50:17Z</time>
      </trkpt>
      <trkpt lat="46.16802" lon="2.3794">
        <ele>372</ele>
        <time>2017-04-10T14:50:20Z</time>
      </trkpt>
      <trkpt lat="46.16801" lon="2.37947">
        <ele>372</ele>
        <time>2017-04-10T14:50:23Z</time>
      </trkpt>
      <trkpt lat="46.168" lon="2.37955">
        <ele>372</ele>
        <time>2017-04-10T14:50:26Z</time>
      </trkpt>
      <trkpt lat="46.16797" lon="2.37963">
        <ele>370</ele>
        <time>2017-04-10T14:50:29Z</time>
      </trkpt>
      <trkpt lat="46.16796" lon="2.37969">
        <ele>367</ele>
        <time>2017-04-10T14:50:32Z</time>
      </trkpt>
      <trkpt lat="46.16795" lon="2.37977">
        <ele>366</ele>
        <time>2017-04-10T14:50:35Z</time>
      </trkpt>
      <trkpt lat="46.16795" lon="2.37984">
        <ele>366</ele>
        <time>2017-04-10T14:50:38Z</time>
      </trkpt>
      <trkpt lat="46.16794" lon="2.37989">
        <ele>366</ele>
        <time>2017-04-10T14:50:41Z</time>
      </trkpt>
      <trkpt lat="46.16793" lon="2.37994">
        <ele>366</ele>
        <time>2017-04-10T14:50:44Z</time>
      </trkpt>
      <trkpt lat="46.16791" lon="2.38001">
        <ele>366</ele>
        <time>2017-04-10T14:50:47Z</time>
      </trkpt>
      <trkpt lat="46.16789" lon="2.38008">
        <ele>366</ele>
        <time>2017-04-10T14:50:50Z</time>
      </trkpt>
      <trkpt lat="46.16787" lon="2.38013">
        <ele>366</ele>
        <time>2017-04-10T14:50:53Z</time>
      </trkpt>
      <trkpt lat="46.16785" lon="2.3802">
        <ele>366</ele>
        <time>2017-04-10T14:50:56Z</time>
      </trkpt>
      <trkpt lat="46.16782" lon="2.38025">
        <ele>366</ele>
        <time>2017-04-10T14:50:59Z</time>
      </trkpt>
      <trkpt lat="46.1678" lon="2.3803">
        <ele>366</ele>
        <time>2017-04-10T14:51:02Z</time>
      </trkpt>
      <trkpt lat="46.16778" lon="2.38037">
        <ele>366</ele>
        <time>2017-04-10T14:51:05Z</time>
      </trkpt>
      <trkpt lat="46.16775" lon="2.38044">
        <ele>365</ele>
        <time>2017-04-10T14:51:09Z</time>
      </trkpt>
      <trkpt lat="46.16772" lon="2.38048">
        <ele>364</ele>
        <time>2017-04-10T14:51:12Z</time>
      </trkpt>
      <trkpt lat="46.16769" lon="2.38053">
        <ele>364</ele>
        <time>2017-04-10T14:51:16Z</time>
      </trkpt>
      <trkpt lat="46.16767" lon="2.38057">
        <ele>364</ele>
        <time>2017-04-10T14:51:19Z</time>
      </trkpt>
      <trkpt lat="46.16764" lon="2.38062">
        <ele>364</ele>
        <time>2017-04-10T14:51:22Z</time>
      </trkpt>
      <trkpt lat="46.16761" lon="2.38066">
        <ele>364</ele>
        <time>2017-04-10T14:51:25Z</time>
      </trkpt>
      <trkpt lat="46.16758" lon="2.38071">
        <ele>364</ele>
        <time>2017-04-10T14:51:29Z</time>
      </trkpt>
      <trkpt lat="46.16756" lon="2.38076">
        <ele>365</ele>
        <time>2017-04-10T14:51:32Z</time>
      </trkpt>
      <trkpt lat="46.16752" lon="2.38081">
        <ele>366</ele>
        <time>2017-04-10T14:51:35Z</time>
      </trkpt>
      <trkpt lat="46.1675" lon="2.38086">
        <ele>368</ele>
        <time>2017-04-10T14:51:38Z</time>
      </trkpt>
      <trkpt lat="46.16747" lon="2.3809">
        <ele>369</ele>
        <time>2017-04-10T14:51:41Z</time>
      </trkpt>
      <trkpt lat="46.16744" lon="2.38095">
        <ele>370</ele>
        <time>2017-04-10T14:51:45Z</time>
      </trkpt>
      <trkpt lat="46.16742" lon="2.381">
        <ele>370</ele>
        <time>2017-04-10T14:51:48Z</time>
      </trkpt>
      <trkpt lat="46.16738" lon="2.38105">
        <ele>371</ele>
        <time>2017-04-10T14:51:52Z</time>
      </trkpt>
      <trkpt lat="46.16735" lon="2.3811">
        <ele>371</ele>
        <time>2017-04-10T14:51:55Z</time>
      </trkpt>
      <trkpt lat="46.16732" lon="2.38114">
        <ele>372</ele>
        <time>2017-04-10T14:51:58Z</time>
      </trkpt>
      <trkpt lat="46.1673" lon="2.38119">
        <ele>372</ele>
        <time>2017-04-10T14:52:01Z</time>
      </trkpt>
      <trkpt lat="46.16727" lon="2.38124">
        <ele>373</ele>
        <time>2017-04-10T14:52:04Z</time>
      </trkpt>
      <trkpt lat="46.16725" lon="2.38129">
        <ele>374</ele>
        <time>2017-04-10T14:52:07Z</time>
      </trkpt>
      <trkpt lat="46.16723" lon="2.38134">
        <ele>374</ele>
        <time>2017-04-10T14:52:10Z</time>
      </trkpt>
      <trkpt lat="46.16722" lon="2.38139">
        <ele>374</ele>
        <time>2017-04-10T14:52:13Z</time>
      </trkpt>
      <trkpt lat="46.1672" lon="2.38144">
        <ele>374</ele>
        <time>2017-04-10T14:52:16Z</time>
      </trkpt>
      <trkpt lat="46.16718" lon="2.3815">
        <ele>374</ele>
        <time>2017-04-10T14:52:19Z</time>
      </trkpt>
      <trkpt lat="46.16717" lon="2.38156">
        <ele>374</ele>
        <time>2017-04-10T14:52:22Z</time>
      </trkpt>
      <trkpt lat="46.16716" lon="2.38161">
        <ele>374</ele>
        <time>2017-04-10T14:52:25Z</time>
      </trkpt>
      <trkpt lat="46.16715" lon="2.38168">
        <ele>374</ele>
        <time>2017-04-10T14:52:28Z</time>
      </trkpt>
      <trkpt lat="46.16714" lon="2.38173">
        <ele>375</ele>
        <time>2017-04-10T14:52:31Z</time>
      </trkpt>
      <trkpt lat="46.16713" lon="2.38178">
        <ele>375</ele>
        <time>2017-04-10T14:52:34Z</time>
      </trkpt>
      <trkpt lat="46.16711" lon="2.38183">
        <ele>376</ele>
        <time>2017-04-10T14:52:37Z</time>
      </trkpt>
      <trkpt lat="46.16711" lon="2.38189">
        <ele>376</ele>
        <time>2017-04-10T14:52:40Z</time>
      </trkpt>
      <trkpt lat="46.1671" lon="2.38195">
        <ele>376</ele>
        <time>2017-04-10T14:52:43Z</time>
      </trkpt>
      <trkpt lat="46.16709" lon="2.382">
        <ele>376</ele>
        <time>2017-04-10T14:52:46Z</time>
      </trkpt>
      <trkpt lat="46.16708" lon="2.38205">
        <ele>376</ele>
        <time>2017-04-10T14:52:49Z</time>
      </trkpt>
      <trkpt lat="46.16708" lon="2.38211">
        <ele>377</ele>
        <time>2017-04-10T14:52:52Z</time>
      </trkpt>
      <trkpt lat="46.16707" lon="2.38216">
        <ele>377</ele>
        <time>2017-04-10T14:52:55Z</time>
      </trkpt>
      <trkpt lat="46.16707" lon="2.38221">
        <ele>377</ele>
        <time>2017-04-10T14:52:58Z</time>
      </trkpt>
      <trkpt lat="46.16707" lon="2.38227">
        <ele>377</ele>
        <time>2017-04-10T14:53:01Z</time>
      </trkpt>
      <trkpt lat="46.16707" lon="2.38233">
        <ele>377</ele>
        <time>2017-04-10T14:53:04Z</time>
      </trkpt>
      <trkpt lat="46.16709" lon="2.3824">
        <ele>377</ele>
        <time>2017-04-10T14:53:07Z</time>
      </trkpt>
      <trkpt lat="46.16711" lon="2.38245">
        <ele>377</ele>
        <time>2017-04-10T14:53:10Z</time>
      </trkpt>
      <trkpt lat="46.16712" lon="2.38251">
        <ele>377</ele>
        <time>2017-04-10T14:53:13Z</time>
      </trkpt>
      <trkpt lat="46.16714" lon="2.38258">
        <ele>377</ele>
        <time>2017-04-10T14:53:16Z</time>
      </trkpt>
      <trkpt lat="46.16715" lon="2.38263">
        <ele>377</ele>
        <time>2017-04-10T14:53:19Z</time>
      </trkpt>
      <trkpt lat="46.16718" lon="2.38269">
        <ele>377</ele>
        <time>2017-04-10T14:53:22Z</time>
      </trkpt>
      <trkpt lat="46.16721" lon="2.38276">
        <ele>377</ele>
        <time>2017-04-10T14:53:26Z</time>
      </trkpt>
      <trkpt lat="46.16722" lon="2.38281">
        <ele>377</ele>
        <time>2017-04-10T14:53:29Z</time>
      </trkpt>
      <trkpt lat="46.16723" lon="2.38287">
        <ele>377</ele>
        <time>2017-04-10T14:53:32Z</time>
      </trkpt>
      <trkpt lat="46.16724" lon="2.38293">
        <ele>377</ele>
        <time>2017-04-10T14:53:35Z</time>
      </trkpt>
      <trkpt lat="46.16724" lon="2.38299">
        <ele>377</ele>
        <time>2017-04-10T14:53:38Z</time>
      </trkpt>
      <trkpt lat="46.16724" lon="2.38305">
        <ele>377</ele>
        <time>2017-04-10T14:53:41Z</time>
      </trkpt>
      <trkpt lat="46.16724" lon="2.38311">
        <ele>377</ele>
        <time>2017-04-10T14:53:44Z</time>
      </trkpt>
      <trkpt lat="46.16723" lon="2.38316">
        <ele>377</ele>
        <time>2017-04-10T14:53:47Z</time>
      </trkpt>
      <trkpt lat="46.16723" lon="2.38321">
        <ele>377</ele>
        <time>2017-04-10T14:53:50Z</time>
      </trkpt>
      <trkpt lat="46.16723" lon="2.38327">
        <ele>377</ele>
        <time>2017-04-10T14:53:53Z</time>
      </trkpt>
      <trkpt lat="46.16724" lon="2.38333">
        <ele>377</ele>
        <time>2017-04-10T14:53:56Z</time>
      </trkpt>
      <trkpt lat="46.16723" lon="2.38338">
        <ele>377</ele>
        <time>2017-04-10T14:53:59Z</time>
      </trkpt>
      <trkpt lat="46.16722" lon="2.38344">
        <ele>378</ele>
        <time>2017-04-10T14:54:02Z</time>
      </trkpt>
      <trkpt lat="46.16722" lon="2.38349">
        <ele>378</ele>
        <time>2017-04-10T14:54:05Z</time>
      </trkpt>
      <trkpt lat="46.16721" lon="2.38354">
        <ele>378</ele>
        <time>2017-04-10T14:54:08Z</time>
      </trkpt>
      <trkpt lat="46.16721" lon="2.3836">
        <ele>378</ele>
        <time>2017-04-10T14:54:11Z</time>
      </trkpt>
      <trkpt lat="46.16721" lon="2.38366">
        <ele>378</ele>
        <time>2017-04-10T14:54:14Z</time>
      </trkpt>
      <trkpt lat="46.16721" lon="2.38371">
        <ele>378</ele>
        <time>2017-04-10T14:54:17Z</time>
      </trkpt>
      <trkpt lat="46.16721" lon="2.38376">
        <ele>379</ele>
        <time>2017-04-10T14:54:20Z</time>
      </trkpt>
      <trkpt lat="46.16722" lon="2.38381">
        <ele>379</ele>
        <time>2017-04-10T14:54:23Z</time>
      </trkpt>
      <trkpt lat="46.16724" lon="2.38385">
        <ele>380</ele>
        <time>2017-04-10T14:54:26Z</time>
      </trkpt>
      <trkpt lat="46.16726" lon="2.3839">
        <ele>381</ele>
        <time>2017-04-10T14:54:29Z</time>
      </trkpt>
      <trkpt lat="46.16727" lon="2.38396">
        <ele>383</ele>
        <time>2017-04-10T14:54:33Z</time>
      </trkpt>
      <trkpt lat="46.16731" lon="2.38401">
        <ele>385</ele>
        <time>2017-04-10T14:54:36Z</time>
      </trkpt>
      <trkpt lat="46.16733" lon="2.38406">
        <ele>385</ele>
        <time>2017-04-10T14:54:39Z</time>
      </trkpt>
      <trkpt lat="46.16735" lon="2.3841">
        <ele>385</ele>
        <time>2017-04-10T14:54:42Z</time>
      </trkpt>
      <trkpt lat="46.16737" lon="2.38415">
        <ele>385</ele>
        <time>2017-04-10T14:54:45Z</time>
      </trkpt>
      <trkpt lat="46.16739" lon="2.38422">
        <ele>385</ele>
        <time>2017-04-10T14:54:49Z</time>
      </trkpt>
      <trkpt lat="46.16742" lon="2.38427">
        <ele>386</ele>
        <time>2017-04-10T14:54:52Z</time>
      </trkpt>
      <trkpt lat="46.16742" lon="2.38432">
        <ele>386</ele>
        <time>2017-04-10T14:54:55Z</time>
      </trkpt>
      <trkpt lat="46.16743" lon="2.38437">
        <ele>386</ele>
        <time>2017-04-10T14:54:58Z</time>
      </trkpt>
      <trkpt lat="46.16745" lon="2.38442">
        <ele>386</ele>
        <time>2017-04-10T14:55:01Z</time>
      </trkpt>
      <trkpt lat="46.16746" lon="2.38448">
        <ele>387</ele>
        <time>2017-04-10T14:55:05Z</time>
      </trkpt>
      <trkpt lat="46.16746" lon="2.38452">
        <ele>389</ele>
        <time>2017-04-10T14:55:08Z</time>
      </trkpt>
      <trkpt lat="46.1675" lon="2.38458">
        <ele>389</ele>
        <time>2017-04-10T14:55:12Z</time>
      </trkpt>
      <trkpt lat="46.16751" lon="2.38462">
        <ele>389</ele>
        <time>2017-04-10T14:55:15Z</time>
      </trkpt>
      <trkpt lat="46.16753" lon="2.38467">
        <ele>389</ele>
        <time>2017-04-10T14:55:18Z</time>
      </trkpt>
      <trkpt lat="46.16755" lon="2.38472">
        <ele>390</ele>
        <time>2017-04-10T14:55:21Z</time>
      </trkpt>
      <trkpt lat="46.16756" lon="2.38477">
        <ele>390</ele>
        <time>2017-04-10T14:55:24Z</time>
      </trkpt>
      <trkpt lat="46.16758" lon="2.38482">
        <ele>391</ele>
        <time>2017-04-10T14:55:27Z</time>
      </trkpt>
      <trkpt lat="46.1676" lon="2.38487">
        <ele>391</ele>
        <time>2017-04-10T14:55:30Z</time>
      </trkpt>
      <trkpt lat="46.1676" lon="2.38492">
        <ele>391</ele>
        <time>2017-04-10T14:55:33Z</time>
      </trkpt>
      <trkpt lat="46.16761" lon="2.38499">
        <ele>391</ele>
        <time>2017-04-10T14:55:36Z</time>
      </trkpt>
      <trkpt lat="46.16761" lon="2.38505">
        <ele>392</ele>
        <time>2017-04-10T14:55:39Z</time>
      </trkpt>
      <trkpt lat="46.16761" lon="2.38511">
        <ele>393</ele>
        <time>2017-04-10T14:55:42Z</time>
      </trkpt>
      <trkpt lat="46.16761" lon="2.38516">
        <ele>394</ele>
        <time>2017-04-10T14:55:45Z</time>
      </trkpt>
      <trkpt lat="46.16761" lon="2.38522">
        <ele>395</ele>
        <time>2017-04-10T14:55:48Z</time>
      </trkpt>
      <trkpt lat="46.16761" lon="2.3853">
        <ele>396</ele>
        <time>2017-04-10T14:55:52Z</time>
      </trkpt>
      <trkpt lat="46.16761" lon="2.38535">
        <ele>397</ele>
        <time>2017-04-10T14:55:55Z</time>
      </trkpt>
      <trkpt lat="46.16762" lon="2.38541">
        <ele>397</ele>
        <time>2017-04-10T14:55:58Z</time>
      </trkpt>
      <trkpt lat="46.16762" lon="2.38546">
        <ele>397</ele>
        <time>2017-04-10T14:56:01Z</time>
      </trkpt>
      <trkpt lat="46.16763" lon="2.38551">
        <ele>397</ele>
        <time>2017-04-10T14:56:04Z</time>
      </trkpt>
      <trkpt lat="46.16763" lon="2.38557">
        <ele>397</ele>
        <time>2017-04-10T14:56:07Z</time>
      </trkpt>
      <trkpt lat="46.16764" lon="2.38562">
        <ele>397</ele>
        <time>2017-04-10T14:56:10Z</time>
      </trkpt>
      <trkpt lat="46.16765" lon="2.38567">
        <ele>397</ele>
        <time>2017-04-10T14:56:13Z</time>
      </trkpt>
      <trkpt lat="46.16765" lon="2.38572">
        <ele>397</ele>
        <time>2017-04-10T14:56:16Z</time>
      </trkpt>
      <trkpt lat="46.16766" lon="2.38577">
        <ele>397</ele>
        <time>2017-04-10T14:56:19Z</time>
      </trkpt>
      <trkpt lat="46.16766" lon="2.38582">
        <ele>397</ele>
        <time>2017-04-10T14:56:22Z</time>
      </trkpt>
      <trkpt lat="46.16767" lon="2.38587">
        <ele>397</ele>
        <time>2017-04-10T14:56:25Z</time>
      </trkpt>
      <trkpt lat="46.16768" lon="2.38592">
        <ele>397</ele>
        <time>2017-04-10T14:56:28Z</time>
      </trkpt>
      <trkpt lat="46.16769" lon="2.38597">
        <ele>398</ele>
        <time>2017-04-10T14:56:31Z</time>
      </trkpt>
      <trkpt lat="46.16769" lon="2.38602">
        <ele>399</ele>
        <time>2017-04-10T14:56:34Z</time>
      </trkpt>
      <trkpt lat="46.16769" lon="2.38608">
        <ele>399</ele>
        <time>2017-04-10T14:56:37Z</time>
      </trkpt>
      <trkpt lat="46.1677" lon="2.38613">
        <ele>399</ele>
        <time>2017-04-10T14:56:40Z</time>
      </trkpt>
      <trkpt lat="46.16771" lon="2.38619">
        <ele>399</ele>
        <time>2017-04-10T14:56:43Z</time>
      </trkpt>
      <trkpt lat="46.16771" lon="2.38624">
        <ele>399</ele>
        <time>2017-04-10T14:56:46Z</time>
      </trkpt>
      <trkpt lat="46.16774" lon="2.38632">
        <ele>399</ele>
        <time>2017-04-10T14:56:50Z</time>
      </trkpt>
      <trkpt lat="46.16776" lon="2.38639">
        <ele>399</ele>
        <time>2017-04-10T14:56:54Z</time>
      </trkpt>
      <trkpt lat="46.16777" lon="2.38647">
        <ele>399</ele>
        <time>2017-04-10T14:56:58Z</time>
      </trkpt>
      <trkpt lat="46.16777" lon="2.38652">
        <ele>399</ele>
        <time>2017-04-10T14:57:01Z</time>
      </trkpt>
      <trkpt lat="46.16778" lon="2.38657">
        <ele>399</ele>
        <time>2017-04-10T14:57:04Z</time>
      </trkpt>
      <trkpt lat="46.16778" lon="2.38663">
        <ele>399</ele>
        <time>2017-04-10T14:57:07Z</time>
      </trkpt>
      <trkpt lat="46.16778" lon="2.38669">
        <ele>399</ele>
        <time>2017-04-10T14:57:10Z</time>
      </trkpt>
      <trkpt lat="46.16777" lon="2.38677">
        <ele>399</ele>
        <time>2017-04-10T14:57:14Z</time>
      </trkpt>
      <trkpt lat="46.16774" lon="2.38685">
        <ele>399</ele>
        <time>2017-04-10T14:57:18Z</time>
      </trkpt>
      <trkpt lat="46.16771" lon="2.38689">
        <ele>399</ele>
        <time>2017-04-10T14:57:21Z</time>
      </trkpt>
      <trkpt lat="46.16768" lon="2.38694">
        <ele>399</ele>
        <time>2017-04-10T14:57:24Z</time>
      </trkpt>
      <trkpt lat="46.16765" lon="2.387">
        <ele>399</ele>
        <time>2017-04-10T14:57:27Z</time>
      </trkpt>
      <trkpt lat="46.16762" lon="2.38705">
        <ele>397</ele>
        <time>2017-04-10T14:57:30Z</time>
      </trkpt>
      <trkpt lat="46.1676" lon="2.38711">
        <ele>394</ele>
        <time>2017-04-10T14:57:33Z</time>
      </trkpt>
      <trkpt lat="46.16758" lon="2.38716">
        <ele>391</ele>
        <time>2017-04-10T14:57:36Z</time>
      </trkpt>
      <trkpt lat="46.16756" lon="2.38722">
        <ele>387</ele>
        <time>2017-04-10T14:57:40Z</time>
      </trkpt>
      <trkpt lat="46.16753" lon="2.38727">
        <ele>387</ele>
        <time>2017-04-10T14:57:43Z</time>
      </trkpt>
      <trkpt lat="46.16751" lon="2.38732">
        <ele>387</ele>
        <time>2017-04-10T14:57:46Z</time>
      </trkpt>
      <trkpt lat="46.16751" lon="2.38737">
        <ele>387</ele>
        <time>2017-04-10T14:57:49Z</time>
      </trkpt>
      <trkpt lat="46.16751" lon="2.38744">
        <ele>387</ele>
        <time>2017-04-10T14:57:52Z</time>
      </trkpt>
      <trkpt lat="46.16752" lon="2.38751">
        <ele>389</ele>
        <time>2017-04-10T14:57:56Z</time>
      </trkpt>
      <trkpt lat="46.16753" lon="2.38759">
        <ele>390</ele>
        <time>2017-04-10T14:58:00Z</time>
      </trkpt>
      <trkpt lat="46.16754" lon="2.38764">
        <ele>391</ele>
        <time>2017-04-10T14:58:03Z</time>
      </trkpt>
      <trkpt lat="46.16757" lon="2.38771">
        <ele>391</ele>
        <time>2017-04-10T14:58:07Z</time>
      </trkpt>
      <trkpt lat="46.16761" lon="2.38776">
        <ele>392</ele>
        <time>2017-04-10T14:58:10Z</time>
      </trkpt>
      <trkpt lat="46.16763" lon="2.38781">
        <ele>393</ele>
        <time>2017-04-10T14:58:13Z</time>
      </trkpt>
      <trkpt lat="46.16765" lon="2.38786">
        <ele>394</ele>
        <time>2017-04-10T14:58:16Z</time>
      </trkpt>
      <trkpt lat="46.16767" lon="2.38792">
        <ele>395</ele>
        <time>2017-04-10T14:58:20Z</time>
      </trkpt>
      <trkpt lat="46.16768" lon="2.38797">
        <ele>395</ele>
        <time>2017-04-10T14:58:24Z</time>
      </trkpt>
      <trkpt lat="46.16769" lon="2.38802">
        <ele>396</ele>
        <time>2017-04-10T14:58:27Z</time>
      </trkpt>
      <trkpt lat="46.16771" lon="2.38807">
        <ele>397</ele>
        <time>2017-04-10T14:58:30Z</time>
      </trkpt>
      <trkpt lat="46.16773" lon="2.38812">
        <ele>397</ele>
        <time>2017-04-10T14:58:33Z</time>
      </trkpt>
      <trkpt lat="46.16774" lon="2.38816">
        <ele>398</ele>
        <time>2017-04-10T14:58:36Z</time>
      </trkpt>
      <trkpt lat="46.16778" lon="2.38824">
        <ele>398</ele>
        <time>2017-04-10T14:58:40Z</time>
      </trkpt>
      <trkpt lat="46.16779" lon="2.38828">
        <ele>398</ele>
        <time>2017-04-10T14:58:43Z</time>
      </trkpt>
      <trkpt lat="46.16783" lon="2.38833">
        <ele>398</ele>
        <time>2017-04-10T14:58:46Z</time>
      </trkpt>
      <trkpt lat="46.16785" lon="2.38839">
        <ele>398</ele>
        <time>2017-04-10T14:58:50Z</time>
      </trkpt>
      <trkpt lat="46.16786" lon="2.38844">
        <ele>398</ele>
        <time>2017-04-10T14:58:53Z</time>
      </trkpt>
      <trkpt lat="46.1679" lon="2.38851">
        <ele>398</ele>
        <time>2017-04-10T14:58:58Z</time>
      </trkpt>
      <trkpt lat="46.16792" lon="2.38859">
        <ele>398</ele>
        <time>2017-04-10T14:59:02Z</time>
      </trkpt>
      <trkpt lat="46.16793" lon="2.38865">
        <ele>398</ele>
        <time>2017-04-10T14:59:05Z</time>
      </trkpt>
      <trkpt lat="46.16795" lon="2.3887">
        <ele>398</ele>
        <time>2017-04-10T14:59:08Z</time>
      </trkpt>
      <trkpt lat="46.16798" lon="2.38878">
        <ele>398</ele>
        <time>2017-04-10T14:59:12Z</time>
      </trkpt>
      <trkpt lat="46.168" lon="2.38883">
        <ele>398</ele>
        <time>2017-04-10T14:59:15Z</time>
      </trkpt>
      <trkpt lat="46.16802" lon="2.38889">
        <ele>398</ele>
        <time>2017-04-10T14:59:18Z</time>
      </trkpt>
      <trkpt lat="46.16804" lon="2.38896">
        <ele>399</ele>
        <time>2017-04-10T14:59:22Z</time>
      </trkpt>
      <trkpt lat="46.16806" lon="2.38902">
        <ele>399</ele>
        <time>2017-04-10T14:59:25Z</time>
      </trkpt>
      <trkpt lat="46.16806" lon="2.38908">
        <ele>399</ele>
        <time>2017-04-10T14:59:28Z</time>
      </trkpt>
      <trkpt lat="46.16808" lon="2.38916">
        <ele>400</ele>
        <time>2017-04-10T14:59:32Z</time>
      </trkpt>
      <trkpt lat="46.16807" lon="2.38921">
        <ele>400</ele>
        <time>2017-04-10T14:59:35Z</time>
      </trkpt>
      <trkpt lat="46.16809" lon="2.38927">
        <ele>400</ele>
        <time>2017-04-10T14:59:38Z</time>
      </trkpt>
      <trkpt lat="46.16811" lon="2.38935">
        <ele>400</ele>
        <time>2017-04-10T14:59:42Z</time>
      </trkpt>
      <trkpt lat="46.1681" lon="2.38942">
        <ele>400</ele>
        <time>2017-04-10T14:59:45Z</time>
      </trkpt>
      <trkpt lat="46.16808" lon="2.38948">
        <ele>400</ele>
        <time>2017-04-10T14:59:48Z</time>
      </trkpt>
      <trkpt lat="46.16805" lon="2.38955">
        <ele>400</ele>
        <time>2017-04-10T14:59:52Z</time>
      </trkpt>
      <trkpt lat="46.16803" lon="2.38961">
        <ele>400</ele>
        <time>2017-04-10T14:59:55Z</time>
      </trkpt>
      <trkpt lat="46.16802" lon="2.38967">
        <ele>400</ele>
        <time>2017-04-10T14:59:58Z</time>
      </trkpt>
      <trkpt lat="46.168" lon="2.38975">
        <ele>400</ele>
        <time>2017-04-10T15:00:02Z</time>
      </trkpt>
      <trkpt lat="46.16797" lon="2.38983">
        <ele>400</ele>
        <time>2017-04-10T15:00:06Z</time>
      </trkpt>
      <trkpt lat="46.16795" lon="2.38989">
        <ele>400</ele>
        <time>2017-04-10T15:00:09Z</time>
      </trkpt>
      <trkpt lat="46.16792" lon="2.38997">
        <ele>400</ele>
        <time>2017-04-10T15:00:13Z</time>
      </trkpt>
      <trkpt lat="46.16792" lon="2.39003">
        <ele>400</ele>
        <time>2017-04-10T15:00:16Z</time>
      </trkpt>
      <trkpt lat="46.1679" lon="2.39007">
        <ele>400</ele>
        <time>2017-04-10T15:00:19Z</time>
      </trkpt>
      <trkpt lat="46.16788" lon="2.39014">
        <ele>400</ele>
        <time>2017-04-10T15:00:23Z</time>
      </trkpt>
      <trkpt lat="46.16788" lon="2.3902">
        <ele>400</ele>
        <time>2017-04-10T15:00:26Z</time>
      </trkpt>
      <trkpt lat="46.16786" lon="2.39024">
        <ele>400</ele>
        <time>2017-04-10T15:00:29Z</time>
      </trkpt>
      <trkpt lat="46.16785" lon="2.3903">
        <ele>400</ele>
        <time>2017-04-10T15:00:33Z</time>
      </trkpt>
      <trkpt lat="46.16784" lon="2.39035">
        <ele>400</ele>
        <time>2017-04-10T15:00:36Z</time>
      </trkpt>
      <trkpt lat="46.16782" lon="2.3904">
        <ele>399</ele>
        <time>2017-04-10T15:00:39Z</time>
      </trkpt>
      <trkpt lat="46.16781" lon="2.39048">
        <ele>399</ele>
        <time>2017-04-10T15:00:43Z</time>
      </trkpt>
      <trkpt lat="46.16779" lon="2.39054">
        <ele>399</ele>
        <time>2017-04-10T15:00:46Z</time>
      </trkpt>
      <trkpt lat="46.16778" lon="2.39059">
        <ele>399</ele>
        <time>2017-04-10T15:00:49Z</time>
      </trkpt>
      <trkpt lat="46.16776" lon="2.39064">
        <ele>399</ele>
        <time>2017-04-10T15:00:52Z</time>
      </trkpt>
      <trkpt lat="46.16775" lon="2.39069">
        <ele>399</ele>
        <time>2017-04-10T15:00:55Z</time>
      </trkpt>
      <trkpt lat="46.16773" lon="2.39076">
        <ele>398</ele>
        <time>2017-04-10T15:00:59Z</time>
      </trkpt>
      <trkpt lat="46.16771" lon="2.39082">
        <ele>398</ele>
        <time>2017-04-10T15:01:02Z</time>
      </trkpt>
      <trkpt lat="46.16769" lon="2.39087">
        <ele>397</ele>
        <time>2017-04-10T15:01:05Z</time>
      </trkpt>
      <trkpt lat="46.16768" lon="2.39094">
        <ele>396</ele>
        <time>2017-04-10T15:01:09Z</time>
      </trkpt>
      <trkpt lat="46.16765" lon="2.39105">
        <ele>396</ele>
        <time>2017-04-10T15:01:12Z</time>
      </trkpt>
      <trkpt lat="46.16763" lon="2.39113">
        <ele>396</ele>
        <time>2017-04-10T15:01:15Z</time>
      </trkpt>
      <trkpt lat="46.16761" lon="2.39122">
        <ele>396</ele>
        <time>2017-04-10T15:01:19Z</time>
      </trkpt>
      <trkpt lat="46.16759" lon="2.39128">
        <ele>396</ele>
        <time>2017-04-10T15:01:22Z</time>
      </trkpt>
      <trkpt lat="46.16758" lon="2.39134">
        <ele>396</ele>
        <time>2017-04-10T15:01:25Z</time>
      </trkpt>
      <trkpt lat="46.16756" lon="2.3914">
        <ele>396</ele>
        <time>2017-04-10T15:01:28Z</time>
      </trkpt>
      <trkpt lat="46.16755" lon="2.39145">
        <ele>396</ele>
        <time>2017-04-10T15:01:31Z</time>
      </trkpt>
      <trkpt lat="46.16752" lon="2.39151">
        <ele>396</ele>
        <time>2017-04-10T15:01:35Z</time>
      </trkpt>
      <trkpt lat="46.16751" lon="2.39157">
        <ele>396</ele>
        <time>2017-04-10T15:01:39Z</time>
      </trkpt>
      <trkpt lat="46.1675" lon="2.39162">
        <ele>396</ele>
        <time>2017-04-10T15:01:42Z</time>
      </trkpt>
      <trkpt lat="46.16749" lon="2.39167">
        <ele>396</ele>
        <time>2017-04-10T15:01:45Z</time>
      </trkpt>
      <trkpt lat="46.16748" lon="2.39173">
        <ele>395</ele>
        <time>2017-04-10T15:01:48Z</time>
      </trkpt>
      <trkpt lat="46.16747" lon="2.39179">
        <ele>395</ele>
        <time>2017-04-10T15:01:51Z</time>
      </trkpt>
      <trkpt lat="46.16746" lon="2.39188">
        <ele>395</ele>
        <time>2017-04-10T15:01:55Z</time>
      </trkpt>
      <trkpt lat="46.16746" lon="2.39195">
        <ele>395</ele>
        <time>2017-04-10T15:01:58Z</time>
      </trkpt>
      <trkpt lat="46.16746" lon="2.39201">
        <ele>394</ele>
        <time>2017-04-10T15:02:01Z</time>
      </trkpt>
      <trkpt lat="46.16746" lon="2.39211">
        <ele>393</ele>
        <time>2017-04-10T15:02:05Z</time>
      </trkpt>
      <trkpt lat="46.16745" lon="2.39216">
        <ele>393</ele>
        <time>2017-04-10T15:02:08Z</time>
      </trkpt>
      <trkpt lat="46.16744" lon="2.39225">
        <ele>393</ele>
        <time>2017-04-10T15:02:11Z</time>
      </trkpt>
      <trkpt lat="46.16744" lon="2.39231">
        <ele>393</ele>
        <time>2017-04-10T15:02:14Z</time>
      </trkpt>
      <trkpt lat="46.16743" lon="2.39241">
        <ele>394</ele>
        <time>2017-04-10T15:02:18Z</time>
      </trkpt>
      <trkpt lat="46.16742" lon="2.39247">
        <ele>396</ele>
        <time>2017-04-10T15:02:21Z</time>
      </trkpt>
      <trkpt lat="46.16743" lon="2.39256">
        <ele>397</ele>
        <time>2017-04-10T15:02:25Z</time>
      </trkpt>
      <trkpt lat="46.16744" lon="2.39262">
        <ele>398</ele>
        <time>2017-04-10T15:02:28Z</time>
      </trkpt>
      <trkpt lat="46.16744" lon="2.39268">
        <ele>399</ele>
        <time>2017-04-10T15:02:31Z</time>
      </trkpt>
      <trkpt lat="46.16745" lon="2.39275">
        <ele>399</ele>
        <time>2017-04-10T15:02:35Z</time>
      </trkpt>
      <trkpt lat="46.16746" lon="2.39281">
        <ele>399</ele>
        <time>2017-04-10T15:02:38Z</time>
      </trkpt>
      <trkpt lat="46.16747" lon="2.39285">
        <ele>399</ele>
        <time>2017-04-10T15:02:41Z</time>
      </trkpt>
      <trkpt lat="46.16748" lon="2.39292">
        <ele>399</ele>
        <time>2017-04-10T15:02:45Z</time>
      </trkpt>
      <trkpt lat="46.16749" lon="2.39298">
        <ele>399</ele>
        <time>2017-04-10T15:02:48Z</time>
      </trkpt>
      <trkpt lat="46.1675" lon="2.39302">
        <ele>399</ele>
        <time>2017-04-10T15:02:51Z</time>
      </trkpt>
      <trkpt lat="46.1675" lon="2.39309">
        <ele>399</ele>
        <time>2017-04-10T15:02:55Z</time>
      </trkpt>
      <trkpt lat="46.1675" lon="2.39314">
        <ele>399</ele>
        <time>2017-04-10T15:02:58Z</time>
      </trkpt>
      <trkpt lat="46.16751" lon="2.3932">
        <ele>399</ele>
        <time>2017-04-10T15:03:01Z</time>
      </trkpt>
      <trkpt lat="46.16751" lon="2.39326">
        <ele>399</ele>
        <time>2017-04-10T15:03:04Z</time>
      </trkpt>
      <trkpt lat="46.16752" lon="2.39332">
        <ele>399</ele>
        <time>2017-04-10T15:03:07Z</time>
      </trkpt>
      <trkpt lat="46.16752" lon="2.39338">
        <ele>399</ele>
        <time>2017-04-10T15:03:10Z</time>
      </trkpt>
      <trkpt lat="46.16752" lon="2.39345">
        <ele>399</ele>
        <time>2017-04-10T15:03:13Z</time>
      </trkpt>
      <trkpt lat="46.16752" lon="2.39351">
        <ele>400</ele>
        <time>2017-04-10T15:03:16Z</time>
      </trkpt>
      <trkpt lat="46.16752" lon="2.39356">
        <ele>400</ele>
        <time>2017-04-10T15:03:19Z</time>
      </trkpt>
      <trkpt lat="46.16753" lon="2.39361">
        <ele>400</ele>
        <time>2017-04-10T15:03:22Z</time>
      </trkpt>
      <trkpt lat="46.16752" lon="2.39366">
        <ele>400</ele>
        <time>2017-04-10T15:03:25Z</time>
      </trkpt>
      <trkpt lat="46.16753" lon="2.39369">
        <ele>400</ele>
        <time>2017-04-10T15:03:28Z</time>
      </trkpt>
      <trkpt lat="46.16752" lon="2.39371">
        <ele>401</ele>
        <time>2017-04-10T15:03:33Z</time>
      </trkpt>
      <trkpt lat="46.16752" lon="2.39373">
        <ele>401</ele>
        <time>2017-04-10T15:03:36Z</time>
      </trkpt>
      <trkpt lat="46.16753" lon="2.39379">
        <ele>401</ele>
        <time>2017-04-10T15:03:39Z</time>
      </trkpt>
      <trkpt lat="46.16754" lon="2.39385">
        <ele>401</ele>
        <time>2017-04-10T15:03:42Z</time>
      </trkpt>
      <trkpt lat="46.16755" lon="2.39391">
        <ele>401</ele>
        <time>2017-04-10T15:03:45Z</time>
      </trkpt>
      <trkpt lat="46.16756" lon="2.39397">
        <ele>401</ele>
        <time>2017-04-10T15:03:48Z</time>
      </trkpt>
      <trkpt lat="46.16756" lon="2.39404">
        <ele>401</ele>
        <time>2017-04-10T15:03:52Z</time>
      </trkpt>
      <trkpt lat="46.16757" lon="2.3941">
        <ele>401</ele>
        <time>2017-04-10T15:03:55Z</time>
      </trkpt>
      <trkpt lat="46.16757" lon="2.39416">
        <ele>401</ele>
        <time>2017-04-10T15:03:58Z</time>
      </trkpt>
      <trkpt lat="46.16757" lon="2.39423">
        <ele>401</ele>
        <time>2017-04-10T15:04:02Z</time>
      </trkpt>
      <trkpt lat="46.16758" lon="2.39428">
        <ele>401</ele>
        <time>2017-04-10T15:04:05Z</time>
      </trkpt>
      <trkpt lat="46.16758" lon="2.39433">
        <ele>401</ele>
        <time>2017-04-10T15:04:08Z</time>
      </trkpt>
      <trkpt lat="46.16757" lon="2.39439">
        <ele>401</ele>
        <time>2017-04-10T15:04:11Z</time>
      </trkpt>
      <trkpt lat="46.16759" lon="2.39444">
        <ele>401</ele>
        <time>2017-04-10T15:04:14Z</time>
      </trkpt>
      <trkpt lat="46.16759" lon="2.39451">
        <ele>401</ele>
        <time>2017-04-10T15:04:17Z</time>
      </trkpt>
      <trkpt lat="46.1676" lon="2.39458">
        <ele>401</ele>
        <time>2017-04-10T15:04:20Z</time>
      </trkpt>
      <trkpt lat="46.16761" lon="2.39464">
        <ele>402</ele>
        <time>2017-04-10T15:04:23Z</time>
      </trkpt>
      <trkpt lat="46.16761" lon="2.39471">
        <ele>403</ele>
        <time>2017-04-10T15:04:26Z</time>
      </trkpt>
      <trkpt lat="46.16762" lon="2.39477">
        <ele>403</ele>
        <time>2017-04-10T15:04:29Z</time>
      </trkpt>
      <trkpt lat="46.16763" lon="2.39483">
        <ele>404</ele>
        <time>2017-04-10T15:04:32Z</time>
      </trkpt>
      <trkpt lat="46.16763" lon="2.39489">
        <ele>404</ele>
        <time>2017-04-10T15:04:35Z</time>
      </trkpt>
      <trkpt lat="46.16763" lon="2.39495">
        <ele>404</ele>
        <time>2017-04-10T15:04:38Z</time>
      </trkpt>
      <trkpt lat="46.16763" lon="2.395">
        <ele>404</ele>
        <time>2017-04-10T15:04:41Z</time>
      </trkpt>
      <trkpt lat="46.16762" lon="2.39506">
        <ele>404</ele>
        <time>2017-04-10T15:04:44Z</time>
      </trkpt>
      <trkpt lat="46.16764" lon="2.39511">
        <ele>405</ele>
        <time>2017-04-10T15:04:47Z</time>
      </trkpt>
      <trkpt lat="46.16766" lon="2.39516">
        <ele>405</ele>
        <time>2017-04-10T15:04:50Z</time>
      </trkpt>
      <trkpt lat="46.16768" lon="2.39522">
        <ele>405</ele>
        <time>2017-04-10T15:04:53Z</time>
      </trkpt>
      <trkpt lat="46.1677" lon="2.39527">
        <ele>405</ele>
        <time>2017-04-10T15:04:56Z</time>
      </trkpt>
      <trkpt lat="46.16772" lon="2.39532">
        <ele>405</ele>
        <time>2017-04-10T15:04:59Z</time>
      </trkpt>
      <trkpt lat="46.16774" lon="2.39537">
        <ele>405</ele>
        <time>2017-04-10T15:05:02Z</time>
      </trkpt>
      <trkpt lat="46.16776" lon="2.39541">
        <ele>406</ele>
        <time>2017-04-10T15:05:05Z</time>
      </trkpt>
      <trkpt lat="46.16779" lon="2.39546">
        <ele>408</ele>
        <time>2017-04-10T15:05:09Z</time>
      </trkpt>
      <trkpt lat="46.16782" lon="2.39551">
        <ele>408</ele>
        <time>2017-04-10T15:05:12Z</time>
      </trkpt>
      <trkpt lat="46.16785" lon="2.39556">
        <ele>409</ele>
        <time>2017-04-10T15:05:15Z</time>
      </trkpt>
      <trkpt lat="46.16787" lon="2.39561">
        <ele>409</ele>
        <time>2017-04-10T15:05:18Z</time>
      </trkpt>
      <trkpt lat="46.16789" lon="2.39566">
        <ele>409</ele>
        <time>2017-04-10T15:05:21Z</time>
      </trkpt>
      <trkpt lat="46.16793" lon="2.39571">
        <ele>410</ele>
        <time>2017-04-10T15:05:25Z</time>
      </trkpt>
      <trkpt lat="46.16796" lon="2.39576">
        <ele>411</ele>
        <time>2017-04-10T15:05:28Z</time>
      </trkpt>
      <trkpt lat="46.16798" lon="2.39581">
        <ele>412</ele>
        <time>2017-04-10T15:05:31Z</time>
      </trkpt>
      <trkpt lat="46.168" lon="2.39585">
        <ele>413</ele>
        <time>2017-04-10T15:05:34Z</time>
      </trkpt>
      <trkpt lat="46.16803" lon="2.39591">
        <ele>413</ele>
        <time>2017-04-10T15:05:37Z</time>
      </trkpt>
      <trkpt lat="46.16804" lon="2.39596">
        <ele>413</ele>
        <time>2017-04-10T15:05:40Z</time>
      </trkpt>
      <trkpt lat="46.16806" lon="2.39602">
        <ele>413</ele>
        <time>2017-04-10T15:05:43Z</time>
      </trkpt>
      <trkpt lat="46.16807" lon="2.39608">
        <ele>413</ele>
        <time>2017-04-10T15:05:46Z</time>
      </trkpt>
      <trkpt lat="46.16807" lon="2.39614">
        <ele>413</ele>
        <time>2017-04-10T15:05:49Z</time>
      </trkpt>
      <trkpt lat="46.16806" lon="2.39619">
        <ele>413</ele>
        <time>2017-04-10T15:05:52Z</time>
      </trkpt>
      <trkpt lat="46.16806" lon="2.39624">
        <ele>413</ele>
        <time>2017-04-10T15:05:55Z</time>
      </trkpt>
      <trkpt lat="46.16804" lon="2.3963">
        <ele>412</ele>
        <time>2017-04-10T15:05:58Z</time>
      </trkpt>
      <trkpt lat="46.16802" lon="2.39636">
        <ele>412</ele>
        <time>2017-04-10T15:06:01Z</time>
      </trkpt>
      <trkpt lat="46.16801" lon="2.39641">
        <ele>411</ele>
        <time>2017-04-10T15:06:04Z</time>
      </trkpt>
      <trkpt lat="46.16799" lon="2.39646">
        <ele>411</ele>
        <time>2017-04-10T15:06:07Z</time>
      </trkpt>
      <trkpt lat="46.16797" lon="2.39652">
        <ele>411</ele>
        <time>2017-04-10T15:06:11Z</time>
      </trkpt>
      <trkpt lat="46.16795" lon="2.39659">
        <ele>410</ele>
        <time>2017-04-10T15:06:14Z</time>
      </trkpt>
      <trkpt lat="46.16794" lon="2.39665">
        <ele>410</ele>
        <time>2017-04-10T15:06:17Z</time>
      </trkpt>
      <trkpt lat="46.16793" lon="2.39671">
        <ele>410</ele>
        <time>2017-04-10T15:06:20Z</time>
      </trkpt>
      <trkpt lat="46.16792" lon="2.39677">
        <ele>410</ele>
        <time>2017-04-10T15:06:23Z</time>
      </trkpt>
      <trkpt lat="46.16792" lon="2.39683">
        <ele>410</ele>
        <time>2017-04-10T15:06:26Z</time>
      </trkpt>
      <trkpt lat="46.16793" lon="2.39688">
        <ele>410</ele>
        <time>2017-04-10T15:06:29Z</time>
      </trkpt>
      <trkpt lat="46.16794" lon="2.39693">
        <ele>410</ele>
        <time>2017-04-10T15:06:32Z</time>
      </trkpt>
      <trkpt lat="46.16796" lon="2.39698">
        <ele>410</ele>
        <time>2017-04-10T15:06:35Z</time>
      </trkpt>
      <trkpt lat="46.168" lon="2.39704">
        <ele>410</ele>
        <time>2017-04-10T15:06:39Z</time>
      </trkpt>
      <trkpt lat="46.16801" lon="2.39709">
        <ele>411</ele>
        <time>2017-04-10T15:06:43Z</time>
      </trkpt>
      <trkpt lat="46.16805" lon="2.39713">
        <ele>414</ele>
        <time>2017-04-10T15:06:47Z</time>
      </trkpt>
      <trkpt lat="46.16809" lon="2.39715">
        <ele>416</ele>
        <time>2017-04-10T15:06:51Z</time>
      </trkpt>
      <trkpt lat="46.16814" lon="2.39718">
        <ele>416</ele>
        <time>2017-04-10T15:06:55Z</time>
      </trkpt>
      <trkpt lat="46.16817" lon="2.39721">
        <ele>416</ele>
        <time>2017-04-10T15:06:58Z</time>
      </trkpt>
      <trkpt lat="46.16821" lon="2.39726">
        <ele>416</ele>
        <time>2017-04-10T15:07:02Z</time>
      </trkpt>
      <trkpt lat="46.16823" lon="2.3973">
        <ele>416</ele>
        <time>2017-04-10T15:07:05Z</time>
      </trkpt>
      <trkpt lat="46.16827" lon="2.39733">
        <ele>416</ele>
        <time>2017-04-10T15:07:09Z</time>
      </trkpt>
      <trkpt lat="46.1683" lon="2.39738">
        <ele>416</ele>
        <time>2017-04-10T15:07:12Z</time>
      </trkpt>
      <trkpt lat="46.16833" lon="2.39741">
        <ele>416</ele>
        <time>2017-04-10T15:07:15Z</time>
      </trkpt>
      <trkpt lat="46.16837" lon="2.39746">
        <ele>416</ele>
        <time>2017-04-10T15:07:19Z</time>
      </trkpt>
      <trkpt lat="46.1684" lon="2.39751">
        <ele>416</ele>
        <time>2017-04-10T15:07:23Z</time>
      </trkpt>
      <trkpt lat="46.16845" lon="2.39756">
        <ele>416</ele>
        <time>2017-04-10T15:07:27Z</time>
      </trkpt>
      <trkpt lat="46.16848" lon="2.39761">
        <ele>417</ele>
        <time>2017-04-10T15:07:31Z</time>
      </trkpt>
      <trkpt lat="46.16851" lon="2.39766">
        <ele>417</ele>
        <time>2017-04-10T15:07:35Z</time>
      </trkpt>
      <trkpt lat="46.16854" lon="2.39771">
        <ele>417</ele>
        <time>2017-04-10T15:07:38Z</time>
      </trkpt>
      <trkpt lat="46.16857" lon="2.39777">
        <ele>417</ele>
        <time>2017-04-10T15:07:42Z</time>
      </trkpt>
      <trkpt lat="46.16859" lon="2.39781">
        <ele>417</ele>
        <time>2017-04-10T15:07:45Z</time>
      </trkpt>
      <trkpt lat="46.16859" lon="2.39787">
        <ele>417</ele>
        <time>2017-04-10T15:07:49Z</time>
      </trkpt>
      <trkpt lat="46.16858" lon="2.39792">
        <ele>417</ele>
        <time>2017-04-10T15:07:53Z</time>
      </trkpt>
      <trkpt lat="46.16856" lon="2.39797">
        <ele>417</ele>
        <time>2017-04-10T15:07:57Z</time>
      </trkpt>
      <trkpt lat="46.16854" lon="2.39801">
        <ele>417</ele>
        <time>2017-04-10T15:08:02Z</time>
      </trkpt>
      <trkpt lat="46.16853" lon="2.39802">
        <ele>417</ele>
        <time>2017-04-10T15:08:18Z</time>
      </trkpt>
      <trkpt lat="46.16854" lon="2.39802">
        <ele>417</ele>
        <time>2017-04-10T15:08:37Z</time>
      </trkpt>
      <trkpt lat="46.16855" lon="2.39804">
        <ele>417</ele>
        <time>2017-04-10T15:08:52Z</time>
      </trkpt>
      <trkpt lat="46.16854" lon="2.39805">
        <ele>417</ele>
        <time>2017-04-10T15:09:11Z</time>
      </trkpt>
      <trkpt lat="46.16854" lon="2.39804">
        <ele>417</ele>
        <time>2017-04-10T15:09:39Z</time>
      </trkpt>
      <trkpt lat="46.16856" lon="2.39805">
        <ele>417</ele>
        <time>2017-04-10T15:09:53Z</time>
      </trkpt>
      <trkpt lat="46.16859" lon="2.39806">
        <ele>417</ele>
        <time>2017-04-10T15:09:56Z</time>
      </trkpt>
      <trkpt lat="46.16863" lon="2.39807">
        <ele>417</ele>
        <time>2017-04-10T15:09:59Z</time>
      </trkpt>
      <trkpt lat="46.16867" lon="2.39808">
        <ele>417</ele>
        <time>2017-04-10T15:10:02Z</time>
      </trkpt>
      <trkpt lat="46.1687" lon="2.3981">
        <ele>417</ele>
        <time>2017-04-10T15:10:05Z</time>
      </trkpt>
      <trkpt lat="46.16875" lon="2.39814">
        <ele>417</ele>
        <time>2017-04-10T15:10:08Z</time>
      </trkpt>
      <trkpt lat="46.16879" lon="2.39817">
        <ele>417</ele>
        <time>2017-04-10T15:10:11Z</time>
      </trkpt>
      <trkpt lat="46.16883" lon="2.39819">
        <ele>419</ele>
        <time>2017-04-10T15:10:15Z</time>
      </trkpt>
      <trkpt lat="46.16887" lon="2.3982">
        <ele>419</ele>
        <time>2017-04-10T15:10:18Z</time>
      </trkpt>
      <trkpt lat="46.16892" lon="2.39821">
        <ele>419</ele>
        <time>2017-04-10T15:10:21Z</time>
      </trkpt>
      <trkpt lat="46.16895" lon="2.39822">
        <ele>419</ele>
        <time>2017-04-10T15:10:24Z</time>
      </trkpt>
      <trkpt lat="46.16898" lon="2.39825">
        <ele>419</ele>
        <time>2017-04-10T15:10:28Z</time>
      </trkpt>
      <trkpt lat="46.16902" lon="2.39827">
        <ele>419</ele>
        <time>2017-04-10T15:10:31Z</time>
      </trkpt>
      <trkpt lat="46.16905" lon="2.39831">
        <ele>419</ele>
        <time>2017-04-10T15:10:34Z</time>
      </trkpt>
      <trkpt lat="46.16908" lon="2.39837">
        <ele>419</ele>
        <time>2017-04-10T15:10:37Z</time>
      </trkpt>
      <trkpt lat="46.16911" lon="2.39842">
        <ele>419</ele>
        <time>2017-04-10T15:10:40Z</time>
      </trkpt>
      <trkpt lat="46.16916" lon="2.39846">
        <ele>419</ele>
        <time>2017-04-10T15:10:43Z</time>
      </trkpt>
      <trkpt lat="46.16919" lon="2.39851">
        <ele>419</ele>
        <time>2017-04-10T15:10:46Z</time>
      </trkpt>
      <trkpt lat="46.16922" lon="2.39856">
        <ele>419</ele>
        <time>2017-04-10T15:10:49Z</time>
      </trkpt>
      <trkpt lat="46.16925" lon="2.3986">
        <ele>419</ele>
        <time>2017-04-10T15:10:52Z</time>
      </trkpt>
      <trkpt lat="46.16928" lon="2.39864">
        <ele>419</ele>
        <time>2017-04-10T15:10:55Z</time>
      </trkpt>
      <trkpt lat="46.16932" lon="2.39868">
        <ele>419</ele>
        <time>2017-04-10T15:10:58Z</time>
      </trkpt>
      <trkpt lat="46.16936" lon="2.39873">
        <ele>419</ele>
        <time>2017-04-10T15:11:02Z</time>
      </trkpt>
      <trkpt lat="46.1694" lon="2.39877">
        <ele>419</ele>
        <time>2017-04-10T15:11:05Z</time>
      </trkpt>
      <trkpt lat="46.16943" lon="2.39882">
        <ele>419</ele>
        <time>2017-04-10T15:11:08Z</time>
      </trkpt>
      <trkpt lat="46.16946" lon="2.39887">
        <ele>419</ele>
        <time>2017-04-10T15:11:11Z</time>
      </trkpt>
      <trkpt lat="46.1695" lon="2.39893">
        <ele>419</ele>
        <time>2017-04-10T15:11:15Z</time>
      </trkpt>
      <trkpt lat="46.16952" lon="2.39899">
        <ele>419</ele>
        <time>2017-04-10T15:11:18Z</time>
      </trkpt>
      <trkpt lat="46.16954" lon="2.39905">
        <ele>419</ele>
        <time>2017-04-10T15:11:21Z</time>
      </trkpt>
      <trkpt lat="46.16956" lon="2.3991">
        <ele>419</ele>
        <time>2017-04-10T15:11:24Z</time>
      </trkpt>
      <trkpt lat="46.16959" lon="2.39916">
        <ele>420</ele>
        <time>2017-04-10T15:11:27Z</time>
      </trkpt>
      <trkpt lat="46.16962" lon="2.3992">
        <ele>420</ele>
        <time>2017-04-10T15:11:30Z</time>
      </trkpt>
      <trkpt lat="46.16964" lon="2.39925">
        <ele>421</ele>
        <time>2017-04-10T15:11:33Z</time>
      </trkpt>
      <trkpt lat="46.16967" lon="2.39931">
        <ele>421</ele>
        <time>2017-04-10T15:11:36Z</time>
      </trkpt>
      <trkpt lat="46.16969" lon="2.39936">
        <ele>421</ele>
        <time>2017-04-10T15:11:39Z</time>
      </trkpt>
      <trkpt lat="46.1697" lon="2.39942">
        <ele>421</ele>
        <time>2017-04-10T15:11:42Z</time>
      </trkpt>
      <trkpt lat="46.16972" lon="2.39947">
        <ele>421</ele>
        <time>2017-04-10T15:11:45Z</time>
      </trkpt>
      <trkpt lat="46.16975" lon="2.39952">
        <ele>421</ele>
        <time>2017-04-10T15:11:48Z</time>
      </trkpt>
      <trkpt lat="46.16977" lon="2.39957">
        <ele>421</ele>
        <time>2017-04-10T15:11:51Z</time>
      </trkpt>
      <trkpt lat="46.1698" lon="2.39965">
        <ele>421</ele>
        <time>2017-04-10T15:11:55Z</time>
      </trkpt>
      <trkpt lat="46.16983" lon="2.3997">
        <ele>421</ele>
        <time>2017-04-10T15:11:58Z</time>
      </trkpt>
      <trkpt lat="46.16985" lon="2.39973">
        <ele>422</ele>
        <time>2017-04-10T15:12:01Z</time>
      </trkpt>
      <trkpt lat="46.16988" lon="2.39978">
        <ele>423</ele>
        <time>2017-04-10T15:12:04Z</time>
      </trkpt>
      <trkpt lat="46.1699" lon="2.39983">
        <ele>423</ele>
        <time>2017-04-10T15:12:07Z</time>
      </trkpt>
      <trkpt lat="46.16993" lon="2.3999">
        <ele>423</ele>
        <time>2017-04-10T15:12:11Z</time>
      </trkpt>
      <trkpt lat="46.16996" lon="2.39995">
        <ele>423</ele>
        <time>2017-04-10T15:12:14Z</time>
      </trkpt>
      <trkpt lat="46.16998" lon="2.4">
        <ele>423</ele>
        <time>2017-04-10T15:12:17Z</time>
      </trkpt>
      <trkpt lat="46.17" lon="2.40005">
        <ele>423</ele>
        <time>2017-04-10T15:12:20Z</time>
      </trkpt>
      <trkpt lat="46.17003" lon="2.4001">
        <ele>423</ele>
        <time>2017-04-10T15:12:23Z</time>
      </trkpt>
      <trkpt lat="46.17007" lon="2.40015">
        <ele>423</ele>
        <time>2017-04-10T15:12:27Z</time>
      </trkpt>
      <trkpt lat="46.1701" lon="2.4002">
        <ele>423</ele>
        <time>2017-04-10T15:12:30Z</time>
      </trkpt>
      <trkpt lat="46.17012" lon="2.40025">
        <ele>423</ele>
        <time>2017-04-10T15:12:33Z</time>
      </trkpt>
      <trkpt lat="46.17015" lon="2.4003">
        <ele>423</ele>
        <time>2017-04-10T15:12:36Z</time>
      </trkpt>
      <trkpt lat="46.17017" lon="2.40034">
        <ele>423</ele>
        <time>2017-04-10T15:12:39Z</time>
      </trkpt>
      <trkpt lat="46.1702" lon="2.40039">
        <ele>423</ele>
        <time>2017-04-10T15:12:43Z</time>
      </trkpt>
      <trkpt lat="46.17022" lon="2.40044">
        <ele>423</ele>
        <time>2017-04-10T15:12:46Z</time>
      </trkpt>
      <trkpt lat="46.17025" lon="2.40049">
        <ele>423</ele>
        <time>2017-04-10T15:12:49Z</time>
      </trkpt>
      <trkpt lat="46.17027" lon="2.40054">
        <ele>422</ele>
        <time>2017-04-10T15:12:52Z</time>
      </trkpt>
      <trkpt lat="46.1703" lon="2.40059">
        <ele>422</ele>
        <time>2017-04-10T15:12:55Z</time>
      </trkpt>
      <trkpt lat="46.17033" lon="2.40064">
        <ele>422</ele>
        <time>2017-04-10T15:12:58Z</time>
      </trkpt>
      <trkpt lat="46.17038" lon="2.40068">
        <ele>422</ele>
        <time>2017-04-10T15:13:01Z</time>
      </trkpt>
      <trkpt lat="46.17041" lon="2.40073">
        <ele>422</ele>
        <time>2017-04-10T15:13:04Z</time>
      </trkpt>
      <trkpt lat="46.17043" lon="2.40078">
        <ele>422</ele>
        <time>2017-04-10T15:13:07Z</time>
      </trkpt>
      <trkpt lat="46.17046" lon="2.40083">
        <ele>422</ele>
        <time>2017-04-10T15:13:10Z</time>
      </trkpt>
      <trkpt lat="46.17049" lon="2.40088">
        <ele>422</ele>
        <time>2017-04-10T15:13:13Z</time>
      </trkpt>
      <trkpt lat="46.17053" lon="2.40092">
        <ele>421</ele>
        <time>2017-04-10T15:13:16Z</time>
      </trkpt>
      <trkpt lat="46.17054" lon="2.40097">
        <ele>421</ele>
        <time>2017-04-10T15:13:19Z</time>
      </trkpt>
      <trkpt lat="46.17056" lon="2.40102">
        <ele>419</ele>
        <time>2017-04-10T15:13:22Z</time>
      </trkpt>
      <trkpt lat="46.17059" lon="2.40107">
        <ele>417</ele>
        <time>2017-04-10T15:13:25Z</time>
      </trkpt>
      <trkpt lat="46.17062" lon="2.4011">
        <ele>416</ele>
        <time>2017-04-10T15:13:28Z</time>
      </trkpt>
      <trkpt lat="46.17065" lon="2.40114">
        <ele>416</ele>
        <time>2017-04-10T15:13:31Z</time>
      </trkpt>
      <trkpt lat="46.17068" lon="2.40118">
        <ele>415</ele>
        <time>2017-04-10T15:13:34Z</time>
      </trkpt>
      <trkpt lat="46.17072" lon="2.40122">
        <ele>415</ele>
        <time>2017-04-10T15:13:38Z</time>
      </trkpt>
      <trkpt lat="46.17076" lon="2.40124">
        <ele>413</ele>
        <time>2017-04-10T15:13:41Z</time>
      </trkpt>
      <trkpt lat="46.17079" lon="2.40127">
        <ele>412</ele>
        <time>2017-04-10T15:13:44Z</time>
      </trkpt>
      <trkpt lat="46.17084" lon="2.4013">
        <ele>411</ele>
        <time>2017-04-10T15:13:47Z</time>
      </trkpt>
      <trkpt lat="46.17089" lon="2.40131">
        <ele>411</ele>
        <time>2017-04-10T15:13:50Z</time>
      </trkpt>
      <trkpt lat="46.17094" lon="2.40133">
        <ele>411</ele>
        <time>2017-04-10T15:13:53Z</time>
      </trkpt>
      <trkpt lat="46.17099" lon="2.40135">
        <ele>411</ele>
        <time>2017-04-10T15:13:57Z</time>
      </trkpt>
      <trkpt lat="46.17103" lon="2.40137">
        <ele>411</ele>
        <time>2017-04-10T15:14:00Z</time>
      </trkpt>
      <trkpt lat="46.17107" lon="2.40139">
        <ele>411</ele>
        <time>2017-04-10T15:14:03Z</time>
      </trkpt>
      <trkpt lat="46.1711" lon="2.40141">
        <ele>410</ele>
        <time>2017-04-10T15:14:06Z</time>
      </trkpt>
      <trkpt lat="46.17115" lon="2.40142">
        <ele>408</ele>
        <time>2017-04-10T15:14:09Z</time>
      </trkpt>
      <trkpt lat="46.1712" lon="2.40145">
        <ele>407</ele>
        <time>2017-04-10T15:14:12Z</time>
      </trkpt>
      <trkpt lat="46.17124" lon="2.40148">
        <ele>405</ele>
        <time>2017-04-10T15:14:15Z</time>
      </trkpt>
      <trkpt lat="46.17129" lon="2.40153">
        <ele>405</ele>
        <time>2017-04-10T15:14:19Z</time>
      </trkpt>
      <trkpt lat="46.17133" lon="2.40157">
        <ele>404</ele>
        <time>2017-04-10T15:14:22Z</time>
      </trkpt>
      <trkpt lat="46.17137" lon="2.40158">
        <ele>403</ele>
        <time>2017-04-10T15:14:25Z</time>
      </trkpt>
      <trkpt lat="46.17142" lon="2.40159">
        <ele>403</ele>
        <time>2017-04-10T15:14:28Z</time>
      </trkpt>
      <trkpt lat="46.17146" lon="2.4016">
        <ele>402</ele>
        <time>2017-04-10T15:14:31Z</time>
      </trkpt>
      <trkpt lat="46.1715" lon="2.4016">
        <ele>402</ele>
        <time>2017-04-10T15:14:34Z</time>
      </trkpt>
      <trkpt lat="46.17154" lon="2.40161">
        <ele>402</ele>
        <time>2017-04-10T15:14:37Z</time>
      </trkpt>
      <trkpt lat="46.17159" lon="2.4016">
        <ele>402</ele>
        <time>2017-04-10T15:14:40Z</time>
      </trkpt>
      <trkpt lat="46.17166" lon="2.40158">
        <ele>400</ele>
        <time>2017-04-10T15:14:44Z</time>
      </trkpt>
      <trkpt lat="46.1717" lon="2.40159">
        <ele>400</ele>
        <time>2017-04-10T15:14:47Z</time>
      </trkpt>
      <trkpt lat="46.17173" lon="2.40159">
        <ele>399</ele>
        <time>2017-04-10T15:14:50Z</time>
      </trkpt>
      <trkpt lat="46.17178" lon="2.40158">
        <ele>398</ele>
        <time>2017-04-10T15:14:53Z</time>
      </trkpt>
      <trkpt lat="46.17184" lon="2.40158">
        <ele>398</ele>
        <time>2017-04-10T15:14:56Z</time>
      </trkpt>
      <trkpt lat="46.17189" lon="2.40157">
        <ele>398</ele>
        <time>2017-04-10T15:14:59Z</time>
      </trkpt>
      <trkpt lat="46.17195" lon="2.40156">
        <ele>397</ele>
        <time>2017-04-10T15:15:02Z</time>
      </trkpt>
      <trkpt lat="46.17199" lon="2.40157">
        <ele>397</ele>
        <time>2017-04-10T15:15:05Z</time>
      </trkpt>
      <trkpt lat="46.17202" lon="2.40158">
        <ele>397</ele>
        <time>2017-04-10T15:15:08Z</time>
      </trkpt>
      <trkpt lat="46.17207" lon="2.40159">
        <ele>397</ele>
        <time>2017-04-10T15:15:11Z</time>
      </trkpt>
      <trkpt lat="46.17211" lon="2.4016">
        <ele>397</ele>
        <time>2017-04-10T15:15:14Z</time>
      </trkpt>
      <trkpt lat="46.17216" lon="2.4016">
        <ele>397</ele>
        <time>2017-04-10T15:15:17Z</time>
      </trkpt>
      <trkpt lat="46.17221" lon="2.4016">
        <ele>397</ele>
        <time>2017-04-10T15:15:20Z</time>
      </trkpt>
      <trkpt lat="46.17225" lon="2.4016">
        <ele>397</ele>
        <time>2017-04-10T15:15:23Z</time>
      </trkpt>
      <trkpt lat="46.17229" lon="2.40162">
        <ele>397</ele>
        <time>2017-04-10T15:15:26Z</time>
      </trkpt>
      <trkpt lat="46.17234" lon="2.40163">
        <ele>397</ele>
        <time>2017-04-10T15:15:29Z</time>
      </trkpt>
      <trkpt lat="46.17238" lon="2.40164">
        <ele>397</ele>
        <time>2017-04-10T15:15:32Z</time>
      </trkpt>
      <trkpt lat="46.17243" lon="2.40164">
        <ele>397</ele>
        <time>2017-04-10T15:15:35Z</time>
      </trkpt>
      <trkpt lat="46.17247" lon="2.40164">
        <ele>397</ele>
        <time>2017-04-10T15:15:38Z</time>
      </trkpt>
      <trkpt lat="46.17252" lon="2.40165">
        <ele>397</ele>
        <time>2017-04-10T15:15:41Z</time>
      </trkpt>
      <trkpt lat="46.17257" lon="2.40168">
        <ele>396</ele>
        <time>2017-04-10T15:15:45Z</time>
      </trkpt>
      <trkpt lat="46.17261" lon="2.40171">
        <ele>396</ele>
        <time>2017-04-10T15:15:48Z</time>
      </trkpt>
      <trkpt lat="46.17265" lon="2.40173">
        <ele>396</ele>
        <time>2017-04-10T15:15:51Z</time>
      </trkpt>
      <trkpt lat="46.17269" lon="2.40175">
        <ele>396</ele>
        <time>2017-04-10T15:15:54Z</time>
      </trkpt>
      <trkpt lat="46.17273" lon="2.40177">
        <ele>396</ele>
        <time>2017-04-10T15:15:57Z</time>
      </trkpt>
      <trkpt lat="46.17278" lon="2.40179">
        <ele>396</ele>
        <time>2017-04-10T15:16:00Z</time>
      </trkpt>
      <trkpt lat="46.17283" lon="2.40181">
        <ele>396</ele>
        <time>2017-04-10T15:16:03Z</time>
      </trkpt>
      <trkpt lat="46.17287" lon="2.40183">
        <ele>396</ele>
        <time>2017-04-10T15:16:06Z</time>
      </trkpt>
      <trkpt lat="46.17292" lon="2.40184">
        <ele>396</ele>
        <time>2017-04-10T15:16:09Z</time>
      </trkpt>
      <trkpt lat="46.17296" lon="2.40187">
        <ele>396</ele>
        <time>2017-04-10T15:16:12Z</time>
      </trkpt>
      <trkpt lat="46.173" lon="2.40188">
        <ele>396</ele>
        <time>2017-04-10T15:16:15Z</time>
      </trkpt>
      <trkpt lat="46.17304" lon="2.4019">
        <ele>396</ele>
        <time>2017-04-10T15:16:18Z</time>
      </trkpt>
      <trkpt lat="46.17308" lon="2.40193">
        <ele>396</ele>
        <time>2017-04-10T15:16:21Z</time>
      </trkpt>
      <trkpt lat="46.17312" lon="2.40194">
        <ele>396</ele>
        <time>2017-04-10T15:16:24Z</time>
      </trkpt>
      <trkpt lat="46.17317" lon="2.40197">
        <ele>396</ele>
        <time>2017-04-10T15:16:27Z</time>
      </trkpt>
      <trkpt lat="46.17321" lon="2.40201">
        <ele>396</ele>
        <time>2017-04-10T15:16:30Z</time>
      </trkpt>
      <trkpt lat="46.17326" lon="2.40204">
        <ele>396</ele>
        <time>2017-04-10T15:16:33Z</time>
      </trkpt>
      <trkpt lat="46.1733" lon="2.40206">
        <ele>396</ele>
        <time>2017-04-10T15:16:36Z</time>
      </trkpt>
      <trkpt lat="46.17333" lon="2.40207">
        <ele>396</ele>
        <time>2017-04-10T15:16:39Z</time>
      </trkpt>
      <trkpt lat="46.17338" lon="2.40209">
        <ele>396</ele>
        <time>2017-04-10T15:16:42Z</time>
      </trkpt>
      <trkpt lat="46.17342" lon="2.4021">
        <ele>396</ele>
        <time>2017-04-10T15:16:45Z</time>
      </trkpt>
      <trkpt lat="46.17347" lon="2.40212">
        <ele>396</ele>
        <time>2017-04-10T15:16:48Z</time>
      </trkpt>
      <trkpt lat="46.17351" lon="2.40214">
        <ele>396</ele>
        <time>2017-04-10T15:16:51Z</time>
      </trkpt>
      <trkpt lat="46.17355" lon="2.40216">
        <ele>396</ele>
        <time>2017-04-10T15:16:54Z</time>
      </trkpt>
      <trkpt lat="46.17359" lon="2.40218">
        <ele>396</ele>
        <time>2017-04-10T15:16:57Z</time>
      </trkpt>
      <trkpt lat="46.17365" lon="2.4022">
        <ele>396</ele>
        <time>2017-04-10T15:17:01Z</time>
      </trkpt>
      <trkpt lat="46.1737" lon="2.40221">
        <ele>396</ele>
        <time>2017-04-10T15:17:04Z</time>
      </trkpt>
      <trkpt lat="46.17375" lon="2.40221">
        <ele>396</ele>
        <time>2017-04-10T15:17:07Z</time>
      </trkpt>
      <trkpt lat="46.1738" lon="2.40222">
        <ele>396</ele>
        <time>2017-04-10T15:17:10Z</time>
      </trkpt>
      <trkpt lat="46.17386" lon="2.40222">
        <ele>396</ele>
        <time>2017-04-10T15:17:13Z</time>
      </trkpt>
      <trkpt lat="46.17391" lon="2.40222">
        <ele>396</ele>
        <time>2017-04-10T15:17:16Z</time>
      </trkpt>
      <trkpt lat="46.17395" lon="2.40222">
        <ele>396</ele>
        <time>2017-04-10T15:17:19Z</time>
      </trkpt>
      <trkpt lat="46.174" lon="2.40221">
        <ele>396</ele>
        <time>2017-04-10T15:17:22Z</time>
      </trkpt>
      <trkpt lat="46.17406" lon="2.40221">
        <ele>396</ele>
        <time>2017-04-10T15:17:25Z</time>
      </trkpt>
      <trkpt lat="46.17411" lon="2.4022">
        <ele>396</ele>
        <time>2017-04-10T15:17:28Z</time>
      </trkpt>
      <trkpt lat="46.17415" lon="2.40219">
        <ele>396</ele>
        <time>2017-04-10T15:17:31Z</time>
      </trkpt>
      <trkpt lat="46.1742" lon="2.40219">
        <ele>396</ele>
        <time>2017-04-10T15:17:34Z</time>
      </trkpt>
      <trkpt lat="46.17425" lon="2.40218">
        <ele>396</ele>
        <time>2017-04-10T15:17:37Z</time>
      </trkpt>
      <trkpt lat="46.17429" lon="2.40217">
        <ele>396</ele>
        <time>2017-04-10T15:17:40Z</time>
      </trkpt>
      <trkpt lat="46.17434" lon="2.40217">
        <ele>396</ele>
        <time>2017-04-10T15:17:43Z</time>
      </trkpt>
      <trkpt lat="46.17438" lon="2.40217">
        <ele>396</ele>
        <time>2017-04-10T15:17:46Z</time>
      </trkpt>
      <trkpt lat="46.17442" lon="2.40216">
        <ele>396</ele>
        <time>2017-04-10T15:17:49Z</time>
      </trkpt>
      <trkpt lat="46.17447" lon="2.40216">
        <ele>396</ele>
        <time>2017-04-10T15:17:52Z</time>
      </trkpt>
      <trkpt lat="46.17451" lon="2.40216">
        <ele>396</ele>
        <time>2017-04-10T15:17:55Z</time>
      </trkpt>
      <trkpt lat="46.17456" lon="2.40215">
        <ele>396</ele>
        <time>2017-04-10T15:17:58Z</time>
      </trkpt>
      <trkpt lat="46.17461" lon="2.40214">
        <ele>396</ele>
        <time>2017-04-10T15:18:01Z</time>
      </trkpt>
      <trkpt lat="46.17466" lon="2.40214">
        <ele>396</ele>
        <time>2017-04-10T15:18:04Z</time>
      </trkpt>
      <trkpt lat="46.1747" lon="2.40213">
        <ele>396</ele>
        <time>2017-04-10T15:18:07Z</time>
      </trkpt>
      <trkpt lat="46.17474" lon="2.40213">
        <ele>396</ele>
        <time>2017-04-10T15:18:10Z</time>
      </trkpt>
      <trkpt lat="46.17479" lon="2.40213">
        <ele>396</ele>
        <time>2017-04-10T15:18:13Z</time>
      </trkpt>
      <trkpt lat="46.17484" lon="2.40212">
        <ele>396</ele>
        <time>2017-04-10T15:18:16Z</time>
      </trkpt>
      <trkpt lat="46.17488" lon="2.40212">
        <ele>396</ele>
        <time>2017-04-10T15:18:19Z</time>
      </trkpt>
      <trkpt lat="46.17493" lon="2.40211">
        <ele>396</ele>
        <time>2017-04-10T15:18:22Z</time>
      </trkpt>
      <trkpt lat="46.17498" lon="2.40211">
        <ele>396</ele>
        <time>2017-04-10T15:18:25Z</time>
      </trkpt>
      <trkpt lat="46.17503" lon="2.4021">
        <ele>396</ele>
        <time>2017-04-10T15:18:28Z</time>
      </trkpt>
      <trkpt lat="46.17507" lon="2.40209">
        <ele>396</ele>
        <time>2017-04-10T15:18:31Z</time>
      </trkpt>
      <trkpt lat="46.17511" lon="2.40209">
        <ele>396</ele>
        <time>2017-04-10T15:18:34Z</time>
      </trkpt>
      <trkpt lat="46.17516" lon="2.40209">
        <ele>396</ele>
        <time>2017-04-10T15:18:37Z</time>
      </trkpt>
      <trkpt lat="46.1752" lon="2.40209">
        <ele>396</ele>
        <time>2017-04-10T15:18:40Z</time>
      </trkpt>
      <trkpt lat="46.17525" lon="2.40209">
        <ele>396</ele>
        <time>2017-04-10T15:18:43Z</time>
      </trkpt>
      <trkpt lat="46.17529" lon="2.40209">
        <ele>396</ele>
        <time>2017-04-10T15:18:46Z</time>
      </trkpt>
      <trkpt lat="46.17534" lon="2.40208">
        <ele>396</ele>
        <time>2017-04-10T15:18:49Z</time>
      </trkpt>
      <trkpt lat="46.17538" lon="2.40206">
        <ele>396</ele>
        <time>2017-04-10T15:18:52Z</time>
      </trkpt>
      <trkpt lat="46.17543" lon="2.40205">
        <ele>396</ele>
        <time>2017-04-10T15:18:55Z</time>
      </trkpt>
      <trkpt lat="46.17547" lon="2.40205">
        <ele>396</ele>
        <time>2017-04-10T15:18:58Z</time>
      </trkpt>
      <trkpt lat="46.17552" lon="2.40204">
        <ele>396</ele>
        <time>2017-04-10T15:19:01Z</time>
      </trkpt>
      <trkpt lat="46.17556" lon="2.40205">
        <ele>396</ele>
        <time>2017-04-10T15:19:04Z</time>
      </trkpt>
      <trkpt lat="46.17561" lon="2.40205">
        <ele>396</ele>
        <time>2017-04-10T15:19:07Z</time>
      </trkpt>
      <trkpt lat="46.17565" lon="2.40205">
        <ele>396</ele>
        <time>2017-04-10T15:19:10Z</time>
      </trkpt>
      <trkpt lat="46.1757" lon="2.40205">
        <ele>396</ele>
        <time>2017-04-10T15:19:13Z</time>
      </trkpt>
      <trkpt lat="46.17574" lon="2.40205">
        <ele>396</ele>
        <time>2017-04-10T15:19:16Z</time>
      </trkpt>
      <trkpt lat="46.17579" lon="2.40204">
        <ele>396</ele>
        <time>2017-04-10T15:19:19Z</time>
      </trkpt>
      <trkpt lat="46.17584" lon="2.40204">
        <ele>396</ele>
        <time>2017-04-10T15:19:22Z</time>
      </trkpt>
      <trkpt lat="46.17589" lon="2.40204">
        <ele>396</ele>
        <time>2017-04-10T15:19:25Z</time>
      </trkpt>
      <trkpt lat="46.17593" lon="2.40205">
        <ele>396</ele>
        <time>2017-04-10T15:19:28Z</time>
      </trkpt>
      <trkpt lat="46.17598" lon="2.40205">
        <ele>396</ele>
        <time>2017-04-10T15:19:31Z</time>
      </trkpt>
      <trkpt lat="46.17602" lon="2.40205">
        <ele>396</ele>
        <time>2017-04-10T15:19:34Z</time>
      </trkpt>
      <trkpt lat="46.17607" lon="2.40206">
        <ele>396</ele>
        <time>2017-04-10T15:19:37Z</time>
      </trkpt>
      <trkpt lat="46.17611" lon="2.40206">
        <ele>396</ele>
        <time>2017-04-10T15:19:40Z</time>
      </trkpt>
      <trkpt lat="46.17616" lon="2.40206">
        <ele>396</ele>
        <time>2017-04-10T15:19:43Z</time>
      </trkpt>
      <trkpt lat="46.1762" lon="2.40206">
        <ele>396</ele>
        <time>2017-04-10T15:19:46Z</time>
      </trkpt>
      <trkpt lat="46.17625" lon="2.40207">
        <ele>396</ele>
        <time>2017-04-10T15:19:49Z</time>
      </trkpt>
      <trkpt lat="46.1763" lon="2.40207">
        <ele>396</ele>
        <time>2017-04-10T15:19:52Z</time>
      </trkpt>
      <trkpt lat="46.17635" lon="2.40208">
        <ele>396</ele>
        <time>2017-04-10T15:19:55Z</time>
      </trkpt>
      <trkpt lat="46.17639" lon="2.40209">
        <ele>396</ele>
        <time>2017-04-10T15:19:58Z</time>
      </trkpt>
      <trkpt lat="46.17644" lon="2.4021">
        <ele>396</ele>
        <time>2017-04-10T15:20:01Z</time>
      </trkpt>
      <trkpt lat="46.17649" lon="2.40211">
        <ele>396</ele>
        <time>2017-04-10T15:20:04Z</time>
      </trkpt>
      <trkpt lat="46.17654" lon="2.40212">
        <ele>395</ele>
        <time>2017-04-10T15:20:07Z</time>
      </trkpt>
      <trkpt lat="46.17659" lon="2.40213">
        <ele>395</ele>
        <time>2017-04-10T15:20:10Z</time>
      </trkpt>
      <trkpt lat="46.17664" lon="2.40214">
        <ele>395</ele>
        <time>2017-04-10T15:20:13Z</time>
      </trkpt>
      <trkpt lat="46.17668" lon="2.40216">
        <ele>395</ele>
        <time>2017-04-10T15:20:16Z</time>
      </trkpt>
      <trkpt lat="46.17673" lon="2.40218">
        <ele>395</ele>
        <time>2017-04-10T15:20:19Z</time>
      </trkpt>
      <trkpt lat="46.17678" lon="2.40221">
        <ele>395</ele>
        <time>2017-04-10T15:20:22Z</time>
      </trkpt>
      <trkpt lat="46.17683" lon="2.40224">
        <ele>395</ele>
        <time>2017-04-10T15:20:25Z</time>
      </trkpt>
      <trkpt lat="46.17688" lon="2.40226">
        <ele>395</ele>
        <time>2017-04-10T15:20:28Z</time>
      </trkpt>
      <trkpt lat="46.17692" lon="2.40229">
        <ele>395</ele>
        <time>2017-04-10T15:20:31Z</time>
      </trkpt>
      <trkpt lat="46.17697" lon="2.40232">
        <ele>395</ele>
        <time>2017-04-10T15:20:34Z</time>
      </trkpt>
      <trkpt lat="46.17701" lon="2.40235">
        <ele>395</ele>
        <time>2017-04-10T15:20:37Z</time>
      </trkpt>
      <trkpt lat="46.17706" lon="2.40238">
        <ele>395</ele>
        <time>2017-04-10T15:20:41Z</time>
      </trkpt>
      <trkpt lat="46.1771" lon="2.40242">
        <ele>395</ele>
        <time>2017-04-10T15:20:44Z</time>
      </trkpt>
      <trkpt lat="46.17714" lon="2.40245">
        <ele>395</ele>
        <time>2017-04-10T15:20:47Z</time>
      </trkpt>
      <trkpt lat="46.17718" lon="2.40248">
        <ele>395</ele>
        <time>2017-04-10T15:20:50Z</time>
      </trkpt>
      <trkpt lat="46.17722" lon="2.40252">
        <ele>394</ele>
        <time>2017-04-10T15:20:53Z</time>
      </trkpt>
      <trkpt lat="46.17726" lon="2.40255">
        <ele>393</ele>
        <time>2017-04-10T15:20:56Z</time>
      </trkpt>
      <trkpt lat="46.1773" lon="2.40259">
        <ele>393</ele>
        <time>2017-04-10T15:20:59Z</time>
      </trkpt>
      <trkpt lat="46.17734" lon="2.40263">
        <ele>392</ele>
        <time>2017-04-10T15:21:02Z</time>
      </trkpt>
      <trkpt lat="46.17737" lon="2.40267">
        <ele>391</ele>
        <time>2017-04-10T15:21:05Z</time>
      </trkpt>
      <trkpt lat="46.17741" lon="2.40271">
        <ele>390</ele>
        <time>2017-04-10T15:21:08Z</time>
      </trkpt>
      <trkpt lat="46.17745" lon="2.40275">
        <ele>390</ele>
        <time>2017-04-10T15:21:11Z</time>
      </trkpt>
      <trkpt lat="46.17749" lon="2.40279">
        <ele>390</ele>
        <time>2017-04-10T15:21:14Z</time>
      </trkpt>
      <trkpt lat="46.17753" lon="2.40283">
        <ele>390</ele>
        <time>2017-04-10T15:21:17Z</time>
      </trkpt>
      <trkpt lat="46.17757" lon="2.40288">
        <ele>390</ele>
        <time>2017-04-10T15:21:20Z</time>
      </trkpt>
      <trkpt lat="46.1776" lon="2.40293">
        <ele>390</ele>
        <time>2017-04-10T15:21:23Z</time>
      </trkpt>
      <trkpt lat="46.17763" lon="2.40299">
        <ele>390</ele>
        <time>2017-04-10T15:21:26Z</time>
      </trkpt>
      <trkpt lat="46.17767" lon="2.40303">
        <ele>390</ele>
        <time>2017-04-10T15:21:29Z</time>
      </trkpt>
      <trkpt lat="46.1777" lon="2.40308">
        <ele>390</ele>
        <time>2017-04-10T15:21:32Z</time>
      </trkpt>
      <trkpt lat="46.17772" lon="2.40314">
        <ele>390</ele>
        <time>2017-04-10T15:21:35Z</time>
      </trkpt>
      <trkpt lat="46.17775" lon="2.40319">
        <ele>390</ele>
        <time>2017-04-10T15:21:38Z</time>
      </trkpt>
      <trkpt lat="46.17778" lon="2.40327">
        <ele>390</ele>
        <time>2017-04-10T15:21:42Z</time>
      </trkpt>
      <trkpt lat="46.17781" lon="2.40333">
        <ele>390</ele>
        <time>2017-04-10T15:21:45Z</time>
      </trkpt>
      <trkpt lat="46.17783" lon="2.40338">
        <ele>390</ele>
        <time>2017-04-10T15:21:48Z</time>
      </trkpt>
      <trkpt lat="46.17785" lon="2.40345">
        <ele>390</ele>
        <time>2017-04-10T15:21:51Z</time>
      </trkpt>
      <trkpt lat="46.17788" lon="2.40351">
        <ele>390</ele>
        <time>2017-04-10T15:21:54Z</time>
      </trkpt>
      <trkpt lat="46.17789" lon="2.40357">
        <ele>390</ele>
        <time>2017-04-10T15:21:57Z</time>
      </trkpt>
      <trkpt lat="46.17791" lon="2.40366">
        <ele>390</ele>
        <time>2017-04-10T15:22:01Z</time>
      </trkpt>
      <trkpt lat="46.17792" lon="2.40373">
        <ele>390</ele>
        <time>2017-04-10T15:22:04Z</time>
      </trkpt>
      <trkpt lat="46.17793" lon="2.40379">
        <ele>390</ele>
        <time>2017-04-10T15:22:07Z</time>
      </trkpt>
      <trkpt lat="46.17795" lon="2.40387">
        <ele>390</ele>
        <time>2017-04-10T15:22:10Z</time>
      </trkpt>
      <trkpt lat="46.17796" lon="2.40394">
        <ele>390</ele>
        <time>2017-04-10T15:22:13Z</time>
      </trkpt>
      <trkpt lat="46.17797" lon="2.40401">
        <ele>390</ele>
        <time>2017-04-10T15:22:16Z</time>
      </trkpt>
      <trkpt lat="46.17798" lon="2.40407">
        <ele>390</ele>
        <time>2017-04-10T15:22:19Z</time>
      </trkpt>
      <trkpt lat="46.17799" lon="2.40412">
        <ele>390</ele>
        <time>2017-04-10T15:22:22Z</time>
      </trkpt>
      <trkpt lat="46.17801" lon="2.4042">
        <ele>390</ele>
        <time>2017-04-10T15:22:26Z</time>
      </trkpt>
      <trkpt lat="46.17802" lon="2.40426">
        <ele>390</ele>
        <time>2017-04-10T15:22:29Z</time>
      </trkpt>
      <trkpt lat="46.17804" lon="2.40433">
        <ele>390</ele>
        <time>2017-04-10T15:22:32Z</time>
      </trkpt>
      <trkpt lat="46.17807" lon="2.40438">
        <ele>390</ele>
        <time>2017-04-10T15:22:35Z</time>
      </trkpt>
      <trkpt lat="46.1781" lon="2.40442">
        <ele>390</ele>
        <time>2017-04-10T15:22:38Z</time>
      </trkpt>
      <trkpt lat="46.17813" lon="2.40447">
        <ele>390</ele>
        <time>2017-04-10T15:22:41Z</time>
      </trkpt>
      <trkpt lat="46.17817" lon="2.4045">
        <ele>389</ele>
        <time>2017-04-10T15:22:44Z</time>
      </trkpt>
      <trkpt lat="46.17821" lon="2.40453">
        <ele>387</ele>
        <time>2017-04-10T15:22:47Z</time>
      </trkpt>
      <trkpt lat="46.17825" lon="2.40456">
        <ele>386</ele>
        <time>2017-04-10T15:22:50Z</time>
      </trkpt>
      <trkpt lat="46.1783" lon="2.40458">
        <ele>386</ele>
        <time>2017-04-10T15:22:53Z</time>
      </trkpt>
      <trkpt lat="46.17833" lon="2.40462">
        <ele>383</ele>
        <time>2017-04-10T15:22:56Z</time>
      </trkpt>
      <trkpt lat="46.17837" lon="2.40464">
        <ele>382</ele>
        <time>2017-04-10T15:22:59Z</time>
      </trkpt>
      <trkpt lat="46.1784" lon="2.40466">
        <ele>381</ele>
        <time>2017-04-10T15:23:02Z</time>
      </trkpt>
      <trkpt lat="46.17844" lon="2.40467">
        <ele>381</ele>
        <time>2017-04-10T15:23:05Z</time>
      </trkpt>
      <trkpt lat="46.17849" lon="2.40468">
        <ele>381</ele>
        <time>2017-04-10T15:23:08Z</time>
      </trkpt>
      <trkpt lat="46.17853" lon="2.4047">
        <ele>381</ele>
        <time>2017-04-10T15:23:11Z</time>
      </trkpt>
      <trkpt lat="46.17857" lon="2.40471">
        <ele>381</ele>
        <time>2017-04-10T15:23:14Z</time>
      </trkpt>
      <trkpt lat="46.1786" lon="2.40474">
        <ele>381</ele>
        <time>2017-04-10T15:23:17Z</time>
      </trkpt>
      <trkpt lat="46.17864" lon="2.40475">
        <ele>380</ele>
        <time>2017-04-10T15:23:20Z</time>
      </trkpt>
      <trkpt lat="46.17869" lon="2.40475">
        <ele>380</ele>
        <time>2017-04-10T15:23:23Z</time>
      </trkpt>
      <trkpt lat="46.17875" lon="2.40476">
        <ele>379</ele>
        <time>2017-04-10T15:23:26Z</time>
      </trkpt>
      <trkpt lat="46.17879" lon="2.40477">
        <ele>378</ele>
        <time>2017-04-10T15:23:29Z</time>
      </trkpt>
      <trkpt lat="46.17884" lon="2.40477">
        <ele>378</ele>
        <time>2017-04-10T15:23:32Z</time>
      </trkpt>
      <trkpt lat="46.17889" lon="2.40478">
        <ele>378</ele>
        <time>2017-04-10T15:23:35Z</time>
      </trkpt>
      <trkpt lat="46.1789" lon="2.40478">
        <ele>376</ele>
        <time>2017-04-10T15:23:48Z</time>
      </trkpt>
      <trkpt lat="46.17894" lon="2.40476">
        <ele>376</ele>
        <time>2017-04-10T15:23:51Z</time>
      </trkpt>
      <trkpt lat="46.17898" lon="2.40476">
        <ele>376</ele>
        <time>2017-04-10T15:23:54Z</time>
      </trkpt>
      <trkpt lat="46.17903" lon="2.40476">
        <ele>376</ele>
        <time>2017-04-10T15:23:57Z</time>
      </trkpt>
      <trkpt lat="46.17907" lon="2.40476">
        <ele>376</ele>
        <time>2017-04-10T15:24:00Z</time>
      </trkpt>
      <trkpt lat="46.17912" lon="2.40475">
        <ele>376</ele>
        <time>2017-04-10T15:24:03Z</time>
      </trkpt>
      <trkpt lat="46.17916" lon="2.40473">
        <ele>375</ele>
        <time>2017-04-10T15:24:06Z</time>
      </trkpt>
      <trkpt lat="46.17921" lon="2.40472">
        <ele>375</ele>
        <time>2017-04-10T15:24:09Z</time>
      </trkpt>
      <trkpt lat="46.17925" lon="2.40474">
        <ele>375</ele>
        <time>2017-04-10T15:24:12Z</time>
      </trkpt>
      <trkpt lat="46.17931" lon="2.40475">
        <ele>375</ele>
        <time>2017-04-10T15:24:16Z</time>
      </trkpt>
      <trkpt lat="46.17937" lon="2.40476">
        <ele>374</ele>
        <time>2017-04-10T15:24:20Z</time>
      </trkpt>
      <trkpt lat="46.17942" lon="2.40478">
        <ele>374</ele>
        <time>2017-04-10T15:24:23Z</time>
      </trkpt>
      <trkpt lat="46.17947" lon="2.4048">
        <ele>374</ele>
        <time>2017-04-10T15:24:26Z</time>
      </trkpt>
      <trkpt lat="46.1795" lon="2.40483">
        <ele>374</ele>
        <time>2017-04-10T15:24:29Z</time>
      </trkpt>
      <trkpt lat="46.17953" lon="2.40488">
        <ele>374</ele>
        <time>2017-04-10T15:24:32Z</time>
      </trkpt>
      <trkpt lat="46.17957" lon="2.40494">
        <ele>374</ele>
        <time>2017-04-10T15:24:36Z</time>
      </trkpt>
      <trkpt lat="46.17961" lon="2.40499">
        <ele>374</ele>
        <time>2017-04-10T15:24:39Z</time>
      </trkpt>
      <trkpt lat="46.17963" lon="2.40504">
        <ele>374</ele>
        <time>2017-04-10T15:24:42Z</time>
      </trkpt>
      <trkpt lat="46.17964" lon="2.40511">
        <ele>374</ele>
        <time>2017-04-10T15:24:45Z</time>
      </trkpt>
      <trkpt lat="46.17966" lon="2.40517">
        <ele>374</ele>
        <time>2017-04-10T15:24:48Z</time>
      </trkpt>
      <trkpt lat="46.17969" lon="2.40522">
        <ele>374</ele>
        <time>2017-04-10T15:24:51Z</time>
      </trkpt>
      <trkpt lat="46.17973" lon="2.40527">
        <ele>374</ele>
        <time>2017-04-10T15:24:55Z</time>
      </trkpt>
      <trkpt lat="46.17977" lon="2.40528">
        <ele>372</ele>
        <time>2017-04-10T15:24:58Z</time>
      </trkpt>
      <trkpt lat="46.17981" lon="2.40531">
        <ele>371</ele>
        <time>2017-04-10T15:25:01Z</time>
      </trkpt>
      <trkpt lat="46.17985" lon="2.40533">
        <ele>369</ele>
        <time>2017-04-10T15:25:04Z</time>
      </trkpt>
      <trkpt lat="46.1799" lon="2.40534">
        <ele>368</ele>
        <time>2017-04-10T15:25:07Z</time>
      </trkpt>
      <trkpt lat="46.17995" lon="2.40536">
        <ele>368</ele>
        <time>2017-04-10T15:25:10Z</time>
      </trkpt>
      <trkpt lat="46.18" lon="2.40538">
        <ele>368</ele>
        <time>2017-04-10T15:25:13Z</time>
      </trkpt>
      <trkpt lat="46.18004" lon="2.4054">
        <ele>368</ele>
        <time>2017-04-10T15:25:16Z</time>
      </trkpt>
      <trkpt lat="46.18008" lon="2.40541">
        <ele>367</ele>
        <time>2017-04-10T15:25:19Z</time>
      </trkpt>
      <trkpt lat="46.18013" lon="2.40543">
        <ele>366</ele>
        <time>2017-04-10T15:25:22Z</time>
      </trkpt>
      <trkpt lat="46.18018" lon="2.40545">
        <ele>366</ele>
        <time>2017-04-10T15:25:25Z</time>
      </trkpt>
      <trkpt lat="46.18022" lon="2.40547">
        <ele>366</ele>
        <time>2017-04-10T15:25:28Z</time>
      </trkpt>
      <trkpt lat="46.18027" lon="2.4055">
        <ele>365</ele>
        <time>2017-04-10T15:25:31Z</time>
      </trkpt>
      <trkpt lat="46.18031" lon="2.40552">
        <ele>365</ele>
        <time>2017-04-10T15:25:34Z</time>
      </trkpt>
      <trkpt lat="46.18036" lon="2.40555">
        <ele>365</ele>
        <time>2017-04-10T15:25:37Z</time>
      </trkpt>
      <trkpt lat="46.1804" lon="2.40558">
        <ele>365</ele>
        <time>2017-04-10T15:25:40Z</time>
      </trkpt>
      <trkpt lat="46.18044" lon="2.40562">
        <ele>364</ele>
        <time>2017-04-10T15:25:43Z</time>
      </trkpt>
      <trkpt lat="46.18048" lon="2.40566">
        <ele>364</ele>
        <time>2017-04-10T15:25:47Z</time>
      </trkpt>
      <trkpt lat="46.18052" lon="2.40571">
        <ele>364</ele>
        <time>2017-04-10T15:25:50Z</time>
      </trkpt>
      <trkpt lat="46.18054" lon="2.40576">
        <ele>364</ele>
        <time>2017-04-10T15:25:53Z</time>
      </trkpt>
      <trkpt lat="46.18056" lon="2.40581">
        <ele>364</ele>
        <time>2017-04-10T15:25:56Z</time>
      </trkpt>
      <trkpt lat="46.18059" lon="2.40586">
        <ele>364</ele>
        <time>2017-04-10T15:25:59Z</time>
      </trkpt>
      <trkpt lat="46.18062" lon="2.40592">
        <ele>364</ele>
        <time>2017-04-10T15:26:02Z</time>
      </trkpt>
      <trkpt lat="46.18064" lon="2.40599">
        <ele>364</ele>
        <time>2017-04-10T15:26:05Z</time>
      </trkpt>
      <trkpt lat="46.18066" lon="2.40605">
        <ele>364</ele>
        <time>2017-04-10T15:26:08Z</time>
      </trkpt>
      <trkpt lat="46.18068" lon="2.40611">
        <ele>364</ele>
        <time>2017-04-10T15:26:11Z</time>
      </trkpt>
      <trkpt lat="46.18069" lon="2.40617">
        <ele>364</ele>
        <time>2017-04-10T15:26:14Z</time>
      </trkpt>
      <trkpt lat="46.18071" lon="2.40622">
        <ele>364</ele>
        <time>2017-04-10T15:26:17Z</time>
      </trkpt>
      <trkpt lat="46.18071" lon="2.40628">
        <ele>364</ele>
        <time>2017-04-10T15:26:20Z</time>
      </trkpt>
      <trkpt lat="46.18072" lon="2.40635">
        <ele>363</ele>
        <time>2017-04-10T15:26:23Z</time>
      </trkpt>
      <trkpt lat="46.18074" lon="2.40641">
        <ele>361</ele>
        <time>2017-04-10T15:26:26Z</time>
      </trkpt>
      <trkpt lat="46.18076" lon="2.40647">
        <ele>359</ele>
        <time>2017-04-10T15:26:29Z</time>
      </trkpt>
      <trkpt lat="46.18078" lon="2.40653">
        <ele>357</ele>
        <time>2017-04-10T15:26:32Z</time>
      </trkpt>
      <trkpt lat="46.1808" lon="2.4066">
        <ele>356</ele>
        <time>2017-04-10T15:26:35Z</time>
      </trkpt>
      <trkpt lat="46.18082" lon="2.40668">
        <ele>354</ele>
        <time>2017-04-10T15:26:39Z</time>
      </trkpt>
      <trkpt lat="46.18084" lon="2.40674">
        <ele>353</ele>
        <time>2017-04-10T15:26:42Z</time>
      </trkpt>
      <trkpt lat="46.18085" lon="2.4068">
        <ele>352</ele>
        <time>2017-04-10T15:26:45Z</time>
      </trkpt>
      <trkpt lat="46.18087" lon="2.40686">
        <ele>352</ele>
        <time>2017-04-10T15:26:48Z</time>
      </trkpt>
      <trkpt lat="46.1809" lon="2.4069">
        <ele>352</ele>
        <time>2017-04-10T15:26:51Z</time>
      </trkpt>
      <trkpt lat="46.18094" lon="2.40695">
        <ele>352</ele>
        <time>2017-04-10T15:26:55Z</time>
      </trkpt>
      <trkpt lat="46.18099" lon="2.40698">
        <ele>352</ele>
        <time>2017-04-10T15:26:58Z</time>
      </trkpt>
      <trkpt lat="46.18102" lon="2.40699">
        <ele>352</ele>
        <time>2017-04-10T15:27:01Z</time>
      </trkpt>
      <trkpt lat="46.18106" lon="2.40699">
        <ele>352</ele>
        <time>2017-04-10T15:27:04Z</time>
      </trkpt>
      <trkpt lat="46.18111" lon="2.40696">
        <ele>352</ele>
        <time>2017-04-10T15:27:07Z</time>
      </trkpt>
      <trkpt lat="46.18116" lon="2.40693">
        <ele>352</ele>
        <time>2017-04-10T15:27:10Z</time>
      </trkpt>
      <trkpt lat="46.18119" lon="2.40688">
        <ele>352</ele>
        <time>2017-04-10T15:27:13Z</time>
      </trkpt>
      <trkpt lat="46.18123" lon="2.40684">
        <ele>352</ele>
        <time>2017-04-10T15:27:16Z</time>
      </trkpt>
      <trkpt lat="46.18127" lon="2.4068">
        <ele>352</ele>
        <time>2017-04-10T15:27:19Z</time>
      </trkpt>
      <trkpt lat="46.18132" lon="2.40677">
        <ele>352</ele>
        <time>2017-04-10T15:27:22Z</time>
      </trkpt>
      <trkpt lat="46.18134" lon="2.4067">
        <ele>350</ele>
        <time>2017-04-10T15:27:25Z</time>
      </trkpt>
      <trkpt lat="46.18136" lon="2.40664">
        <ele>349</ele>
        <time>2017-04-10T15:27:28Z</time>
      </trkpt>
      <trkpt lat="46.18138" lon="2.40659">
        <ele>347</ele>
        <time>2017-04-10T15:27:31Z</time>
      </trkpt>
      <trkpt lat="46.18142" lon="2.40654">
        <ele>346</ele>
        <time>2017-04-10T15:27:34Z</time>
      </trkpt>
      <trkpt lat="46.18145" lon="2.40649">
        <ele>346</ele>
        <time>2017-04-10T15:27:38Z</time>
      </trkpt>
      <trkpt lat="46.18149" lon="2.40646">
        <ele>346</ele>
        <time>2017-04-10T15:27:41Z</time>
      </trkpt>
      <trkpt lat="46.18153" lon="2.40644">
        <ele>346</ele>
        <time>2017-04-10T15:27:44Z</time>
      </trkpt>
      <trkpt lat="46.18156" lon="2.40641">
        <ele>346</ele>
        <time>2017-04-10T15:27:47Z</time>
      </trkpt>
      <trkpt lat="46.18159" lon="2.40638">
        <ele>346</ele>
        <time>2017-04-10T15:27:50Z</time>
      </trkpt>
      <trkpt lat="46.18164" lon="2.40634">
        <ele>346</ele>
        <time>2017-04-10T15:27:53Z</time>
      </trkpt>
      <trkpt lat="46.18169" lon="2.40631">
        <ele>346</ele>
        <time>2017-04-10T15:27:56Z</time>
      </trkpt>
      <trkpt lat="46.18174" lon="2.40628">
        <ele>346</ele>
        <time>2017-04-10T15:27:59Z</time>
      </trkpt>
      <trkpt lat="46.18178" lon="2.40625">
        <ele>346</ele>
        <time>2017-04-10T15:28:02Z</time>
      </trkpt>
      <trkpt lat="46.18181" lon="2.40622">
        <ele>346</ele>
        <time>2017-04-10T15:28:05Z</time>
      </trkpt>
      <trkpt lat="46.18185" lon="2.4062">
        <ele>346</ele>
        <time>2017-04-10T15:28:08Z</time>
      </trkpt>
      <trkpt lat="46.18191" lon="2.40618">
        <ele>346</ele>
        <time>2017-04-10T15:28:12Z</time>
      </trkpt>
      <trkpt lat="46.18195" lon="2.40616">
        <ele>346</ele>
        <time>2017-04-10T15:28:15Z</time>
      </trkpt>
      <trkpt lat="46.18203" lon="2.40613">
        <ele>346</ele>
        <time>2017-04-10T15:28:20Z</time>
      </trkpt>
      <trkpt lat="46.18209" lon="2.40609">
        <ele>346</ele>
        <time>2017-04-10T15:28:24Z</time>
      </trkpt>
      <trkpt lat="46.18212" lon="2.40607">
        <ele>345</ele>
        <time>2017-04-10T15:28:27Z</time>
      </trkpt>
      <trkpt lat="46.18216" lon="2.40605">
        <ele>344</ele>
        <time>2017-04-10T15:28:30Z</time>
      </trkpt>
      <trkpt lat="46.1822" lon="2.40605">
        <ele>343</ele>
        <time>2017-04-10T15:28:33Z</time>
      </trkpt>
      <trkpt lat="46.18224" lon="2.40604">
        <ele>342</ele>
        <time>2017-04-10T15:28:36Z</time>
      </trkpt>
      <trkpt lat="46.18229" lon="2.40602">
        <ele>342</ele>
        <time>2017-04-10T15:28:40Z</time>
      </trkpt>
      <trkpt lat="46.18233" lon="2.40601">
        <ele>342</ele>
        <time>2017-04-10T15:28:43Z</time>
      </trkpt>
      <trkpt lat="46.18235" lon="2.40598">
        <ele>342</ele>
        <time>2017-04-10T15:28:46Z</time>
      </trkpt>
      <trkpt lat="46.18237" lon="2.40598">
        <ele>342</ele>
        <time>2017-04-10T15:28:49Z</time>
      </trkpt>
      <trkpt lat="46.18243" lon="2.40598">
        <ele>341</ele>
        <time>2017-04-10T15:28:52Z</time>
      </trkpt>
      <trkpt lat="46.18249" lon="2.40597">
        <ele>341</ele>
        <time>2017-04-10T15:28:55Z</time>
      </trkpt>
      <trkpt lat="46.18253" lon="2.40598">
        <ele>341</ele>
        <time>2017-04-10T15:28:58Z</time>
      </trkpt>
      <trkpt lat="46.18259" lon="2.40597">
        <ele>340</ele>
        <time>2017-04-10T15:29:02Z</time>
      </trkpt>
      <trkpt lat="46.18263" lon="2.40598">
        <ele>339</ele>
        <time>2017-04-10T15:29:05Z</time>
      </trkpt>
      <trkpt lat="46.18269" lon="2.40596">
        <ele>338</ele>
        <time>2017-04-10T15:29:08Z</time>
      </trkpt>
      <trkpt lat="46.18275" lon="2.40595">
        <ele>338</ele>
        <time>2017-04-10T15:29:11Z</time>
      </trkpt>
      <trkpt lat="46.18279" lon="2.40594">
        <ele>336</ele>
        <time>2017-04-10T15:29:14Z</time>
      </trkpt>
      <trkpt lat="46.18283" lon="2.40595">
        <ele>334</ele>
        <time>2017-04-10T15:29:17Z</time>
      </trkpt>
      <trkpt lat="46.18286" lon="2.40596">
        <ele>333</ele>
        <time>2017-04-10T15:29:20Z</time>
      </trkpt>
      <trkpt lat="46.1829" lon="2.40596">
        <ele>333</ele>
        <time>2017-04-10T15:29:23Z</time>
      </trkpt>
      <trkpt lat="46.18296" lon="2.40599">
        <ele>333</ele>
        <time>2017-04-10T15:29:27Z</time>
      </trkpt>
      <trkpt lat="46.18301" lon="2.40601">
        <ele>333</ele>
        <time>2017-04-10T15:29:30Z</time>
      </trkpt>
      <trkpt lat="46.18312" lon="2.40602">
        <ele>333</ele>
        <time>2017-04-10T15:29:37Z</time>
      </trkpt>
      <trkpt lat="46.18319" lon="2.40602">
        <ele>333</ele>
        <time>2017-04-10T15:29:40Z</time>
      </trkpt>
      <trkpt lat="46.18325" lon="2.40604">
        <ele>333</ele>
        <time>2017-04-10T15:29:43Z</time>
      </trkpt>
      <trkpt lat="46.18329" lon="2.40605">
        <ele>334</ele>
        <time>2017-04-10T15:29:46Z</time>
      </trkpt>
      <trkpt lat="46.18332" lon="2.40607">
        <ele>334</ele>
        <time>2017-04-10T15:29:50Z</time>
      </trkpt>
      <trkpt lat="46.18328" lon="2.4061">
        <ele>334</ele>
        <time>2017-04-10T15:29:54Z</time>
      </trkpt>
      <trkpt lat="46.18323" lon="2.4061">
        <ele>334</ele>
        <time>2017-04-10T15:29:57Z</time>
      </trkpt>
      <trkpt lat="46.18317" lon="2.40612">
        <ele>334</ele>
        <time>2017-04-10T15:30:01Z</time>
      </trkpt>
      <trkpt lat="46.18312" lon="2.40613">
        <ele>334</ele>
        <time>2017-04-10T15:30:04Z</time>
      </trkpt>
      <trkpt lat="46.18308" lon="2.40613">
        <ele>334</ele>
        <time>2017-04-10T15:30:07Z</time>
      </trkpt>
      <trkpt lat="46.18303" lon="2.40613">
        <ele>333</ele>
        <time>2017-04-10T15:30:10Z</time>
      </trkpt>
      <trkpt lat="46.18299" lon="2.40612">
        <ele>332</ele>
        <time>2017-04-10T15:30:13Z</time>
      </trkpt>
      <trkpt lat="46.18294" lon="2.40611">
        <ele>332</ele>
        <time>2017-04-10T15:30:16Z</time>
      </trkpt>
      <trkpt lat="46.1829" lon="2.40611">
        <ele>332</ele>
        <time>2017-04-10T15:30:19Z</time>
      </trkpt>
      <trkpt lat="46.18285" lon="2.4061">
        <ele>330</ele>
        <time>2017-04-10T15:30:22Z</time>
      </trkpt>
      <trkpt lat="46.1828" lon="2.40611">
        <ele>329</ele>
        <time>2017-04-10T15:30:25Z</time>
      </trkpt>
      <trkpt lat="46.18277" lon="2.40611">
        <ele>329</ele>
        <time>2017-04-10T15:30:28Z</time>
      </trkpt>
      <trkpt lat="46.18272" lon="2.40611">
        <ele>329</ele>
        <time>2017-04-10T15:30:31Z</time>
      </trkpt>
      <trkpt lat="46.18269" lon="2.40617">
        <ele>328</ele>
        <time>2017-04-10T15:30:34Z</time>
      </trkpt>
      <trkpt lat="46.18266" lon="2.40622">
        <ele>328</ele>
        <time>2017-04-10T15:30:37Z</time>
      </trkpt>
      <trkpt lat="46.18265" lon="2.40629">
        <ele>328</ele>
        <time>2017-04-10T15:30:40Z</time>
      </trkpt>
      <trkpt lat="46.18264" lon="2.40635">
        <ele>328</ele>
        <time>2017-04-10T15:30:43Z</time>
      </trkpt>
      <trkpt lat="46.18264" lon="2.40641">
        <ele>328</ele>
        <time>2017-04-10T15:30:46Z</time>
      </trkpt>
      <trkpt lat="46.18264" lon="2.40647">
        <ele>328</ele>
        <time>2017-04-10T15:30:49Z</time>
      </trkpt>
      <trkpt lat="46.18264" lon="2.40654">
        <ele>328</ele>
        <time>2017-04-10T15:30:52Z</time>
      </trkpt>
      <trkpt lat="46.18264" lon="2.4066">
        <ele>328</ele>
        <time>2017-04-10T15:30:55Z</time>
      </trkpt>
      <trkpt lat="46.18265" lon="2.40666">
        <ele>328</ele>
        <time>2017-04-10T15:30:58Z</time>
      </trkpt>
      <trkpt lat="46.18264" lon="2.40672">
        <ele>328</ele>
        <time>2017-04-10T15:31:01Z</time>
      </trkpt>
      <trkpt lat="46.18264" lon="2.40679">
        <ele>328</ele>
        <time>2017-04-10T15:31:04Z</time>
      </trkpt>
      <trkpt lat="46.18265" lon="2.40686">
        <ele>328</ele>
        <time>2017-04-10T15:31:07Z</time>
      </trkpt>
      <trkpt lat="46.18267" lon="2.40694">
        <ele>326</ele>
        <time>2017-04-10T15:31:10Z</time>
      </trkpt>
      <trkpt lat="46.18267" lon="2.40702">
        <ele>325</ele>
        <time>2017-04-10T15:31:13Z</time>
      </trkpt>
      <trkpt lat="46.18267" lon="2.40708">
        <ele>325</ele>
        <time>2017-04-10T15:31:16Z</time>
      </trkpt>
      <trkpt lat="46.18266" lon="2.40714">
        <ele>325</ele>
        <time>2017-04-10T15:31:19Z</time>
      </trkpt>
      <trkpt lat="46.18262" lon="2.40719">
        <ele>325</ele>
        <time>2017-04-10T15:31:22Z</time>
      </trkpt>
      <trkpt lat="46.18259" lon="2.40724">
        <ele>325</ele>
        <time>2017-04-10T15:31:26Z</time>
      </trkpt>
      <trkpt lat="46.18256" lon="2.40728">
        <ele>325</ele>
        <time>2017-04-10T15:31:29Z</time>
      </trkpt>
      <trkpt lat="46.18253" lon="2.40732">
        <ele>325</ele>
        <time>2017-04-10T15:31:32Z</time>
      </trkpt>
      <trkpt lat="46.1825" lon="2.40737">
        <ele>325</ele>
        <time>2017-04-10T15:31:35Z</time>
      </trkpt>
      <trkpt lat="46.18247" lon="2.40743">
        <ele>325</ele>
        <time>2017-04-10T15:31:39Z</time>
      </trkpt>
      <trkpt lat="46.18246" lon="2.40746">
        <ele>325</ele>
        <time>2017-04-10T15:31:43Z</time>
      </trkpt>
      <trkpt lat="46.18247" lon="2.40748">
        <ele>325</ele>
        <time>2017-04-10T15:31:46Z</time>
      </trkpt>
      <trkpt lat="46.1825" lon="2.40751">
        <ele>325</ele>
        <time>2017-04-10T15:31:53Z</time>
      </trkpt>
      <trkpt lat="46.18251" lon="2.40752">
        <ele>325</ele>
        <time>2017-04-10T15:31:56Z</time>
      </trkpt>
      <trkpt lat="46.18252" lon="2.40754">
        <ele>325</ele>
        <time>2017-04-10T15:31:59Z</time>
      </trkpt>
      <trkpt lat="46.18254" lon="2.40753">
        <ele>325</ele>
        <time>2017-04-10T15:32:02Z</time>
      </trkpt>
      <trkpt lat="46.18257" lon="2.40746">
        <ele>325</ele>
        <time>2017-04-10T15:32:07Z</time>
      </trkpt>
      <trkpt lat="46.18261" lon="2.40741">
        <ele>325</ele>
        <time>2017-04-10T15:32:11Z</time>
      </trkpt>
      <trkpt lat="46.18264" lon="2.40737">
        <ele>325</ele>
        <time>2017-04-10T15:32:14Z</time>
      </trkpt>
      <trkpt lat="46.1827" lon="2.40735">
        <ele>325</ele>
        <time>2017-04-10T15:32:19Z</time>
      </trkpt>
      <trkpt lat="46.18274" lon="2.40736">
        <ele>325</ele>
        <time>2017-04-10T15:32:22Z</time>
      </trkpt>
      <trkpt lat="46.18279" lon="2.40739">
        <ele>325</ele>
        <time>2017-04-10T15:32:26Z</time>
      </trkpt>
      <trkpt lat="46.18283" lon="2.40742">
        <ele>325</ele>
        <time>2017-04-10T15:32:29Z</time>
      </trkpt>
      <trkpt lat="46.18287" lon="2.40747">
        <ele>325</ele>
        <time>2017-04-10T15:32:32Z</time>
      </trkpt>
      <trkpt lat="46.18291" lon="2.40753">
        <ele>325</ele>
        <time>2017-04-10T15:32:36Z</time>
      </trkpt>
      <trkpt lat="46.18294" lon="2.40758">
        <ele>325</ele>
        <time>2017-04-10T15:32:40Z</time>
      </trkpt>
      <trkpt lat="46.18297" lon="2.40762">
        <ele>325</ele>
        <time>2017-04-10T15:32:43Z</time>
      </trkpt>
      <trkpt lat="46.18302" lon="2.40766">
        <ele>324</ele>
        <time>2017-04-10T15:32:46Z</time>
      </trkpt>
      <trkpt lat="46.18305" lon="2.40771">
        <ele>323</ele>
        <time>2017-04-10T15:32:49Z</time>
      </trkpt>
      <trkpt lat="46.18308" lon="2.40776">
        <ele>323</ele>
        <time>2017-04-10T15:32:52Z</time>
      </trkpt>
      <trkpt lat="46.18311" lon="2.40782">
        <ele>323</ele>
        <time>2017-04-10T15:32:56Z</time>
      </trkpt>
      <trkpt lat="46.18313" lon="2.40787">
        <ele>323</ele>
        <time>2017-04-10T15:32:59Z</time>
      </trkpt>
      <trkpt lat="46.18314" lon="2.40793">
        <ele>323</ele>
        <time>2017-04-10T15:33:02Z</time>
      </trkpt>
      <trkpt lat="46.18315" lon="2.40799">
        <ele>323</ele>
        <time>2017-04-10T15:33:05Z</time>
      </trkpt>
      <trkpt lat="46.18317" lon="2.40804">
        <ele>323</ele>
        <time>2017-04-10T15:33:08Z</time>
      </trkpt>
      <trkpt lat="46.18319" lon="2.4081">
        <ele>324</ele>
        <time>2017-04-10T15:33:11Z</time>
      </trkpt>
      <trkpt lat="46.18322" lon="2.40815">
        <ele>325</ele>
        <time>2017-04-10T15:33:14Z</time>
      </trkpt>
      <trkpt lat="46.18324" lon="2.40822">
        <ele>326</ele>
        <time>2017-04-10T15:33:17Z</time>
      </trkpt>
      <trkpt lat="46.18325" lon="2.40828">
        <ele>327</ele>
        <time>2017-04-10T15:33:20Z</time>
      </trkpt>
      <trkpt lat="46.18327" lon="2.40833">
        <ele>330</ele>
        <time>2017-04-10T15:33:23Z</time>
      </trkpt>
      <trkpt lat="46.18328" lon="2.40839">
        <ele>332</ele>
        <time>2017-04-10T15:33:26Z</time>
      </trkpt>
      <trkpt lat="46.1833" lon="2.40844">
        <ele>332</ele>
        <time>2017-04-10T15:33:29Z</time>
      </trkpt>
      <trkpt lat="46.18331" lon="2.40852">
        <ele>332</ele>
        <time>2017-04-10T15:33:33Z</time>
      </trkpt>
      <trkpt lat="46.18331" lon="2.40859">
        <ele>332</ele>
        <time>2017-04-10T15:33:36Z</time>
      </trkpt>
      <trkpt lat="46.18333" lon="2.40864">
        <ele>332</ele>
        <time>2017-04-10T15:33:39Z</time>
      </trkpt>
      <trkpt lat="46.18334" lon="2.4087">
        <ele>332</ele>
        <time>2017-04-10T15:33:42Z</time>
      </trkpt>
      <trkpt lat="46.18339" lon="2.40877">
        <ele>332</ele>
        <time>2017-04-10T15:33:45Z</time>
      </trkpt>
      <trkpt lat="46.1834" lon="2.40882">
        <ele>332</ele>
        <time>2017-04-10T15:33:48Z</time>
      </trkpt>
      <trkpt lat="46.18342" lon="2.40888">
        <ele>332</ele>
        <time>2017-04-10T15:33:51Z</time>
      </trkpt>
      <trkpt lat="46.18344" lon="2.40893">
        <ele>333</ele>
        <time>2017-04-10T15:33:54Z</time>
      </trkpt>
      <trkpt lat="46.18345" lon="2.40897">
        <ele>333</ele>
        <time>2017-04-10T15:33:57Z</time>
      </trkpt>
      <trkpt lat="46.18347" lon="2.40901">
        <ele>333</ele>
        <time>2017-04-10T15:34:00Z</time>
      </trkpt>
      <trkpt lat="46.1835" lon="2.40906">
        <ele>333</ele>
        <time>2017-04-10T15:34:03Z</time>
      </trkpt>
      <trkpt lat="46.18353" lon="2.40912">
        <ele>333</ele>
        <time>2017-04-10T15:34:06Z</time>
      </trkpt>
      <trkpt lat="46.18357" lon="2.40917">
        <ele>333</ele>
        <time>2017-04-10T15:34:09Z</time>
      </trkpt>
      <trkpt lat="46.18362" lon="2.40922">
        <ele>333</ele>
        <time>2017-04-10T15:34:12Z</time>
      </trkpt>
      <trkpt lat="46.18363" lon="2.40928">
        <ele>333</ele>
        <time>2017-04-10T15:34:15Z</time>
      </trkpt>
      <trkpt lat="46.18365" lon="2.40934">
        <ele>333</ele>
        <time>2017-04-10T15:34:18Z</time>
      </trkpt>
      <trkpt lat="46.18366" lon="2.40939">
        <ele>333</ele>
        <time>2017-04-10T15:34:21Z</time>
      </trkpt>
      <trkpt lat="46.18367" lon="2.40945">
        <ele>333</ele>
        <time>2017-04-10T15:34:24Z</time>
      </trkpt>
      <trkpt lat="46.1837" lon="2.4095">
        <ele>333</ele>
        <time>2017-04-10T15:34:27Z</time>
      </trkpt>
      <trkpt lat="46.18371" lon="2.40955">
        <ele>333</ele>
        <time>2017-04-10T15:34:30Z</time>
      </trkpt>
      <trkpt lat="46.18374" lon="2.4096">
        <ele>333</ele>
        <time>2017-04-10T15:34:33Z</time>
      </trkpt>
      <trkpt lat="46.18375" lon="2.40966">
        <ele>333</ele>
        <time>2017-04-10T15:34:37Z</time>
      </trkpt>
      <trkpt lat="46.18375" lon="2.40971">
        <ele>333</ele>
        <time>2017-04-10T15:34:40Z</time>
      </trkpt>
      <trkpt lat="46.18377" lon="2.40977">
        <ele>333</ele>
        <time>2017-04-10T15:34:43Z</time>
      </trkpt>
      <trkpt lat="46.18382" lon="2.40982">
        <ele>333</ele>
        <time>2017-04-10T15:34:46Z</time>
      </trkpt>
      <trkpt lat="46.18385" lon="2.40987">
        <ele>333</ele>
        <time>2017-04-10T15:34:50Z</time>
      </trkpt>
      <trkpt lat="46.18388" lon="2.40992">
        <ele>333</ele>
        <time>2017-04-10T15:34:53Z</time>
      </trkpt>
      <trkpt lat="46.1839" lon="2.40996">
        <ele>333</ele>
        <time>2017-04-10T15:34:56Z</time>
      </trkpt>
      <trkpt lat="46.18392" lon="2.41001">
        <ele>333</ele>
        <time>2017-04-10T15:34:59Z</time>
      </trkpt>
      <trkpt lat="46.18398" lon="2.41005">
        <ele>334</ele>
        <time>2017-04-10T15:35:02Z</time>
      </trkpt>
      <trkpt lat="46.18398" lon="2.41011">
        <ele>334</ele>
        <time>2017-04-10T15:35:05Z</time>
      </trkpt>
      <trkpt lat="46.18401" lon="2.41016">
        <ele>335</ele>
        <time>2017-04-10T15:35:08Z</time>
      </trkpt>
      <trkpt lat="46.18404" lon="2.41021">
        <ele>338</ele>
        <time>2017-04-10T15:35:11Z</time>
      </trkpt>
      <trkpt lat="46.18409" lon="2.41028">
        <ele>340</ele>
        <time>2017-04-10T15:35:15Z</time>
      </trkpt>
      <trkpt lat="46.18413" lon="2.41031">
        <ele>341</ele>
        <time>2017-04-10T15:35:18Z</time>
      </trkpt>
      <trkpt lat="46.18415" lon="2.41035">
        <ele>341</ele>
        <time>2017-04-10T15:35:21Z</time>
      </trkpt>
      <trkpt lat="46.18417" lon="2.41038">
        <ele>341</ele>
        <time>2017-04-10T15:35:24Z</time>
      </trkpt>
      <trkpt lat="46.1842" lon="2.41043">
        <ele>341</ele>
        <time>2017-04-10T15:35:27Z</time>
      </trkpt>
      <trkpt lat="46.18424" lon="2.41046">
        <ele>341</ele>
        <time>2017-04-10T15:35:30Z</time>
      </trkpt>
      <trkpt lat="46.18427" lon="2.4105">
        <ele>341</ele>
        <time>2017-04-10T15:35:33Z</time>
      </trkpt>
      <trkpt lat="46.18431" lon="2.41053">
        <ele>341</ele>
        <time>2017-04-10T15:35:36Z</time>
      </trkpt>
      <trkpt lat="46.18434" lon="2.41057">
        <ele>341</ele>
        <time>2017-04-10T15:35:39Z</time>
      </trkpt>
      <trkpt lat="46.18439" lon="2.41061">
        <ele>338</ele>
        <time>2017-04-10T15:35:42Z</time>
      </trkpt>
      <trkpt lat="46.18442" lon="2.41065">
        <ele>336</ele>
        <time>2017-04-10T15:35:46Z</time>
      </trkpt>
      <trkpt lat="46.18446" lon="2.41069">
        <ele>335</ele>
        <time>2017-04-10T15:35:49Z</time>
      </trkpt>
      <trkpt lat="46.18447" lon="2.41073">
        <ele>335</ele>
        <time>2017-04-10T15:35:52Z</time>
      </trkpt>
      <trkpt lat="46.18451" lon="2.41077">
        <ele>335</ele>
        <time>2017-04-10T15:35:55Z</time>
      </trkpt>
      <trkpt lat="46.18456" lon="2.41082">
        <ele>335</ele>
        <time>2017-04-10T15:35:58Z</time>
      </trkpt>
      <trkpt lat="46.18459" lon="2.41087">
        <ele>335</ele>
        <time>2017-04-10T15:36:01Z</time>
      </trkpt>
      <trkpt lat="46.18463" lon="2.41091">
        <ele>335</ele>
        <time>2017-04-10T15:36:04Z</time>
      </trkpt>
      <trkpt lat="46.18464" lon="2.41096">
        <ele>335</ele>
        <time>2017-04-10T15:36:07Z</time>
      </trkpt>
      <trkpt lat="46.18466" lon="2.41101">
        <ele>335</ele>
        <time>2017-04-10T15:36:10Z</time>
      </trkpt>
      <trkpt lat="46.18468" lon="2.41107">
        <ele>334</ele>
        <time>2017-04-10T15:36:13Z</time>
      </trkpt>
      <trkpt lat="46.1847" lon="2.41113">
        <ele>332</ele>
        <time>2017-04-10T15:36:16Z</time>
      </trkpt>
      <trkpt lat="46.18472" lon="2.41119">
        <ele>331</ele>
        <time>2017-04-10T15:36:19Z</time>
      </trkpt>
      <trkpt lat="46.18476" lon="2.41124">
        <ele>331</ele>
        <time>2017-04-10T15:36:23Z</time>
      </trkpt>
      <trkpt lat="46.18481" lon="2.41129">
        <ele>331</ele>
        <time>2017-04-10T15:36:26Z</time>
      </trkpt>
      <trkpt lat="46.18483" lon="2.41135">
        <ele>331</ele>
        <time>2017-04-10T15:36:29Z</time>
      </trkpt>
      <trkpt lat="46.18485" lon="2.4114">
        <ele>331</ele>
        <time>2017-04-10T15:36:32Z</time>
      </trkpt>
      <trkpt lat="46.18489" lon="2.41146">
        <ele>331</ele>
        <time>2017-04-10T15:36:36Z</time>
      </trkpt>
      <trkpt lat="46.18494" lon="2.41152">
        <ele>330</ele>
        <time>2017-04-10T15:36:40Z</time>
      </trkpt>
      <trkpt lat="46.18498" lon="2.41156">
        <ele>328</ele>
        <time>2017-04-10T15:36:43Z</time>
      </trkpt>
      <trkpt lat="46.18501" lon="2.41161">
        <ele>327</ele>
        <time>2017-04-10T15:36:46Z</time>
      </trkpt>
      <trkpt lat="46.18503" lon="2.41166">
        <ele>327</ele>
        <time>2017-04-10T15:36:49Z</time>
      </trkpt>
      <trkpt lat="46.18504" lon="2.4117">
        <ele>327</ele>
        <time>2017-04-10T15:36:52Z</time>
      </trkpt>
      <trkpt lat="46.18506" lon="2.41174">
        <ele>326</ele>
        <time>2017-04-10T15:36:55Z</time>
      </trkpt>
      <trkpt lat="46.18509" lon="2.41179">
        <ele>325</ele>
        <time>2017-04-10T15:36:58Z</time>
      </trkpt>
      <trkpt lat="46.18513" lon="2.41184">
        <ele>324</ele>
        <time>2017-04-10T15:37:02Z</time>
      </trkpt>
      <trkpt lat="46.18517" lon="2.4119">
        <ele>324</ele>
        <time>2017-04-10T15:37:05Z</time>
      </trkpt>
      <trkpt lat="46.18519" lon="2.41195">
        <ele>324</ele>
        <time>2017-04-10T15:37:08Z</time>
      </trkpt>
      <trkpt lat="46.18523" lon="2.412">
        <ele>324</ele>
        <time>2017-04-10T15:37:11Z</time>
      </trkpt>
      <trkpt lat="46.18526" lon="2.41205">
        <ele>324</ele>
        <time>2017-04-10T15:37:14Z</time>
      </trkpt>
      <trkpt lat="46.1853" lon="2.41211">
        <ele>324</ele>
        <time>2017-04-10T15:37:17Z</time>
      </trkpt>
      <trkpt lat="46.18533" lon="2.41216">
        <ele>324</ele>
        <time>2017-04-10T15:37:20Z</time>
      </trkpt>
      <trkpt lat="46.18536" lon="2.41222">
        <ele>324</ele>
        <time>2017-04-10T15:37:23Z</time>
      </trkpt>
      <trkpt lat="46.18538" lon="2.41227">
        <ele>324</ele>
        <time>2017-04-10T15:37:26Z</time>
      </trkpt>
      <trkpt lat="46.1854" lon="2.41233">
        <ele>324</ele>
        <time>2017-04-10T15:37:29Z</time>
      </trkpt>
      <trkpt lat="46.18545" lon="2.41239">
        <ele>324</ele>
        <time>2017-04-10T15:37:33Z</time>
      </trkpt>
      <trkpt lat="46.1855" lon="2.41244">
        <ele>324</ele>
        <time>2017-04-10T15:37:36Z</time>
      </trkpt>
      <trkpt lat="46.18552" lon="2.41249">
        <ele>324</ele>
        <time>2017-04-10T15:37:39Z</time>
      </trkpt>
      <trkpt lat="46.18554" lon="2.41253">
        <ele>324</ele>
        <time>2017-04-10T15:37:42Z</time>
      </trkpt>
      <trkpt lat="46.18557" lon="2.4126">
        <ele>325</ele>
        <time>2017-04-10T15:37:45Z</time>
      </trkpt>
      <trkpt lat="46.18559" lon="2.41265">
        <ele>325</ele>
        <time>2017-04-10T15:37:48Z</time>
      </trkpt>
      <trkpt lat="46.18561" lon="2.41271">
        <ele>325</ele>
        <time>2017-04-10T15:37:51Z</time>
      </trkpt>
      <trkpt lat="46.18563" lon="2.41277">
        <ele>325</ele>
        <time>2017-04-10T15:37:54Z</time>
      </trkpt>
      <trkpt lat="46.18567" lon="2.41282">
        <ele>325</ele>
        <time>2017-04-10T15:37:57Z</time>
      </trkpt>
      <trkpt lat="46.1857" lon="2.41287">
        <ele>325</ele>
        <time>2017-04-10T15:38:00Z</time>
      </trkpt>
      <trkpt lat="46.18573" lon="2.41294">
        <ele>325</ele>
        <time>2017-04-10T15:38:04Z</time>
      </trkpt>
      <trkpt lat="46.18575" lon="2.41299">
        <ele>325</ele>
        <time>2017-04-10T15:38:07Z</time>
      </trkpt>
      <trkpt lat="46.18576" lon="2.41305">
        <ele>325</ele>
        <time>2017-04-10T15:38:10Z</time>
      </trkpt>
      <trkpt lat="46.18579" lon="2.41311">
        <ele>325</ele>
        <time>2017-04-10T15:38:13Z</time>
      </trkpt>
      <trkpt lat="46.18582" lon="2.41316">
        <ele>325</ele>
        <time>2017-04-10T15:38:16Z</time>
      </trkpt>
      <trkpt lat="46.18586" lon="2.41322">
        <ele>325</ele>
        <time>2017-04-10T15:38:20Z</time>
      </trkpt>
      <trkpt lat="46.18588" lon="2.41329">
        <ele>325</ele>
        <time>2017-04-10T15:38:24Z</time>
      </trkpt>
      <trkpt lat="46.18591" lon="2.41335">
        <ele>326</ele>
        <time>2017-04-10T15:38:27Z</time>
      </trkpt>
      <trkpt lat="46.18592" lon="2.41339">
        <ele>327</ele>
        <time>2017-04-10T15:38:30Z</time>
      </trkpt>
      <trkpt lat="46.18595" lon="2.41344">
        <ele>327</ele>
        <time>2017-04-10T15:38:33Z</time>
      </trkpt>
      <trkpt lat="46.18596" lon="2.4135">
        <ele>327</ele>
        <time>2017-04-10T15:38:36Z</time>
      </trkpt>
      <trkpt lat="46.18598" lon="2.41355">
        <ele>328</ele>
        <time>2017-04-10T15:38:39Z</time>
      </trkpt>
      <trkpt lat="46.186" lon="2.4136">
        <ele>328</ele>
        <time>2017-04-10T15:38:42Z</time>
      </trkpt>
      <trkpt lat="46.18602" lon="2.41366">
        <ele>328</ele>
        <time>2017-04-10T15:38:45Z</time>
      </trkpt>
      <trkpt lat="46.18604" lon="2.41372">
        <ele>328</ele>
        <time>2017-04-10T15:38:48Z</time>
      </trkpt>
      <trkpt lat="46.18607" lon="2.41379">
        <ele>328</ele>
        <time>2017-04-10T15:38:51Z</time>
      </trkpt>
      <trkpt lat="46.18608" lon="2.41385">
        <ele>328</ele>
        <time>2017-04-10T15:38:54Z</time>
      </trkpt>
      <trkpt lat="46.1861" lon="2.41391">
        <ele>328</ele>
        <time>2017-04-10T15:38:57Z</time>
      </trkpt>
      <trkpt lat="46.18611" lon="2.41397">
        <ele>328</ele>
        <time>2017-04-10T15:39:00Z</time>
      </trkpt>
      <trkpt lat="46.18611" lon="2.41404">
        <ele>328</ele>
        <time>2017-04-10T15:39:03Z</time>
      </trkpt>
      <trkpt lat="46.18614" lon="2.41411">
        <ele>328</ele>
        <time>2017-04-10T15:39:06Z</time>
      </trkpt>
      <trkpt lat="46.18616" lon="2.41417">
        <ele>328</ele>
        <time>2017-04-10T15:39:09Z</time>
      </trkpt>
      <trkpt lat="46.18615" lon="2.41423">
        <ele>328</ele>
        <time>2017-04-10T15:39:12Z</time>
      </trkpt>
      <trkpt lat="46.18616" lon="2.41429">
        <ele>328</ele>
        <time>2017-04-10T15:39:15Z</time>
      </trkpt>
      <trkpt lat="46.18617" lon="2.41435">
        <ele>328</ele>
        <time>2017-04-10T15:39:18Z</time>
      </trkpt>
      <trkpt lat="46.18616" lon="2.41444">
        <ele>328</ele>
        <time>2017-04-10T15:39:21Z</time>
      </trkpt>
      <trkpt lat="46.18616" lon="2.41451">
        <ele>328</ele>
        <time>2017-04-10T15:39:24Z</time>
      </trkpt>
      <trkpt lat="46.18615" lon="2.41459">
        <ele>330</ele>
        <time>2017-04-10T15:39:27Z</time>
      </trkpt>
      <trkpt lat="46.18611" lon="2.41464">
        <ele>330</ele>
        <time>2017-04-10T15:39:30Z</time>
      </trkpt>
      <trkpt lat="46.1861" lon="2.41469">
        <ele>330</ele>
        <time>2017-04-10T15:39:33Z</time>
      </trkpt>
      <trkpt lat="46.18609" lon="2.41475">
        <ele>330</ele>
        <time>2017-04-10T15:39:36Z</time>
      </trkpt>
      <trkpt lat="46.18608" lon="2.41482">
        <ele>330</ele>
        <time>2017-04-10T15:39:39Z</time>
      </trkpt>
      <trkpt lat="46.18609" lon="2.41488">
        <ele>330</ele>
        <time>2017-04-10T15:39:42Z</time>
      </trkpt>
      <trkpt lat="46.18607" lon="2.41496">
        <ele>330</ele>
        <time>2017-04-10T15:39:45Z</time>
      </trkpt>
      <trkpt lat="46.18609" lon="2.41502">
        <ele>330</ele>
        <time>2017-04-10T15:39:48Z</time>
      </trkpt>
      <trkpt lat="46.1861" lon="2.41508">
        <ele>330</ele>
        <time>2017-04-10T15:39:51Z</time>
      </trkpt>
      <trkpt lat="46.18607" lon="2.41515">
        <ele>330</ele>
        <time>2017-04-10T15:39:55Z</time>
      </trkpt>
      <trkpt lat="46.18604" lon="2.41521">
        <ele>330</ele>
        <time>2017-04-10T15:39:58Z</time>
      </trkpt>
      <trkpt lat="46.18601" lon="2.41528">
        <ele>330</ele>
        <time>2017-04-10T15:40:01Z</time>
      </trkpt>
      <trkpt lat="46.18599" lon="2.41535">
        <ele>330</ele>
        <time>2017-04-10T15:40:04Z</time>
      </trkpt>
      <trkpt lat="46.18599" lon="2.41542">
        <ele>330</ele>
        <time>2017-04-10T15:40:07Z</time>
      </trkpt>
      <trkpt lat="46.18598" lon="2.41547">
        <ele>330</ele>
        <time>2017-04-10T15:40:10Z</time>
      </trkpt>
      <trkpt lat="46.18598" lon="2.41554">
        <ele>330</ele>
        <time>2017-04-10T15:40:13Z</time>
      </trkpt>
      <trkpt lat="46.18599" lon="2.4156">
        <ele>329</ele>
        <time>2017-04-10T15:40:16Z</time>
      </trkpt>
      <trkpt lat="46.18598" lon="2.41566">
        <ele>328</ele>
        <time>2017-04-10T15:40:19Z</time>
      </trkpt>
      <trkpt lat="46.186" lon="2.41572">
        <ele>328</ele>
        <time>2017-04-10T15:40:22Z</time>
      </trkpt>
      <trkpt lat="46.18602" lon="2.41578">
        <ele>328</ele>
        <time>2017-04-10T15:40:25Z</time>
      </trkpt>
      <trkpt lat="46.18601" lon="2.41583">
        <ele>327</ele>
        <time>2017-04-10T15:40:28Z</time>
      </trkpt>
      <trkpt lat="46.18601" lon="2.4159">
        <ele>327</ele>
        <time>2017-04-10T15:40:31Z</time>
      </trkpt>
      <trkpt lat="46.18601" lon="2.41596">
        <ele>327</ele>
        <time>2017-04-10T15:40:34Z</time>
      </trkpt>
      <trkpt lat="46.18599" lon="2.41603">
        <ele>327</ele>
        <time>2017-04-10T15:40:37Z</time>
      </trkpt>
      <trkpt lat="46.18599" lon="2.41608">
        <ele>325</ele>
        <time>2017-04-10T15:40:40Z</time>
      </trkpt>
      <trkpt lat="46.18602" lon="2.41614">
        <ele>323</ele>
        <time>2017-04-10T15:40:43Z</time>
      </trkpt>
      <trkpt lat="46.18606" lon="2.41622">
        <ele>322</ele>
        <time>2017-04-10T15:40:46Z</time>
      </trkpt>
      <trkpt lat="46.18604" lon="2.4163">
        <ele>322</ele>
        <time>2017-04-10T15:40:49Z</time>
      </trkpt>
      <trkpt lat="46.18603" lon="2.41638">
        <ele>322</ele>
        <time>2017-04-10T15:40:52Z</time>
      </trkpt>
      <trkpt lat="46.18603" lon="2.41646">
        <ele>322</ele>
        <time>2017-04-10T15:40:55Z</time>
      </trkpt>
      <trkpt lat="46.18605" lon="2.41652">
        <ele>322</ele>
        <time>2017-04-10T15:40:58Z</time>
      </trkpt>
      <trkpt lat="46.18604" lon="2.41658">
        <ele>322</ele>
        <time>2017-04-10T15:41:01Z</time>
      </trkpt>
      <trkpt lat="46.18607" lon="2.41663">
        <ele>324</ele>
        <time>2017-04-10T15:41:05Z</time>
      </trkpt>
      <trkpt lat="46.18608" lon="2.41669">
        <ele>325</ele>
        <time>2017-04-10T15:41:08Z</time>
      </trkpt>
      <trkpt lat="46.18608" lon="2.41676">
        <ele>326</ele>
        <time>2017-04-10T15:41:11Z</time>
      </trkpt>
      <trkpt lat="46.18607" lon="2.41682">
        <ele>326</ele>
        <time>2017-04-10T15:41:14Z</time>
      </trkpt>
      <trkpt lat="46.18605" lon="2.41689">
        <ele>326</ele>
        <time>2017-04-10T15:41:18Z</time>
      </trkpt>
      <trkpt lat="46.18605" lon="2.41698">
        <ele>326</ele>
        <time>2017-04-10T15:41:21Z</time>
      </trkpt>
      <trkpt lat="46.18607" lon="2.41704">
        <ele>326</ele>
        <time>2017-04-10T15:41:24Z</time>
      </trkpt>
      <trkpt lat="46.18607" lon="2.41712">
        <ele>326</ele>
        <time>2017-04-10T15:41:27Z</time>
      </trkpt>
      <trkpt lat="46.18607" lon="2.41718">
        <ele>326</ele>
        <time>2017-04-10T15:41:30Z</time>
      </trkpt>
      <trkpt lat="46.18609" lon="2.41725">
        <ele>326</ele>
        <time>2017-04-10T15:41:33Z</time>
      </trkpt>
      <trkpt lat="46.18609" lon="2.41733">
        <ele>326</ele>
        <time>2017-04-10T15:41:36Z</time>
      </trkpt>
      <trkpt lat="46.18608" lon="2.41741">
        <ele>326</ele>
        <time>2017-04-10T15:41:39Z</time>
      </trkpt>
      <trkpt lat="46.18608" lon="2.41747">
        <ele>326</ele>
        <time>2017-04-10T15:41:42Z</time>
      </trkpt>
      <trkpt lat="46.1861" lon="2.41753">
        <ele>326</ele>
        <time>2017-04-10T15:41:45Z</time>
      </trkpt>
      <trkpt lat="46.18611" lon="2.41758">
        <ele>326</ele>
        <time>2017-04-10T15:41:48Z</time>
      </trkpt>
      <trkpt lat="46.18612" lon="2.41764">
        <ele>326</ele>
        <time>2017-04-10T15:41:51Z</time>
      </trkpt>
      <trkpt lat="46.18614" lon="2.41769">
        <ele>326</ele>
        <time>2017-04-10T15:41:54Z</time>
      </trkpt>
      <trkpt lat="46.18614" lon="2.41775">
        <ele>326</ele>
        <time>2017-04-10T15:41:57Z</time>
      </trkpt>
      <trkpt lat="46.18614" lon="2.41781">
        <ele>327</ele>
        <time>2017-04-10T15:42:00Z</time>
      </trkpt>
      <trkpt lat="46.18612" lon="2.41787">
        <ele>327</ele>
        <time>2017-04-10T15:42:03Z</time>
      </trkpt>
      <trkpt lat="46.18613" lon="2.41793">
        <ele>327</ele>
        <time>2017-04-10T15:42:06Z</time>
      </trkpt>
      <trkpt lat="46.18613" lon="2.418">
        <ele>327</ele>
        <time>2017-04-10T15:42:09Z</time>
      </trkpt>
      <trkpt lat="46.18613" lon="2.41807">
        <ele>327</ele>
        <time>2017-04-10T15:42:12Z</time>
      </trkpt>
      <trkpt lat="46.18611" lon="2.41813">
        <ele>327</ele>
        <time>2017-04-10T15:42:15Z</time>
      </trkpt>
      <trkpt lat="46.1861" lon="2.4182">
        <ele>327</ele>
        <time>2017-04-10T15:42:18Z</time>
      </trkpt>
      <trkpt lat="46.18611" lon="2.41826">
        <ele>327</ele>
        <time>2017-04-10T15:42:21Z</time>
      </trkpt>
      <trkpt lat="46.18611" lon="2.41832">
        <ele>327</ele>
        <time>2017-04-10T15:42:24Z</time>
      </trkpt>
      <trkpt lat="46.18613" lon="2.41838">
        <ele>327</ele>
        <time>2017-04-10T15:42:27Z</time>
      </trkpt>
      <trkpt lat="46.18614" lon="2.41844">
        <ele>327</ele>
        <time>2017-04-10T15:42:30Z</time>
      </trkpt>
      <trkpt lat="46.18615" lon="2.41851">
        <ele>327</ele>
        <time>2017-04-10T15:42:33Z</time>
      </trkpt>
      <trkpt lat="46.18615" lon="2.41857">
        <ele>327</ele>
        <time>2017-04-10T15:42:36Z</time>
      </trkpt>
      <trkpt lat="46.18614" lon="2.41863">
        <ele>327</ele>
        <time>2017-04-10T15:42:39Z</time>
      </trkpt>
      <trkpt lat="46.18614" lon="2.41869">
        <ele>327</ele>
        <time>2017-04-10T15:42:42Z</time>
      </trkpt>
      <trkpt lat="46.18613" lon="2.41875">
        <ele>327</ele>
        <time>2017-04-10T15:42:45Z</time>
      </trkpt>
      <trkpt lat="46.18611" lon="2.41881">
        <ele>327</ele>
        <time>2017-04-10T15:42:48Z</time>
      </trkpt>
      <trkpt lat="46.18609" lon="2.41886">
        <ele>327</ele>
        <time>2017-04-10T15:42:51Z</time>
      </trkpt>
      <trkpt lat="46.18606" lon="2.41892">
        <ele>327</ele>
        <time>2017-04-10T15:42:54Z</time>
      </trkpt>
      <trkpt lat="46.18605" lon="2.419">
        <ele>327</ele>
        <time>2017-04-10T15:42:58Z</time>
      </trkpt>
      <trkpt lat="46.18602" lon="2.41905">
        <ele>327</ele>
        <time>2017-04-10T15:43:01Z</time>
      </trkpt>
      <trkpt lat="46.186" lon="2.41911">
        <ele>327</ele>
        <time>2017-04-10T15:43:04Z</time>
      </trkpt>
      <trkpt lat="46.18596" lon="2.41917">
        <ele>327</ele>
        <time>2017-04-10T15:43:07Z</time>
      </trkpt>
      <trkpt lat="46.18594" lon="2.41924">
        <ele>327</ele>
        <time>2017-04-10T15:43:10Z</time>
      </trkpt>
      <trkpt lat="46.18592" lon="2.4193">
        <ele>327</ele>
        <time>2017-04-10T15:43:13Z</time>
      </trkpt>
      <trkpt lat="46.18591" lon="2.41934">
        <ele>327</ele>
        <time>2017-04-10T15:43:16Z</time>
      </trkpt>
      <trkpt lat="46.18589" lon="2.4194">
        <ele>327</ele>
        <time>2017-04-10T15:43:19Z</time>
      </trkpt>
      <trkpt lat="46.18586" lon="2.41948">
        <ele>327</ele>
        <time>2017-04-10T15:43:22Z</time>
      </trkpt>
      <trkpt lat="46.18585" lon="2.41956">
        <ele>327</ele>
        <time>2017-04-10T15:43:25Z</time>
      </trkpt>
      <trkpt lat="46.18583" lon="2.41961">
        <ele>327</ele>
        <time>2017-04-10T15:43:28Z</time>
      </trkpt>
      <trkpt lat="46.1858" lon="2.41967">
        <ele>327</ele>
        <time>2017-04-10T15:43:31Z</time>
      </trkpt>
      <trkpt lat="46.18579" lon="2.41972">
        <ele>327</ele>
        <time>2017-04-10T15:43:34Z</time>
      </trkpt>
      <trkpt lat="46.18578" lon="2.41977">
        <ele>327</ele>
        <time>2017-04-10T15:43:37Z</time>
      </trkpt>
      <trkpt lat="46.18576" lon="2.41983">
        <ele>327</ele>
        <time>2017-04-10T15:43:40Z</time>
      </trkpt>
      <trkpt lat="46.18575" lon="2.4199">
        <ele>327</ele>
        <time>2017-04-10T15:43:43Z</time>
      </trkpt>
      <trkpt lat="46.18575" lon="2.41997">
        <ele>327</ele>
        <time>2017-04-10T15:43:46Z</time>
      </trkpt>
      <trkpt lat="46.18575" lon="2.42003">
        <ele>327</ele>
        <time>2017-04-10T15:43:49Z</time>
      </trkpt>
      <trkpt lat="46.18573" lon="2.42012">
        <ele>327</ele>
        <time>2017-04-10T15:43:53Z</time>
      </trkpt>
      <trkpt lat="46.18571" lon="2.42018">
        <ele>327</ele>
        <time>2017-04-10T15:43:56Z</time>
      </trkpt>
      <trkpt lat="46.18571" lon="2.42024">
        <ele>326</ele>
        <time>2017-04-10T15:43:59Z</time>
      </trkpt>
      <trkpt lat="46.18572" lon="2.4203">
        <ele>326</ele>
        <time>2017-04-10T15:44:02Z</time>
      </trkpt>
      <trkpt lat="46.18573" lon="2.42037">
        <ele>326</ele>
        <time>2017-04-10T15:44:05Z</time>
      </trkpt>
      <trkpt lat="46.18573" lon="2.42045">
        <ele>326</ele>
        <time>2017-04-10T15:44:09Z</time>
      </trkpt>
      <trkpt lat="46.18571" lon="2.42054">
        <ele>326</ele>
        <time>2017-04-10T15:44:13Z</time>
      </trkpt>
      <trkpt lat="46.18571" lon="2.42063">
        <ele>326</ele>
        <time>2017-04-10T15:44:17Z</time>
      </trkpt>
      <trkpt lat="46.1857" lon="2.42069">
        <ele>326</ele>
        <time>2017-04-10T15:44:20Z</time>
      </trkpt>
      <trkpt lat="46.18569" lon="2.42077">
        <ele>326</ele>
        <time>2017-04-10T15:44:24Z</time>
      </trkpt>
      <trkpt lat="46.18568" lon="2.42084">
        <ele>326</ele>
        <time>2017-04-10T15:44:27Z</time>
      </trkpt>
      <trkpt lat="46.18568" lon="2.42091">
        <ele>326</ele>
        <time>2017-04-10T15:44:30Z</time>
      </trkpt>
      <trkpt lat="46.18567" lon="2.42096">
        <ele>326</ele>
        <time>2017-04-10T15:44:33Z</time>
      </trkpt>
      <trkpt lat="46.18567" lon="2.42103">
        <ele>326</ele>
        <time>2017-04-10T15:44:36Z</time>
      </trkpt>
      <trkpt lat="46.18565" lon="2.42109">
        <ele>326</ele>
        <time>2017-04-10T15:44:39Z</time>
      </trkpt>
      <trkpt lat="46.18566" lon="2.42115">
        <ele>326</ele>
        <time>2017-04-10T15:44:42Z</time>
      </trkpt>
      <trkpt lat="46.18565" lon="2.42125">
        <ele>326</ele>
        <time>2017-04-10T15:44:46Z</time>
      </trkpt>
      <trkpt lat="46.18565" lon="2.42131">
        <ele>326</ele>
        <time>2017-04-10T15:44:49Z</time>
      </trkpt>
      <trkpt lat="46.18563" lon="2.42138">
        <ele>326</ele>
        <time>2017-04-10T15:44:52Z</time>
      </trkpt>
      <trkpt lat="46.18562" lon="2.42145">
        <ele>326</ele>
        <time>2017-04-10T15:44:55Z</time>
      </trkpt>
      <trkpt lat="46.18559" lon="2.42152">
        <ele>326</ele>
        <time>2017-04-10T15:44:59Z</time>
      </trkpt>
      <trkpt lat="46.18559" lon="2.42159">
        <ele>326</ele>
        <time>2017-04-10T15:45:02Z</time>
      </trkpt>
      <trkpt lat="46.18559" lon="2.42165">
        <ele>326</ele>
        <time>2017-04-10T15:45:05Z</time>
      </trkpt>
      <trkpt lat="46.18558" lon="2.42171">
        <ele>326</ele>
        <time>2017-04-10T15:45:08Z</time>
      </trkpt>
      <trkpt lat="46.18558" lon="2.42177">
        <ele>326</ele>
        <time>2017-04-10T15:45:11Z</time>
      </trkpt>
      <trkpt lat="46.18557" lon="2.42184">
        <ele>327</ele>
        <time>2017-04-10T15:45:14Z</time>
      </trkpt>
      <trkpt lat="46.18556" lon="2.4219">
        <ele>327</ele>
        <time>2017-04-10T15:45:17Z</time>
      </trkpt>
      <trkpt lat="46.18555" lon="2.42197">
        <ele>327</ele>
        <time>2017-04-10T15:45:20Z</time>
      </trkpt>
      <trkpt lat="46.18553" lon="2.42205">
        <ele>327</ele>
        <time>2017-04-10T15:45:23Z</time>
      </trkpt>
      <trkpt lat="46.1855" lon="2.42212">
        <ele>327</ele>
        <time>2017-04-10T15:45:26Z</time>
      </trkpt>
      <trkpt lat="46.18551" lon="2.42219">
        <ele>327</ele>
        <time>2017-04-10T15:45:30Z</time>
      </trkpt>
      <trkpt lat="46.18552" lon="2.42225">
        <ele>327</ele>
        <time>2017-04-10T15:45:33Z</time>
      </trkpt>
      <trkpt lat="46.18554" lon="2.42234">
        <ele>328</ele>
        <time>2017-04-10T15:45:37Z</time>
      </trkpt>
      <trkpt lat="46.18555" lon="2.42241">
        <ele>329</ele>
        <time>2017-04-10T15:45:40Z</time>
      </trkpt>
      <trkpt lat="46.18554" lon="2.42247">
        <ele>329</ele>
        <time>2017-04-10T15:45:43Z</time>
      </trkpt>
      <trkpt lat="46.18555" lon="2.42253">
        <ele>329</ele>
        <time>2017-04-10T15:45:46Z</time>
      </trkpt>
      <trkpt lat="46.18555" lon="2.42259">
        <ele>329</ele>
        <time>2017-04-10T15:45:49Z</time>
      </trkpt>
      <trkpt lat="46.18556" lon="2.42268">
        <ele>329</ele>
        <time>2017-04-10T15:45:53Z</time>
      </trkpt>
      <trkpt lat="46.18557" lon="2.42278">
        <ele>329</ele>
        <time>2017-04-10T15:45:57Z</time>
      </trkpt>
      <trkpt lat="46.18557" lon="2.42284">
        <ele>329</ele>
        <time>2017-04-10T15:46:00Z</time>
      </trkpt>
      <trkpt lat="46.18556" lon="2.42289">
        <ele>329</ele>
        <time>2017-04-10T15:46:03Z</time>
      </trkpt>
      <trkpt lat="46.18555" lon="2.42295">
        <ele>329</ele>
        <time>2017-04-10T15:46:06Z</time>
      </trkpt>
      <trkpt lat="46.18556" lon="2.42301">
        <ele>329</ele>
        <time>2017-04-10T15:46:09Z</time>
      </trkpt>
      <trkpt lat="46.18556" lon="2.42307">
        <ele>329</ele>
        <time>2017-04-10T15:46:12Z</time>
      </trkpt>
      <trkpt lat="46.18557" lon="2.42312">
        <ele>329</ele>
        <time>2017-04-10T15:46:15Z</time>
      </trkpt>
      <trkpt lat="46.18556" lon="2.42317">
        <ele>329</ele>
        <time>2017-04-10T15:46:18Z</time>
      </trkpt>
      <trkpt lat="46.18555" lon="2.42325">
        <ele>329</ele>
        <time>2017-04-10T15:46:21Z</time>
      </trkpt>
      <trkpt lat="46.18553" lon="2.42333">
        <ele>329</ele>
        <time>2017-04-10T15:46:24Z</time>
      </trkpt>
      <trkpt lat="46.18552" lon="2.4234">
        <ele>329</ele>
        <time>2017-04-10T15:46:28Z</time>
      </trkpt>
      <trkpt lat="46.18552" lon="2.42348">
        <ele>329</ele>
        <time>2017-04-10T15:46:31Z</time>
      </trkpt>
      <trkpt lat="46.18552" lon="2.42354">
        <ele>329</ele>
        <time>2017-04-10T15:46:34Z</time>
      </trkpt>
      <trkpt lat="46.18552" lon="2.42362">
        <ele>329</ele>
        <time>2017-04-10T15:46:38Z</time>
      </trkpt>
      <trkpt lat="46.18553" lon="2.42368">
        <ele>329</ele>
        <time>2017-04-10T15:46:41Z</time>
      </trkpt>
      <trkpt lat="46.18555" lon="2.42376">
        <ele>329</ele>
        <time>2017-04-10T15:46:45Z</time>
      </trkpt>
      <trkpt lat="46.18555" lon="2.42382">
        <ele>329</ele>
        <time>2017-04-10T15:46:48Z</time>
      </trkpt>
      <trkpt lat="46.18555" lon="2.42388">
        <ele>329</ele>
        <time>2017-04-10T15:46:51Z</time>
      </trkpt>
      <trkpt lat="46.18555" lon="2.42394">
        <ele>329</ele>
        <time>2017-04-10T15:46:54Z</time>
      </trkpt>
      <trkpt lat="46.18554" lon="2.42402">
        <ele>329</ele>
        <time>2017-04-10T15:46:58Z</time>
      </trkpt>
      <trkpt lat="46.18552" lon="2.42408">
        <ele>329</ele>
        <time>2017-04-10T15:47:01Z</time>
      </trkpt>
      <trkpt lat="46.18552" lon="2.42418">
        <ele>329</ele>
        <time>2017-04-10T15:47:05Z</time>
      </trkpt>
      <trkpt lat="46.18552" lon="2.42424">
        <ele>329</ele>
        <time>2017-04-10T15:47:08Z</time>
      </trkpt>
      <trkpt lat="46.18552" lon="2.4243">
        <ele>329</ele>
        <time>2017-04-10T15:47:11Z</time>
      </trkpt>
      <trkpt lat="46.18551" lon="2.42439">
        <ele>329</ele>
        <time>2017-04-10T15:47:15Z</time>
      </trkpt>
      <trkpt lat="46.18551" lon="2.42445">
        <ele>329</ele>
        <time>2017-04-10T15:47:18Z</time>
      </trkpt>
      <trkpt lat="46.18552" lon="2.42451">
        <ele>329</ele>
        <time>2017-04-10T15:47:21Z</time>
      </trkpt>
      <trkpt lat="46.18551" lon="2.42461">
        <ele>329</ele>
        <time>2017-04-10T15:47:25Z</time>
      </trkpt>
      <trkpt lat="46.18551" lon="2.42468">
        <ele>329</ele>
        <time>2017-04-10T15:47:28Z</time>
      </trkpt>
      <trkpt lat="46.18551" lon="2.42473">
        <ele>329</ele>
        <time>2017-04-10T15:47:31Z</time>
      </trkpt>
      <trkpt lat="46.18551" lon="2.42479">
        <ele>329</ele>
        <time>2017-04-10T15:47:34Z</time>
      </trkpt>
      <trkpt lat="46.18549" lon="2.42485">
        <ele>329</ele>
        <time>2017-04-10T15:47:37Z</time>
      </trkpt>
      <trkpt lat="46.18547" lon="2.42494">
        <ele>329</ele>
        <time>2017-04-10T15:47:41Z</time>
      </trkpt>
      <trkpt lat="46.18548" lon="2.42501">
        <ele>329</ele>
        <time>2017-04-10T15:47:44Z</time>
      </trkpt>
      <trkpt lat="46.18547" lon="2.42506">
        <ele>329</ele>
        <time>2017-04-10T15:47:47Z</time>
      </trkpt>
      <trkpt lat="46.18549" lon="2.42514">
        <ele>329</ele>
        <time>2017-04-10T15:47:51Z</time>
      </trkpt>
      <trkpt lat="46.18549" lon="2.4252">
        <ele>329</ele>
        <time>2017-04-10T15:47:54Z</time>
      </trkpt>
      <trkpt lat="46.1855" lon="2.42527">
        <ele>329</ele>
        <time>2017-04-10T15:47:57Z</time>
      </trkpt>
      <trkpt lat="46.18549" lon="2.42535">
        <ele>329</ele>
        <time>2017-04-10T15:48:01Z</time>
      </trkpt>
      <trkpt lat="46.18549" lon="2.42541">
        <ele>329</ele>
        <time>2017-04-10T15:48:04Z</time>
      </trkpt>
      <trkpt lat="46.18547" lon="2.42547">
        <ele>328</ele>
        <time>2017-04-10T15:48:07Z</time>
      </trkpt>
      <trkpt lat="46.18547" lon="2.42555">
        <ele>326</ele>
        <time>2017-04-10T15:48:11Z</time>
      </trkpt>
      <trkpt lat="46.18546" lon="2.42561">
        <ele>326</ele>
        <time>2017-04-10T15:48:14Z</time>
      </trkpt>
      <trkpt lat="46.18548" lon="2.42568">
        <ele>326</ele>
        <time>2017-04-10T15:48:17Z</time>
      </trkpt>
      <trkpt lat="46.18548" lon="2.42578">
        <ele>326</ele>
        <time>2017-04-10T15:48:21Z</time>
      </trkpt>
      <trkpt lat="46.18549" lon="2.42584">
        <ele>326</ele>
        <time>2017-04-10T15:48:24Z</time>
      </trkpt>
      <trkpt lat="46.1855" lon="2.4259">
        <ele>326</ele>
        <time>2017-04-10T15:48:27Z</time>
      </trkpt>
      <trkpt lat="46.18552" lon="2.42599">
        <ele>326</ele>
        <time>2017-04-10T15:48:31Z</time>
      </trkpt>
      <trkpt lat="46.18555" lon="2.42605">
        <ele>326</ele>
        <time>2017-04-10T15:48:34Z</time>
      </trkpt>
      <trkpt lat="46.18555" lon="2.42611">
        <ele>326</ele>
        <time>2017-04-10T15:48:37Z</time>
      </trkpt>
      <trkpt lat="46.18559" lon="2.42619">
        <ele>326</ele>
        <time>2017-04-10T15:48:41Z</time>
      </trkpt>
      <trkpt lat="46.18562" lon="2.42628">
        <ele>326</ele>
        <time>2017-04-10T15:48:46Z</time>
      </trkpt>
      <trkpt lat="46.18566" lon="2.42633">
        <ele>326</ele>
        <time>2017-04-10T15:48:49Z</time>
      </trkpt>
      <trkpt lat="46.18567" lon="2.42637">
        <ele>326</ele>
        <time>2017-04-10T15:48:52Z</time>
      </trkpt>
      <trkpt lat="46.18571" lon="2.42642">
        <ele>326</ele>
        <time>2017-04-10T15:48:55Z</time>
      </trkpt>
      <trkpt lat="46.18573" lon="2.42646">
        <ele>326</ele>
        <time>2017-04-10T15:48:58Z</time>
      </trkpt>
      <trkpt lat="46.18579" lon="2.42653">
        <ele>326</ele>
        <time>2017-04-10T15:49:03Z</time>
      </trkpt>
      <trkpt lat="46.18584" lon="2.42658">
        <ele>326</ele>
        <time>2017-04-10T15:49:07Z</time>
      </trkpt>
      <trkpt lat="46.18588" lon="2.42661">
        <ele>326</ele>
        <time>2017-04-10T15:49:10Z</time>
      </trkpt>
      <trkpt lat="46.18593" lon="2.42665">
        <ele>326</ele>
        <time>2017-04-10T15:49:14Z</time>
      </trkpt>
      <trkpt lat="46.18598" lon="2.42669">
        <ele>326</ele>
        <time>2017-04-10T15:49:18Z</time>
      </trkpt>
      <trkpt lat="46.18603" lon="2.42672">
        <ele>325</ele>
        <time>2017-04-10T15:49:21Z</time>
      </trkpt>
      <trkpt lat="46.18608" lon="2.42676">
        <ele>324</ele>
        <time>2017-04-10T15:49:25Z</time>
      </trkpt>
      <trkpt lat="46.18613" lon="2.4268">
        <ele>324</ele>
        <time>2017-04-10T15:49:29Z</time>
      </trkpt>
      <trkpt lat="46.18616" lon="2.42683">
        <ele>324</ele>
        <time>2017-04-10T15:49:32Z</time>
      </trkpt>
      <trkpt lat="46.1862" lon="2.42687">
        <ele>323</ele>
        <time>2017-04-10T15:49:35Z</time>
      </trkpt>
      <trkpt lat="46.18624" lon="2.42692">
        <ele>323</ele>
        <time>2017-04-10T15:49:39Z</time>
      </trkpt>
      <trkpt lat="46.18628" lon="2.42696">
        <ele>323</ele>
        <time>2017-04-10T15:49:42Z</time>
      </trkpt>
      <trkpt lat="46.18632" lon="2.42702">
        <ele>323</ele>
        <time>2017-04-10T15:49:46Z</time>
      </trkpt>
      <trkpt lat="46.18636" lon="2.42708">
        <ele>323</ele>
        <time>2017-04-10T15:49:50Z</time>
      </trkpt>
      <trkpt lat="46.18639" lon="2.42714">
        <ele>323</ele>
        <time>2017-04-10T15:49:53Z</time>
      </trkpt>
      <trkpt lat="46.18643" lon="2.42719">
        <ele>323</ele>
        <time>2017-04-10T15:49:56Z</time>
      </trkpt>
      <trkpt lat="46.18646" lon="2.42725">
        <ele>323</ele>
        <time>2017-04-10T15:50:00Z</time>
      </trkpt>
      <trkpt lat="46.18649" lon="2.4273">
        <ele>323</ele>
        <time>2017-04-10T15:50:03Z</time>
      </trkpt>
      <trkpt lat="46.18651" lon="2.42736">
        <ele>323</ele>
        <time>2017-04-10T15:50:06Z</time>
      </trkpt>
      <trkpt lat="46.18653" lon="2.42743">
        <ele>323</ele>
        <time>2017-04-10T15:50:10Z</time>
      </trkpt>
      <trkpt lat="46.18657" lon="2.42748">
        <ele>323</ele>
        <time>2017-04-10T15:50:13Z</time>
      </trkpt>
      <trkpt lat="46.1866" lon="2.42753">
        <ele>323</ele>
        <time>2017-04-10T15:50:16Z</time>
      </trkpt>
      <trkpt lat="46.18663" lon="2.4276">
        <ele>323</ele>
        <time>2017-04-10T15:50:20Z</time>
      </trkpt>
      <trkpt lat="46.18665" lon="2.42765">
        <ele>323</ele>
        <time>2017-04-10T15:50:23Z</time>
      </trkpt>
      <trkpt lat="46.18668" lon="2.42772">
        <ele>323</ele>
        <time>2017-04-10T15:50:27Z</time>
      </trkpt>
      <trkpt lat="46.18671" lon="2.42778">
        <ele>323</ele>
        <time>2017-04-10T15:50:31Z</time>
      </trkpt>
      <trkpt lat="46.18672" lon="2.42784">
        <ele>323</ele>
        <time>2017-04-10T15:50:34Z</time>
      </trkpt>
      <trkpt lat="46.18674" lon="2.4279">
        <ele>323</ele>
        <time>2017-04-10T15:50:37Z</time>
      </trkpt>
      <trkpt lat="46.18678" lon="2.42796">
        <ele>323</ele>
        <time>2017-04-10T15:50:41Z</time>
      </trkpt>
      <trkpt lat="46.1868" lon="2.42802">
        <ele>323</ele>
        <time>2017-04-10T15:50:45Z</time>
      </trkpt>
      <trkpt lat="46.18682" lon="2.42807">
        <ele>323</ele>
        <time>2017-04-10T15:50:48Z</time>
      </trkpt>
      <trkpt lat="46.18685" lon="2.42811">
        <ele>323</ele>
        <time>2017-04-10T15:50:51Z</time>
      </trkpt>
      <trkpt lat="46.18688" lon="2.42816">
        <ele>321</ele>
        <time>2017-04-10T15:50:54Z</time>
      </trkpt>
      <trkpt lat="46.18691" lon="2.42823">
        <ele>320</ele>
        <time>2017-04-10T15:50:58Z</time>
      </trkpt>
      <trkpt lat="46.18694" lon="2.42831">
        <ele>318</ele>
        <time>2017-04-10T15:51:03Z</time>
      </trkpt>
      <trkpt lat="46.187" lon="2.42836">
        <ele>317</ele>
        <time>2017-04-10T15:51:07Z</time>
      </trkpt>
      <trkpt lat="46.18705" lon="2.42842">
        <ele>316</ele>
        <time>2017-04-10T15:51:10Z</time>
      </trkpt>
      <trkpt lat="46.18707" lon="2.42848">
        <ele>316</ele>
        <time>2017-04-10T15:51:13Z</time>
      </trkpt>
      <trkpt lat="46.18708" lon="2.42853">
        <ele>316</ele>
        <time>2017-04-10T15:51:16Z</time>
      </trkpt>
      <trkpt lat="46.18711" lon="2.42859">
        <ele>316</ele>
        <time>2017-04-10T15:51:19Z</time>
      </trkpt>
      <trkpt lat="46.18713" lon="2.42865">
        <ele>316</ele>
        <time>2017-04-10T15:51:22Z</time>
      </trkpt>
      <trkpt lat="46.18718" lon="2.42871">
        <ele>318</ele>
        <time>2017-04-10T15:51:25Z</time>
      </trkpt>
      <trkpt lat="46.18723" lon="2.42873">
        <ele>320</ele>
        <time>2017-04-10T15:51:28Z</time>
      </trkpt>
      <trkpt lat="46.18727" lon="2.42872">
        <ele>321</ele>
        <time>2017-04-10T15:51:32Z</time>
      </trkpt>
      <trkpt lat="46.18731" lon="2.42868">
        <ele>322</ele>
        <time>2017-04-10T15:51:36Z</time>
      </trkpt>
      <trkpt lat="46.18735" lon="2.42866">
        <ele>323</ele>
        <time>2017-04-10T15:51:39Z</time>
      </trkpt>
      <trkpt lat="46.18738" lon="2.42863">
        <ele>323</ele>
        <time>2017-04-10T15:51:42Z</time>
      </trkpt>
      <trkpt lat="46.18742" lon="2.4286">
        <ele>323</ele>
        <time>2017-04-10T15:51:45Z</time>
      </trkpt>
      <trkpt lat="46.18747" lon="2.42858">
        <ele>323</ele>
        <time>2017-04-10T15:51:48Z</time>
      </trkpt>
      <trkpt lat="46.18751" lon="2.42854">
        <ele>323</ele>
        <time>2017-04-10T15:51:51Z</time>
      </trkpt>
      <trkpt lat="46.18755" lon="2.4285">
        <ele>323</ele>
        <time>2017-04-10T15:51:54Z</time>
      </trkpt>
      <trkpt lat="46.1876" lon="2.42846">
        <ele>323</ele>
        <time>2017-04-10T15:51:58Z</time>
      </trkpt>
      <trkpt lat="46.18764" lon="2.42842">
        <ele>323</ele>
        <time>2017-04-10T15:52:01Z</time>
      </trkpt>
      <trkpt lat="46.18767" lon="2.42837">
        <ele>323</ele>
        <time>2017-04-10T15:52:04Z</time>
      </trkpt>
      <trkpt lat="46.1877" lon="2.42833">
        <ele>324</ele>
        <time>2017-04-10T15:52:07Z</time>
      </trkpt>
      <trkpt lat="46.18774" lon="2.4283">
        <ele>324</ele>
        <time>2017-04-10T15:52:10Z</time>
      </trkpt>
      <trkpt lat="46.18777" lon="2.42828">
        <ele>324</ele>
        <time>2017-04-10T15:52:13Z</time>
      </trkpt>
      <trkpt lat="46.18782" lon="2.42822">
        <ele>325</ele>
        <time>2017-04-10T15:52:16Z</time>
      </trkpt>
      <trkpt lat="46.18785" lon="2.42817">
        <ele>327</ele>
        <time>2017-04-10T15:52:19Z</time>
      </trkpt>
      <trkpt lat="46.18789" lon="2.42812">
        <ele>327</ele>
        <time>2017-04-10T15:52:22Z</time>
      </trkpt>
      <trkpt lat="46.18792" lon="2.42806">
        <ele>327</ele>
        <time>2017-04-10T15:52:25Z</time>
      </trkpt>
      <trkpt lat="46.18795" lon="2.42801">
        <ele>327</ele>
        <time>2017-04-10T15:52:28Z</time>
      </trkpt>
      <trkpt lat="46.18799" lon="2.42796">
        <ele>327</ele>
        <time>2017-04-10T15:52:32Z</time>
      </trkpt>
      <trkpt lat="46.18802" lon="2.42792">
        <ele>327</ele>
        <time>2017-04-10T15:52:35Z</time>
      </trkpt>
      <trkpt lat="46.18805" lon="2.42786">
        <ele>327</ele>
        <time>2017-04-10T15:52:39Z</time>
      </trkpt>
      <trkpt lat="46.18807" lon="2.42781">
        <ele>327</ele>
        <time>2017-04-10T15:52:42Z</time>
      </trkpt>
      <trkpt lat="46.1881" lon="2.42775">
        <ele>327</ele>
        <time>2017-04-10T15:52:45Z</time>
      </trkpt>
      <trkpt lat="46.1881" lon="2.42764">
        <ele>325</ele>
        <time>2017-04-10T15:52:49Z</time>
      </trkpt>
      <trkpt lat="46.1881" lon="2.42757">
        <ele>323</ele>
        <time>2017-04-10T15:52:52Z</time>
      </trkpt>
      <trkpt lat="46.1881" lon="2.4275">
        <ele>323</ele>
        <time>2017-04-10T15:52:55Z</time>
      </trkpt>
      <trkpt lat="46.1881" lon="2.42742">
        <ele>323</ele>
        <time>2017-04-10T15:52:59Z</time>
      </trkpt>
      <trkpt lat="46.1881" lon="2.42736">
        <ele>323</ele>
        <time>2017-04-10T15:53:02Z</time>
      </trkpt>
      <trkpt lat="46.18812" lon="2.42728">
        <ele>323</ele>
        <time>2017-04-10T15:53:05Z</time>
      </trkpt>
      <trkpt lat="46.18814" lon="2.42718">
        <ele>323</ele>
        <time>2017-04-10T15:53:09Z</time>
      </trkpt>
      <trkpt lat="46.18816" lon="2.42712">
        <ele>323</ele>
        <time>2017-04-10T15:53:12Z</time>
      </trkpt>
      <trkpt lat="46.18818" lon="2.42706">
        <ele>323</ele>
        <time>2017-04-10T15:53:15Z</time>
      </trkpt>
      <trkpt lat="46.18821" lon="2.42699">
        <ele>323</ele>
        <time>2017-04-10T15:53:19Z</time>
      </trkpt>
      <trkpt lat="46.18822" lon="2.42693">
        <ele>323</ele>
        <time>2017-04-10T15:53:22Z</time>
      </trkpt>
      <trkpt lat="46.18825" lon="2.42688">
        <ele>323</ele>
        <time>2017-04-10T15:53:25Z</time>
      </trkpt>
      <trkpt lat="46.18827" lon="2.42685">
        <ele>323</ele>
        <time>2017-04-10T15:53:28Z</time>
      </trkpt>
      <trkpt lat="46.18829" lon="2.4268">
        <ele>323</ele>
        <time>2017-04-10T15:53:31Z</time>
      </trkpt>
      <trkpt lat="46.18832" lon="2.42676">
        <ele>323</ele>
        <time>2017-04-10T15:53:34Z</time>
      </trkpt>
      <trkpt lat="46.18834" lon="2.4267">
        <ele>323</ele>
        <time>2017-04-10T15:53:37Z</time>
      </trkpt>
      <trkpt lat="46.18836" lon="2.42664">
        <ele>323</ele>
        <time>2017-04-10T15:53:40Z</time>
      </trkpt>
      <trkpt lat="46.18837" lon="2.42656">
        <ele>323</ele>
        <time>2017-04-10T15:53:44Z</time>
      </trkpt>
      <trkpt lat="46.18836" lon="2.42649">
        <ele>323</ele>
        <time>2017-04-10T15:53:47Z</time>
      </trkpt>
      <trkpt lat="46.18835" lon="2.42641">
        <ele>324</ele>
        <time>2017-04-10T15:53:50Z</time>
      </trkpt>
      <trkpt lat="46.18835" lon="2.42635">
        <ele>326</ele>
        <time>2017-04-10T15:53:53Z</time>
      </trkpt>
      <trkpt lat="46.18836" lon="2.42627">
        <ele>327</ele>
        <time>2017-04-10T15:53:56Z</time>
      </trkpt>
      <trkpt lat="46.18835" lon="2.42619">
        <ele>328</ele>
        <time>2017-04-10T15:53:59Z</time>
      </trkpt>
      <trkpt lat="46.18835" lon="2.42615">
        <ele>329</ele>
        <time>2017-04-10T15:54:02Z</time>
      </trkpt>
      <trkpt lat="46.18833" lon="2.42613">
        <ele>330</ele>
        <time>2017-04-10T15:54:06Z</time>
      </trkpt>
      <trkpt lat="46.18829" lon="2.4261">
        <ele>333</ele>
        <time>2017-04-10T15:54:11Z</time>
      </trkpt>
      <trkpt lat="46.18831" lon="2.42609">
        <ele>334</ele>
        <time>2017-04-10T15:54:17Z</time>
      </trkpt>
      <trkpt lat="46.18832" lon="2.42606">
        <ele>334</ele>
        <time>2017-04-10T15:54:20Z</time>
      </trkpt>
      <trkpt lat="46.18834" lon="2.42601">
        <ele>334</ele>
        <time>2017-04-10T15:54:23Z</time>
      </trkpt>
      <trkpt lat="46.18835" lon="2.42595">
        <ele>331</ele>
        <time>2017-04-10T15:54:27Z</time>
      </trkpt>
      <trkpt lat="46.18837" lon="2.42591">
        <ele>330</ele>
        <time>2017-04-10T15:54:30Z</time>
      </trkpt>
      <trkpt lat="46.18837" lon="2.42584">
        <ele>330</ele>
        <time>2017-04-10T15:54:33Z</time>
      </trkpt>
      <trkpt lat="46.18837" lon="2.42578">
        <ele>329</ele>
        <time>2017-04-10T15:54:36Z</time>
      </trkpt>
      <trkpt lat="46.18838" lon="2.42573">
        <ele>327</ele>
        <time>2017-04-10T15:54:39Z</time>
      </trkpt>
      <trkpt lat="46.1884" lon="2.42567">
        <ele>325</ele>
        <time>2017-04-10T15:54:42Z</time>
      </trkpt>
      <trkpt lat="46.18841" lon="2.42562">
        <ele>322</ele>
        <time>2017-04-10T15:54:45Z</time>
      </trkpt>
      <trkpt lat="46.18843" lon="2.42555">
        <ele>322</ele>
        <time>2017-04-10T15:54:48Z</time>
      </trkpt>
      <trkpt lat="46.18845" lon="2.42548">
        <ele>322</ele>
        <time>2017-04-10T15:54:51Z</time>
      </trkpt>
      <trkpt lat="46.18847" lon="2.42539">
        <ele>322</ele>
        <time>2017-04-10T15:54:54Z</time>
      </trkpt>
      <trkpt lat="46.18849" lon="2.42532">
        <ele>322</ele>
        <time>2017-04-10T15:54:57Z</time>
      </trkpt>
      <trkpt lat="46.18853" lon="2.4253">
        <ele>323</ele>
        <time>2017-04-10T15:55:01Z</time>
      </trkpt>
      <trkpt lat="46.18857" lon="2.42526">
        <ele>323</ele>
        <time>2017-04-10T15:55:05Z</time>
      </trkpt>
      <trkpt lat="46.18861" lon="2.42522">
        <ele>323</ele>
        <time>2017-04-10T15:55:08Z</time>
      </trkpt>
      <trkpt lat="46.18866" lon="2.42517">
        <ele>323</ele>
        <time>2017-04-10T15:55:13Z</time>
      </trkpt>
      <trkpt lat="46.1887" lon="2.42515">
        <ele>323</ele>
        <time>2017-04-10T15:55:17Z</time>
      </trkpt>
      <trkpt lat="46.18874" lon="2.42512">
        <ele>323</ele>
        <time>2017-04-10T15:55:21Z</time>
      </trkpt>
      <trkpt lat="46.18877" lon="2.42512">
        <ele>321</ele>
        <time>2017-04-10T15:55:25Z</time>
      </trkpt>
      <trkpt lat="46.18878" lon="2.42511">
        <ele>321</ele>
        <time>2017-04-10T15:55:31Z</time>
      </trkpt>
    </trkseg>
  </trk>
</gpx>